<?xml version="1.0" encoding="UTF-8" standalone="no" ?>
<gpx xmlns="http://www.topografix.com/GPX/1/1" xmlns:xsi="http://www.w3.org/2001/XMLSchema-instance" xsi:schemaLocation="http://www.topografix.com/GPX/1/1 http://www.topografix.com/GPX/1/1/gpx.xsd" version="1.1" creator="VisuGPX - https://www.visugpx.com">
  <metadata>
    <name>Essais</name>
  </metadata>
  <trk>
    <name><![CDATA[20190505234654-w9liT]]></name>
    <trkseg>
      <trkpt lat="45.35244" lon="1.20541">
        <ele>297</ele>
        <time>2012-02-26T08:41:08Z</time>
      </trkpt>
      <trkpt lat="45.35217" lon="1.20544">
        <ele>295</ele>
        <time>2012-02-26T08:41:18Z</time>
      </trkpt>
      <trkpt lat="45.3521" lon="1.20545">
        <ele>295</ele>
        <time>2012-02-26T08:41:21Z</time>
      </trkpt>
      <trkpt lat="45.352" lon="1.20549">
        <ele>294</ele>
        <time>2012-02-26T08:41:24Z</time>
      </trkpt>
      <trkpt lat="45.35194" lon="1.20552">
        <ele>293</ele>
        <time>2012-02-26T08:41:26Z</time>
      </trkpt>
      <trkpt lat="45.35185" lon="1.20557">
        <ele>292</ele>
        <time>2012-02-26T08:41:29Z</time>
      </trkpt>
      <trkpt lat="45.35175" lon="1.20562">
        <ele>291</ele>
        <time>2012-02-26T08:41:32Z</time>
      </trkpt>
      <trkpt lat="45.35169" lon="1.20565">
        <ele>290</ele>
        <time>2012-02-26T08:41:34Z</time>
      </trkpt>
      <trkpt lat="45.35162" lon="1.20568">
        <ele>290</ele>
        <time>2012-02-26T08:41:36Z</time>
      </trkpt>
      <trkpt lat="45.35152" lon="1.20574">
        <ele>289</ele>
        <time>2012-02-26T08:41:39Z</time>
      </trkpt>
      <trkpt lat="45.35141" lon="1.20578">
        <ele>288</ele>
        <time>2012-02-26T08:41:41Z</time>
      </trkpt>
      <trkpt lat="45.35134" lon="1.20582">
        <ele>287</ele>
        <time>2012-02-26T08:41:44Z</time>
      </trkpt>
      <trkpt lat="45.35123" lon="1.20587">
        <ele>287</ele>
        <time>2012-02-26T08:41:46Z</time>
      </trkpt>
      <trkpt lat="45.35115" lon="1.20591">
        <ele>286</ele>
        <time>2012-02-26T08:41:49Z</time>
      </trkpt>
      <trkpt lat="45.35105" lon="1.20595">
        <ele>285</ele>
        <time>2012-02-26T08:41:52Z</time>
      </trkpt>
      <trkpt lat="45.35098" lon="1.20598">
        <ele>284</ele>
        <time>2012-02-26T08:41:54Z</time>
      </trkpt>
      <trkpt lat="45.35091" lon="1.20601">
        <ele>284</ele>
        <time>2012-02-26T08:41:56Z</time>
      </trkpt>
      <trkpt lat="45.3508" lon="1.20605">
        <ele>284</ele>
        <time>2012-02-26T08:41:59Z</time>
      </trkpt>
      <trkpt lat="45.35072" lon="1.20609">
        <ele>283</ele>
        <time>2012-02-26T08:42:01Z</time>
      </trkpt>
      <trkpt lat="45.35067" lon="1.20612">
        <ele>283</ele>
        <time>2012-02-26T08:42:04Z</time>
      </trkpt>
      <trkpt lat="45.35057" lon="1.20616">
        <ele>282</ele>
        <time>2012-02-26T08:42:07Z</time>
      </trkpt>
      <trkpt lat="45.35051" lon="1.20618">
        <ele>282</ele>
        <time>2012-02-26T08:42:09Z</time>
      </trkpt>
      <trkpt lat="45.35042" lon="1.20622">
        <ele>282</ele>
        <time>2012-02-26T08:42:11Z</time>
      </trkpt>
      <trkpt lat="45.35037" lon="1.20628">
        <ele>282</ele>
        <time>2012-02-26T08:42:14Z</time>
      </trkpt>
      <trkpt lat="45.35034" lon="1.20636">
        <ele>282</ele>
        <time>2012-02-26T08:42:16Z</time>
      </trkpt>
      <trkpt lat="45.35033" lon="1.20646">
        <ele>282</ele>
        <time>2012-02-26T08:42:18Z</time>
      </trkpt>
      <trkpt lat="45.35033" lon="1.20658">
        <ele>282</ele>
        <time>2012-02-26T08:42:20Z</time>
      </trkpt>
      <trkpt lat="45.35034" lon="1.20674">
        <ele>282</ele>
        <time>2012-02-26T08:42:23Z</time>
      </trkpt>
      <trkpt lat="45.35034" lon="1.20685">
        <ele>282</ele>
        <time>2012-02-26T08:42:25Z</time>
      </trkpt>
      <trkpt lat="45.35035" lon="1.20695">
        <ele>282</ele>
        <time>2012-02-26T08:42:27Z</time>
      </trkpt>
      <trkpt lat="45.35038" lon="1.20709">
        <ele>282</ele>
        <time>2012-02-26T08:42:30Z</time>
      </trkpt>
      <trkpt lat="45.35038" lon="1.20719">
        <ele>281</ele>
        <time>2012-02-26T08:42:32Z</time>
      </trkpt>
      <trkpt lat="45.35035" lon="1.20734">
        <ele>280</ele>
        <time>2012-02-26T08:42:34Z</time>
      </trkpt>
      <trkpt lat="45.35031" lon="1.20742">
        <ele>279</ele>
        <time>2012-02-26T08:42:36Z</time>
      </trkpt>
      <trkpt lat="45.35026" lon="1.20751">
        <ele>279</ele>
        <time>2012-02-26T08:42:39Z</time>
      </trkpt>
      <trkpt lat="45.3502" lon="1.20758">
        <ele>278</ele>
        <time>2012-02-26T08:42:41Z</time>
      </trkpt>
      <trkpt lat="45.35011" lon="1.20767">
        <ele>277</ele>
        <time>2012-02-26T08:42:43Z</time>
      </trkpt>
      <trkpt lat="45.35005" lon="1.20772">
        <ele>275</ele>
        <time>2012-02-26T08:42:45Z</time>
      </trkpt>
      <trkpt lat="45.34998" lon="1.20778">
        <ele>274</ele>
        <time>2012-02-26T08:42:47Z</time>
      </trkpt>
      <trkpt lat="45.34992" lon="1.20781">
        <ele>273</ele>
        <time>2012-02-26T08:42:50Z</time>
      </trkpt>
      <trkpt lat="45.34981" lon="1.20786">
        <ele>272</ele>
        <time>2012-02-26T08:42:53Z</time>
      </trkpt>
      <trkpt lat="45.34974" lon="1.2079">
        <ele>271</ele>
        <time>2012-02-26T08:42:55Z</time>
      </trkpt>
      <trkpt lat="45.34964" lon="1.20796">
        <ele>269</ele>
        <time>2012-02-26T08:42:58Z</time>
      </trkpt>
      <trkpt lat="45.34955" lon="1.20802">
        <ele>268</ele>
        <time>2012-02-26T08:43:00Z</time>
      </trkpt>
      <trkpt lat="45.34948" lon="1.20807">
        <ele>268</ele>
        <time>2012-02-26T08:43:03Z</time>
      </trkpt>
      <trkpt lat="45.34942" lon="1.20813">
        <ele>267</ele>
        <time>2012-02-26T08:43:05Z</time>
      </trkpt>
      <trkpt lat="45.34934" lon="1.20826">
        <ele>266</ele>
        <time>2012-02-26T08:43:08Z</time>
      </trkpt>
      <trkpt lat="45.34931" lon="1.20835">
        <ele>266</ele>
        <time>2012-02-26T08:43:10Z</time>
      </trkpt>
      <trkpt lat="45.34929" lon="1.20845">
        <ele>266</ele>
        <time>2012-02-26T08:43:12Z</time>
      </trkpt>
      <trkpt lat="45.34928" lon="1.20856">
        <ele>266</ele>
        <time>2012-02-26T08:43:14Z</time>
      </trkpt>
      <trkpt lat="45.34927" lon="1.20867">
        <ele>265</ele>
        <time>2012-02-26T08:43:16Z</time>
      </trkpt>
      <trkpt lat="45.34927" lon="1.20879">
        <ele>265</ele>
        <time>2012-02-26T08:43:18Z</time>
      </trkpt>
      <trkpt lat="45.34927" lon="1.2089">
        <ele>265</ele>
        <time>2012-02-26T08:43:20Z</time>
      </trkpt>
      <trkpt lat="45.34926" lon="1.20901">
        <ele>265</ele>
        <time>2012-02-26T08:43:22Z</time>
      </trkpt>
      <trkpt lat="45.34926" lon="1.20911">
        <ele>265</ele>
        <time>2012-02-26T08:43:24Z</time>
      </trkpt>
      <trkpt lat="45.34927" lon="1.20922">
        <ele>264</ele>
        <time>2012-02-26T08:43:26Z</time>
      </trkpt>
      <trkpt lat="45.34928" lon="1.20933">
        <ele>264</ele>
        <time>2012-02-26T08:43:28Z</time>
      </trkpt>
      <trkpt lat="45.34929" lon="1.20944">
        <ele>264</ele>
        <time>2012-02-26T08:43:30Z</time>
      </trkpt>
      <trkpt lat="45.34932" lon="1.20961">
        <ele>264</ele>
        <time>2012-02-26T08:43:32Z</time>
      </trkpt>
      <trkpt lat="45.34935" lon="1.20972">
        <ele>263</ele>
        <time>2012-02-26T08:43:34Z</time>
      </trkpt>
      <trkpt lat="45.34938" lon="1.20982">
        <ele>262</ele>
        <time>2012-02-26T08:43:36Z</time>
      </trkpt>
      <trkpt lat="45.34941" lon="1.20991">
        <ele>262</ele>
        <time>2012-02-26T08:43:39Z</time>
      </trkpt>
      <trkpt lat="45.34946" lon="1.21004">
        <ele>260</ele>
        <time>2012-02-26T08:43:41Z</time>
      </trkpt>
      <trkpt lat="45.34952" lon="1.21007">
        <ele>259</ele>
        <time>2012-02-26T08:43:44Z</time>
      </trkpt>
      <trkpt lat="45.34967" lon="1.20997">
        <ele>259</ele>
        <time>2012-02-26T08:43:46Z</time>
      </trkpt>
      <trkpt lat="45.34972" lon="1.20989">
        <ele>259</ele>
        <time>2012-02-26T08:43:48Z</time>
      </trkpt>
      <trkpt lat="45.34975" lon="1.2098">
        <ele>259</ele>
        <time>2012-02-26T08:43:50Z</time>
      </trkpt>
      <trkpt lat="45.34979" lon="1.20971">
        <ele>259</ele>
        <time>2012-02-26T08:43:52Z</time>
      </trkpt>
      <trkpt lat="45.34984" lon="1.20963">
        <ele>259</ele>
        <time>2012-02-26T08:43:54Z</time>
      </trkpt>
      <trkpt lat="45.34988" lon="1.20957">
        <ele>259</ele>
        <time>2012-02-26T08:43:56Z</time>
      </trkpt>
      <trkpt lat="45.34993" lon="1.20951">
        <ele>259</ele>
        <time>2012-02-26T08:43:58Z</time>
      </trkpt>
      <trkpt lat="45.34998" lon="1.20943">
        <ele>259</ele>
        <time>2012-02-26T08:44:00Z</time>
      </trkpt>
      <trkpt lat="45.35003" lon="1.20937">
        <ele>259</ele>
        <time>2012-02-26T08:44:02Z</time>
      </trkpt>
      <trkpt lat="45.35009" lon="1.20935">
        <ele>259</ele>
        <time>2012-02-26T08:44:04Z</time>
      </trkpt>
      <trkpt lat="45.35016" lon="1.20933">
        <ele>259</ele>
        <time>2012-02-26T08:44:06Z</time>
      </trkpt>
      <trkpt lat="45.35021" lon="1.20933">
        <ele>259</ele>
        <time>2012-02-26T08:44:09Z</time>
      </trkpt>
      <trkpt lat="45.35031" lon="1.20935">
        <ele>259</ele>
        <time>2012-02-26T08:44:11Z</time>
      </trkpt>
      <trkpt lat="45.35038" lon="1.20938">
        <ele>259</ele>
        <time>2012-02-26T08:44:13Z</time>
      </trkpt>
      <trkpt lat="45.35043" lon="1.2094">
        <ele>260</ele>
        <time>2012-02-26T08:44:15Z</time>
      </trkpt>
      <trkpt lat="45.35047" lon="1.20944">
        <ele>262</ele>
        <time>2012-02-26T08:44:17Z</time>
      </trkpt>
      <trkpt lat="45.35053" lon="1.20947">
        <ele>263</ele>
        <time>2012-02-26T08:44:20Z</time>
      </trkpt>
      <trkpt lat="45.3506" lon="1.20952">
        <ele>265</ele>
        <time>2012-02-26T08:44:22Z</time>
      </trkpt>
      <trkpt lat="45.35064" lon="1.20956">
        <ele>266</ele>
        <time>2012-02-26T08:44:25Z</time>
      </trkpt>
      <trkpt lat="45.35071" lon="1.20965">
        <ele>266</ele>
        <time>2012-02-26T08:44:27Z</time>
      </trkpt>
      <trkpt lat="45.35075" lon="1.20972">
        <ele>267</ele>
        <time>2012-02-26T08:44:30Z</time>
      </trkpt>
      <trkpt lat="45.35081" lon="1.20981">
        <ele>268</ele>
        <time>2012-02-26T08:44:32Z</time>
      </trkpt>
      <trkpt lat="45.35085" lon="1.20987">
        <ele>269</ele>
        <time>2012-02-26T08:44:35Z</time>
      </trkpt>
      <trkpt lat="45.3509" lon="1.20996">
        <ele>270</ele>
        <time>2012-02-26T08:44:37Z</time>
      </trkpt>
      <trkpt lat="45.35094" lon="1.20998">
        <ele>270</ele>
        <time>2012-02-26T08:44:40Z</time>
      </trkpt>
      <trkpt lat="45.35098" lon="1.20991">
        <ele>270</ele>
        <time>2012-02-26T08:44:42Z</time>
      </trkpt>
      <trkpt lat="45.35098" lon="1.20983">
        <ele>270</ele>
        <time>2012-02-26T08:44:45Z</time>
      </trkpt>
      <trkpt lat="45.35097" lon="1.20967">
        <ele>270</ele>
        <time>2012-02-26T08:44:47Z</time>
      </trkpt>
      <trkpt lat="45.35098" lon="1.20958">
        <ele>270</ele>
        <time>2012-02-26T08:44:49Z</time>
      </trkpt>
      <trkpt lat="45.351" lon="1.20949">
        <ele>270</ele>
        <time>2012-02-26T08:44:51Z</time>
      </trkpt>
      <trkpt lat="45.35101" lon="1.2094">
        <ele>270</ele>
        <time>2012-02-26T08:44:53Z</time>
      </trkpt>
      <trkpt lat="45.351" lon="1.20931">
        <ele>268</ele>
        <time>2012-02-26T08:44:55Z</time>
      </trkpt>
      <trkpt lat="45.35098" lon="1.20924">
        <ele>266</ele>
        <time>2012-02-26T08:44:58Z</time>
      </trkpt>
      <trkpt lat="45.35094" lon="1.20917">
        <ele>264</ele>
        <time>2012-02-26T08:45:00Z</time>
      </trkpt>
      <trkpt lat="45.35089" lon="1.20913">
        <ele>262</ele>
        <time>2012-02-26T08:45:02Z</time>
      </trkpt>
      <trkpt lat="45.35082" lon="1.20906">
        <ele>259</ele>
        <time>2012-02-26T08:45:04Z</time>
      </trkpt>
      <trkpt lat="45.35076" lon="1.20901">
        <ele>259</ele>
        <time>2012-02-26T08:45:07Z</time>
      </trkpt>
      <trkpt lat="45.35071" lon="1.20895">
        <ele>258</ele>
        <time>2012-02-26T08:45:09Z</time>
      </trkpt>
      <trkpt lat="45.35064" lon="1.20886">
        <ele>257</ele>
        <time>2012-02-26T08:45:12Z</time>
      </trkpt>
      <trkpt lat="45.35062" lon="1.20877">
        <ele>257</ele>
        <time>2012-02-26T08:45:14Z</time>
      </trkpt>
      <trkpt lat="45.35062" lon="1.20865">
        <ele>256</ele>
        <time>2012-02-26T08:45:17Z</time>
      </trkpt>
      <trkpt lat="45.35062" lon="1.20858">
        <ele>255</ele>
        <time>2012-02-26T08:45:19Z</time>
      </trkpt>
      <trkpt lat="45.35067" lon="1.20857">
        <ele>255</ele>
        <time>2012-02-26T08:45:22Z</time>
      </trkpt>
      <trkpt lat="45.35074" lon="1.20855">
        <ele>253</ele>
        <time>2012-02-26T08:45:24Z</time>
      </trkpt>
      <trkpt lat="45.35078" lon="1.20852">
        <ele>252</ele>
        <time>2012-02-26T08:45:27Z</time>
      </trkpt>
      <trkpt lat="45.35083" lon="1.2085">
        <ele>251</ele>
        <time>2012-02-26T08:45:29Z</time>
      </trkpt>
      <trkpt lat="45.35088" lon="1.20847">
        <ele>250</ele>
        <time>2012-02-26T08:45:32Z</time>
      </trkpt>
      <trkpt lat="45.35095" lon="1.20844">
        <ele>248</ele>
        <time>2012-02-26T08:45:34Z</time>
      </trkpt>
      <trkpt lat="45.35101" lon="1.20841">
        <ele>246</ele>
        <time>2012-02-26T08:45:37Z</time>
      </trkpt>
      <trkpt lat="45.35106" lon="1.20837">
        <ele>244</ele>
        <time>2012-02-26T08:45:39Z</time>
      </trkpt>
      <trkpt lat="45.3511" lon="1.20832">
        <ele>244</ele>
        <time>2012-02-26T08:45:42Z</time>
      </trkpt>
      <trkpt lat="45.35117" lon="1.20826">
        <ele>244</ele>
        <time>2012-02-26T08:45:44Z</time>
      </trkpt>
      <trkpt lat="45.35125" lon="1.2082">
        <ele>244</ele>
        <time>2012-02-26T08:45:46Z</time>
      </trkpt>
      <trkpt lat="45.35132" lon="1.20814">
        <ele>244</ele>
        <time>2012-02-26T08:45:48Z</time>
      </trkpt>
      <trkpt lat="45.35136" lon="1.20811">
        <ele>246</ele>
        <time>2012-02-26T08:45:50Z</time>
      </trkpt>
      <trkpt lat="45.3514" lon="1.20809">
        <ele>247</ele>
        <time>2012-02-26T08:45:53Z</time>
      </trkpt>
      <trkpt lat="45.35147" lon="1.20807">
        <ele>249</ele>
        <time>2012-02-26T08:45:55Z</time>
      </trkpt>
      <trkpt lat="45.35152" lon="1.20803">
        <ele>251</ele>
        <time>2012-02-26T08:45:58Z</time>
      </trkpt>
      <trkpt lat="45.35158" lon="1.20797">
        <ele>254</ele>
        <time>2012-02-26T08:46:00Z</time>
      </trkpt>
      <trkpt lat="45.35162" lon="1.20794">
        <ele>254</ele>
        <time>2012-02-26T08:46:03Z</time>
      </trkpt>
      <trkpt lat="45.35167" lon="1.20788">
        <ele>255</ele>
        <time>2012-02-26T08:46:05Z</time>
      </trkpt>
      <trkpt lat="45.35171" lon="1.20783">
        <ele>256</ele>
        <time>2012-02-26T08:46:08Z</time>
      </trkpt>
      <trkpt lat="45.35177" lon="1.20775">
        <ele>259</ele>
        <time>2012-02-26T08:46:10Z</time>
      </trkpt>
      <trkpt lat="45.35179" lon="1.20769">
        <ele>261</ele>
        <time>2012-02-26T08:46:13Z</time>
      </trkpt>
      <trkpt lat="45.3518" lon="1.20766">
        <ele>263</ele>
        <time>2012-02-26T08:46:15Z</time>
      </trkpt>
      <trkpt lat="45.35182" lon="1.20757">
        <ele>264</ele>
        <time>2012-02-26T08:46:18Z</time>
      </trkpt>
      <trkpt lat="45.35184" lon="1.20749">
        <ele>264</ele>
        <time>2012-02-26T08:46:20Z</time>
      </trkpt>
      <trkpt lat="45.35185" lon="1.20744">
        <ele>265</ele>
        <time>2012-02-26T08:46:23Z</time>
      </trkpt>
      <trkpt lat="45.35187" lon="1.20738">
        <ele>267</ele>
        <time>2012-02-26T08:46:26Z</time>
      </trkpt>
      <trkpt lat="45.35188" lon="1.20732">
        <ele>268</ele>
        <time>2012-02-26T08:46:28Z</time>
      </trkpt>
      <trkpt lat="45.35191" lon="1.20724">
        <ele>269</ele>
        <time>2012-02-26T08:46:30Z</time>
      </trkpt>
      <trkpt lat="45.35193" lon="1.20719">
        <ele>270</ele>
        <time>2012-02-26T08:46:33Z</time>
      </trkpt>
      <trkpt lat="45.35196" lon="1.20712">
        <ele>270</ele>
        <time>2012-02-26T08:46:35Z</time>
      </trkpt>
      <trkpt lat="45.35198" lon="1.20707">
        <ele>271</ele>
        <time>2012-02-26T08:46:38Z</time>
      </trkpt>
      <trkpt lat="45.35199" lon="1.20699">
        <ele>271</ele>
        <time>2012-02-26T08:46:40Z</time>
      </trkpt>
      <trkpt lat="45.35201" lon="1.20693">
        <ele>272</ele>
        <time>2012-02-26T08:46:43Z</time>
      </trkpt>
      <trkpt lat="45.35202" lon="1.20684">
        <ele>274</ele>
        <time>2012-02-26T08:46:45Z</time>
      </trkpt>
      <trkpt lat="45.35203" lon="1.20677">
        <ele>275</ele>
        <time>2012-02-26T08:46:47Z</time>
      </trkpt>
      <trkpt lat="45.35204" lon="1.2067">
        <ele>276</ele>
        <time>2012-02-26T08:46:50Z</time>
      </trkpt>
      <trkpt lat="45.35206" lon="1.2066">
        <ele>277</ele>
        <time>2012-02-26T08:46:52Z</time>
      </trkpt>
      <trkpt lat="45.35206" lon="1.20652">
        <ele>277</ele>
        <time>2012-02-26T08:46:54Z</time>
      </trkpt>
      <trkpt lat="45.35206" lon="1.20645">
        <ele>277</ele>
        <time>2012-02-26T08:46:56Z</time>
      </trkpt>
      <trkpt lat="45.35206" lon="1.20638">
        <ele>277</ele>
        <time>2012-02-26T08:46:59Z</time>
      </trkpt>
      <trkpt lat="45.35206" lon="1.20629">
        <ele>279</ele>
        <time>2012-02-26T08:47:01Z</time>
      </trkpt>
      <trkpt lat="45.35206" lon="1.20623">
        <ele>280</ele>
        <time>2012-02-26T08:47:04Z</time>
      </trkpt>
      <trkpt lat="45.35204" lon="1.20616">
        <ele>280</ele>
        <time>2012-02-26T08:47:06Z</time>
      </trkpt>
      <trkpt lat="45.35202" lon="1.20606">
        <ele>281</ele>
        <time>2012-02-26T08:47:09Z</time>
      </trkpt>
      <trkpt lat="45.35199" lon="1.20594">
        <ele>282</ele>
        <time>2012-02-26T08:47:11Z</time>
      </trkpt>
      <trkpt lat="45.35197" lon="1.20585">
        <ele>283</ele>
        <time>2012-02-26T08:47:13Z</time>
      </trkpt>
      <trkpt lat="45.35195" lon="1.20577">
        <ele>284</ele>
        <time>2012-02-26T08:47:15Z</time>
      </trkpt>
      <trkpt lat="45.35192" lon="1.20568">
        <ele>284</ele>
        <time>2012-02-26T08:47:17Z</time>
      </trkpt>
      <trkpt lat="45.3519" lon="1.20559">
        <ele>285</ele>
        <time>2012-02-26T08:47:20Z</time>
      </trkpt>
      <trkpt lat="45.35195" lon="1.20549">
        <ele>285</ele>
        <time>2012-02-26T08:47:22Z</time>
      </trkpt>
      <trkpt lat="45.35201" lon="1.20547">
        <ele>285</ele>
        <time>2012-02-26T08:47:25Z</time>
      </trkpt>
      <trkpt lat="45.35209" lon="1.20546">
        <ele>285</ele>
        <time>2012-02-26T08:47:27Z</time>
      </trkpt>
      <trkpt lat="45.35215" lon="1.20546">
        <ele>285</ele>
        <time>2012-02-26T08:47:30Z</time>
      </trkpt>
      <trkpt lat="45.35225" lon="1.20543">
        <ele>285</ele>
        <time>2012-02-26T08:47:32Z</time>
      </trkpt>
      <trkpt lat="45.3523" lon="1.20542">
        <ele>286</ele>
        <time>2012-02-26T08:47:35Z</time>
      </trkpt>
      <trkpt lat="45.35238" lon="1.20539">
        <ele>287</ele>
        <time>2012-02-26T08:47:37Z</time>
      </trkpt>
      <trkpt lat="45.35242" lon="1.20535">
        <ele>287</ele>
        <time>2012-02-26T08:47:40Z</time>
      </trkpt>
      <trkpt lat="45.35242" lon="1.2052">
        <ele>288</ele>
        <time>2012-02-26T08:47:42Z</time>
      </trkpt>
      <trkpt lat="45.3524" lon="1.2051">
        <ele>289</ele>
        <time>2012-02-26T08:47:45Z</time>
      </trkpt>
      <trkpt lat="45.3524" lon="1.205">
        <ele>290</ele>
        <time>2012-02-26T08:47:47Z</time>
      </trkpt>
      <trkpt lat="45.35243" lon="1.20484">
        <ele>290</ele>
        <time>2012-02-26T08:47:50Z</time>
      </trkpt>
      <trkpt lat="45.35246" lon="1.2047">
        <ele>290</ele>
        <time>2012-02-26T08:47:52Z</time>
      </trkpt>
      <trkpt lat="45.35249" lon="1.2046">
        <ele>290</ele>
        <time>2012-02-26T08:47:55Z</time>
      </trkpt>
      <trkpt lat="45.35254" lon="1.20448">
        <ele>290</ele>
        <time>2012-02-26T08:47:57Z</time>
      </trkpt>
      <trkpt lat="45.35257" lon="1.20439">
        <ele>290</ele>
        <time>2012-02-26T08:48:00Z</time>
      </trkpt>
      <trkpt lat="45.35259" lon="1.20424">
        <ele>290</ele>
        <time>2012-02-26T08:48:02Z</time>
      </trkpt>
      <trkpt lat="45.35259" lon="1.20414">
        <ele>290</ele>
        <time>2012-02-26T08:48:05Z</time>
      </trkpt>
      <trkpt lat="45.35259" lon="1.204">
        <ele>290</ele>
        <time>2012-02-26T08:48:07Z</time>
      </trkpt>
      <trkpt lat="45.3526" lon="1.20389">
        <ele>290</ele>
        <time>2012-02-26T08:48:10Z</time>
      </trkpt>
      <trkpt lat="45.35261" lon="1.20374">
        <ele>290</ele>
        <time>2012-02-26T08:48:12Z</time>
      </trkpt>
      <trkpt lat="45.35262" lon="1.20365">
        <ele>290</ele>
        <time>2012-02-26T08:48:15Z</time>
      </trkpt>
      <trkpt lat="45.35267" lon="1.2035">
        <ele>290</ele>
        <time>2012-02-26T08:48:17Z</time>
      </trkpt>
      <trkpt lat="45.35272" lon="1.20341">
        <ele>290</ele>
        <time>2012-02-26T08:48:20Z</time>
      </trkpt>
      <trkpt lat="45.35276" lon="1.20326">
        <ele>290</ele>
        <time>2012-02-26T08:48:22Z</time>
      </trkpt>
      <trkpt lat="45.35278" lon="1.20316">
        <ele>290</ele>
        <time>2012-02-26T08:48:24Z</time>
      </trkpt>
      <trkpt lat="45.3528" lon="1.20305">
        <ele>289</ele>
        <time>2012-02-26T08:48:26Z</time>
      </trkpt>
      <trkpt lat="45.35281" lon="1.20295">
        <ele>288</ele>
        <time>2012-02-26T08:48:28Z</time>
      </trkpt>
      <trkpt lat="45.35282" lon="1.20284">
        <ele>288</ele>
        <time>2012-02-26T08:48:31Z</time>
      </trkpt>
      <trkpt lat="45.35282" lon="1.20267">
        <ele>286</ele>
        <time>2012-02-26T08:48:33Z</time>
      </trkpt>
      <trkpt lat="45.35282" lon="1.20256">
        <ele>285</ele>
        <time>2012-02-26T08:48:36Z</time>
      </trkpt>
      <trkpt lat="45.35281" lon="1.20238">
        <ele>284</ele>
        <time>2012-02-26T08:48:38Z</time>
      </trkpt>
      <trkpt lat="45.35281" lon="1.20225">
        <ele>282</ele>
        <time>2012-02-26T08:48:41Z</time>
      </trkpt>
      <trkpt lat="45.35281" lon="1.20208">
        <ele>281</ele>
        <time>2012-02-26T08:48:43Z</time>
      </trkpt>
      <trkpt lat="45.3528" lon="1.20195">
        <ele>280</ele>
        <time>2012-02-26T08:48:46Z</time>
      </trkpt>
      <trkpt lat="45.3528" lon="1.20177">
        <ele>278</ele>
        <time>2012-02-26T08:48:48Z</time>
      </trkpt>
      <trkpt lat="45.3528" lon="1.20164">
        <ele>276</ele>
        <time>2012-02-26T08:48:51Z</time>
      </trkpt>
      <trkpt lat="45.35282" lon="1.20149">
        <ele>274</ele>
        <time>2012-02-26T08:48:53Z</time>
      </trkpt>
      <trkpt lat="45.35283" lon="1.20139">
        <ele>273</ele>
        <time>2012-02-26T08:48:56Z</time>
      </trkpt>
      <trkpt lat="45.35283" lon="1.20124">
        <ele>270</ele>
        <time>2012-02-26T08:48:58Z</time>
      </trkpt>
      <trkpt lat="45.35281" lon="1.20112">
        <ele>269</ele>
        <time>2012-02-26T08:49:01Z</time>
      </trkpt>
      <trkpt lat="45.35278" lon="1.20096">
        <ele>268</ele>
        <time>2012-02-26T08:49:03Z</time>
      </trkpt>
      <trkpt lat="45.35277" lon="1.20084">
        <ele>268</ele>
        <time>2012-02-26T08:49:06Z</time>
      </trkpt>
      <trkpt lat="45.35276" lon="1.20069">
        <ele>266</ele>
        <time>2012-02-26T08:49:09Z</time>
      </trkpt>
      <trkpt lat="45.35275" lon="1.20057">
        <ele>265</ele>
        <time>2012-02-26T08:49:11Z</time>
      </trkpt>
      <trkpt lat="45.35274" lon="1.2004">
        <ele>264</ele>
        <time>2012-02-26T08:49:13Z</time>
      </trkpt>
      <trkpt lat="45.35274" lon="1.2003">
        <ele>263</ele>
        <time>2012-02-26T08:49:16Z</time>
      </trkpt>
      <trkpt lat="45.3527" lon="1.20015">
        <ele>261</ele>
        <time>2012-02-26T08:49:18Z</time>
      </trkpt>
      <trkpt lat="45.35267" lon="1.20004">
        <ele>259</ele>
        <time>2012-02-26T08:49:21Z</time>
      </trkpt>
      <trkpt lat="45.35268" lon="1.19991">
        <ele>256</ele>
        <time>2012-02-26T08:49:23Z</time>
      </trkpt>
      <trkpt lat="45.35276" lon="1.19989">
        <ele>254</ele>
        <time>2012-02-26T08:49:26Z</time>
      </trkpt>
      <trkpt lat="45.35288" lon="1.1999">
        <ele>251</ele>
        <time>2012-02-26T08:49:28Z</time>
      </trkpt>
      <trkpt lat="45.35296" lon="1.1999">
        <ele>249</ele>
        <time>2012-02-26T08:49:31Z</time>
      </trkpt>
      <trkpt lat="45.35306" lon="1.19992">
        <ele>246</ele>
        <time>2012-02-26T08:49:33Z</time>
      </trkpt>
      <trkpt lat="45.35312" lon="1.19992">
        <ele>243</ele>
        <time>2012-02-26T08:49:36Z</time>
      </trkpt>
      <trkpt lat="45.3532" lon="1.19988">
        <ele>240</ele>
        <time>2012-02-26T08:49:38Z</time>
      </trkpt>
      <trkpt lat="45.35326" lon="1.19984">
        <ele>238</ele>
        <time>2012-02-26T08:49:41Z</time>
      </trkpt>
      <trkpt lat="45.35337" lon="1.19979">
        <ele>235</ele>
        <time>2012-02-26T08:49:43Z</time>
      </trkpt>
      <trkpt lat="45.35344" lon="1.19975">
        <ele>233</ele>
        <time>2012-02-26T08:49:46Z</time>
      </trkpt>
      <trkpt lat="45.35356" lon="1.19967">
        <ele>230</ele>
        <time>2012-02-26T08:49:48Z</time>
      </trkpt>
      <trkpt lat="45.35363" lon="1.19963">
        <ele>230</ele>
        <time>2012-02-26T08:49:51Z</time>
      </trkpt>
      <trkpt lat="45.35375" lon="1.19958">
        <ele>229</ele>
        <time>2012-02-26T08:49:53Z</time>
      </trkpt>
      <trkpt lat="45.35383" lon="1.19955">
        <ele>228</ele>
        <time>2012-02-26T08:49:56Z</time>
      </trkpt>
      <trkpt lat="45.35396" lon="1.19953">
        <ele>227</ele>
        <time>2012-02-26T08:49:58Z</time>
      </trkpt>
      <trkpt lat="45.35404" lon="1.19952">
        <ele>227</ele>
        <time>2012-02-26T08:50:01Z</time>
      </trkpt>
      <trkpt lat="45.35416" lon="1.19952">
        <ele>226</ele>
        <time>2012-02-26T08:50:03Z</time>
      </trkpt>
      <trkpt lat="45.35425" lon="1.19951">
        <ele>226</ele>
        <time>2012-02-26T08:50:06Z</time>
      </trkpt>
      <trkpt lat="45.35438" lon="1.19949">
        <ele>224</ele>
        <time>2012-02-26T08:50:09Z</time>
      </trkpt>
      <trkpt lat="45.35447" lon="1.19947">
        <ele>224</ele>
        <time>2012-02-26T08:50:11Z</time>
      </trkpt>
      <trkpt lat="45.3546" lon="1.19941">
        <ele>224</ele>
        <time>2012-02-26T08:50:13Z</time>
      </trkpt>
      <trkpt lat="45.35468" lon="1.19938">
        <ele>223</ele>
        <time>2012-02-26T08:50:15Z</time>
      </trkpt>
      <trkpt lat="45.35476" lon="1.19935">
        <ele>223</ele>
        <time>2012-02-26T08:50:17Z</time>
      </trkpt>
      <trkpt lat="45.35484" lon="1.19932">
        <ele>222</ele>
        <time>2012-02-26T08:50:19Z</time>
      </trkpt>
      <trkpt lat="45.35491" lon="1.19929">
        <ele>221</ele>
        <time>2012-02-26T08:50:21Z</time>
      </trkpt>
      <trkpt lat="45.35499" lon="1.19927">
        <ele>220</ele>
        <time>2012-02-26T08:50:23Z</time>
      </trkpt>
      <trkpt lat="45.35507" lon="1.19924">
        <ele>219</ele>
        <time>2012-02-26T08:50:26Z</time>
      </trkpt>
      <trkpt lat="45.35519" lon="1.19921">
        <ele>217</ele>
        <time>2012-02-26T08:50:28Z</time>
      </trkpt>
      <trkpt lat="45.35527" lon="1.1992">
        <ele>217</ele>
        <time>2012-02-26T08:50:30Z</time>
      </trkpt>
      <trkpt lat="45.35536" lon="1.19918">
        <ele>216</ele>
        <time>2012-02-26T08:50:32Z</time>
      </trkpt>
      <trkpt lat="45.35545" lon="1.19918">
        <ele>215</ele>
        <time>2012-02-26T08:50:34Z</time>
      </trkpt>
      <trkpt lat="45.35553" lon="1.19918">
        <ele>213</ele>
        <time>2012-02-26T08:50:36Z</time>
      </trkpt>
      <trkpt lat="45.35562" lon="1.19918">
        <ele>212</ele>
        <time>2012-02-26T08:50:38Z</time>
      </trkpt>
      <trkpt lat="45.3557" lon="1.19916">
        <ele>211</ele>
        <time>2012-02-26T08:50:41Z</time>
      </trkpt>
      <trkpt lat="45.3558" lon="1.19908">
        <ele>209</ele>
        <time>2012-02-26T08:50:43Z</time>
      </trkpt>
      <trkpt lat="45.35585" lon="1.199">
        <ele>209</ele>
        <time>2012-02-26T08:50:45Z</time>
      </trkpt>
      <trkpt lat="45.35592" lon="1.19893">
        <ele>209</ele>
        <time>2012-02-26T08:50:47Z</time>
      </trkpt>
      <trkpt lat="45.35598" lon="1.19885">
        <ele>209</ele>
        <time>2012-02-26T08:50:49Z</time>
      </trkpt>
      <trkpt lat="45.35605" lon="1.19879">
        <ele>208</ele>
        <time>2012-02-26T08:50:51Z</time>
      </trkpt>
      <trkpt lat="45.35611" lon="1.19878">
        <ele>208</ele>
        <time>2012-02-26T08:50:53Z</time>
      </trkpt>
      <trkpt lat="45.35613" lon="1.19884">
        <ele>206</ele>
        <time>2012-02-26T08:50:55Z</time>
      </trkpt>
      <trkpt lat="45.35614" lon="1.19887">
        <ele>204</ele>
        <time>2012-02-26T08:50:58Z</time>
      </trkpt>
      <trkpt lat="45.35613" lon="1.19891">
        <ele>202</ele>
        <time>2012-02-26T08:51:01Z</time>
      </trkpt>
      <trkpt lat="45.35612" lon="1.19896">
        <ele>201</ele>
        <time>2012-02-26T08:51:03Z</time>
      </trkpt>
      <trkpt lat="45.35611" lon="1.19898">
        <ele>200</ele>
        <time>2012-02-26T08:51:05Z</time>
      </trkpt>
      <trkpt lat="45.35608" lon="1.19898">
        <ele>200</ele>
        <time>2012-02-26T08:51:07Z</time>
      </trkpt>
      <trkpt lat="45.35606" lon="1.19896">
        <ele>199</ele>
        <time>2012-02-26T08:51:11Z</time>
      </trkpt>
      <trkpt lat="45.35603" lon="1.19895">
        <ele>198</ele>
        <time>2012-02-26T08:51:13Z</time>
      </trkpt>
      <trkpt lat="45.356" lon="1.19899">
        <ele>198</ele>
        <time>2012-02-26T08:51:15Z</time>
      </trkpt>
      <trkpt lat="45.35598" lon="1.19903">
        <ele>198</ele>
        <time>2012-02-26T08:51:17Z</time>
      </trkpt>
      <trkpt lat="45.35597" lon="1.19907">
        <ele>198</ele>
        <time>2012-02-26T08:51:20Z</time>
      </trkpt>
      <trkpt lat="45.35593" lon="1.19903">
        <ele>198</ele>
        <time>2012-02-26T08:51:23Z</time>
      </trkpt>
      <trkpt lat="45.3559" lon="1.19901">
        <ele>198</ele>
        <time>2012-02-26T08:51:25Z</time>
      </trkpt>
      <trkpt lat="45.35589" lon="1.19898">
        <ele>198</ele>
        <time>2012-02-26T08:51:27Z</time>
      </trkpt>
      <trkpt lat="45.35587" lon="1.19894">
        <ele>198</ele>
        <time>2012-02-26T08:51:29Z</time>
      </trkpt>
      <trkpt lat="45.35585" lon="1.19885">
        <ele>198</ele>
        <time>2012-02-26T08:51:32Z</time>
      </trkpt>
      <trkpt lat="45.35582" lon="1.19878">
        <ele>198</ele>
        <time>2012-02-26T08:51:35Z</time>
      </trkpt>
      <trkpt lat="45.3558" lon="1.19876">
        <ele>198</ele>
        <time>2012-02-26T08:51:38Z</time>
      </trkpt>
      <trkpt lat="45.35577" lon="1.19869">
        <ele>198</ele>
        <time>2012-02-26T08:51:40Z</time>
      </trkpt>
      <trkpt lat="45.35576" lon="1.19863">
        <ele>197</ele>
        <time>2012-02-26T08:51:43Z</time>
      </trkpt>
      <trkpt lat="45.35574" lon="1.19855">
        <ele>196</ele>
        <time>2012-02-26T08:51:45Z</time>
      </trkpt>
      <trkpt lat="45.35574" lon="1.19852">
        <ele>196</ele>
        <time>2012-02-26T08:51:48Z</time>
      </trkpt>
      <trkpt lat="45.35569" lon="1.19847">
        <ele>195</ele>
        <time>2012-02-26T08:51:50Z</time>
      </trkpt>
      <trkpt lat="45.35567" lon="1.19842">
        <ele>194</ele>
        <time>2012-02-26T08:51:53Z</time>
      </trkpt>
      <trkpt lat="45.35562" lon="1.19836">
        <ele>192</ele>
        <time>2012-02-26T08:51:55Z</time>
      </trkpt>
      <trkpt lat="45.35559" lon="1.19832">
        <ele>190</ele>
        <time>2012-02-26T08:51:58Z</time>
      </trkpt>
      <trkpt lat="45.35551" lon="1.19831">
        <ele>188</ele>
        <time>2012-02-26T08:52:00Z</time>
      </trkpt>
      <trkpt lat="45.35545" lon="1.19828">
        <ele>188</ele>
        <time>2012-02-26T08:52:02Z</time>
      </trkpt>
      <trkpt lat="45.3554" lon="1.19826">
        <ele>188</ele>
        <time>2012-02-26T08:52:04Z</time>
      </trkpt>
      <trkpt lat="45.35535" lon="1.19824">
        <ele>188</ele>
        <time>2012-02-26T08:52:06Z</time>
      </trkpt>
      <trkpt lat="45.35531" lon="1.19823">
        <ele>188</ele>
        <time>2012-02-26T08:52:09Z</time>
      </trkpt>
      <trkpt lat="45.35522" lon="1.19821">
        <ele>188</ele>
        <time>2012-02-26T08:52:11Z</time>
      </trkpt>
      <trkpt lat="45.35517" lon="1.19816">
        <ele>188</ele>
        <time>2012-02-26T08:52:13Z</time>
      </trkpt>
      <trkpt lat="45.35512" lon="1.19813">
        <ele>188</ele>
        <time>2012-02-26T08:52:15Z</time>
      </trkpt>
      <trkpt lat="45.35508" lon="1.19811">
        <ele>188</ele>
        <time>2012-02-26T08:52:17Z</time>
      </trkpt>
      <trkpt lat="45.35503" lon="1.1981">
        <ele>188</ele>
        <time>2012-02-26T08:52:19Z</time>
      </trkpt>
      <trkpt lat="45.35498" lon="1.19807">
        <ele>189</ele>
        <time>2012-02-26T08:52:21Z</time>
      </trkpt>
      <trkpt lat="45.35494" lon="1.19806">
        <ele>190</ele>
        <time>2012-02-26T08:52:23Z</time>
      </trkpt>
      <trkpt lat="45.35489" lon="1.19806">
        <ele>191</ele>
        <time>2012-02-26T08:52:26Z</time>
      </trkpt>
      <trkpt lat="45.35486" lon="1.19812">
        <ele>191</ele>
        <time>2012-02-26T08:52:28Z</time>
      </trkpt>
      <trkpt lat="45.35482" lon="1.19816">
        <ele>192</ele>
        <time>2012-02-26T08:52:30Z</time>
      </trkpt>
      <trkpt lat="45.35478" lon="1.19823">
        <ele>193</ele>
        <time>2012-02-26T08:52:33Z</time>
      </trkpt>
      <trkpt lat="45.35473" lon="1.19823">
        <ele>193</ele>
        <time>2012-02-26T08:52:35Z</time>
      </trkpt>
      <trkpt lat="45.35469" lon="1.19822">
        <ele>193</ele>
        <time>2012-02-26T08:52:37Z</time>
      </trkpt>
      <trkpt lat="45.35466" lon="1.19821">
        <ele>193</ele>
        <time>2012-02-26T08:52:39Z</time>
      </trkpt>
      <trkpt lat="45.35462" lon="1.19819">
        <ele>193</ele>
        <time>2012-02-26T08:52:41Z</time>
      </trkpt>
      <trkpt lat="45.35458" lon="1.19817">
        <ele>193</ele>
        <time>2012-02-26T08:52:43Z</time>
      </trkpt>
      <trkpt lat="45.35455" lon="1.19817">
        <ele>193</ele>
        <time>2012-02-26T08:52:45Z</time>
      </trkpt>
      <trkpt lat="45.35452" lon="1.19818">
        <ele>194</ele>
        <time>2012-02-26T08:52:47Z</time>
      </trkpt>
      <trkpt lat="45.35447" lon="1.19822">
        <ele>194</ele>
        <time>2012-02-26T08:52:49Z</time>
      </trkpt>
      <trkpt lat="45.35442" lon="1.19827">
        <ele>194</ele>
        <time>2012-02-26T08:52:51Z</time>
      </trkpt>
      <trkpt lat="45.35438" lon="1.1983">
        <ele>194</ele>
        <time>2012-02-26T08:52:53Z</time>
      </trkpt>
      <trkpt lat="45.35433" lon="1.19834">
        <ele>194</ele>
        <time>2012-02-26T08:52:55Z</time>
      </trkpt>
      <trkpt lat="45.35428" lon="1.19838">
        <ele>194</ele>
        <time>2012-02-26T08:52:57Z</time>
      </trkpt>
      <trkpt lat="45.35423" lon="1.1984">
        <ele>194</ele>
        <time>2012-02-26T08:52:59Z</time>
      </trkpt>
      <trkpt lat="45.3542" lon="1.1984">
        <ele>194</ele>
        <time>2012-02-26T08:53:01Z</time>
      </trkpt>
      <trkpt lat="45.35416" lon="1.1984">
        <ele>194</ele>
        <time>2012-02-26T08:53:03Z</time>
      </trkpt>
      <trkpt lat="45.35411" lon="1.19842">
        <ele>194</ele>
        <time>2012-02-26T08:53:05Z</time>
      </trkpt>
      <trkpt lat="45.35405" lon="1.19844">
        <ele>194</ele>
        <time>2012-02-26T08:53:07Z</time>
      </trkpt>
      <trkpt lat="45.35399" lon="1.19847">
        <ele>194</ele>
        <time>2012-02-26T08:53:09Z</time>
      </trkpt>
      <trkpt lat="45.35394" lon="1.1985">
        <ele>194</ele>
        <time>2012-02-26T08:53:11Z</time>
      </trkpt>
      <trkpt lat="45.35389" lon="1.19853">
        <ele>194</ele>
        <time>2012-02-26T08:53:14Z</time>
      </trkpt>
      <trkpt lat="45.35384" lon="1.19854">
        <ele>194</ele>
        <time>2012-02-26T08:53:18Z</time>
      </trkpt>
      <trkpt lat="45.35375" lon="1.19856">
        <ele>194</ele>
        <time>2012-02-26T08:53:20Z</time>
      </trkpt>
      <trkpt lat="45.35368" lon="1.19856">
        <ele>194</ele>
        <time>2012-02-26T08:53:22Z</time>
      </trkpt>
      <trkpt lat="45.35361" lon="1.19854">
        <ele>194</ele>
        <time>2012-02-26T08:53:24Z</time>
      </trkpt>
      <trkpt lat="45.35355" lon="1.19856">
        <ele>194</ele>
        <time>2012-02-26T08:53:26Z</time>
      </trkpt>
      <trkpt lat="45.35349" lon="1.19853">
        <ele>194</ele>
        <time>2012-02-26T08:53:28Z</time>
      </trkpt>
      <trkpt lat="45.35346" lon="1.19849">
        <ele>194</ele>
        <time>2012-02-26T08:53:30Z</time>
      </trkpt>
      <trkpt lat="45.35343" lon="1.19848">
        <ele>194</ele>
        <time>2012-02-26T08:53:32Z</time>
      </trkpt>
      <trkpt lat="45.35337" lon="1.19846">
        <ele>194</ele>
        <time>2012-02-26T08:53:34Z</time>
      </trkpt>
      <trkpt lat="45.35331" lon="1.19847">
        <ele>194</ele>
        <time>2012-02-26T08:53:36Z</time>
      </trkpt>
      <trkpt lat="45.35326" lon="1.19844">
        <ele>194</ele>
        <time>2012-02-26T08:53:38Z</time>
      </trkpt>
      <trkpt lat="45.35324" lon="1.1984">
        <ele>194</ele>
        <time>2012-02-26T08:53:40Z</time>
      </trkpt>
      <trkpt lat="45.35323" lon="1.19839">
        <ele>194</ele>
        <time>2012-02-26T08:53:43Z</time>
      </trkpt>
      <trkpt lat="45.3532" lon="1.19836">
        <ele>194</ele>
        <time>2012-02-26T08:53:45Z</time>
      </trkpt>
      <trkpt lat="45.35317" lon="1.19835">
        <ele>194</ele>
        <time>2012-02-26T08:53:47Z</time>
      </trkpt>
      <trkpt lat="45.35314" lon="1.19834">
        <ele>194</ele>
        <time>2012-02-26T08:53:49Z</time>
      </trkpt>
      <trkpt lat="45.35312" lon="1.19832">
        <ele>195</ele>
        <time>2012-02-26T08:53:51Z</time>
      </trkpt>
      <trkpt lat="45.35309" lon="1.1983">
        <ele>197</ele>
        <time>2012-02-26T08:53:53Z</time>
      </trkpt>
      <trkpt lat="45.35307" lon="1.19826">
        <ele>200</ele>
        <time>2012-02-26T08:53:56Z</time>
      </trkpt>
      <trkpt lat="45.35305" lon="1.19825">
        <ele>201</ele>
        <time>2012-02-26T08:53:59Z</time>
      </trkpt>
      <trkpt lat="45.35303" lon="1.19825">
        <ele>202</ele>
        <time>2012-02-26T08:54:01Z</time>
      </trkpt>
      <trkpt lat="45.35302" lon="1.19824">
        <ele>205</ele>
        <time>2012-02-26T08:54:07Z</time>
      </trkpt>
      <trkpt lat="45.35299" lon="1.19823">
        <ele>206</ele>
        <time>2012-02-26T08:54:09Z</time>
      </trkpt>
      <trkpt lat="45.35294" lon="1.19821">
        <ele>206</ele>
        <time>2012-02-26T08:54:11Z</time>
      </trkpt>
      <trkpt lat="45.35291" lon="1.19821">
        <ele>207</ele>
        <time>2012-02-26T08:54:13Z</time>
      </trkpt>
      <trkpt lat="45.35289" lon="1.19822">
        <ele>207</ele>
        <time>2012-02-26T08:54:15Z</time>
      </trkpt>
      <trkpt lat="45.35288" lon="1.19827">
        <ele>208</ele>
        <time>2012-02-26T08:54:18Z</time>
      </trkpt>
      <trkpt lat="45.35285" lon="1.19832">
        <ele>208</ele>
        <time>2012-02-26T08:54:21Z</time>
      </trkpt>
      <trkpt lat="45.35284" lon="1.19833">
        <ele>208</ele>
        <time>2012-02-26T08:54:23Z</time>
      </trkpt>
      <trkpt lat="45.35284" lon="1.19831">
        <ele>208</ele>
        <time>2012-02-26T08:54:28Z</time>
      </trkpt>
      <trkpt lat="45.35283" lon="1.19831">
        <ele>208</ele>
        <time>2012-02-26T08:54:30Z</time>
      </trkpt>
      <trkpt lat="45.35281" lon="1.19833">
        <ele>206</ele>
        <time>2012-02-26T08:54:36Z</time>
      </trkpt>
      <trkpt lat="45.3528" lon="1.19833">
        <ele>203</ele>
        <time>2012-02-26T08:54:38Z</time>
      </trkpt>
      <trkpt lat="45.35278" lon="1.19836">
        <ele>202</ele>
        <time>2012-02-26T08:54:40Z</time>
      </trkpt>
      <trkpt lat="45.35278" lon="1.19838">
        <ele>200</ele>
        <time>2012-02-26T08:54:42Z</time>
      </trkpt>
      <trkpt lat="45.35275" lon="1.19839">
        <ele>198</ele>
        <time>2012-02-26T08:54:46Z</time>
      </trkpt>
      <trkpt lat="45.35273" lon="1.19837">
        <ele>198</ele>
        <time>2012-02-26T08:54:48Z</time>
      </trkpt>
      <trkpt lat="45.3527" lon="1.19834">
        <ele>198</ele>
        <time>2012-02-26T08:54:50Z</time>
      </trkpt>
      <trkpt lat="45.35266" lon="1.19832">
        <ele>198</ele>
        <time>2012-02-26T08:54:52Z</time>
      </trkpt>
      <trkpt lat="45.35263" lon="1.19831">
        <ele>196</ele>
        <time>2012-02-26T08:54:55Z</time>
      </trkpt>
      <trkpt lat="45.3526" lon="1.19833">
        <ele>194</ele>
        <time>2012-02-26T08:54:57Z</time>
      </trkpt>
      <trkpt lat="45.35257" lon="1.19832">
        <ele>193</ele>
        <time>2012-02-26T08:54:59Z</time>
      </trkpt>
      <trkpt lat="45.35255" lon="1.19829">
        <ele>193</ele>
        <time>2012-02-26T08:55:01Z</time>
      </trkpt>
      <trkpt lat="45.35253" lon="1.19829">
        <ele>193</ele>
        <time>2012-02-26T08:55:03Z</time>
      </trkpt>
      <trkpt lat="45.3525" lon="1.19833">
        <ele>193</ele>
        <time>2012-02-26T08:55:05Z</time>
      </trkpt>
      <trkpt lat="45.35247" lon="1.19836">
        <ele>193</ele>
        <time>2012-02-26T08:55:07Z</time>
      </trkpt>
      <trkpt lat="45.35243" lon="1.19836">
        <ele>193</ele>
        <time>2012-02-26T08:55:09Z</time>
      </trkpt>
      <trkpt lat="45.35237" lon="1.19836">
        <ele>193</ele>
        <time>2012-02-26T08:55:11Z</time>
      </trkpt>
      <trkpt lat="45.35231" lon="1.19834">
        <ele>193</ele>
        <time>2012-02-26T08:55:13Z</time>
      </trkpt>
      <trkpt lat="45.35224" lon="1.19835">
        <ele>193</ele>
        <time>2012-02-26T08:55:15Z</time>
      </trkpt>
      <trkpt lat="45.35219" lon="1.19833">
        <ele>193</ele>
        <time>2012-02-26T08:55:17Z</time>
      </trkpt>
      <trkpt lat="45.35214" lon="1.19834">
        <ele>193</ele>
        <time>2012-02-26T08:55:19Z</time>
      </trkpt>
      <trkpt lat="45.35208" lon="1.19833">
        <ele>193</ele>
        <time>2012-02-26T08:55:21Z</time>
      </trkpt>
      <trkpt lat="45.35203" lon="1.19832">
        <ele>193</ele>
        <time>2012-02-26T08:55:23Z</time>
      </trkpt>
      <trkpt lat="45.35197" lon="1.19834">
        <ele>193</ele>
        <time>2012-02-26T08:55:25Z</time>
      </trkpt>
      <trkpt lat="45.35192" lon="1.19835">
        <ele>193</ele>
        <time>2012-02-26T08:55:27Z</time>
      </trkpt>
      <trkpt lat="45.35187" lon="1.19835">
        <ele>193</ele>
        <time>2012-02-26T08:55:29Z</time>
      </trkpt>
      <trkpt lat="45.35185" lon="1.19838">
        <ele>193</ele>
        <time>2012-02-26T08:55:32Z</time>
      </trkpt>
      <trkpt lat="45.35182" lon="1.19842">
        <ele>194</ele>
        <time>2012-02-26T08:55:34Z</time>
      </trkpt>
      <trkpt lat="45.35178" lon="1.19843">
        <ele>197</ele>
        <time>2012-02-26T08:55:37Z</time>
      </trkpt>
      <trkpt lat="45.35174" lon="1.19847">
        <ele>200</ele>
        <time>2012-02-26T08:55:40Z</time>
      </trkpt>
      <trkpt lat="45.3517" lon="1.19847">
        <ele>202</ele>
        <time>2012-02-26T08:55:42Z</time>
      </trkpt>
      <trkpt lat="45.35168" lon="1.1985">
        <ele>204</ele>
        <time>2012-02-26T08:55:44Z</time>
      </trkpt>
      <trkpt lat="45.35163" lon="1.19851">
        <ele>207</ele>
        <time>2012-02-26T08:55:47Z</time>
      </trkpt>
      <trkpt lat="45.35162" lon="1.19851">
        <ele>210</ele>
        <time>2012-02-26T08:55:50Z</time>
      </trkpt>
      <trkpt lat="45.35163" lon="1.19855">
        <ele>212</ele>
        <time>2012-02-26T08:55:52Z</time>
      </trkpt>
      <trkpt lat="45.3516" lon="1.19862">
        <ele>214</ele>
        <time>2012-02-26T08:55:54Z</time>
      </trkpt>
      <trkpt lat="45.35159" lon="1.19869">
        <ele>214</ele>
        <time>2012-02-26T08:55:56Z</time>
      </trkpt>
      <trkpt lat="45.35157" lon="1.19874">
        <ele>214</ele>
        <time>2012-02-26T08:55:59Z</time>
      </trkpt>
      <trkpt lat="45.35156" lon="1.1988">
        <ele>214</ele>
        <time>2012-02-26T08:56:01Z</time>
      </trkpt>
      <trkpt lat="45.35153" lon="1.19886">
        <ele>214</ele>
        <time>2012-02-26T08:56:03Z</time>
      </trkpt>
      <trkpt lat="45.35152" lon="1.19888">
        <ele>214</ele>
        <time>2012-02-26T08:56:05Z</time>
      </trkpt>
      <trkpt lat="45.35152" lon="1.19893">
        <ele>214</ele>
        <time>2012-02-26T08:56:07Z</time>
      </trkpt>
      <trkpt lat="45.35153" lon="1.19898">
        <ele>215</ele>
        <time>2012-02-26T08:56:09Z</time>
      </trkpt>
      <trkpt lat="45.35152" lon="1.19905">
        <ele>216</ele>
        <time>2012-02-26T08:56:11Z</time>
      </trkpt>
      <trkpt lat="45.35151" lon="1.19912">
        <ele>217</ele>
        <time>2012-02-26T08:56:13Z</time>
      </trkpt>
      <trkpt lat="45.35149" lon="1.19918">
        <ele>218</ele>
        <time>2012-02-26T08:56:15Z</time>
      </trkpt>
      <trkpt lat="45.35149" lon="1.19927">
        <ele>218</ele>
        <time>2012-02-26T08:56:17Z</time>
      </trkpt>
      <trkpt lat="45.35149" lon="1.1993">
        <ele>218</ele>
        <time>2012-02-26T08:56:19Z</time>
      </trkpt>
      <trkpt lat="45.35149" lon="1.19938">
        <ele>218</ele>
        <time>2012-02-26T08:56:21Z</time>
      </trkpt>
      <trkpt lat="45.35146" lon="1.19946">
        <ele>218</ele>
        <time>2012-02-26T08:56:23Z</time>
      </trkpt>
      <trkpt lat="45.35144" lon="1.19954">
        <ele>218</ele>
        <time>2012-02-26T08:56:25Z</time>
      </trkpt>
      <trkpt lat="45.35144" lon="1.19959">
        <ele>218</ele>
        <time>2012-02-26T08:56:27Z</time>
      </trkpt>
      <trkpt lat="45.35141" lon="1.19964">
        <ele>218</ele>
        <time>2012-02-26T08:56:29Z</time>
      </trkpt>
      <trkpt lat="45.35138" lon="1.1997">
        <ele>218</ele>
        <time>2012-02-26T08:56:31Z</time>
      </trkpt>
      <trkpt lat="45.35135" lon="1.19974">
        <ele>218</ele>
        <time>2012-02-26T08:56:33Z</time>
      </trkpt>
      <trkpt lat="45.35132" lon="1.19978">
        <ele>218</ele>
        <time>2012-02-26T08:56:35Z</time>
      </trkpt>
      <trkpt lat="45.35131" lon="1.1998">
        <ele>218</ele>
        <time>2012-02-26T08:56:37Z</time>
      </trkpt>
      <trkpt lat="45.35129" lon="1.19984">
        <ele>215</ele>
        <time>2012-02-26T08:56:40Z</time>
      </trkpt>
      <trkpt lat="45.35127" lon="1.1999">
        <ele>214</ele>
        <time>2012-02-26T08:56:44Z</time>
      </trkpt>
      <trkpt lat="45.35124" lon="1.19997">
        <ele>213</ele>
        <time>2012-02-26T08:56:46Z</time>
      </trkpt>
      <trkpt lat="45.35122" lon="1.20001">
        <ele>212</ele>
        <time>2012-02-26T08:56:48Z</time>
      </trkpt>
      <trkpt lat="45.35123" lon="1.20005">
        <ele>211</ele>
        <time>2012-02-26T08:56:50Z</time>
      </trkpt>
      <trkpt lat="45.35123" lon="1.20008">
        <ele>207</ele>
        <time>2012-02-26T08:56:54Z</time>
      </trkpt>
      <trkpt lat="45.35125" lon="1.20013">
        <ele>205</ele>
        <time>2012-02-26T08:56:56Z</time>
      </trkpt>
      <trkpt lat="45.35125" lon="1.20019">
        <ele>204</ele>
        <time>2012-02-26T08:56:58Z</time>
      </trkpt>
      <trkpt lat="45.35124" lon="1.20025">
        <ele>203</ele>
        <time>2012-02-26T08:57:00Z</time>
      </trkpt>
      <trkpt lat="45.35125" lon="1.20031">
        <ele>203</ele>
        <time>2012-02-26T08:57:02Z</time>
      </trkpt>
      <trkpt lat="45.35125" lon="1.20036">
        <ele>203</ele>
        <time>2012-02-26T08:57:04Z</time>
      </trkpt>
      <trkpt lat="45.35125" lon="1.20044">
        <ele>203</ele>
        <time>2012-02-26T08:57:06Z</time>
      </trkpt>
      <trkpt lat="45.35127" lon="1.20052">
        <ele>203</ele>
        <time>2012-02-26T08:57:09Z</time>
      </trkpt>
      <trkpt lat="45.35129" lon="1.20061">
        <ele>203</ele>
        <time>2012-02-26T08:57:12Z</time>
      </trkpt>
      <trkpt lat="45.3513" lon="1.20065">
        <ele>203</ele>
        <time>2012-02-26T08:57:15Z</time>
      </trkpt>
      <trkpt lat="45.3513" lon="1.20073">
        <ele>201</ele>
        <time>2012-02-26T08:57:17Z</time>
      </trkpt>
      <trkpt lat="45.35129" lon="1.20077">
        <ele>200</ele>
        <time>2012-02-26T08:57:20Z</time>
      </trkpt>
      <trkpt lat="45.35127" lon="1.20085">
        <ele>200</ele>
        <time>2012-02-26T08:57:22Z</time>
      </trkpt>
      <trkpt lat="45.35127" lon="1.20092">
        <ele>200</ele>
        <time>2012-02-26T08:57:24Z</time>
      </trkpt>
      <trkpt lat="45.35127" lon="1.20097">
        <ele>200</ele>
        <time>2012-02-26T08:57:26Z</time>
      </trkpt>
      <trkpt lat="45.35125" lon="1.20103">
        <ele>199</ele>
        <time>2012-02-26T08:57:28Z</time>
      </trkpt>
      <trkpt lat="45.35123" lon="1.20109">
        <ele>198</ele>
        <time>2012-02-26T08:57:30Z</time>
      </trkpt>
      <trkpt lat="45.35122" lon="1.20118">
        <ele>196</ele>
        <time>2012-02-26T08:57:32Z</time>
      </trkpt>
      <trkpt lat="45.35119" lon="1.20126">
        <ele>194</ele>
        <time>2012-02-26T08:57:34Z</time>
      </trkpt>
      <trkpt lat="45.35114" lon="1.20129">
        <ele>193</ele>
        <time>2012-02-26T08:57:36Z</time>
      </trkpt>
      <trkpt lat="45.35108" lon="1.20131">
        <ele>193</ele>
        <time>2012-02-26T08:57:38Z</time>
      </trkpt>
      <trkpt lat="45.351" lon="1.20131">
        <ele>193</ele>
        <time>2012-02-26T08:57:40Z</time>
      </trkpt>
      <trkpt lat="45.35096" lon="1.20136">
        <ele>193</ele>
        <time>2012-02-26T08:57:42Z</time>
      </trkpt>
      <trkpt lat="45.35093" lon="1.20141">
        <ele>193</ele>
        <time>2012-02-26T08:57:44Z</time>
      </trkpt>
      <trkpt lat="45.35087" lon="1.20146">
        <ele>195</ele>
        <time>2012-02-26T08:57:46Z</time>
      </trkpt>
      <trkpt lat="45.3508" lon="1.2015">
        <ele>197</ele>
        <time>2012-02-26T08:57:48Z</time>
      </trkpt>
      <trkpt lat="45.35072" lon="1.20155">
        <ele>199</ele>
        <time>2012-02-26T08:57:50Z</time>
      </trkpt>
      <trkpt lat="45.35066" lon="1.20159">
        <ele>201</ele>
        <time>2012-02-26T08:57:52Z</time>
      </trkpt>
      <trkpt lat="45.35059" lon="1.20164">
        <ele>203</ele>
        <time>2012-02-26T08:57:54Z</time>
      </trkpt>
      <trkpt lat="45.35053" lon="1.20166">
        <ele>205</ele>
        <time>2012-02-26T08:57:56Z</time>
      </trkpt>
      <trkpt lat="45.35049" lon="1.20169">
        <ele>207</ele>
        <time>2012-02-26T08:57:58Z</time>
      </trkpt>
      <trkpt lat="45.35043" lon="1.20173">
        <ele>207</ele>
        <time>2012-02-26T08:58:00Z</time>
      </trkpt>
      <trkpt lat="45.35037" lon="1.20177">
        <ele>207</ele>
        <time>2012-02-26T08:58:02Z</time>
      </trkpt>
      <trkpt lat="45.35031" lon="1.2018">
        <ele>207</ele>
        <time>2012-02-26T08:58:04Z</time>
      </trkpt>
      <trkpt lat="45.35023" lon="1.20181">
        <ele>207</ele>
        <time>2012-02-26T08:58:06Z</time>
      </trkpt>
      <trkpt lat="45.35017" lon="1.20183">
        <ele>207</ele>
        <time>2012-02-26T08:58:09Z</time>
      </trkpt>
      <trkpt lat="45.3501" lon="1.20185">
        <ele>207</ele>
        <time>2012-02-26T08:58:11Z</time>
      </trkpt>
      <trkpt lat="45.35006" lon="1.20185">
        <ele>207</ele>
        <time>2012-02-26T08:58:13Z</time>
      </trkpt>
      <trkpt lat="45.35003" lon="1.20187">
        <ele>207</ele>
        <time>2012-02-26T08:58:15Z</time>
      </trkpt>
      <trkpt lat="45.34999" lon="1.20188">
        <ele>207</ele>
        <time>2012-02-26T08:58:17Z</time>
      </trkpt>
      <trkpt lat="45.34996" lon="1.20187">
        <ele>207</ele>
        <time>2012-02-26T08:58:20Z</time>
      </trkpt>
      <trkpt lat="45.34992" lon="1.20178">
        <ele>207</ele>
        <time>2012-02-26T08:58:22Z</time>
      </trkpt>
      <trkpt lat="45.3499" lon="1.20172">
        <ele>207</ele>
        <time>2012-02-26T08:58:24Z</time>
      </trkpt>
      <trkpt lat="45.34989" lon="1.20171">
        <ele>207</ele>
        <time>2012-02-26T08:58:26Z</time>
      </trkpt>
      <trkpt lat="45.34989" lon="1.20166">
        <ele>207</ele>
        <time>2012-02-26T08:58:29Z</time>
      </trkpt>
      <trkpt lat="45.34988" lon="1.20162">
        <ele>207</ele>
        <time>2012-02-26T08:58:31Z</time>
      </trkpt>
      <trkpt lat="45.34987" lon="1.20161">
        <ele>208</ele>
        <time>2012-02-26T08:58:36Z</time>
      </trkpt>
      <trkpt lat="45.34985" lon="1.20158">
        <ele>210</ele>
        <time>2012-02-26T08:58:38Z</time>
      </trkpt>
      <trkpt lat="45.34983" lon="1.20155">
        <ele>212</ele>
        <time>2012-02-26T08:58:40Z</time>
      </trkpt>
      <trkpt lat="45.34981" lon="1.20156">
        <ele>214</ele>
        <time>2012-02-26T08:58:42Z</time>
      </trkpt>
      <trkpt lat="45.34979" lon="1.20157">
        <ele>216</ele>
        <time>2012-02-26T08:58:45Z</time>
      </trkpt>
      <trkpt lat="45.34977" lon="1.20153">
        <ele>216</ele>
        <time>2012-02-26T08:58:47Z</time>
      </trkpt>
      <trkpt lat="45.34975" lon="1.20146">
        <ele>216</ele>
        <time>2012-02-26T08:58:49Z</time>
      </trkpt>
      <trkpt lat="45.34972" lon="1.20139">
        <ele>216</ele>
        <time>2012-02-26T08:58:51Z</time>
      </trkpt>
      <trkpt lat="45.34967" lon="1.20133">
        <ele>216</ele>
        <time>2012-02-26T08:58:53Z</time>
      </trkpt>
      <trkpt lat="45.34963" lon="1.20129">
        <ele>216</ele>
        <time>2012-02-26T08:58:55Z</time>
      </trkpt>
      <trkpt lat="45.34959" lon="1.20124">
        <ele>216</ele>
        <time>2012-02-26T08:58:57Z</time>
      </trkpt>
      <trkpt lat="45.34959" lon="1.20121">
        <ele>216</ele>
        <time>2012-02-26T08:58:59Z</time>
      </trkpt>
      <trkpt lat="45.34958" lon="1.20119">
        <ele>216</ele>
        <time>2012-02-26T08:59:01Z</time>
      </trkpt>
      <trkpt lat="45.34953" lon="1.20117">
        <ele>216</ele>
        <time>2012-02-26T08:59:03Z</time>
      </trkpt>
      <trkpt lat="45.34948" lon="1.20115">
        <ele>216</ele>
        <time>2012-02-26T08:59:05Z</time>
      </trkpt>
      <trkpt lat="45.34947" lon="1.20114">
        <ele>216</ele>
        <time>2012-02-26T08:59:07Z</time>
      </trkpt>
      <trkpt lat="45.34945" lon="1.20113">
        <ele>215</ele>
        <time>2012-02-26T08:59:09Z</time>
      </trkpt>
      <trkpt lat="45.34942" lon="1.20113">
        <ele>211</ele>
        <time>2012-02-26T08:59:13Z</time>
      </trkpt>
      <trkpt lat="45.34939" lon="1.20111">
        <ele>209</ele>
        <time>2012-02-26T08:59:15Z</time>
      </trkpt>
      <trkpt lat="45.34937" lon="1.20106">
        <ele>207</ele>
        <time>2012-02-26T08:59:17Z</time>
      </trkpt>
      <trkpt lat="45.34931" lon="1.20103">
        <ele>205</ele>
        <time>2012-02-26T08:59:19Z</time>
      </trkpt>
      <trkpt lat="45.34924" lon="1.20094">
        <ele>204</ele>
        <time>2012-02-26T08:59:21Z</time>
      </trkpt>
      <trkpt lat="45.34921" lon="1.20086">
        <ele>204</ele>
        <time>2012-02-26T08:59:23Z</time>
      </trkpt>
      <trkpt lat="45.34918" lon="1.20077">
        <ele>203</ele>
        <time>2012-02-26T08:59:25Z</time>
      </trkpt>
      <trkpt lat="45.34916" lon="1.20068">
        <ele>202</ele>
        <time>2012-02-26T08:59:27Z</time>
      </trkpt>
      <trkpt lat="45.34916" lon="1.20059">
        <ele>200</ele>
        <time>2012-02-26T08:59:29Z</time>
      </trkpt>
      <trkpt lat="45.34917" lon="1.20047">
        <ele>200</ele>
        <time>2012-02-26T08:59:31Z</time>
      </trkpt>
      <trkpt lat="45.34915" lon="1.20038">
        <ele>200</ele>
        <time>2012-02-26T08:59:33Z</time>
      </trkpt>
      <trkpt lat="45.34915" lon="1.20032">
        <ele>200</ele>
        <time>2012-02-26T08:59:35Z</time>
      </trkpt>
      <trkpt lat="45.34916" lon="1.2002">
        <ele>200</ele>
        <time>2012-02-26T08:59:37Z</time>
      </trkpt>
      <trkpt lat="45.34914" lon="1.2001">
        <ele>200</ele>
        <time>2012-02-26T08:59:39Z</time>
      </trkpt>
      <trkpt lat="45.34913" lon="1.20001">
        <ele>200</ele>
        <time>2012-02-26T08:59:41Z</time>
      </trkpt>
      <trkpt lat="45.34909" lon="1.19992">
        <ele>200</ele>
        <time>2012-02-26T08:59:43Z</time>
      </trkpt>
      <trkpt lat="45.34909" lon="1.19983">
        <ele>200</ele>
        <time>2012-02-26T08:59:45Z</time>
      </trkpt>
      <trkpt lat="45.34907" lon="1.19974">
        <ele>200</ele>
        <time>2012-02-26T08:59:47Z</time>
      </trkpt>
      <trkpt lat="45.34904" lon="1.19965">
        <ele>200</ele>
        <time>2012-02-26T08:59:49Z</time>
      </trkpt>
      <trkpt lat="45.34903" lon="1.19956">
        <ele>200</ele>
        <time>2012-02-26T08:59:51Z</time>
      </trkpt>
      <trkpt lat="45.34905" lon="1.19947">
        <ele>200</ele>
        <time>2012-02-26T08:59:53Z</time>
      </trkpt>
      <trkpt lat="45.34905" lon="1.19938">
        <ele>201</ele>
        <time>2012-02-26T08:59:55Z</time>
      </trkpt>
      <trkpt lat="45.34903" lon="1.19927">
        <ele>202</ele>
        <time>2012-02-26T08:59:57Z</time>
      </trkpt>
      <trkpt lat="45.34903" lon="1.19917">
        <ele>203</ele>
        <time>2012-02-26T08:59:59Z</time>
      </trkpt>
      <trkpt lat="45.34902" lon="1.19908">
        <ele>203</ele>
        <time>2012-02-26T09:00:01Z</time>
      </trkpt>
      <trkpt lat="45.34901" lon="1.19898">
        <ele>203</ele>
        <time>2012-02-26T09:00:03Z</time>
      </trkpt>
      <trkpt lat="45.34897" lon="1.19889">
        <ele>204</ele>
        <time>2012-02-26T09:00:05Z</time>
      </trkpt>
      <trkpt lat="45.34893" lon="1.19881">
        <ele>205</ele>
        <time>2012-02-26T09:00:07Z</time>
      </trkpt>
      <trkpt lat="45.3489" lon="1.19872">
        <ele>207</ele>
        <time>2012-02-26T09:00:09Z</time>
      </trkpt>
      <trkpt lat="45.3489" lon="1.19863">
        <ele>209</ele>
        <time>2012-02-26T09:00:11Z</time>
      </trkpt>
      <trkpt lat="45.34888" lon="1.19854">
        <ele>211</ele>
        <time>2012-02-26T09:00:13Z</time>
      </trkpt>
      <trkpt lat="45.34884" lon="1.19845">
        <ele>212</ele>
        <time>2012-02-26T09:00:15Z</time>
      </trkpt>
      <trkpt lat="45.34879" lon="1.19836">
        <ele>212</ele>
        <time>2012-02-26T09:00:17Z</time>
      </trkpt>
      <trkpt lat="45.34874" lon="1.19826">
        <ele>213</ele>
        <time>2012-02-26T09:00:19Z</time>
      </trkpt>
      <trkpt lat="45.3487" lon="1.19814">
        <ele>215</ele>
        <time>2012-02-26T09:00:21Z</time>
      </trkpt>
      <trkpt lat="45.34866" lon="1.19803">
        <ele>216</ele>
        <time>2012-02-26T09:00:23Z</time>
      </trkpt>
      <trkpt lat="45.34863" lon="1.19794">
        <ele>217</ele>
        <time>2012-02-26T09:00:25Z</time>
      </trkpt>
      <trkpt lat="45.3486" lon="1.19784">
        <ele>217</ele>
        <time>2012-02-26T09:00:27Z</time>
      </trkpt>
      <trkpt lat="45.34859" lon="1.19774">
        <ele>217</ele>
        <time>2012-02-26T09:00:29Z</time>
      </trkpt>
      <trkpt lat="45.34858" lon="1.19765">
        <ele>218</ele>
        <time>2012-02-26T09:00:31Z</time>
      </trkpt>
      <trkpt lat="45.34854" lon="1.19756">
        <ele>218</ele>
        <time>2012-02-26T09:00:33Z</time>
      </trkpt>
      <trkpt lat="45.34851" lon="1.19748">
        <ele>219</ele>
        <time>2012-02-26T09:00:35Z</time>
      </trkpt>
      <trkpt lat="45.34849" lon="1.19741">
        <ele>219</ele>
        <time>2012-02-26T09:00:37Z</time>
      </trkpt>
      <trkpt lat="45.34849" lon="1.19734">
        <ele>219</ele>
        <time>2012-02-26T09:00:40Z</time>
      </trkpt>
      <trkpt lat="45.34845" lon="1.19725">
        <ele>219</ele>
        <time>2012-02-26T09:00:42Z</time>
      </trkpt>
      <trkpt lat="45.34841" lon="1.19718">
        <ele>219</ele>
        <time>2012-02-26T09:00:45Z</time>
      </trkpt>
      <trkpt lat="45.34838" lon="1.19712">
        <ele>219</ele>
        <time>2012-02-26T09:00:47Z</time>
      </trkpt>
      <trkpt lat="45.34837" lon="1.19705">
        <ele>219</ele>
        <time>2012-02-26T09:00:49Z</time>
      </trkpt>
      <trkpt lat="45.34835" lon="1.19696">
        <ele>219</ele>
        <time>2012-02-26T09:00:51Z</time>
      </trkpt>
      <trkpt lat="45.34832" lon="1.19688">
        <ele>219</ele>
        <time>2012-02-26T09:00:53Z</time>
      </trkpt>
      <trkpt lat="45.34829" lon="1.19681">
        <ele>219</ele>
        <time>2012-02-26T09:00:55Z</time>
      </trkpt>
      <trkpt lat="45.34826" lon="1.19673">
        <ele>219</ele>
        <time>2012-02-26T09:00:57Z</time>
      </trkpt>
      <trkpt lat="45.34824" lon="1.19665">
        <ele>219</ele>
        <time>2012-02-26T09:00:59Z</time>
      </trkpt>
      <trkpt lat="45.34821" lon="1.1966">
        <ele>218</ele>
        <time>2012-02-26T09:01:01Z</time>
      </trkpt>
      <trkpt lat="45.34818" lon="1.19654">
        <ele>216</ele>
        <time>2012-02-26T09:01:03Z</time>
      </trkpt>
      <trkpt lat="45.34814" lon="1.19647">
        <ele>214</ele>
        <time>2012-02-26T09:01:05Z</time>
      </trkpt>
      <trkpt lat="45.34812" lon="1.19642">
        <ele>212</ele>
        <time>2012-02-26T09:01:07Z</time>
      </trkpt>
      <trkpt lat="45.34811" lon="1.19635">
        <ele>210</ele>
        <time>2012-02-26T09:01:09Z</time>
      </trkpt>
      <trkpt lat="45.34809" lon="1.19629">
        <ele>206</ele>
        <time>2012-02-26T09:01:11Z</time>
      </trkpt>
      <trkpt lat="45.34806" lon="1.19621">
        <ele>202</ele>
        <time>2012-02-26T09:01:13Z</time>
      </trkpt>
      <trkpt lat="45.34802" lon="1.19613">
        <ele>198</ele>
        <time>2012-02-26T09:01:15Z</time>
      </trkpt>
      <trkpt lat="45.34798" lon="1.19607">
        <ele>194</ele>
        <time>2012-02-26T09:01:17Z</time>
      </trkpt>
      <trkpt lat="45.34795" lon="1.196">
        <ele>190</ele>
        <time>2012-02-26T09:01:19Z</time>
      </trkpt>
      <trkpt lat="45.34792" lon="1.19595">
        <ele>187</ele>
        <time>2012-02-26T09:01:21Z</time>
      </trkpt>
      <trkpt lat="45.3479" lon="1.19588">
        <ele>183</ele>
        <time>2012-02-26T09:01:23Z</time>
      </trkpt>
      <trkpt lat="45.34787" lon="1.19581">
        <ele>180</ele>
        <time>2012-02-26T09:01:25Z</time>
      </trkpt>
      <trkpt lat="45.34784" lon="1.19575">
        <ele>177</ele>
        <time>2012-02-26T09:01:27Z</time>
      </trkpt>
      <trkpt lat="45.3478" lon="1.19568">
        <ele>174</ele>
        <time>2012-02-26T09:01:29Z</time>
      </trkpt>
      <trkpt lat="45.34776" lon="1.19559">
        <ele>171</ele>
        <time>2012-02-26T09:01:31Z</time>
      </trkpt>
      <trkpt lat="45.34775" lon="1.19552">
        <ele>169</ele>
        <time>2012-02-26T09:01:33Z</time>
      </trkpt>
      <trkpt lat="45.34775" lon="1.19544">
        <ele>166</ele>
        <time>2012-02-26T09:01:35Z</time>
      </trkpt>
      <trkpt lat="45.34772" lon="1.19538">
        <ele>163</ele>
        <time>2012-02-26T09:01:37Z</time>
      </trkpt>
      <trkpt lat="45.34768" lon="1.19534">
        <ele>161</ele>
        <time>2012-02-26T09:01:39Z</time>
      </trkpt>
      <trkpt lat="45.34764" lon="1.19527">
        <ele>159</ele>
        <time>2012-02-26T09:01:41Z</time>
      </trkpt>
      <trkpt lat="45.34759" lon="1.1952">
        <ele>157</ele>
        <time>2012-02-26T09:01:43Z</time>
      </trkpt>
      <trkpt lat="45.34755" lon="1.19512">
        <ele>155</ele>
        <time>2012-02-26T09:01:45Z</time>
      </trkpt>
      <trkpt lat="45.34752" lon="1.19508">
        <ele>153</ele>
        <time>2012-02-26T09:01:47Z</time>
      </trkpt>
      <trkpt lat="45.34748" lon="1.19503">
        <ele>151</ele>
        <time>2012-02-26T09:01:49Z</time>
      </trkpt>
      <trkpt lat="45.34744" lon="1.19499">
        <ele>149</ele>
        <time>2012-02-26T09:01:51Z</time>
      </trkpt>
      <trkpt lat="45.3474" lon="1.19493">
        <ele>147</ele>
        <time>2012-02-26T09:01:53Z</time>
      </trkpt>
      <trkpt lat="45.34736" lon="1.1949">
        <ele>147</ele>
        <time>2012-02-26T09:01:55Z</time>
      </trkpt>
      <trkpt lat="45.3473" lon="1.19487">
        <ele>146</ele>
        <time>2012-02-26T09:01:57Z</time>
      </trkpt>
      <trkpt lat="45.34723" lon="1.19486">
        <ele>146</ele>
        <time>2012-02-26T09:01:59Z</time>
      </trkpt>
      <trkpt lat="45.34714" lon="1.19485">
        <ele>146</ele>
        <time>2012-02-26T09:02:01Z</time>
      </trkpt>
      <trkpt lat="45.34705" lon="1.19482">
        <ele>146</ele>
        <time>2012-02-26T09:02:03Z</time>
      </trkpt>
      <trkpt lat="45.34695" lon="1.1948">
        <ele>147</ele>
        <time>2012-02-26T09:02:05Z</time>
      </trkpt>
      <trkpt lat="45.34686" lon="1.19478">
        <ele>149</ele>
        <time>2012-02-26T09:02:07Z</time>
      </trkpt>
      <trkpt lat="45.34678" lon="1.19473">
        <ele>151</ele>
        <time>2012-02-26T09:02:09Z</time>
      </trkpt>
      <trkpt lat="45.3467" lon="1.19472">
        <ele>153</ele>
        <time>2012-02-26T09:02:11Z</time>
      </trkpt>
      <trkpt lat="45.34658" lon="1.19468">
        <ele>155</ele>
        <time>2012-02-26T09:02:13Z</time>
      </trkpt>
      <trkpt lat="45.34648" lon="1.19463">
        <ele>158</ele>
        <time>2012-02-26T09:02:15Z</time>
      </trkpt>
      <trkpt lat="45.34641" lon="1.1946">
        <ele>162</ele>
        <time>2012-02-26T09:02:17Z</time>
      </trkpt>
      <trkpt lat="45.34636" lon="1.19456">
        <ele>166</ele>
        <time>2012-02-26T09:02:19Z</time>
      </trkpt>
      <trkpt lat="45.34629" lon="1.19452">
        <ele>170</ele>
        <time>2012-02-26T09:02:21Z</time>
      </trkpt>
      <trkpt lat="45.34622" lon="1.19449">
        <ele>174</ele>
        <time>2012-02-26T09:02:23Z</time>
      </trkpt>
      <trkpt lat="45.34617" lon="1.19448">
        <ele>176</ele>
        <time>2012-02-26T09:02:25Z</time>
      </trkpt>
      <trkpt lat="45.34611" lon="1.19449">
        <ele>178</ele>
        <time>2012-02-26T09:02:27Z</time>
      </trkpt>
      <trkpt lat="45.34605" lon="1.19449">
        <ele>180</ele>
        <time>2012-02-26T09:02:29Z</time>
      </trkpt>
      <trkpt lat="45.34599" lon="1.19446">
        <ele>182</ele>
        <time>2012-02-26T09:02:31Z</time>
      </trkpt>
      <trkpt lat="45.34593" lon="1.19443">
        <ele>184</ele>
        <time>2012-02-26T09:02:33Z</time>
      </trkpt>
      <trkpt lat="45.34589" lon="1.19441">
        <ele>184</ele>
        <time>2012-02-26T09:02:35Z</time>
      </trkpt>
      <trkpt lat="45.34584" lon="1.19441">
        <ele>184</ele>
        <time>2012-02-26T09:02:37Z</time>
      </trkpt>
      <trkpt lat="45.34579" lon="1.19439">
        <ele>184</ele>
        <time>2012-02-26T09:02:39Z</time>
      </trkpt>
      <trkpt lat="45.34573" lon="1.19437">
        <ele>184</ele>
        <time>2012-02-26T09:02:41Z</time>
      </trkpt>
      <trkpt lat="45.34568" lon="1.1943">
        <ele>184</ele>
        <time>2012-02-26T09:02:43Z</time>
      </trkpt>
      <trkpt lat="45.34562" lon="1.19429">
        <ele>185</ele>
        <time>2012-02-26T09:02:45Z</time>
      </trkpt>
      <trkpt lat="45.34555" lon="1.1943">
        <ele>186</ele>
        <time>2012-02-26T09:02:47Z</time>
      </trkpt>
      <trkpt lat="45.34549" lon="1.19427">
        <ele>186</ele>
        <time>2012-02-26T09:02:49Z</time>
      </trkpt>
      <trkpt lat="45.34544" lon="1.19427">
        <ele>186</ele>
        <time>2012-02-26T09:02:51Z</time>
      </trkpt>
      <trkpt lat="45.34539" lon="1.19426">
        <ele>186</ele>
        <time>2012-02-26T09:02:53Z</time>
      </trkpt>
      <trkpt lat="45.34533" lon="1.19426">
        <ele>186</ele>
        <time>2012-02-26T09:02:55Z</time>
      </trkpt>
      <trkpt lat="45.34529" lon="1.19426">
        <ele>186</ele>
        <time>2012-02-26T09:02:57Z</time>
      </trkpt>
      <trkpt lat="45.34526" lon="1.19425">
        <ele>187</ele>
        <time>2012-02-26T09:02:59Z</time>
      </trkpt>
      <trkpt lat="45.34523" lon="1.19425">
        <ele>188</ele>
        <time>2012-02-26T09:03:01Z</time>
      </trkpt>
      <trkpt lat="45.3452" lon="1.19425">
        <ele>190</ele>
        <time>2012-02-26T09:03:03Z</time>
      </trkpt>
      <trkpt lat="45.34516" lon="1.19424">
        <ele>192</ele>
        <time>2012-02-26T09:03:05Z</time>
      </trkpt>
      <trkpt lat="45.34513" lon="1.19426">
        <ele>196</ele>
        <time>2012-02-26T09:03:09Z</time>
      </trkpt>
      <trkpt lat="45.34509" lon="1.19431">
        <ele>199</ele>
        <time>2012-02-26T09:03:11Z</time>
      </trkpt>
      <trkpt lat="45.34504" lon="1.19434">
        <ele>201</ele>
        <time>2012-02-26T09:03:13Z</time>
      </trkpt>
      <trkpt lat="45.345" lon="1.19438">
        <ele>203</ele>
        <time>2012-02-26T09:03:15Z</time>
      </trkpt>
      <trkpt lat="45.34497" lon="1.19437">
        <ele>205</ele>
        <time>2012-02-26T09:03:17Z</time>
      </trkpt>
      <trkpt lat="45.34492" lon="1.19436">
        <ele>207</ele>
        <time>2012-02-26T09:03:19Z</time>
      </trkpt>
      <trkpt lat="45.34489" lon="1.19432">
        <ele>209</ele>
        <time>2012-02-26T09:03:21Z</time>
      </trkpt>
      <trkpt lat="45.34489" lon="1.19426">
        <ele>211</ele>
        <time>2012-02-26T09:03:23Z</time>
      </trkpt>
      <trkpt lat="45.34483" lon="1.19425">
        <ele>212</ele>
        <time>2012-02-26T09:03:25Z</time>
      </trkpt>
      <trkpt lat="45.34476" lon="1.19422">
        <ele>212</ele>
        <time>2012-02-26T09:03:27Z</time>
      </trkpt>
      <trkpt lat="45.34472" lon="1.19421">
        <ele>212</ele>
        <time>2012-02-26T09:03:29Z</time>
      </trkpt>
      <trkpt lat="45.34466" lon="1.19421">
        <ele>212</ele>
        <time>2012-02-26T09:03:31Z</time>
      </trkpt>
      <trkpt lat="45.34462" lon="1.19421">
        <ele>212</ele>
        <time>2012-02-26T09:03:33Z</time>
      </trkpt>
      <trkpt lat="45.3446" lon="1.19418">
        <ele>211</ele>
        <time>2012-02-26T09:03:35Z</time>
      </trkpt>
      <trkpt lat="45.34456" lon="1.19415">
        <ele>209</ele>
        <time>2012-02-26T09:03:37Z</time>
      </trkpt>
      <trkpt lat="45.34456" lon="1.19411">
        <ele>207</ele>
        <time>2012-02-26T09:03:39Z</time>
      </trkpt>
      <trkpt lat="45.34452" lon="1.19409">
        <ele>205</ele>
        <time>2012-02-26T09:03:41Z</time>
      </trkpt>
      <trkpt lat="45.34448" lon="1.19407">
        <ele>203</ele>
        <time>2012-02-26T09:03:43Z</time>
      </trkpt>
      <trkpt lat="45.34444" lon="1.19405">
        <ele>201</ele>
        <time>2012-02-26T09:03:45Z</time>
      </trkpt>
      <trkpt lat="45.34442" lon="1.19398">
        <ele>201</ele>
        <time>2012-02-26T09:03:47Z</time>
      </trkpt>
      <trkpt lat="45.34439" lon="1.1939">
        <ele>201</ele>
        <time>2012-02-26T09:03:49Z</time>
      </trkpt>
      <trkpt lat="45.34438" lon="1.19385">
        <ele>201</ele>
        <time>2012-02-26T09:03:51Z</time>
      </trkpt>
      <trkpt lat="45.34438" lon="1.19381">
        <ele>201</ele>
        <time>2012-02-26T09:03:53Z</time>
      </trkpt>
      <trkpt lat="45.34442" lon="1.19372">
        <ele>201</ele>
        <time>2012-02-26T09:03:55Z</time>
      </trkpt>
      <trkpt lat="45.34443" lon="1.19364">
        <ele>202</ele>
        <time>2012-02-26T09:03:57Z</time>
      </trkpt>
      <trkpt lat="45.34442" lon="1.19357">
        <ele>203</ele>
        <time>2012-02-26T09:03:59Z</time>
      </trkpt>
      <trkpt lat="45.34441" lon="1.1935">
        <ele>203</ele>
        <time>2012-02-26T09:04:01Z</time>
      </trkpt>
      <trkpt lat="45.34441" lon="1.19342">
        <ele>203</ele>
        <time>2012-02-26T09:04:03Z</time>
      </trkpt>
      <trkpt lat="45.34439" lon="1.19332">
        <ele>203</ele>
        <time>2012-02-26T09:04:05Z</time>
      </trkpt>
      <trkpt lat="45.34441" lon="1.19324">
        <ele>203</ele>
        <time>2012-02-26T09:04:07Z</time>
      </trkpt>
      <trkpt lat="45.34441" lon="1.19313">
        <ele>203</ele>
        <time>2012-02-26T09:04:09Z</time>
      </trkpt>
      <trkpt lat="45.3444" lon="1.19306">
        <ele>203</ele>
        <time>2012-02-26T09:04:11Z</time>
      </trkpt>
      <trkpt lat="45.34436" lon="1.19303">
        <ele>203</ele>
        <time>2012-02-26T09:04:13Z</time>
      </trkpt>
      <trkpt lat="45.34433" lon="1.19296">
        <ele>203</ele>
        <time>2012-02-26T09:04:15Z</time>
      </trkpt>
      <trkpt lat="45.34434" lon="1.19289">
        <ele>203</ele>
        <time>2012-02-26T09:04:17Z</time>
      </trkpt>
      <trkpt lat="45.34434" lon="1.19282">
        <ele>201</ele>
        <time>2012-02-26T09:04:19Z</time>
      </trkpt>
      <trkpt lat="45.34435" lon="1.19275">
        <ele>199</ele>
        <time>2012-02-26T09:04:21Z</time>
      </trkpt>
      <trkpt lat="45.34437" lon="1.19267">
        <ele>197</ele>
        <time>2012-02-26T09:04:23Z</time>
      </trkpt>
      <trkpt lat="45.34438" lon="1.19259">
        <ele>194</ele>
        <time>2012-02-26T09:04:25Z</time>
      </trkpt>
      <trkpt lat="45.34436" lon="1.19255">
        <ele>192</ele>
        <time>2012-02-26T09:04:27Z</time>
      </trkpt>
      <trkpt lat="45.34433" lon="1.19253">
        <ele>190</ele>
        <time>2012-02-26T09:04:29Z</time>
      </trkpt>
      <trkpt lat="45.34432" lon="1.19246">
        <ele>189</ele>
        <time>2012-02-26T09:04:31Z</time>
      </trkpt>
      <trkpt lat="45.3443" lon="1.19237">
        <ele>189</ele>
        <time>2012-02-26T09:04:33Z</time>
      </trkpt>
      <trkpt lat="45.34427" lon="1.19228">
        <ele>188</ele>
        <time>2012-02-26T09:04:35Z</time>
      </trkpt>
      <trkpt lat="45.34425" lon="1.19222">
        <ele>188</ele>
        <time>2012-02-26T09:04:37Z</time>
      </trkpt>
      <trkpt lat="45.34423" lon="1.19212">
        <ele>188</ele>
        <time>2012-02-26T09:04:39Z</time>
      </trkpt>
      <trkpt lat="45.34421" lon="1.19205">
        <ele>188</ele>
        <time>2012-02-26T09:04:41Z</time>
      </trkpt>
      <trkpt lat="45.3442" lon="1.19198">
        <ele>188</ele>
        <time>2012-02-26T09:04:43Z</time>
      </trkpt>
      <trkpt lat="45.34418" lon="1.19193">
        <ele>188</ele>
        <time>2012-02-26T09:04:45Z</time>
      </trkpt>
      <trkpt lat="45.34416" lon="1.19185">
        <ele>188</ele>
        <time>2012-02-26T09:04:47Z</time>
      </trkpt>
      <trkpt lat="45.34415" lon="1.19177">
        <ele>188</ele>
        <time>2012-02-26T09:04:49Z</time>
      </trkpt>
      <trkpt lat="45.34416" lon="1.19171">
        <ele>188</ele>
        <time>2012-02-26T09:04:51Z</time>
      </trkpt>
      <trkpt lat="45.34415" lon="1.19164">
        <ele>188</ele>
        <time>2012-02-26T09:04:53Z</time>
      </trkpt>
      <trkpt lat="45.34411" lon="1.19157">
        <ele>188</ele>
        <time>2012-02-26T09:04:55Z</time>
      </trkpt>
      <trkpt lat="45.34412" lon="1.19148">
        <ele>189</ele>
        <time>2012-02-26T09:04:57Z</time>
      </trkpt>
      <trkpt lat="45.34411" lon="1.19139">
        <ele>191</ele>
        <time>2012-02-26T09:04:59Z</time>
      </trkpt>
      <trkpt lat="45.34407" lon="1.19132">
        <ele>193</ele>
        <time>2012-02-26T09:05:01Z</time>
      </trkpt>
      <trkpt lat="45.34403" lon="1.19125">
        <ele>195</ele>
        <time>2012-02-26T09:05:03Z</time>
      </trkpt>
      <trkpt lat="45.344" lon="1.19118">
        <ele>197</ele>
        <time>2012-02-26T09:05:05Z</time>
      </trkpt>
      <trkpt lat="45.34399" lon="1.1911">
        <ele>201</ele>
        <time>2012-02-26T09:05:07Z</time>
      </trkpt>
      <trkpt lat="45.34398" lon="1.19102">
        <ele>205</ele>
        <time>2012-02-26T09:05:09Z</time>
      </trkpt>
      <trkpt lat="45.34395" lon="1.19092">
        <ele>209</ele>
        <time>2012-02-26T09:05:11Z</time>
      </trkpt>
      <trkpt lat="45.34395" lon="1.19084">
        <ele>211</ele>
        <time>2012-02-26T09:05:13Z</time>
      </trkpt>
      <trkpt lat="45.34392" lon="1.19072">
        <ele>213</ele>
        <time>2012-02-26T09:05:15Z</time>
      </trkpt>
      <trkpt lat="45.34389" lon="1.19066">
        <ele>215</ele>
        <time>2012-02-26T09:05:17Z</time>
      </trkpt>
      <trkpt lat="45.34385" lon="1.19061">
        <ele>217</ele>
        <time>2012-02-26T09:05:19Z</time>
      </trkpt>
      <trkpt lat="45.3438" lon="1.19055">
        <ele>219</ele>
        <time>2012-02-26T09:05:21Z</time>
      </trkpt>
      <trkpt lat="45.34375" lon="1.19047">
        <ele>219</ele>
        <time>2012-02-26T09:05:23Z</time>
      </trkpt>
      <trkpt lat="45.34369" lon="1.19038">
        <ele>219</ele>
        <time>2012-02-26T09:05:25Z</time>
      </trkpt>
      <trkpt lat="45.34363" lon="1.1903">
        <ele>219</ele>
        <time>2012-02-26T09:05:27Z</time>
      </trkpt>
      <trkpt lat="45.34359" lon="1.19023">
        <ele>219</ele>
        <time>2012-02-26T09:05:29Z</time>
      </trkpt>
      <trkpt lat="45.34356" lon="1.19015">
        <ele>219</ele>
        <time>2012-02-26T09:05:32Z</time>
      </trkpt>
      <trkpt lat="45.34356" lon="1.19004">
        <ele>219</ele>
        <time>2012-02-26T09:05:34Z</time>
      </trkpt>
      <trkpt lat="45.34356" lon="1.19001">
        <ele>218</ele>
        <time>2012-02-26T09:05:36Z</time>
      </trkpt>
      <trkpt lat="45.34356" lon="1.18996">
        <ele>216</ele>
        <time>2012-02-26T09:05:38Z</time>
      </trkpt>
      <trkpt lat="45.34354" lon="1.18989">
        <ele>214</ele>
        <time>2012-02-26T09:05:40Z</time>
      </trkpt>
      <trkpt lat="45.3435" lon="1.18983">
        <ele>213</ele>
        <time>2012-02-26T09:05:42Z</time>
      </trkpt>
      <trkpt lat="45.34346" lon="1.18976">
        <ele>212</ele>
        <time>2012-02-26T09:05:44Z</time>
      </trkpt>
      <trkpt lat="45.34341" lon="1.18969">
        <ele>212</ele>
        <time>2012-02-26T09:05:46Z</time>
      </trkpt>
      <trkpt lat="45.34337" lon="1.18961">
        <ele>211</ele>
        <time>2012-02-26T09:05:48Z</time>
      </trkpt>
      <trkpt lat="45.34333" lon="1.18953">
        <ele>209</ele>
        <time>2012-02-26T09:05:50Z</time>
      </trkpt>
      <trkpt lat="45.34329" lon="1.18947">
        <ele>207</ele>
        <time>2012-02-26T09:05:52Z</time>
      </trkpt>
      <trkpt lat="45.34323" lon="1.1894">
        <ele>205</ele>
        <time>2012-02-26T09:05:54Z</time>
      </trkpt>
      <trkpt lat="45.34319" lon="1.18931">
        <ele>203</ele>
        <time>2012-02-26T09:05:56Z</time>
      </trkpt>
      <trkpt lat="45.34314" lon="1.18924">
        <ele>201</ele>
        <time>2012-02-26T09:05:58Z</time>
      </trkpt>
      <trkpt lat="45.3431" lon="1.18917">
        <ele>199</ele>
        <time>2012-02-26T09:06:00Z</time>
      </trkpt>
      <trkpt lat="45.34304" lon="1.18912">
        <ele>197</ele>
        <time>2012-02-26T09:06:02Z</time>
      </trkpt>
      <trkpt lat="45.343" lon="1.18907">
        <ele>196</ele>
        <time>2012-02-26T09:06:04Z</time>
      </trkpt>
      <trkpt lat="45.34295" lon="1.18905">
        <ele>196</ele>
        <time>2012-02-26T09:06:06Z</time>
      </trkpt>
      <trkpt lat="45.34292" lon="1.18906">
        <ele>196</ele>
        <time>2012-02-26T09:06:09Z</time>
      </trkpt>
      <trkpt lat="45.34286" lon="1.18907">
        <ele>196</ele>
        <time>2012-02-26T09:06:11Z</time>
      </trkpt>
      <trkpt lat="45.34281" lon="1.18908">
        <ele>196</ele>
        <time>2012-02-26T09:06:13Z</time>
      </trkpt>
      <trkpt lat="45.34277" lon="1.18907">
        <ele>196</ele>
        <time>2012-02-26T09:06:15Z</time>
      </trkpt>
      <trkpt lat="45.34273" lon="1.189">
        <ele>195</ele>
        <time>2012-02-26T09:06:17Z</time>
      </trkpt>
      <trkpt lat="45.34272" lon="1.18892">
        <ele>195</ele>
        <time>2012-02-26T09:06:20Z</time>
      </trkpt>
      <trkpt lat="45.34271" lon="1.18878">
        <ele>193</ele>
        <time>2012-02-26T09:06:22Z</time>
      </trkpt>
      <trkpt lat="45.34269" lon="1.18868">
        <ele>192</ele>
        <time>2012-02-26T09:06:24Z</time>
      </trkpt>
      <trkpt lat="45.34265" lon="1.1886">
        <ele>192</ele>
        <time>2012-02-26T09:06:26Z</time>
      </trkpt>
      <trkpt lat="45.3426" lon="1.18852">
        <ele>192</ele>
        <time>2012-02-26T09:06:28Z</time>
      </trkpt>
      <trkpt lat="45.34255" lon="1.18846">
        <ele>192</ele>
        <time>2012-02-26T09:06:30Z</time>
      </trkpt>
      <trkpt lat="45.3425" lon="1.18842">
        <ele>192</ele>
        <time>2012-02-26T09:06:32Z</time>
      </trkpt>
      <trkpt lat="45.34247" lon="1.18838">
        <ele>192</ele>
        <time>2012-02-26T09:06:34Z</time>
      </trkpt>
      <trkpt lat="45.34243" lon="1.18831">
        <ele>192</ele>
        <time>2012-02-26T09:06:36Z</time>
      </trkpt>
      <trkpt lat="45.34238" lon="1.18827">
        <ele>192</ele>
        <time>2012-02-26T09:06:38Z</time>
      </trkpt>
      <trkpt lat="45.34234" lon="1.18825">
        <ele>193</ele>
        <time>2012-02-26T09:06:40Z</time>
      </trkpt>
      <trkpt lat="45.34227" lon="1.18822">
        <ele>194</ele>
        <time>2012-02-26T09:06:42Z</time>
      </trkpt>
      <trkpt lat="45.3422" lon="1.18823">
        <ele>194</ele>
        <time>2012-02-26T09:06:44Z</time>
      </trkpt>
      <trkpt lat="45.34215" lon="1.18822">
        <ele>194</ele>
        <time>2012-02-26T09:06:46Z</time>
      </trkpt>
      <trkpt lat="45.34209" lon="1.18821">
        <ele>194</ele>
        <time>2012-02-26T09:06:48Z</time>
      </trkpt>
      <trkpt lat="45.34205" lon="1.1882">
        <ele>194</ele>
        <time>2012-02-26T09:06:50Z</time>
      </trkpt>
      <trkpt lat="45.34199" lon="1.18819">
        <ele>194</ele>
        <time>2012-02-26T09:06:52Z</time>
      </trkpt>
      <trkpt lat="45.34195" lon="1.18818">
        <ele>194</ele>
        <time>2012-02-26T09:06:54Z</time>
      </trkpt>
      <trkpt lat="45.34192" lon="1.18818">
        <ele>194</ele>
        <time>2012-02-26T09:06:56Z</time>
      </trkpt>
      <trkpt lat="45.34187" lon="1.1882">
        <ele>195</ele>
        <time>2012-02-26T09:06:58Z</time>
      </trkpt>
      <trkpt lat="45.34183" lon="1.18821">
        <ele>195</ele>
        <time>2012-02-26T09:07:00Z</time>
      </trkpt>
      <trkpt lat="45.34181" lon="1.18822">
        <ele>195</ele>
        <time>2012-02-26T09:07:02Z</time>
      </trkpt>
      <trkpt lat="45.34177" lon="1.18823">
        <ele>195</ele>
        <time>2012-02-26T09:07:04Z</time>
      </trkpt>
      <trkpt lat="45.34173" lon="1.18823">
        <ele>195</ele>
        <time>2012-02-26T09:07:06Z</time>
      </trkpt>
      <trkpt lat="45.34169" lon="1.18823">
        <ele>195</ele>
        <time>2012-02-26T09:07:09Z</time>
      </trkpt>
      <trkpt lat="45.34164" lon="1.18825">
        <ele>195</ele>
        <time>2012-02-26T09:07:11Z</time>
      </trkpt>
      <trkpt lat="45.34161" lon="1.18826">
        <ele>195</ele>
        <time>2012-02-26T09:07:13Z</time>
      </trkpt>
      <trkpt lat="45.34157" lon="1.18828">
        <ele>195</ele>
        <time>2012-02-26T09:07:15Z</time>
      </trkpt>
      <trkpt lat="45.34153" lon="1.18831">
        <ele>195</ele>
        <time>2012-02-26T09:07:17Z</time>
      </trkpt>
      <trkpt lat="45.34149" lon="1.18832">
        <ele>195</ele>
        <time>2012-02-26T09:07:19Z</time>
      </trkpt>
      <trkpt lat="45.34146" lon="1.18834">
        <ele>197</ele>
        <time>2012-02-26T09:07:21Z</time>
      </trkpt>
      <trkpt lat="45.34143" lon="1.18835">
        <ele>198</ele>
        <time>2012-02-26T09:07:23Z</time>
      </trkpt>
      <trkpt lat="45.34142" lon="1.18837">
        <ele>198</ele>
        <time>2012-02-26T09:07:25Z</time>
      </trkpt>
      <trkpt lat="45.34143" lon="1.1884">
        <ele>198</ele>
        <time>2012-02-26T09:07:27Z</time>
      </trkpt>
      <trkpt lat="45.34145" lon="1.18843">
        <ele>198</ele>
        <time>2012-02-26T09:07:29Z</time>
      </trkpt>
      <trkpt lat="45.34146" lon="1.18846">
        <ele>198</ele>
        <time>2012-02-26T09:07:32Z</time>
      </trkpt>
      <trkpt lat="45.3415" lon="1.18849">
        <ele>198</ele>
        <time>2012-02-26T09:07:34Z</time>
      </trkpt>
      <trkpt lat="45.34153" lon="1.18853">
        <ele>198</ele>
        <time>2012-02-26T09:07:36Z</time>
      </trkpt>
      <trkpt lat="45.34156" lon="1.18857">
        <ele>198</ele>
        <time>2012-02-26T09:07:38Z</time>
      </trkpt>
      <trkpt lat="45.34158" lon="1.18859">
        <ele>198</ele>
        <time>2012-02-26T09:07:40Z</time>
      </trkpt>
      <trkpt lat="45.34162" lon="1.18864">
        <ele>198</ele>
        <time>2012-02-26T09:07:42Z</time>
      </trkpt>
      <trkpt lat="45.34167" lon="1.18869">
        <ele>198</ele>
        <time>2012-02-26T09:07:44Z</time>
      </trkpt>
      <trkpt lat="45.34171" lon="1.18873">
        <ele>198</ele>
        <time>2012-02-26T09:07:46Z</time>
      </trkpt>
      <trkpt lat="45.34174" lon="1.18878">
        <ele>198</ele>
        <time>2012-02-26T09:07:48Z</time>
      </trkpt>
      <trkpt lat="45.34176" lon="1.18882">
        <ele>198</ele>
        <time>2012-02-26T09:07:50Z</time>
      </trkpt>
      <trkpt lat="45.3418" lon="1.18885">
        <ele>198</ele>
        <time>2012-02-26T09:07:52Z</time>
      </trkpt>
      <trkpt lat="45.34182" lon="1.18888">
        <ele>198</ele>
        <time>2012-02-26T09:07:54Z</time>
      </trkpt>
      <trkpt lat="45.34184" lon="1.1889">
        <ele>198</ele>
        <time>2012-02-26T09:07:56Z</time>
      </trkpt>
      <trkpt lat="45.34185" lon="1.18893">
        <ele>198</ele>
        <time>2012-02-26T09:07:58Z</time>
      </trkpt>
      <trkpt lat="45.34189" lon="1.18896">
        <ele>198</ele>
        <time>2012-02-26T09:08:00Z</time>
      </trkpt>
      <trkpt lat="45.34192" lon="1.18897">
        <ele>198</ele>
        <time>2012-02-26T09:08:02Z</time>
      </trkpt>
      <trkpt lat="45.34193" lon="1.18899">
        <ele>199</ele>
        <time>2012-02-26T09:08:04Z</time>
      </trkpt>
      <trkpt lat="45.34196" lon="1.18903">
        <ele>200</ele>
        <time>2012-02-26T09:08:06Z</time>
      </trkpt>
      <trkpt lat="45.34198" lon="1.18907">
        <ele>201</ele>
        <time>2012-02-26T09:08:09Z</time>
      </trkpt>
      <trkpt lat="45.34201" lon="1.18911">
        <ele>201</ele>
        <time>2012-02-26T09:08:11Z</time>
      </trkpt>
      <trkpt lat="45.34204" lon="1.18914">
        <ele>201</ele>
        <time>2012-02-26T09:08:13Z</time>
      </trkpt>
      <trkpt lat="45.34208" lon="1.18918">
        <ele>201</ele>
        <time>2012-02-26T09:08:16Z</time>
      </trkpt>
      <trkpt lat="45.3421" lon="1.18921">
        <ele>201</ele>
        <time>2012-02-26T09:08:18Z</time>
      </trkpt>
      <trkpt lat="45.34211" lon="1.18926">
        <ele>201</ele>
        <time>2012-02-26T09:08:20Z</time>
      </trkpt>
      <trkpt lat="45.34213" lon="1.18929">
        <ele>201</ele>
        <time>2012-02-26T09:08:22Z</time>
      </trkpt>
      <trkpt lat="45.34215" lon="1.18933">
        <ele>202</ele>
        <time>2012-02-26T09:08:24Z</time>
      </trkpt>
      <trkpt lat="45.34217" lon="1.18939">
        <ele>203</ele>
        <time>2012-02-26T09:08:27Z</time>
      </trkpt>
      <trkpt lat="45.34218" lon="1.18942">
        <ele>204</ele>
        <time>2012-02-26T09:08:29Z</time>
      </trkpt>
      <trkpt lat="45.34218" lon="1.18946">
        <ele>206</ele>
        <time>2012-02-26T09:08:31Z</time>
      </trkpt>
      <trkpt lat="45.34218" lon="1.18951">
        <ele>206</ele>
        <time>2012-02-26T09:08:34Z</time>
      </trkpt>
      <trkpt lat="45.34218" lon="1.18954">
        <ele>206</ele>
        <time>2012-02-26T09:08:36Z</time>
      </trkpt>
      <trkpt lat="45.34218" lon="1.18958">
        <ele>207</ele>
        <time>2012-02-26T09:08:38Z</time>
      </trkpt>
      <trkpt lat="45.34217" lon="1.18963">
        <ele>207</ele>
        <time>2012-02-26T09:08:40Z</time>
      </trkpt>
      <trkpt lat="45.34216" lon="1.18968">
        <ele>209</ele>
        <time>2012-02-26T09:08:42Z</time>
      </trkpt>
      <trkpt lat="45.34215" lon="1.18972">
        <ele>210</ele>
        <time>2012-02-26T09:08:44Z</time>
      </trkpt>
      <trkpt lat="45.34214" lon="1.18977">
        <ele>211</ele>
        <time>2012-02-26T09:08:46Z</time>
      </trkpt>
      <trkpt lat="45.34213" lon="1.18982">
        <ele>213</ele>
        <time>2012-02-26T09:08:48Z</time>
      </trkpt>
      <trkpt lat="45.34211" lon="1.18987">
        <ele>215</ele>
        <time>2012-02-26T09:08:50Z</time>
      </trkpt>
      <trkpt lat="45.34209" lon="1.18991">
        <ele>216</ele>
        <time>2012-02-26T09:08:52Z</time>
      </trkpt>
      <trkpt lat="45.34207" lon="1.18996">
        <ele>218</ele>
        <time>2012-02-26T09:08:55Z</time>
      </trkpt>
      <trkpt lat="45.34206" lon="1.19">
        <ele>218</ele>
        <time>2012-02-26T09:08:57Z</time>
      </trkpt>
      <trkpt lat="45.34205" lon="1.19004">
        <ele>219</ele>
        <time>2012-02-26T09:08:59Z</time>
      </trkpt>
      <trkpt lat="45.34203" lon="1.19008">
        <ele>219</ele>
        <time>2012-02-26T09:09:01Z</time>
      </trkpt>
      <trkpt lat="45.34202" lon="1.19013">
        <ele>221</ele>
        <time>2012-02-26T09:09:03Z</time>
      </trkpt>
      <trkpt lat="45.34201" lon="1.19017">
        <ele>222</ele>
        <time>2012-02-26T09:09:05Z</time>
      </trkpt>
      <trkpt lat="45.34199" lon="1.1902">
        <ele>223</ele>
        <time>2012-02-26T09:09:07Z</time>
      </trkpt>
      <trkpt lat="45.34198" lon="1.19024">
        <ele>223</ele>
        <time>2012-02-26T09:09:09Z</time>
      </trkpt>
      <trkpt lat="45.34197" lon="1.19028">
        <ele>223</ele>
        <time>2012-02-26T09:09:11Z</time>
      </trkpt>
      <trkpt lat="45.34197" lon="1.19032">
        <ele>223</ele>
        <time>2012-02-26T09:09:13Z</time>
      </trkpt>
      <trkpt lat="45.34198" lon="1.19036">
        <ele>224</ele>
        <time>2012-02-26T09:09:15Z</time>
      </trkpt>
      <trkpt lat="45.34199" lon="1.19039">
        <ele>224</ele>
        <time>2012-02-26T09:09:17Z</time>
      </trkpt>
      <trkpt lat="45.342" lon="1.19043">
        <ele>224</ele>
        <time>2012-02-26T09:09:19Z</time>
      </trkpt>
      <trkpt lat="45.342" lon="1.19048">
        <ele>224</ele>
        <time>2012-02-26T09:09:21Z</time>
      </trkpt>
      <trkpt lat="45.34201" lon="1.19052">
        <ele>224</ele>
        <time>2012-02-26T09:09:23Z</time>
      </trkpt>
      <trkpt lat="45.342" lon="1.19056">
        <ele>224</ele>
        <time>2012-02-26T09:09:25Z</time>
      </trkpt>
      <trkpt lat="45.342" lon="1.1906">
        <ele>225</ele>
        <time>2012-02-26T09:09:27Z</time>
      </trkpt>
      <trkpt lat="45.34199" lon="1.19063">
        <ele>225</ele>
        <time>2012-02-26T09:09:29Z</time>
      </trkpt>
      <trkpt lat="45.34198" lon="1.19067">
        <ele>226</ele>
        <time>2012-02-26T09:09:31Z</time>
      </trkpt>
      <trkpt lat="45.34197" lon="1.19071">
        <ele>227</ele>
        <time>2012-02-26T09:09:33Z</time>
      </trkpt>
      <trkpt lat="45.34195" lon="1.19076">
        <ele>228</ele>
        <time>2012-02-26T09:09:35Z</time>
      </trkpt>
      <trkpt lat="45.34192" lon="1.19083">
        <ele>229</ele>
        <time>2012-02-26T09:09:37Z</time>
      </trkpt>
      <trkpt lat="45.34189" lon="1.19091">
        <ele>230</ele>
        <time>2012-02-26T09:09:39Z</time>
      </trkpt>
      <trkpt lat="45.34187" lon="1.19099">
        <ele>230</ele>
        <time>2012-02-26T09:09:41Z</time>
      </trkpt>
      <trkpt lat="45.34184" lon="1.19107">
        <ele>231</ele>
        <time>2012-02-26T09:09:43Z</time>
      </trkpt>
      <trkpt lat="45.34181" lon="1.19115">
        <ele>232</ele>
        <time>2012-02-26T09:09:45Z</time>
      </trkpt>
      <trkpt lat="45.34181" lon="1.19123">
        <ele>233</ele>
        <time>2012-02-26T09:09:47Z</time>
      </trkpt>
      <trkpt lat="45.3418" lon="1.1913">
        <ele>234</ele>
        <time>2012-02-26T09:09:49Z</time>
      </trkpt>
      <trkpt lat="45.34179" lon="1.19135">
        <ele>236</ele>
        <time>2012-02-26T09:09:51Z</time>
      </trkpt>
      <trkpt lat="45.3418" lon="1.19138">
        <ele>237</ele>
        <time>2012-02-26T09:09:53Z</time>
      </trkpt>
      <trkpt lat="45.34181" lon="1.19141">
        <ele>238</ele>
        <time>2012-02-26T09:09:55Z</time>
      </trkpt>
      <trkpt lat="45.34183" lon="1.19144">
        <ele>239</ele>
        <time>2012-02-26T09:09:57Z</time>
      </trkpt>
      <trkpt lat="45.34185" lon="1.19145">
        <ele>239</ele>
        <time>2012-02-26T09:09:59Z</time>
      </trkpt>
      <trkpt lat="45.34187" lon="1.19145">
        <ele>239</ele>
        <time>2012-02-26T09:10:01Z</time>
      </trkpt>
      <trkpt lat="45.34189" lon="1.19145">
        <ele>239</ele>
        <time>2012-02-26T09:10:03Z</time>
      </trkpt>
      <trkpt lat="45.3419" lon="1.19145">
        <ele>239</ele>
        <time>2012-02-26T09:10:05Z</time>
      </trkpt>
      <trkpt lat="45.34193" lon="1.19145">
        <ele>239</ele>
        <time>2012-02-26T09:10:07Z</time>
      </trkpt>
      <trkpt lat="45.34196" lon="1.19145">
        <ele>239</ele>
        <time>2012-02-26T09:10:09Z</time>
      </trkpt>
      <trkpt lat="45.34198" lon="1.19145">
        <ele>239</ele>
        <time>2012-02-26T09:10:11Z</time>
      </trkpt>
      <trkpt lat="45.34201" lon="1.19147">
        <ele>239</ele>
        <time>2012-02-26T09:10:13Z</time>
      </trkpt>
      <trkpt lat="45.34203" lon="1.19148">
        <ele>239</ele>
        <time>2012-02-26T09:10:15Z</time>
      </trkpt>
      <trkpt lat="45.34205" lon="1.19151">
        <ele>239</ele>
        <time>2012-02-26T09:10:17Z</time>
      </trkpt>
      <trkpt lat="45.34206" lon="1.19154">
        <ele>239</ele>
        <time>2012-02-26T09:10:19Z</time>
      </trkpt>
      <trkpt lat="45.34208" lon="1.19158">
        <ele>239</ele>
        <time>2012-02-26T09:10:21Z</time>
      </trkpt>
      <trkpt lat="45.34209" lon="1.19162">
        <ele>239</ele>
        <time>2012-02-26T09:10:23Z</time>
      </trkpt>
      <trkpt lat="45.34212" lon="1.19165">
        <ele>239</ele>
        <time>2012-02-26T09:10:25Z</time>
      </trkpt>
      <trkpt lat="45.34214" lon="1.19169">
        <ele>239</ele>
        <time>2012-02-26T09:10:27Z</time>
      </trkpt>
      <trkpt lat="45.34215" lon="1.19174">
        <ele>239</ele>
        <time>2012-02-26T09:10:29Z</time>
      </trkpt>
      <trkpt lat="45.34215" lon="1.19177">
        <ele>240</ele>
        <time>2012-02-26T09:10:31Z</time>
      </trkpt>
      <trkpt lat="45.34215" lon="1.19181">
        <ele>241</ele>
        <time>2012-02-26T09:10:33Z</time>
      </trkpt>
      <trkpt lat="45.34217" lon="1.19185">
        <ele>241</ele>
        <time>2012-02-26T09:10:35Z</time>
      </trkpt>
      <trkpt lat="45.34219" lon="1.19189">
        <ele>243</ele>
        <time>2012-02-26T09:10:37Z</time>
      </trkpt>
      <trkpt lat="45.3422" lon="1.19193">
        <ele>244</ele>
        <time>2012-02-26T09:10:39Z</time>
      </trkpt>
      <trkpt lat="45.34221" lon="1.19198">
        <ele>246</ele>
        <time>2012-02-26T09:10:41Z</time>
      </trkpt>
      <trkpt lat="45.34222" lon="1.19202">
        <ele>246</ele>
        <time>2012-02-26T09:10:43Z</time>
      </trkpt>
      <trkpt lat="45.34223" lon="1.19206">
        <ele>247</ele>
        <time>2012-02-26T09:10:45Z</time>
      </trkpt>
      <trkpt lat="45.34224" lon="1.19209">
        <ele>247</ele>
        <time>2012-02-26T09:10:47Z</time>
      </trkpt>
      <trkpt lat="45.34224" lon="1.19213">
        <ele>247</ele>
        <time>2012-02-26T09:10:49Z</time>
      </trkpt>
      <trkpt lat="45.34224" lon="1.19217">
        <ele>249</ele>
        <time>2012-02-26T09:10:51Z</time>
      </trkpt>
      <trkpt lat="45.34225" lon="1.19222">
        <ele>250</ele>
        <time>2012-02-26T09:10:53Z</time>
      </trkpt>
      <trkpt lat="45.34225" lon="1.19226">
        <ele>251</ele>
        <time>2012-02-26T09:10:56Z</time>
      </trkpt>
      <trkpt lat="45.34224" lon="1.19236">
        <ele>252</ele>
        <time>2012-02-26T09:10:58Z</time>
      </trkpt>
      <trkpt lat="45.34223" lon="1.19244">
        <ele>253</ele>
        <time>2012-02-26T09:11:00Z</time>
      </trkpt>
      <trkpt lat="45.34221" lon="1.19251">
        <ele>254</ele>
        <time>2012-02-26T09:11:02Z</time>
      </trkpt>
      <trkpt lat="45.3422" lon="1.19259">
        <ele>255</ele>
        <time>2012-02-26T09:11:04Z</time>
      </trkpt>
      <trkpt lat="45.3422" lon="1.19267">
        <ele>256</ele>
        <time>2012-02-26T09:11:06Z</time>
      </trkpt>
      <trkpt lat="45.3422" lon="1.19276">
        <ele>257</ele>
        <time>2012-02-26T09:11:09Z</time>
      </trkpt>
      <trkpt lat="45.34218" lon="1.1929">
        <ele>257</ele>
        <time>2012-02-26T09:11:11Z</time>
      </trkpt>
      <trkpt lat="45.34218" lon="1.19299">
        <ele>257</ele>
        <time>2012-02-26T09:11:13Z</time>
      </trkpt>
      <trkpt lat="45.34217" lon="1.19307">
        <ele>258</ele>
        <time>2012-02-26T09:11:15Z</time>
      </trkpt>
      <trkpt lat="45.34216" lon="1.19314">
        <ele>259</ele>
        <time>2012-02-26T09:11:17Z</time>
      </trkpt>
      <trkpt lat="45.34215" lon="1.19321">
        <ele>261</ele>
        <time>2012-02-26T09:11:19Z</time>
      </trkpt>
      <trkpt lat="45.34215" lon="1.19329">
        <ele>263</ele>
        <time>2012-02-26T09:11:21Z</time>
      </trkpt>
      <trkpt lat="45.34215" lon="1.19338">
        <ele>264</ele>
        <time>2012-02-26T09:11:23Z</time>
      </trkpt>
      <trkpt lat="45.34214" lon="1.19345">
        <ele>265</ele>
        <time>2012-02-26T09:11:25Z</time>
      </trkpt>
      <trkpt lat="45.34214" lon="1.19351">
        <ele>266</ele>
        <time>2012-02-26T09:11:27Z</time>
      </trkpt>
      <trkpt lat="45.34214" lon="1.19358">
        <ele>267</ele>
        <time>2012-02-26T09:11:29Z</time>
      </trkpt>
      <trkpt lat="45.34214" lon="1.19366">
        <ele>267</ele>
        <time>2012-02-26T09:11:31Z</time>
      </trkpt>
      <trkpt lat="45.34215" lon="1.19371">
        <ele>267</ele>
        <time>2012-02-26T09:11:33Z</time>
      </trkpt>
      <trkpt lat="45.34215" lon="1.19378">
        <ele>268</ele>
        <time>2012-02-26T09:11:35Z</time>
      </trkpt>
      <trkpt lat="45.34215" lon="1.19386">
        <ele>269</ele>
        <time>2012-02-26T09:11:37Z</time>
      </trkpt>
      <trkpt lat="45.34213" lon="1.19393">
        <ele>269</ele>
        <time>2012-02-26T09:11:39Z</time>
      </trkpt>
      <trkpt lat="45.34212" lon="1.194">
        <ele>270</ele>
        <time>2012-02-26T09:11:41Z</time>
      </trkpt>
      <trkpt lat="45.34211" lon="1.19407">
        <ele>270</ele>
        <time>2012-02-26T09:11:43Z</time>
      </trkpt>
      <trkpt lat="45.3421" lon="1.19415">
        <ele>271</ele>
        <time>2012-02-26T09:11:45Z</time>
      </trkpt>
      <trkpt lat="45.34208" lon="1.1942">
        <ele>272</ele>
        <time>2012-02-26T09:11:47Z</time>
      </trkpt>
      <trkpt lat="45.34207" lon="1.19428">
        <ele>273</ele>
        <time>2012-02-26T09:11:49Z</time>
      </trkpt>
      <trkpt lat="45.34208" lon="1.19434">
        <ele>275</ele>
        <time>2012-02-26T09:11:51Z</time>
      </trkpt>
      <trkpt lat="45.34207" lon="1.19441">
        <ele>276</ele>
        <time>2012-02-26T09:11:53Z</time>
      </trkpt>
      <trkpt lat="45.34205" lon="1.19449">
        <ele>277</ele>
        <time>2012-02-26T09:11:55Z</time>
      </trkpt>
      <trkpt lat="45.34204" lon="1.19457">
        <ele>277</ele>
        <time>2012-02-26T09:11:57Z</time>
      </trkpt>
      <trkpt lat="45.34203" lon="1.19464">
        <ele>277</ele>
        <time>2012-02-26T09:11:59Z</time>
      </trkpt>
      <trkpt lat="45.34201" lon="1.1947">
        <ele>277</ele>
        <time>2012-02-26T09:12:01Z</time>
      </trkpt>
      <trkpt lat="45.34201" lon="1.19478">
        <ele>277</ele>
        <time>2012-02-26T09:12:03Z</time>
      </trkpt>
      <trkpt lat="45.342" lon="1.19485">
        <ele>277</ele>
        <time>2012-02-26T09:12:05Z</time>
      </trkpt>
      <trkpt lat="45.34198" lon="1.19491">
        <ele>277</ele>
        <time>2012-02-26T09:12:07Z</time>
      </trkpt>
      <trkpt lat="45.34197" lon="1.19499">
        <ele>277</ele>
        <time>2012-02-26T09:12:09Z</time>
      </trkpt>
      <trkpt lat="45.34197" lon="1.19506">
        <ele>277</ele>
        <time>2012-02-26T09:12:11Z</time>
      </trkpt>
      <trkpt lat="45.34197" lon="1.19512">
        <ele>277</ele>
        <time>2012-02-26T09:12:13Z</time>
      </trkpt>
      <trkpt lat="45.34196" lon="1.19521">
        <ele>277</ele>
        <time>2012-02-26T09:12:15Z</time>
      </trkpt>
      <trkpt lat="45.34197" lon="1.19531">
        <ele>277</ele>
        <time>2012-02-26T09:12:17Z</time>
      </trkpt>
      <trkpt lat="45.34197" lon="1.1954">
        <ele>277</ele>
        <time>2012-02-26T09:12:19Z</time>
      </trkpt>
      <trkpt lat="45.34198" lon="1.19548">
        <ele>277</ele>
        <time>2012-02-26T09:12:21Z</time>
      </trkpt>
      <trkpt lat="45.34199" lon="1.19556">
        <ele>277</ele>
        <time>2012-02-26T09:12:23Z</time>
      </trkpt>
      <trkpt lat="45.342" lon="1.19563">
        <ele>277</ele>
        <time>2012-02-26T09:12:25Z</time>
      </trkpt>
      <trkpt lat="45.34201" lon="1.19569">
        <ele>277</ele>
        <time>2012-02-26T09:12:27Z</time>
      </trkpt>
      <trkpt lat="45.34203" lon="1.19576">
        <ele>277</ele>
        <time>2012-02-26T09:12:29Z</time>
      </trkpt>
      <trkpt lat="45.34205" lon="1.19582">
        <ele>277</ele>
        <time>2012-02-26T09:12:31Z</time>
      </trkpt>
      <trkpt lat="45.34206" lon="1.19589">
        <ele>277</ele>
        <time>2012-02-26T09:12:33Z</time>
      </trkpt>
      <trkpt lat="45.34208" lon="1.19596">
        <ele>276</ele>
        <time>2012-02-26T09:12:35Z</time>
      </trkpt>
      <trkpt lat="45.34211" lon="1.19604">
        <ele>276</ele>
        <time>2012-02-26T09:12:37Z</time>
      </trkpt>
      <trkpt lat="45.34213" lon="1.19612">
        <ele>276</ele>
        <time>2012-02-26T09:12:39Z</time>
      </trkpt>
      <trkpt lat="45.34216" lon="1.1962">
        <ele>276</ele>
        <time>2012-02-26T09:12:41Z</time>
      </trkpt>
      <trkpt lat="45.34219" lon="1.19628">
        <ele>276</ele>
        <time>2012-02-26T09:12:43Z</time>
      </trkpt>
      <trkpt lat="45.3422" lon="1.19637">
        <ele>276</ele>
        <time>2012-02-26T09:12:45Z</time>
      </trkpt>
      <trkpt lat="45.34223" lon="1.19646">
        <ele>276</ele>
        <time>2012-02-26T09:12:47Z</time>
      </trkpt>
      <trkpt lat="45.34226" lon="1.19656">
        <ele>276</ele>
        <time>2012-02-26T09:12:49Z</time>
      </trkpt>
      <trkpt lat="45.34227" lon="1.19667">
        <ele>276</ele>
        <time>2012-02-26T09:12:51Z</time>
      </trkpt>
      <trkpt lat="45.34228" lon="1.19677">
        <ele>275</ele>
        <time>2012-02-26T09:12:53Z</time>
      </trkpt>
      <trkpt lat="45.3423" lon="1.19686">
        <ele>275</ele>
        <time>2012-02-26T09:12:55Z</time>
      </trkpt>
      <trkpt lat="45.34231" lon="1.19696">
        <ele>275</ele>
        <time>2012-02-26T09:12:57Z</time>
      </trkpt>
      <trkpt lat="45.34233" lon="1.19705">
        <ele>275</ele>
        <time>2012-02-26T09:12:59Z</time>
      </trkpt>
      <trkpt lat="45.34235" lon="1.19714">
        <ele>275</ele>
        <time>2012-02-26T09:13:01Z</time>
      </trkpt>
      <trkpt lat="45.34236" lon="1.19723">
        <ele>274</ele>
        <time>2012-02-26T09:13:03Z</time>
      </trkpt>
      <trkpt lat="45.34238" lon="1.19732">
        <ele>274</ele>
        <time>2012-02-26T09:13:05Z</time>
      </trkpt>
      <trkpt lat="45.3424" lon="1.19741">
        <ele>274</ele>
        <time>2012-02-26T09:13:07Z</time>
      </trkpt>
      <trkpt lat="45.34241" lon="1.1975">
        <ele>274</ele>
        <time>2012-02-26T09:13:09Z</time>
      </trkpt>
      <trkpt lat="45.34243" lon="1.19759">
        <ele>273</ele>
        <time>2012-02-26T09:13:11Z</time>
      </trkpt>
      <trkpt lat="45.34244" lon="1.19767">
        <ele>273</ele>
        <time>2012-02-26T09:13:13Z</time>
      </trkpt>
      <trkpt lat="45.34246" lon="1.19776">
        <ele>273</ele>
        <time>2012-02-26T09:13:15Z</time>
      </trkpt>
      <trkpt lat="45.34247" lon="1.19784">
        <ele>273</ele>
        <time>2012-02-26T09:13:17Z</time>
      </trkpt>
      <trkpt lat="45.34249" lon="1.19792">
        <ele>273</ele>
        <time>2012-02-26T09:13:19Z</time>
      </trkpt>
      <trkpt lat="45.34251" lon="1.198">
        <ele>273</ele>
        <time>2012-02-26T09:13:21Z</time>
      </trkpt>
      <trkpt lat="45.34253" lon="1.19808">
        <ele>273</ele>
        <time>2012-02-26T09:13:23Z</time>
      </trkpt>
      <trkpt lat="45.34255" lon="1.19816">
        <ele>273</ele>
        <time>2012-02-26T09:13:25Z</time>
      </trkpt>
      <trkpt lat="45.34258" lon="1.19824">
        <ele>273</ele>
        <time>2012-02-26T09:13:27Z</time>
      </trkpt>
      <trkpt lat="45.34261" lon="1.19831">
        <ele>273</ele>
        <time>2012-02-26T09:13:29Z</time>
      </trkpt>
      <trkpt lat="45.34264" lon="1.19838">
        <ele>273</ele>
        <time>2012-02-26T09:13:31Z</time>
      </trkpt>
      <trkpt lat="45.34267" lon="1.19845">
        <ele>273</ele>
        <time>2012-02-26T09:13:33Z</time>
      </trkpt>
      <trkpt lat="45.34271" lon="1.19852">
        <ele>273</ele>
        <time>2012-02-26T09:13:35Z</time>
      </trkpt>
      <trkpt lat="45.34274" lon="1.19859">
        <ele>273</ele>
        <time>2012-02-26T09:13:37Z</time>
      </trkpt>
      <trkpt lat="45.34277" lon="1.19866">
        <ele>273</ele>
        <time>2012-02-26T09:13:39Z</time>
      </trkpt>
      <trkpt lat="45.3428" lon="1.19873">
        <ele>273</ele>
        <time>2012-02-26T09:13:41Z</time>
      </trkpt>
      <trkpt lat="45.34283" lon="1.1988">
        <ele>274</ele>
        <time>2012-02-26T09:13:43Z</time>
      </trkpt>
      <trkpt lat="45.34285" lon="1.19887">
        <ele>275</ele>
        <time>2012-02-26T09:13:45Z</time>
      </trkpt>
      <trkpt lat="45.34288" lon="1.19893">
        <ele>275</ele>
        <time>2012-02-26T09:13:47Z</time>
      </trkpt>
      <trkpt lat="45.34292" lon="1.19899">
        <ele>276</ele>
        <time>2012-02-26T09:13:49Z</time>
      </trkpt>
      <trkpt lat="45.34296" lon="1.19906">
        <ele>276</ele>
        <time>2012-02-26T09:13:51Z</time>
      </trkpt>
      <trkpt lat="45.343" lon="1.19911">
        <ele>276</ele>
        <time>2012-02-26T09:13:53Z</time>
      </trkpt>
      <trkpt lat="45.34304" lon="1.19917">
        <ele>276</ele>
        <time>2012-02-26T09:13:55Z</time>
      </trkpt>
      <trkpt lat="45.34307" lon="1.19923">
        <ele>276</ele>
        <time>2012-02-26T09:13:57Z</time>
      </trkpt>
      <trkpt lat="45.34311" lon="1.19928">
        <ele>276</ele>
        <time>2012-02-26T09:13:59Z</time>
      </trkpt>
      <trkpt lat="45.34314" lon="1.19934">
        <ele>276</ele>
        <time>2012-02-26T09:14:01Z</time>
      </trkpt>
      <trkpt lat="45.34318" lon="1.19939">
        <ele>277</ele>
        <time>2012-02-26T09:14:03Z</time>
      </trkpt>
      <trkpt lat="45.34322" lon="1.19945">
        <ele>277</ele>
        <time>2012-02-26T09:14:05Z</time>
      </trkpt>
      <trkpt lat="45.34325" lon="1.1995">
        <ele>277</ele>
        <time>2012-02-26T09:14:07Z</time>
      </trkpt>
      <trkpt lat="45.34328" lon="1.19954">
        <ele>277</ele>
        <time>2012-02-26T09:14:09Z</time>
      </trkpt>
      <trkpt lat="45.34331" lon="1.19959">
        <ele>278</ele>
        <time>2012-02-26T09:14:11Z</time>
      </trkpt>
      <trkpt lat="45.34334" lon="1.19964">
        <ele>278</ele>
        <time>2012-02-26T09:14:13Z</time>
      </trkpt>
      <trkpt lat="45.34338" lon="1.19969">
        <ele>279</ele>
        <time>2012-02-26T09:14:15Z</time>
      </trkpt>
      <trkpt lat="45.34341" lon="1.19974">
        <ele>280</ele>
        <time>2012-02-26T09:14:17Z</time>
      </trkpt>
      <trkpt lat="45.34345" lon="1.19979">
        <ele>280</ele>
        <time>2012-02-26T09:14:19Z</time>
      </trkpt>
      <trkpt lat="45.34348" lon="1.19984">
        <ele>281</ele>
        <time>2012-02-26T09:14:21Z</time>
      </trkpt>
      <trkpt lat="45.34351" lon="1.19989">
        <ele>281</ele>
        <time>2012-02-26T09:14:23Z</time>
      </trkpt>
      <trkpt lat="45.34354" lon="1.19995">
        <ele>282</ele>
        <time>2012-02-26T09:14:25Z</time>
      </trkpt>
      <trkpt lat="45.34356" lon="1.2">
        <ele>282</ele>
        <time>2012-02-26T09:14:27Z</time>
      </trkpt>
      <trkpt lat="45.34359" lon="1.20005">
        <ele>282</ele>
        <time>2012-02-26T09:14:29Z</time>
      </trkpt>
      <trkpt lat="45.34362" lon="1.20009">
        <ele>283</ele>
        <time>2012-02-26T09:14:31Z</time>
      </trkpt>
      <trkpt lat="45.34366" lon="1.20012">
        <ele>283</ele>
        <time>2012-02-26T09:14:33Z</time>
      </trkpt>
      <trkpt lat="45.3437" lon="1.20015">
        <ele>283</ele>
        <time>2012-02-26T09:14:35Z</time>
      </trkpt>
      <trkpt lat="45.34375" lon="1.20017">
        <ele>284</ele>
        <time>2012-02-26T09:14:37Z</time>
      </trkpt>
      <trkpt lat="45.34379" lon="1.20019">
        <ele>284</ele>
        <time>2012-02-26T09:14:39Z</time>
      </trkpt>
      <trkpt lat="45.34383" lon="1.20022">
        <ele>284</ele>
        <time>2012-02-26T09:14:41Z</time>
      </trkpt>
      <trkpt lat="45.34386" lon="1.20024">
        <ele>284</ele>
        <time>2012-02-26T09:14:43Z</time>
      </trkpt>
      <trkpt lat="45.34389" lon="1.20025">
        <ele>284</ele>
        <time>2012-02-26T09:14:45Z</time>
      </trkpt>
      <trkpt lat="45.34393" lon="1.20026">
        <ele>284</ele>
        <time>2012-02-26T09:14:48Z</time>
      </trkpt>
      <trkpt lat="45.34395" lon="1.20027">
        <ele>284</ele>
        <time>2012-02-26T09:14:50Z</time>
      </trkpt>
      <trkpt lat="45.34398" lon="1.20027">
        <ele>284</ele>
        <time>2012-02-26T09:14:52Z</time>
      </trkpt>
      <trkpt lat="45.344" lon="1.20027">
        <ele>284</ele>
        <time>2012-02-26T09:14:54Z</time>
      </trkpt>
      <trkpt lat="45.34403" lon="1.20028">
        <ele>284</ele>
        <time>2012-02-26T09:14:56Z</time>
      </trkpt>
      <trkpt lat="45.34406" lon="1.20029">
        <ele>284</ele>
        <time>2012-02-26T09:14:58Z</time>
      </trkpt>
      <trkpt lat="45.34409" lon="1.20031">
        <ele>284</ele>
        <time>2012-02-26T09:15:00Z</time>
      </trkpt>
      <trkpt lat="45.34412" lon="1.20032">
        <ele>285</ele>
        <time>2012-02-26T09:15:02Z</time>
      </trkpt>
      <trkpt lat="45.34415" lon="1.20033">
        <ele>285</ele>
        <time>2012-02-26T09:15:04Z</time>
      </trkpt>
      <trkpt lat="45.34418" lon="1.20034">
        <ele>286</ele>
        <time>2012-02-26T09:15:06Z</time>
      </trkpt>
      <trkpt lat="45.34421" lon="1.20036">
        <ele>286</ele>
        <time>2012-02-26T09:15:09Z</time>
      </trkpt>
      <trkpt lat="45.34424" lon="1.20038">
        <ele>288</ele>
        <time>2012-02-26T09:15:12Z</time>
      </trkpt>
      <trkpt lat="45.34426" lon="1.2004">
        <ele>288</ele>
        <time>2012-02-26T09:15:14Z</time>
      </trkpt>
      <trkpt lat="45.3443" lon="1.20042">
        <ele>289</ele>
        <time>2012-02-26T09:15:17Z</time>
      </trkpt>
      <trkpt lat="45.34432" lon="1.20045">
        <ele>289</ele>
        <time>2012-02-26T09:15:19Z</time>
      </trkpt>
      <trkpt lat="45.34434" lon="1.20047">
        <ele>289</ele>
        <time>2012-02-26T09:15:21Z</time>
      </trkpt>
      <trkpt lat="45.34438" lon="1.2005">
        <ele>289</ele>
        <time>2012-02-26T09:15:24Z</time>
      </trkpt>
      <trkpt lat="45.3444" lon="1.20052">
        <ele>289</ele>
        <time>2012-02-26T09:15:26Z</time>
      </trkpt>
      <trkpt lat="45.34443" lon="1.20054">
        <ele>289</ele>
        <time>2012-02-26T09:15:28Z</time>
      </trkpt>
      <trkpt lat="45.34445" lon="1.20057">
        <ele>289</ele>
        <time>2012-02-26T09:15:30Z</time>
      </trkpt>
      <trkpt lat="45.34447" lon="1.2006">
        <ele>289</ele>
        <time>2012-02-26T09:15:32Z</time>
      </trkpt>
      <trkpt lat="45.34449" lon="1.20062">
        <ele>289</ele>
        <time>2012-02-26T09:15:34Z</time>
      </trkpt>
      <trkpt lat="45.34452" lon="1.20065">
        <ele>290</ele>
        <time>2012-02-26T09:15:36Z</time>
      </trkpt>
      <trkpt lat="45.34454" lon="1.20069">
        <ele>290</ele>
        <time>2012-02-26T09:15:38Z</time>
      </trkpt>
      <trkpt lat="45.34457" lon="1.20072">
        <ele>290</ele>
        <time>2012-02-26T09:15:40Z</time>
      </trkpt>
      <trkpt lat="45.3446" lon="1.20076">
        <ele>291</ele>
        <time>2012-02-26T09:15:43Z</time>
      </trkpt>
      <trkpt lat="45.34462" lon="1.20078">
        <ele>291</ele>
        <time>2012-02-26T09:15:45Z</time>
      </trkpt>
      <trkpt lat="45.34464" lon="1.20081">
        <ele>291</ele>
        <time>2012-02-26T09:15:47Z</time>
      </trkpt>
      <trkpt lat="45.34466" lon="1.20085">
        <ele>291</ele>
        <time>2012-02-26T09:15:49Z</time>
      </trkpt>
      <trkpt lat="45.34467" lon="1.20089">
        <ele>291</ele>
        <time>2012-02-26T09:15:51Z</time>
      </trkpt>
      <trkpt lat="45.34469" lon="1.20094">
        <ele>291</ele>
        <time>2012-02-26T09:15:53Z</time>
      </trkpt>
      <trkpt lat="45.34471" lon="1.20098">
        <ele>291</ele>
        <time>2012-02-26T09:15:55Z</time>
      </trkpt>
      <trkpt lat="45.34472" lon="1.20102">
        <ele>291</ele>
        <time>2012-02-26T09:15:57Z</time>
      </trkpt>
      <trkpt lat="45.34473" lon="1.20105">
        <ele>292</ele>
        <time>2012-02-26T09:15:59Z</time>
      </trkpt>
      <trkpt lat="45.34474" lon="1.20109">
        <ele>292</ele>
        <time>2012-02-26T09:16:01Z</time>
      </trkpt>
      <trkpt lat="45.34475" lon="1.20113">
        <ele>293</ele>
        <time>2012-02-26T09:16:03Z</time>
      </trkpt>
      <trkpt lat="45.34477" lon="1.20117">
        <ele>294</ele>
        <time>2012-02-26T09:16:05Z</time>
      </trkpt>
      <trkpt lat="45.34478" lon="1.2012">
        <ele>294</ele>
        <time>2012-02-26T09:16:07Z</time>
      </trkpt>
      <trkpt lat="45.34479" lon="1.20124">
        <ele>295</ele>
        <time>2012-02-26T09:16:09Z</time>
      </trkpt>
      <trkpt lat="45.3448" lon="1.20128">
        <ele>295</ele>
        <time>2012-02-26T09:16:11Z</time>
      </trkpt>
      <trkpt lat="45.34482" lon="1.20133">
        <ele>296</ele>
        <time>2012-02-26T09:16:13Z</time>
      </trkpt>
      <trkpt lat="45.34485" lon="1.2014">
        <ele>297</ele>
        <time>2012-02-26T09:16:15Z</time>
      </trkpt>
      <trkpt lat="45.34489" lon="1.20148">
        <ele>298</ele>
        <time>2012-02-26T09:16:17Z</time>
      </trkpt>
      <trkpt lat="45.34491" lon="1.20155">
        <ele>299</ele>
        <time>2012-02-26T09:16:19Z</time>
      </trkpt>
      <trkpt lat="45.34492" lon="1.20163">
        <ele>300</ele>
        <time>2012-02-26T09:16:21Z</time>
      </trkpt>
      <trkpt lat="45.34494" lon="1.2017">
        <ele>301</ele>
        <time>2012-02-26T09:16:23Z</time>
      </trkpt>
      <trkpt lat="45.34497" lon="1.20178">
        <ele>302</ele>
        <time>2012-02-26T09:16:25Z</time>
      </trkpt>
      <trkpt lat="45.34499" lon="1.20185">
        <ele>303</ele>
        <time>2012-02-26T09:16:27Z</time>
      </trkpt>
      <trkpt lat="45.34501" lon="1.20192">
        <ele>304</ele>
        <time>2012-02-26T09:16:29Z</time>
      </trkpt>
      <trkpt lat="45.34504" lon="1.202">
        <ele>305</ele>
        <time>2012-02-26T09:16:31Z</time>
      </trkpt>
      <trkpt lat="45.34507" lon="1.20207">
        <ele>305</ele>
        <time>2012-02-26T09:16:33Z</time>
      </trkpt>
      <trkpt lat="45.3451" lon="1.20214">
        <ele>306</ele>
        <time>2012-02-26T09:16:35Z</time>
      </trkpt>
      <trkpt lat="45.34513" lon="1.20221">
        <ele>307</ele>
        <time>2012-02-26T09:16:37Z</time>
      </trkpt>
      <trkpt lat="45.34515" lon="1.20228">
        <ele>308</ele>
        <time>2012-02-26T09:16:39Z</time>
      </trkpt>
      <trkpt lat="45.34518" lon="1.20236">
        <ele>308</ele>
        <time>2012-02-26T09:16:41Z</time>
      </trkpt>
      <trkpt lat="45.34522" lon="1.20243">
        <ele>309</ele>
        <time>2012-02-26T09:16:43Z</time>
      </trkpt>
      <trkpt lat="45.34525" lon="1.20251">
        <ele>310</ele>
        <time>2012-02-26T09:16:45Z</time>
      </trkpt>
      <trkpt lat="45.34528" lon="1.20258">
        <ele>310</ele>
        <time>2012-02-26T09:16:47Z</time>
      </trkpt>
      <trkpt lat="45.34531" lon="1.20265">
        <ele>311</ele>
        <time>2012-02-26T09:16:49Z</time>
      </trkpt>
      <trkpt lat="45.34534" lon="1.20272">
        <ele>311</ele>
        <time>2012-02-26T09:16:51Z</time>
      </trkpt>
      <trkpt lat="45.34537" lon="1.2028">
        <ele>312</ele>
        <time>2012-02-26T09:16:53Z</time>
      </trkpt>
      <trkpt lat="45.3454" lon="1.20287">
        <ele>312</ele>
        <time>2012-02-26T09:16:55Z</time>
      </trkpt>
      <trkpt lat="45.34543" lon="1.20295">
        <ele>312</ele>
        <time>2012-02-26T09:16:57Z</time>
      </trkpt>
      <trkpt lat="45.34547" lon="1.20302">
        <ele>312</ele>
        <time>2012-02-26T09:16:59Z</time>
      </trkpt>
      <trkpt lat="45.3455" lon="1.2031">
        <ele>312</ele>
        <time>2012-02-26T09:17:01Z</time>
      </trkpt>
      <trkpt lat="45.34552" lon="1.20319">
        <ele>312</ele>
        <time>2012-02-26T09:17:03Z</time>
      </trkpt>
      <trkpt lat="45.34556" lon="1.20327">
        <ele>312</ele>
        <time>2012-02-26T09:17:05Z</time>
      </trkpt>
      <trkpt lat="45.34559" lon="1.20335">
        <ele>312</ele>
        <time>2012-02-26T09:17:07Z</time>
      </trkpt>
      <trkpt lat="45.34562" lon="1.20344">
        <ele>312</ele>
        <time>2012-02-26T09:17:09Z</time>
      </trkpt>
      <trkpt lat="45.34564" lon="1.20352">
        <ele>312</ele>
        <time>2012-02-26T09:17:11Z</time>
      </trkpt>
      <trkpt lat="45.34569" lon="1.2036">
        <ele>311</ele>
        <time>2012-02-26T09:17:13Z</time>
      </trkpt>
      <trkpt lat="45.34576" lon="1.20363">
        <ele>310</ele>
        <time>2012-02-26T09:17:15Z</time>
      </trkpt>
      <trkpt lat="45.34584" lon="1.20363">
        <ele>309</ele>
        <time>2012-02-26T09:17:17Z</time>
      </trkpt>
      <trkpt lat="45.34591" lon="1.20364">
        <ele>308</ele>
        <time>2012-02-26T09:17:19Z</time>
      </trkpt>
      <trkpt lat="45.34596" lon="1.2037">
        <ele>308</ele>
        <time>2012-02-26T09:17:21Z</time>
      </trkpt>
      <trkpt lat="45.34598" lon="1.20378">
        <ele>306</ele>
        <time>2012-02-26T09:17:23Z</time>
      </trkpt>
      <trkpt lat="45.34598" lon="1.20389">
        <ele>306</ele>
        <time>2012-02-26T09:17:25Z</time>
      </trkpt>
      <trkpt lat="45.34597" lon="1.20401">
        <ele>305</ele>
        <time>2012-02-26T09:17:27Z</time>
      </trkpt>
      <trkpt lat="45.34594" lon="1.20411">
        <ele>305</ele>
        <time>2012-02-26T09:17:29Z</time>
      </trkpt>
      <trkpt lat="45.34593" lon="1.20421">
        <ele>304</ele>
        <time>2012-02-26T09:17:31Z</time>
      </trkpt>
      <trkpt lat="45.34594" lon="1.20429">
        <ele>304</ele>
        <time>2012-02-26T09:17:33Z</time>
      </trkpt>
      <trkpt lat="45.34597" lon="1.20437">
        <ele>303</ele>
        <time>2012-02-26T09:17:35Z</time>
      </trkpt>
      <trkpt lat="45.34599" lon="1.20445">
        <ele>302</ele>
        <time>2012-02-26T09:17:37Z</time>
      </trkpt>
      <trkpt lat="45.346" lon="1.20453">
        <ele>302</ele>
        <time>2012-02-26T09:17:39Z</time>
      </trkpt>
      <trkpt lat="45.346" lon="1.20461">
        <ele>301</ele>
        <time>2012-02-26T09:17:41Z</time>
      </trkpt>
      <trkpt lat="45.34596" lon="1.20467">
        <ele>300</ele>
        <time>2012-02-26T09:17:43Z</time>
      </trkpt>
      <trkpt lat="45.34592" lon="1.20467">
        <ele>300</ele>
        <time>2012-02-26T09:17:45Z</time>
      </trkpt>
      <trkpt lat="45.34586" lon="1.20466">
        <ele>300</ele>
        <time>2012-02-26T09:17:47Z</time>
      </trkpt>
      <trkpt lat="45.3458" lon="1.20467">
        <ele>300</ele>
        <time>2012-02-26T09:17:49Z</time>
      </trkpt>
      <trkpt lat="45.34575" lon="1.20467">
        <ele>299</ele>
        <time>2012-02-26T09:17:51Z</time>
      </trkpt>
      <trkpt lat="45.3457" lon="1.20468">
        <ele>299</ele>
        <time>2012-02-26T09:17:53Z</time>
      </trkpt>
      <trkpt lat="45.34567" lon="1.20468">
        <ele>298</ele>
        <time>2012-02-26T09:17:55Z</time>
      </trkpt>
      <trkpt lat="45.34563" lon="1.20469">
        <ele>298</ele>
        <time>2012-02-26T09:17:57Z</time>
      </trkpt>
      <trkpt lat="45.34558" lon="1.20469">
        <ele>298</ele>
        <time>2012-02-26T09:17:59Z</time>
      </trkpt>
      <trkpt lat="45.34552" lon="1.20469">
        <ele>298</ele>
        <time>2012-02-26T09:18:01Z</time>
      </trkpt>
      <trkpt lat="45.34548" lon="1.2047">
        <ele>298</ele>
        <time>2012-02-26T09:18:03Z</time>
      </trkpt>
      <trkpt lat="45.34544" lon="1.2047">
        <ele>298</ele>
        <time>2012-02-26T09:18:05Z</time>
      </trkpt>
      <trkpt lat="45.34539" lon="1.20471">
        <ele>298</ele>
        <time>2012-02-26T09:18:07Z</time>
      </trkpt>
      <trkpt lat="45.34533" lon="1.20471">
        <ele>298</ele>
        <time>2012-02-26T09:18:09Z</time>
      </trkpt>
      <trkpt lat="45.34527" lon="1.20472">
        <ele>298</ele>
        <time>2012-02-26T09:18:11Z</time>
      </trkpt>
      <trkpt lat="45.34522" lon="1.20472">
        <ele>298</ele>
        <time>2012-02-26T09:18:13Z</time>
      </trkpt>
      <trkpt lat="45.34517" lon="1.20472">
        <ele>298</ele>
        <time>2012-02-26T09:18:15Z</time>
      </trkpt>
      <trkpt lat="45.34512" lon="1.20471">
        <ele>299</ele>
        <time>2012-02-26T09:18:17Z</time>
      </trkpt>
      <trkpt lat="45.34506" lon="1.20473">
        <ele>300</ele>
        <time>2012-02-26T09:18:19Z</time>
      </trkpt>
      <trkpt lat="45.34501" lon="1.20474">
        <ele>302</ele>
        <time>2012-02-26T09:18:21Z</time>
      </trkpt>
      <trkpt lat="45.34496" lon="1.20473">
        <ele>302</ele>
        <time>2012-02-26T09:18:23Z</time>
      </trkpt>
      <trkpt lat="45.34491" lon="1.20472">
        <ele>303</ele>
        <time>2012-02-26T09:18:25Z</time>
      </trkpt>
      <trkpt lat="45.34485" lon="1.20474">
        <ele>304</ele>
        <time>2012-02-26T09:18:27Z</time>
      </trkpt>
      <trkpt lat="45.3448" lon="1.20475">
        <ele>305</ele>
        <time>2012-02-26T09:18:29Z</time>
      </trkpt>
      <trkpt lat="45.34474" lon="1.20474">
        <ele>307</ele>
        <time>2012-02-26T09:18:31Z</time>
      </trkpt>
      <trkpt lat="45.34469" lon="1.20475">
        <ele>309</ele>
        <time>2012-02-26T09:18:33Z</time>
      </trkpt>
      <trkpt lat="45.34465" lon="1.20475">
        <ele>311</ele>
        <time>2012-02-26T09:18:35Z</time>
      </trkpt>
      <trkpt lat="45.3446" lon="1.20473">
        <ele>312</ele>
        <time>2012-02-26T09:18:37Z</time>
      </trkpt>
      <trkpt lat="45.34456" lon="1.20471">
        <ele>312</ele>
        <time>2012-02-26T09:18:39Z</time>
      </trkpt>
      <trkpt lat="45.34451" lon="1.2047">
        <ele>313</ele>
        <time>2012-02-26T09:18:41Z</time>
      </trkpt>
      <trkpt lat="45.34447" lon="1.20469">
        <ele>313</ele>
        <time>2012-02-26T09:18:43Z</time>
      </trkpt>
      <trkpt lat="45.34444" lon="1.20467">
        <ele>313</ele>
        <time>2012-02-26T09:18:45Z</time>
      </trkpt>
      <trkpt lat="45.3444" lon="1.20463">
        <ele>313</ele>
        <time>2012-02-26T09:18:47Z</time>
      </trkpt>
      <trkpt lat="45.34436" lon="1.20458">
        <ele>314</ele>
        <time>2012-02-26T09:18:49Z</time>
      </trkpt>
      <trkpt lat="45.34432" lon="1.20453">
        <ele>314</ele>
        <time>2012-02-26T09:18:51Z</time>
      </trkpt>
      <trkpt lat="45.34428" lon="1.20448">
        <ele>314</ele>
        <time>2012-02-26T09:18:53Z</time>
      </trkpt>
      <trkpt lat="45.34425" lon="1.20444">
        <ele>314</ele>
        <time>2012-02-26T09:18:55Z</time>
      </trkpt>
      <trkpt lat="45.34422" lon="1.20438">
        <ele>314</ele>
        <time>2012-02-26T09:18:57Z</time>
      </trkpt>
      <trkpt lat="45.34419" lon="1.20433">
        <ele>314</ele>
        <time>2012-02-26T09:18:59Z</time>
      </trkpt>
      <trkpt lat="45.34416" lon="1.20428">
        <ele>315</ele>
        <time>2012-02-26T09:19:01Z</time>
      </trkpt>
      <trkpt lat="45.34413" lon="1.20425">
        <ele>315</ele>
        <time>2012-02-26T09:19:03Z</time>
      </trkpt>
      <trkpt lat="45.34411" lon="1.20421">
        <ele>316</ele>
        <time>2012-02-26T09:19:05Z</time>
      </trkpt>
      <trkpt lat="45.34407" lon="1.20418">
        <ele>316</ele>
        <time>2012-02-26T09:19:07Z</time>
      </trkpt>
      <trkpt lat="45.34404" lon="1.20413">
        <ele>316</ele>
        <time>2012-02-26T09:19:09Z</time>
      </trkpt>
      <trkpt lat="45.34399" lon="1.20409">
        <ele>316</ele>
        <time>2012-02-26T09:19:11Z</time>
      </trkpt>
      <trkpt lat="45.34394" lon="1.20406">
        <ele>316</ele>
        <time>2012-02-26T09:19:13Z</time>
      </trkpt>
      <trkpt lat="45.34388" lon="1.20406">
        <ele>316</ele>
        <time>2012-02-26T09:19:15Z</time>
      </trkpt>
      <trkpt lat="45.34383" lon="1.20405">
        <ele>316</ele>
        <time>2012-02-26T09:19:17Z</time>
      </trkpt>
      <trkpt lat="45.34377" lon="1.20404">
        <ele>316</ele>
        <time>2012-02-26T09:19:19Z</time>
      </trkpt>
      <trkpt lat="45.34372" lon="1.20403">
        <ele>316</ele>
        <time>2012-02-26T09:19:21Z</time>
      </trkpt>
      <trkpt lat="45.34366" lon="1.20401">
        <ele>316</ele>
        <time>2012-02-26T09:19:23Z</time>
      </trkpt>
      <trkpt lat="45.3436" lon="1.20399">
        <ele>317</ele>
        <time>2012-02-26T09:19:25Z</time>
      </trkpt>
      <trkpt lat="45.34354" lon="1.20398">
        <ele>317</ele>
        <time>2012-02-26T09:19:27Z</time>
      </trkpt>
      <trkpt lat="45.34348" lon="1.20396">
        <ele>317</ele>
        <time>2012-02-26T09:19:29Z</time>
      </trkpt>
      <trkpt lat="45.34342" lon="1.20393">
        <ele>317</ele>
        <time>2012-02-26T09:19:31Z</time>
      </trkpt>
      <trkpt lat="45.34335" lon="1.20392">
        <ele>317</ele>
        <time>2012-02-26T09:19:33Z</time>
      </trkpt>
      <trkpt lat="45.34329" lon="1.20393">
        <ele>317</ele>
        <time>2012-02-26T09:19:35Z</time>
      </trkpt>
      <trkpt lat="45.34322" lon="1.20395">
        <ele>317</ele>
        <time>2012-02-26T09:19:37Z</time>
      </trkpt>
      <trkpt lat="45.34316" lon="1.20395">
        <ele>317</ele>
        <time>2012-02-26T09:19:39Z</time>
      </trkpt>
      <trkpt lat="45.34309" lon="1.20396">
        <ele>316</ele>
        <time>2012-02-26T09:19:41Z</time>
      </trkpt>
      <trkpt lat="45.34302" lon="1.20398">
        <ele>315</ele>
        <time>2012-02-26T09:19:43Z</time>
      </trkpt>
      <trkpt lat="45.34295" lon="1.20402">
        <ele>315</ele>
        <time>2012-02-26T09:19:45Z</time>
      </trkpt>
      <trkpt lat="45.34288" lon="1.20405">
        <ele>315</ele>
        <time>2012-02-26T09:19:47Z</time>
      </trkpt>
      <trkpt lat="45.34282" lon="1.20408">
        <ele>315</ele>
        <time>2012-02-26T09:19:49Z</time>
      </trkpt>
      <trkpt lat="45.34276" lon="1.20411">
        <ele>314</ele>
        <time>2012-02-26T09:19:51Z</time>
      </trkpt>
      <trkpt lat="45.3427" lon="1.20414">
        <ele>313</ele>
        <time>2012-02-26T09:19:53Z</time>
      </trkpt>
      <trkpt lat="45.34264" lon="1.20417">
        <ele>313</ele>
        <time>2012-02-26T09:19:55Z</time>
      </trkpt>
      <trkpt lat="45.34258" lon="1.2042">
        <ele>313</ele>
        <time>2012-02-26T09:19:57Z</time>
      </trkpt>
      <trkpt lat="45.34251" lon="1.20423">
        <ele>313</ele>
        <time>2012-02-26T09:19:59Z</time>
      </trkpt>
      <trkpt lat="45.34244" lon="1.20424">
        <ele>313</ele>
        <time>2012-02-26T09:20:01Z</time>
      </trkpt>
      <trkpt lat="45.34237" lon="1.20427">
        <ele>313</ele>
        <time>2012-02-26T09:20:03Z</time>
      </trkpt>
      <trkpt lat="45.3423" lon="1.2043">
        <ele>312</ele>
        <time>2012-02-26T09:20:05Z</time>
      </trkpt>
      <trkpt lat="45.34222" lon="1.20432">
        <ele>312</ele>
        <time>2012-02-26T09:20:07Z</time>
      </trkpt>
      <trkpt lat="45.34214" lon="1.2043">
        <ele>311</ele>
        <time>2012-02-26T09:20:09Z</time>
      </trkpt>
      <trkpt lat="45.34207" lon="1.20428">
        <ele>311</ele>
        <time>2012-02-26T09:20:11Z</time>
      </trkpt>
      <trkpt lat="45.34199" lon="1.20427">
        <ele>310</ele>
        <time>2012-02-26T09:20:13Z</time>
      </trkpt>
      <trkpt lat="45.34193" lon="1.20426">
        <ele>310</ele>
        <time>2012-02-26T09:20:15Z</time>
      </trkpt>
      <trkpt lat="45.34185" lon="1.20425">
        <ele>310</ele>
        <time>2012-02-26T09:20:17Z</time>
      </trkpt>
      <trkpt lat="45.34177" lon="1.20423">
        <ele>310</ele>
        <time>2012-02-26T09:20:19Z</time>
      </trkpt>
      <trkpt lat="45.3417" lon="1.20423">
        <ele>310</ele>
        <time>2012-02-26T09:20:21Z</time>
      </trkpt>
      <trkpt lat="45.34163" lon="1.20422">
        <ele>309</ele>
        <time>2012-02-26T09:20:23Z</time>
      </trkpt>
      <trkpt lat="45.34155" lon="1.20421">
        <ele>308</ele>
        <time>2012-02-26T09:20:25Z</time>
      </trkpt>
      <trkpt lat="45.34147" lon="1.20417">
        <ele>306</ele>
        <time>2012-02-26T09:20:27Z</time>
      </trkpt>
      <trkpt lat="45.34139" lon="1.20413">
        <ele>305</ele>
        <time>2012-02-26T09:20:29Z</time>
      </trkpt>
      <trkpt lat="45.34131" lon="1.20409">
        <ele>304</ele>
        <time>2012-02-26T09:20:31Z</time>
      </trkpt>
      <trkpt lat="45.34124" lon="1.20407">
        <ele>303</ele>
        <time>2012-02-26T09:20:33Z</time>
      </trkpt>
      <trkpt lat="45.34116" lon="1.20404">
        <ele>303</ele>
        <time>2012-02-26T09:20:35Z</time>
      </trkpt>
      <trkpt lat="45.34107" lon="1.20401">
        <ele>302</ele>
        <time>2012-02-26T09:20:37Z</time>
      </trkpt>
      <trkpt lat="45.34099" lon="1.20398">
        <ele>302</ele>
        <time>2012-02-26T09:20:39Z</time>
      </trkpt>
      <trkpt lat="45.34091" lon="1.20396">
        <ele>302</ele>
        <time>2012-02-26T09:20:41Z</time>
      </trkpt>
      <trkpt lat="45.34084" lon="1.20394">
        <ele>302</ele>
        <time>2012-02-26T09:20:43Z</time>
      </trkpt>
      <trkpt lat="45.34076" lon="1.20391">
        <ele>302</ele>
        <time>2012-02-26T09:20:45Z</time>
      </trkpt>
      <trkpt lat="45.34069" lon="1.20388">
        <ele>302</ele>
        <time>2012-02-26T09:20:47Z</time>
      </trkpt>
      <trkpt lat="45.34062" lon="1.20387">
        <ele>301</ele>
        <time>2012-02-26T09:20:49Z</time>
      </trkpt>
      <trkpt lat="45.34055" lon="1.20385">
        <ele>301</ele>
        <time>2012-02-26T09:20:51Z</time>
      </trkpt>
      <trkpt lat="45.34047" lon="1.20381">
        <ele>300</ele>
        <time>2012-02-26T09:20:53Z</time>
      </trkpt>
      <trkpt lat="45.3404" lon="1.20379">
        <ele>299</ele>
        <time>2012-02-26T09:20:55Z</time>
      </trkpt>
      <trkpt lat="45.34032" lon="1.20376">
        <ele>297</ele>
        <time>2012-02-26T09:20:57Z</time>
      </trkpt>
      <trkpt lat="45.34025" lon="1.20372">
        <ele>296</ele>
        <time>2012-02-26T09:20:59Z</time>
      </trkpt>
      <trkpt lat="45.34018" lon="1.20368">
        <ele>295</ele>
        <time>2012-02-26T09:21:01Z</time>
      </trkpt>
      <trkpt lat="45.34011" lon="1.20364">
        <ele>293</ele>
        <time>2012-02-26T09:21:03Z</time>
      </trkpt>
      <trkpt lat="45.34003" lon="1.2036">
        <ele>291</ele>
        <time>2012-02-26T09:21:05Z</time>
      </trkpt>
      <trkpt lat="45.33996" lon="1.20357">
        <ele>289</ele>
        <time>2012-02-26T09:21:07Z</time>
      </trkpt>
      <trkpt lat="45.33989" lon="1.20353">
        <ele>287</ele>
        <time>2012-02-26T09:21:09Z</time>
      </trkpt>
      <trkpt lat="45.33982" lon="1.20352">
        <ele>285</ele>
        <time>2012-02-26T09:21:11Z</time>
      </trkpt>
      <trkpt lat="45.33974" lon="1.2035">
        <ele>283</ele>
        <time>2012-02-26T09:21:13Z</time>
      </trkpt>
      <trkpt lat="45.33967" lon="1.20346">
        <ele>281</ele>
        <time>2012-02-26T09:21:15Z</time>
      </trkpt>
      <trkpt lat="45.33959" lon="1.20344">
        <ele>279</ele>
        <time>2012-02-26T09:21:17Z</time>
      </trkpt>
      <trkpt lat="45.33952" lon="1.20342">
        <ele>277</ele>
        <time>2012-02-26T09:21:19Z</time>
      </trkpt>
      <trkpt lat="45.33944" lon="1.2034">
        <ele>275</ele>
        <time>2012-02-26T09:21:21Z</time>
      </trkpt>
      <trkpt lat="45.33937" lon="1.20338">
        <ele>274</ele>
        <time>2012-02-26T09:21:23Z</time>
      </trkpt>
      <trkpt lat="45.33929" lon="1.20336">
        <ele>273</ele>
        <time>2012-02-26T09:21:25Z</time>
      </trkpt>
      <trkpt lat="45.33921" lon="1.20332">
        <ele>272</ele>
        <time>2012-02-26T09:21:27Z</time>
      </trkpt>
      <trkpt lat="45.33913" lon="1.20328">
        <ele>271</ele>
        <time>2012-02-26T09:21:29Z</time>
      </trkpt>
      <trkpt lat="45.33905" lon="1.20325">
        <ele>269</ele>
        <time>2012-02-26T09:21:31Z</time>
      </trkpt>
      <trkpt lat="45.33897" lon="1.20322">
        <ele>269</ele>
        <time>2012-02-26T09:21:33Z</time>
      </trkpt>
      <trkpt lat="45.3389" lon="1.20321">
        <ele>268</ele>
        <time>2012-02-26T09:21:35Z</time>
      </trkpt>
      <trkpt lat="45.33883" lon="1.20319">
        <ele>268</ele>
        <time>2012-02-26T09:21:37Z</time>
      </trkpt>
      <trkpt lat="45.33877" lon="1.20315">
        <ele>266</ele>
        <time>2012-02-26T09:21:39Z</time>
      </trkpt>
      <trkpt lat="45.3387" lon="1.20312">
        <ele>265</ele>
        <time>2012-02-26T09:21:41Z</time>
      </trkpt>
      <trkpt lat="45.33863" lon="1.2031">
        <ele>264</ele>
        <time>2012-02-26T09:21:43Z</time>
      </trkpt>
      <trkpt lat="45.33856" lon="1.20305">
        <ele>262</ele>
        <time>2012-02-26T09:21:45Z</time>
      </trkpt>
      <trkpt lat="45.33848" lon="1.20302">
        <ele>262</ele>
        <time>2012-02-26T09:21:47Z</time>
      </trkpt>
      <trkpt lat="45.33841" lon="1.20298">
        <ele>261</ele>
        <time>2012-02-26T09:21:49Z</time>
      </trkpt>
      <trkpt lat="45.33834" lon="1.20295">
        <ele>260</ele>
        <time>2012-02-26T09:21:51Z</time>
      </trkpt>
      <trkpt lat="45.33828" lon="1.20289">
        <ele>259</ele>
        <time>2012-02-26T09:21:53Z</time>
      </trkpt>
      <trkpt lat="45.33821" lon="1.20284">
        <ele>258</ele>
        <time>2012-02-26T09:21:55Z</time>
      </trkpt>
      <trkpt lat="45.33814" lon="1.2028">
        <ele>257</ele>
        <time>2012-02-26T09:21:57Z</time>
      </trkpt>
      <trkpt lat="45.33807" lon="1.20276">
        <ele>256</ele>
        <time>2012-02-26T09:21:59Z</time>
      </trkpt>
      <trkpt lat="45.33801" lon="1.20271">
        <ele>255</ele>
        <time>2012-02-26T09:22:01Z</time>
      </trkpt>
      <trkpt lat="45.33794" lon="1.20267">
        <ele>254</ele>
        <time>2012-02-26T09:22:03Z</time>
      </trkpt>
      <trkpt lat="45.33789" lon="1.20262">
        <ele>253</ele>
        <time>2012-02-26T09:22:05Z</time>
      </trkpt>
      <trkpt lat="45.33783" lon="1.20255">
        <ele>251</ele>
        <time>2012-02-26T09:22:07Z</time>
      </trkpt>
      <trkpt lat="45.33781" lon="1.20248">
        <ele>250</ele>
        <time>2012-02-26T09:22:09Z</time>
      </trkpt>
      <trkpt lat="45.33781" lon="1.20241">
        <ele>248</ele>
        <time>2012-02-26T09:22:11Z</time>
      </trkpt>
      <trkpt lat="45.33783" lon="1.20233">
        <ele>246</ele>
        <time>2012-02-26T09:22:13Z</time>
      </trkpt>
      <trkpt lat="45.33784" lon="1.20227">
        <ele>244</ele>
        <time>2012-02-26T09:22:15Z</time>
      </trkpt>
      <trkpt lat="45.33786" lon="1.20217">
        <ele>242</ele>
        <time>2012-02-26T09:22:17Z</time>
      </trkpt>
      <trkpt lat="45.33787" lon="1.20208">
        <ele>240</ele>
        <time>2012-02-26T09:22:19Z</time>
      </trkpt>
      <trkpt lat="45.33788" lon="1.20199">
        <ele>238</ele>
        <time>2012-02-26T09:22:21Z</time>
      </trkpt>
      <trkpt lat="45.33789" lon="1.2019">
        <ele>236</ele>
        <time>2012-02-26T09:22:23Z</time>
      </trkpt>
      <trkpt lat="45.3379" lon="1.20182">
        <ele>235</ele>
        <time>2012-02-26T09:22:25Z</time>
      </trkpt>
      <trkpt lat="45.33792" lon="1.20172">
        <ele>233</ele>
        <time>2012-02-26T09:22:27Z</time>
      </trkpt>
      <trkpt lat="45.33794" lon="1.20161">
        <ele>231</ele>
        <time>2012-02-26T09:22:29Z</time>
      </trkpt>
      <trkpt lat="45.33796" lon="1.20152">
        <ele>229</ele>
        <time>2012-02-26T09:22:31Z</time>
      </trkpt>
      <trkpt lat="45.33799" lon="1.20143">
        <ele>227</ele>
        <time>2012-02-26T09:22:33Z</time>
      </trkpt>
      <trkpt lat="45.33801" lon="1.20135">
        <ele>225</ele>
        <time>2012-02-26T09:22:35Z</time>
      </trkpt>
      <trkpt lat="45.33804" lon="1.20127">
        <ele>223</ele>
        <time>2012-02-26T09:22:37Z</time>
      </trkpt>
      <trkpt lat="45.33806" lon="1.20117">
        <ele>223</ele>
        <time>2012-02-26T09:22:39Z</time>
      </trkpt>
      <trkpt lat="45.33808" lon="1.20108">
        <ele>222</ele>
        <time>2012-02-26T09:22:41Z</time>
      </trkpt>
      <trkpt lat="45.3381" lon="1.20098">
        <ele>221</ele>
        <time>2012-02-26T09:22:43Z</time>
      </trkpt>
      <trkpt lat="45.33814" lon="1.20088">
        <ele>221</ele>
        <time>2012-02-26T09:22:45Z</time>
      </trkpt>
      <trkpt lat="45.33817" lon="1.20077">
        <ele>220</ele>
        <time>2012-02-26T09:22:47Z</time>
      </trkpt>
      <trkpt lat="45.33822" lon="1.20067">
        <ele>220</ele>
        <time>2012-02-26T09:22:49Z</time>
      </trkpt>
      <trkpt lat="45.33827" lon="1.20059">
        <ele>219</ele>
        <time>2012-02-26T09:22:51Z</time>
      </trkpt>
      <trkpt lat="45.33833" lon="1.20052">
        <ele>219</ele>
        <time>2012-02-26T09:22:53Z</time>
      </trkpt>
      <trkpt lat="45.33839" lon="1.20047">
        <ele>218</ele>
        <time>2012-02-26T09:22:55Z</time>
      </trkpt>
      <trkpt lat="45.33846" lon="1.20044">
        <ele>216</ele>
        <time>2012-02-26T09:22:57Z</time>
      </trkpt>
      <trkpt lat="45.33852" lon="1.20042">
        <ele>215</ele>
        <time>2012-02-26T09:22:59Z</time>
      </trkpt>
      <trkpt lat="45.33855" lon="1.20038">
        <ele>213</ele>
        <time>2012-02-26T09:23:01Z</time>
      </trkpt>
      <trkpt lat="45.33852" lon="1.20033">
        <ele>211</ele>
        <time>2012-02-26T09:23:03Z</time>
      </trkpt>
      <trkpt lat="45.33845" lon="1.20025">
        <ele>209</ele>
        <time>2012-02-26T09:23:05Z</time>
      </trkpt>
      <trkpt lat="45.33839" lon="1.20017">
        <ele>207</ele>
        <time>2012-02-26T09:23:07Z</time>
      </trkpt>
      <trkpt lat="45.33837" lon="1.20007">
        <ele>205</ele>
        <time>2012-02-26T09:23:09Z</time>
      </trkpt>
      <trkpt lat="45.33835" lon="1.19997">
        <ele>204</ele>
        <time>2012-02-26T09:23:11Z</time>
      </trkpt>
      <trkpt lat="45.33834" lon="1.19986">
        <ele>203</ele>
        <time>2012-02-26T09:23:13Z</time>
      </trkpt>
      <trkpt lat="45.33833" lon="1.19976">
        <ele>203</ele>
        <time>2012-02-26T09:23:15Z</time>
      </trkpt>
      <trkpt lat="45.33832" lon="1.19966">
        <ele>203</ele>
        <time>2012-02-26T09:23:17Z</time>
      </trkpt>
      <trkpt lat="45.33831" lon="1.19957">
        <ele>203</ele>
        <time>2012-02-26T09:23:19Z</time>
      </trkpt>
      <trkpt lat="45.33832" lon="1.19948">
        <ele>203</ele>
        <time>2012-02-26T09:23:21Z</time>
      </trkpt>
      <trkpt lat="45.33831" lon="1.19938">
        <ele>203</ele>
        <time>2012-02-26T09:23:23Z</time>
      </trkpt>
      <trkpt lat="45.33829" lon="1.1993">
        <ele>203</ele>
        <time>2012-02-26T09:23:25Z</time>
      </trkpt>
      <trkpt lat="45.33823" lon="1.19926">
        <ele>203</ele>
        <time>2012-02-26T09:23:27Z</time>
      </trkpt>
      <trkpt lat="45.33817" lon="1.19925">
        <ele>203</ele>
        <time>2012-02-26T09:23:29Z</time>
      </trkpt>
      <trkpt lat="45.33812" lon="1.19927">
        <ele>204</ele>
        <time>2012-02-26T09:23:31Z</time>
      </trkpt>
      <trkpt lat="45.33807" lon="1.19931">
        <ele>205</ele>
        <time>2012-02-26T09:23:33Z</time>
      </trkpt>
      <trkpt lat="45.33803" lon="1.19935">
        <ele>207</ele>
        <time>2012-02-26T09:23:35Z</time>
      </trkpt>
      <trkpt lat="45.33799" lon="1.19938">
        <ele>209</ele>
        <time>2012-02-26T09:23:37Z</time>
      </trkpt>
      <trkpt lat="45.33793" lon="1.19946">
        <ele>211</ele>
        <time>2012-02-26T09:23:39Z</time>
      </trkpt>
      <trkpt lat="45.33786" lon="1.19947">
        <ele>213</ele>
        <time>2012-02-26T09:23:41Z</time>
      </trkpt>
      <trkpt lat="45.3378" lon="1.1995">
        <ele>215</ele>
        <time>2012-02-26T09:23:43Z</time>
      </trkpt>
      <trkpt lat="45.33776" lon="1.19955">
        <ele>217</ele>
        <time>2012-02-26T09:23:45Z</time>
      </trkpt>
      <trkpt lat="45.33771" lon="1.19958">
        <ele>219</ele>
        <time>2012-02-26T09:23:47Z</time>
      </trkpt>
      <trkpt lat="45.33765" lon="1.1996">
        <ele>221</ele>
        <time>2012-02-26T09:23:49Z</time>
      </trkpt>
      <trkpt lat="45.3376" lon="1.19961">
        <ele>223</ele>
        <time>2012-02-26T09:23:51Z</time>
      </trkpt>
      <trkpt lat="45.33755" lon="1.19959">
        <ele>224</ele>
        <time>2012-02-26T09:23:53Z</time>
      </trkpt>
      <trkpt lat="45.33749" lon="1.19961">
        <ele>224</ele>
        <time>2012-02-26T09:23:55Z</time>
      </trkpt>
      <trkpt lat="45.33744" lon="1.19967">
        <ele>225</ele>
        <time>2012-02-26T09:23:57Z</time>
      </trkpt>
      <trkpt lat="45.3374" lon="1.19974">
        <ele>227</ele>
        <time>2012-02-26T09:23:59Z</time>
      </trkpt>
      <trkpt lat="45.33737" lon="1.19979">
        <ele>228</ele>
        <time>2012-02-26T09:24:01Z</time>
      </trkpt>
      <trkpt lat="45.33733" lon="1.19983">
        <ele>228</ele>
        <time>2012-02-26T09:24:04Z</time>
      </trkpt>
      <trkpt lat="45.3373" lon="1.19988">
        <ele>228</ele>
        <time>2012-02-26T09:24:06Z</time>
      </trkpt>
      <trkpt lat="45.33727" lon="1.19993">
        <ele>228</ele>
        <time>2012-02-26T09:24:09Z</time>
      </trkpt>
      <trkpt lat="45.33721" lon="1.20001">
        <ele>228</ele>
        <time>2012-02-26T09:24:11Z</time>
      </trkpt>
      <trkpt lat="45.33717" lon="1.20007">
        <ele>228</ele>
        <time>2012-02-26T09:24:13Z</time>
      </trkpt>
      <trkpt lat="45.33712" lon="1.20013">
        <ele>228</ele>
        <time>2012-02-26T09:24:15Z</time>
      </trkpt>
      <trkpt lat="45.33707" lon="1.20016">
        <ele>228</ele>
        <time>2012-02-26T09:24:17Z</time>
      </trkpt>
      <trkpt lat="45.33704" lon="1.2002">
        <ele>228</ele>
        <time>2012-02-26T09:24:19Z</time>
      </trkpt>
      <trkpt lat="45.337" lon="1.20023">
        <ele>228</ele>
        <time>2012-02-26T09:24:21Z</time>
      </trkpt>
      <trkpt lat="45.33697" lon="1.20028">
        <ele>228</ele>
        <time>2012-02-26T09:24:23Z</time>
      </trkpt>
      <trkpt lat="45.33693" lon="1.20033">
        <ele>227</ele>
        <time>2012-02-26T09:24:25Z</time>
      </trkpt>
      <trkpt lat="45.3369" lon="1.2004">
        <ele>227</ele>
        <time>2012-02-26T09:24:27Z</time>
      </trkpt>
      <trkpt lat="45.33688" lon="1.20047">
        <ele>227</ele>
        <time>2012-02-26T09:24:29Z</time>
      </trkpt>
      <trkpt lat="45.33686" lon="1.20053">
        <ele>227</ele>
        <time>2012-02-26T09:24:31Z</time>
      </trkpt>
      <trkpt lat="45.33684" lon="1.2006">
        <ele>227</ele>
        <time>2012-02-26T09:24:33Z</time>
      </trkpt>
      <trkpt lat="45.3368" lon="1.20067">
        <ele>227</ele>
        <time>2012-02-26T09:24:35Z</time>
      </trkpt>
      <trkpt lat="45.33677" lon="1.20075">
        <ele>227</ele>
        <time>2012-02-26T09:24:37Z</time>
      </trkpt>
      <trkpt lat="45.33673" lon="1.20081">
        <ele>227</ele>
        <time>2012-02-26T09:24:39Z</time>
      </trkpt>
      <trkpt lat="45.3367" lon="1.20086">
        <ele>227</ele>
        <time>2012-02-26T09:24:41Z</time>
      </trkpt>
      <trkpt lat="45.33666" lon="1.20091">
        <ele>227</ele>
        <time>2012-02-26T09:24:43Z</time>
      </trkpt>
      <trkpt lat="45.33664" lon="1.20098">
        <ele>227</ele>
        <time>2012-02-26T09:24:45Z</time>
      </trkpt>
      <trkpt lat="45.3366" lon="1.20106">
        <ele>227</ele>
        <time>2012-02-26T09:24:47Z</time>
      </trkpt>
      <trkpt lat="45.33657" lon="1.20114">
        <ele>227</ele>
        <time>2012-02-26T09:24:49Z</time>
      </trkpt>
      <trkpt lat="45.33653" lon="1.20122">
        <ele>227</ele>
        <time>2012-02-26T09:24:51Z</time>
      </trkpt>
      <trkpt lat="45.33648" lon="1.20128">
        <ele>227</ele>
        <time>2012-02-26T09:24:53Z</time>
      </trkpt>
      <trkpt lat="45.33645" lon="1.20132">
        <ele>227</ele>
        <time>2012-02-26T09:24:55Z</time>
      </trkpt>
      <trkpt lat="45.33642" lon="1.20133">
        <ele>227</ele>
        <time>2012-02-26T09:24:57Z</time>
      </trkpt>
      <trkpt lat="45.33641" lon="1.20133">
        <ele>227</ele>
        <time>2012-02-26T09:24:59Z</time>
      </trkpt>
      <trkpt lat="45.33639" lon="1.20131">
        <ele>227</ele>
        <time>2012-02-26T09:25:01Z</time>
      </trkpt>
      <trkpt lat="45.33637" lon="1.20132">
        <ele>227</ele>
        <time>2012-02-26T09:25:03Z</time>
      </trkpt>
      <trkpt lat="45.33634" lon="1.20133">
        <ele>227</ele>
        <time>2012-02-26T09:25:05Z</time>
      </trkpt>
      <trkpt lat="45.33631" lon="1.20136">
        <ele>227</ele>
        <time>2012-02-26T09:25:09Z</time>
      </trkpt>
      <trkpt lat="45.33628" lon="1.20137">
        <ele>227</ele>
        <time>2012-02-26T09:25:11Z</time>
      </trkpt>
      <trkpt lat="45.33626" lon="1.20138">
        <ele>227</ele>
        <time>2012-02-26T09:25:13Z</time>
      </trkpt>
      <trkpt lat="45.33624" lon="1.20139">
        <ele>228</ele>
        <time>2012-02-26T09:25:15Z</time>
      </trkpt>
      <trkpt lat="45.33621" lon="1.20139">
        <ele>228</ele>
        <time>2012-02-26T09:25:18Z</time>
      </trkpt>
      <trkpt lat="45.3362" lon="1.20139">
        <ele>229</ele>
        <time>2012-02-26T09:25:20Z</time>
      </trkpt>
      <trkpt lat="45.33618" lon="1.20138">
        <ele>229</ele>
        <time>2012-02-26T09:25:22Z</time>
      </trkpt>
      <trkpt lat="45.33615" lon="1.20139">
        <ele>229</ele>
        <time>2012-02-26T09:25:25Z</time>
      </trkpt>
      <trkpt lat="45.33614" lon="1.20141">
        <ele>230</ele>
        <time>2012-02-26T09:25:27Z</time>
      </trkpt>
      <trkpt lat="45.33613" lon="1.2014">
        <ele>231</ele>
        <time>2012-02-26T09:25:29Z</time>
      </trkpt>
      <trkpt lat="45.33612" lon="1.20138">
        <ele>233</ele>
        <time>2012-02-26T09:25:33Z</time>
      </trkpt>
      <trkpt lat="45.3361" lon="1.20138">
        <ele>234</ele>
        <time>2012-02-26T09:25:35Z</time>
      </trkpt>
      <trkpt lat="45.33608" lon="1.20138">
        <ele>235</ele>
        <time>2012-02-26T09:25:37Z</time>
      </trkpt>
      <trkpt lat="45.33605" lon="1.20137">
        <ele>236</ele>
        <time>2012-02-26T09:25:39Z</time>
      </trkpt>
      <trkpt lat="45.33603" lon="1.20134">
        <ele>237</ele>
        <time>2012-02-26T09:25:46Z</time>
      </trkpt>
      <trkpt lat="45.33602" lon="1.20132">
        <ele>239</ele>
        <time>2012-02-26T09:25:49Z</time>
      </trkpt>
      <trkpt lat="45.336" lon="1.20129">
        <ele>240</ele>
        <time>2012-02-26T09:25:52Z</time>
      </trkpt>
      <trkpt lat="45.33599" lon="1.20127">
        <ele>241</ele>
        <time>2012-02-26T09:25:54Z</time>
      </trkpt>
      <trkpt lat="45.33598" lon="1.20123">
        <ele>242</ele>
        <time>2012-02-26T09:25:56Z</time>
      </trkpt>
      <trkpt lat="45.33596" lon="1.20119">
        <ele>244</ele>
        <time>2012-02-26T09:25:59Z</time>
      </trkpt>
      <trkpt lat="45.33595" lon="1.20117">
        <ele>245</ele>
        <time>2012-02-26T09:26:01Z</time>
      </trkpt>
      <trkpt lat="45.33593" lon="1.20113">
        <ele>246</ele>
        <time>2012-02-26T09:26:04Z</time>
      </trkpt>
      <trkpt lat="45.3359" lon="1.20111">
        <ele>247</ele>
        <time>2012-02-26T09:26:09Z</time>
      </trkpt>
      <trkpt lat="45.33587" lon="1.20109">
        <ele>247</ele>
        <time>2012-02-26T09:26:12Z</time>
      </trkpt>
      <trkpt lat="45.33586" lon="1.20109">
        <ele>249</ele>
        <time>2012-02-26T09:26:15Z</time>
      </trkpt>
      <trkpt lat="45.33585" lon="1.2011">
        <ele>250</ele>
        <time>2012-02-26T09:26:17Z</time>
      </trkpt>
      <trkpt lat="45.33584" lon="1.20109">
        <ele>252</ele>
        <time>2012-02-26T09:26:19Z</time>
      </trkpt>
      <trkpt lat="45.33581" lon="1.20107">
        <ele>252</ele>
        <time>2012-02-26T09:26:22Z</time>
      </trkpt>
      <trkpt lat="45.3358" lon="1.20105">
        <ele>252</ele>
        <time>2012-02-26T09:26:24Z</time>
      </trkpt>
      <trkpt lat="45.33577" lon="1.20106">
        <ele>253</ele>
        <time>2012-02-26T09:26:26Z</time>
      </trkpt>
      <trkpt lat="45.33576" lon="1.20104">
        <ele>254</ele>
        <time>2012-02-26T09:26:28Z</time>
      </trkpt>
      <trkpt lat="45.33572" lon="1.20101">
        <ele>255</ele>
        <time>2012-02-26T09:26:31Z</time>
      </trkpt>
      <trkpt lat="45.33571" lon="1.20101">
        <ele>255</ele>
        <time>2012-02-26T09:26:34Z</time>
      </trkpt>
      <trkpt lat="45.33569" lon="1.20099">
        <ele>256</ele>
        <time>2012-02-26T09:26:37Z</time>
      </trkpt>
      <trkpt lat="45.33567" lon="1.20099">
        <ele>257</ele>
        <time>2012-02-26T09:26:40Z</time>
      </trkpt>
      <trkpt lat="45.33567" lon="1.20097">
        <ele>257</ele>
        <time>2012-02-26T09:26:42Z</time>
      </trkpt>
      <trkpt lat="45.33565" lon="1.20095">
        <ele>258</ele>
        <time>2012-02-26T09:26:44Z</time>
      </trkpt>
      <trkpt lat="45.33564" lon="1.20093">
        <ele>258</ele>
        <time>2012-02-26T09:26:46Z</time>
      </trkpt>
      <trkpt lat="45.33563" lon="1.20091">
        <ele>258</ele>
        <time>2012-02-26T09:26:48Z</time>
      </trkpt>
      <trkpt lat="45.33561" lon="1.2009">
        <ele>260</ele>
        <time>2012-02-26T09:26:50Z</time>
      </trkpt>
      <trkpt lat="45.3356" lon="1.20089">
        <ele>261</ele>
        <time>2012-02-26T09:26:52Z</time>
      </trkpt>
      <trkpt lat="45.33558" lon="1.20087">
        <ele>263</ele>
        <time>2012-02-26T09:26:54Z</time>
      </trkpt>
      <trkpt lat="45.33555" lon="1.20084">
        <ele>264</ele>
        <time>2012-02-26T09:26:57Z</time>
      </trkpt>
      <trkpt lat="45.33554" lon="1.20082">
        <ele>265</ele>
        <time>2012-02-26T09:26:59Z</time>
      </trkpt>
      <trkpt lat="45.33549" lon="1.20081">
        <ele>265</ele>
        <time>2012-02-26T09:27:02Z</time>
      </trkpt>
      <trkpt lat="45.33547" lon="1.20081">
        <ele>265</ele>
        <time>2012-02-26T09:27:04Z</time>
      </trkpt>
      <trkpt lat="45.33546" lon="1.20079">
        <ele>265</ele>
        <time>2012-02-26T09:27:09Z</time>
      </trkpt>
      <trkpt lat="45.33544" lon="1.20075">
        <ele>265</ele>
        <time>2012-02-26T09:27:11Z</time>
      </trkpt>
      <trkpt lat="45.33543" lon="1.20073">
        <ele>265</ele>
        <time>2012-02-26T09:27:13Z</time>
      </trkpt>
      <trkpt lat="45.33542" lon="1.20069">
        <ele>264</ele>
        <time>2012-02-26T09:27:16Z</time>
      </trkpt>
      <trkpt lat="45.33538" lon="1.20065">
        <ele>263</ele>
        <time>2012-02-26T09:27:19Z</time>
      </trkpt>
      <trkpt lat="45.33535" lon="1.20066">
        <ele>263</ele>
        <time>2012-02-26T09:27:21Z</time>
      </trkpt>
      <trkpt lat="45.33532" lon="1.20066">
        <ele>263</ele>
        <time>2012-02-26T09:27:23Z</time>
      </trkpt>
      <trkpt lat="45.33532" lon="1.20061">
        <ele>263</ele>
        <time>2012-02-26T09:27:26Z</time>
      </trkpt>
      <trkpt lat="45.33532" lon="1.20058">
        <ele>263</ele>
        <time>2012-02-26T09:27:28Z</time>
      </trkpt>
      <trkpt lat="45.3353" lon="1.20053">
        <ele>263</ele>
        <time>2012-02-26T09:27:31Z</time>
      </trkpt>
      <trkpt lat="45.33527" lon="1.20051">
        <ele>263</ele>
        <time>2012-02-26T09:27:34Z</time>
      </trkpt>
      <trkpt lat="45.33526" lon="1.20049">
        <ele>263</ele>
        <time>2012-02-26T09:27:36Z</time>
      </trkpt>
      <trkpt lat="45.33527" lon="1.20045">
        <ele>263</ele>
        <time>2012-02-26T09:27:38Z</time>
      </trkpt>
      <trkpt lat="45.33527" lon="1.20041">
        <ele>263</ele>
        <time>2012-02-26T09:27:41Z</time>
      </trkpt>
      <trkpt lat="45.33527" lon="1.20038">
        <ele>263</ele>
        <time>2012-02-26T09:27:43Z</time>
      </trkpt>
      <trkpt lat="45.33525" lon="1.20036">
        <ele>263</ele>
        <time>2012-02-26T09:27:45Z</time>
      </trkpt>
      <trkpt lat="45.33524" lon="1.20033">
        <ele>263</ele>
        <time>2012-02-26T09:27:47Z</time>
      </trkpt>
      <trkpt lat="45.33524" lon="1.20031">
        <ele>263</ele>
        <time>2012-02-26T09:27:49Z</time>
      </trkpt>
      <trkpt lat="45.33523" lon="1.20029">
        <ele>264</ele>
        <time>2012-02-26T09:27:51Z</time>
      </trkpt>
      <trkpt lat="45.33524" lon="1.20026">
        <ele>265</ele>
        <time>2012-02-26T09:27:53Z</time>
      </trkpt>
      <trkpt lat="45.33526" lon="1.20025">
        <ele>266</ele>
        <time>2012-02-26T09:27:55Z</time>
      </trkpt>
      <trkpt lat="45.33526" lon="1.20022">
        <ele>268</ele>
        <time>2012-02-26T09:27:58Z</time>
      </trkpt>
      <trkpt lat="45.33527" lon="1.2002">
        <ele>268</ele>
        <time>2012-02-26T09:28:00Z</time>
      </trkpt>
      <trkpt lat="45.33526" lon="1.20017">
        <ele>268</ele>
        <time>2012-02-26T09:28:02Z</time>
      </trkpt>
      <trkpt lat="45.33526" lon="1.20012">
        <ele>268</ele>
        <time>2012-02-26T09:28:04Z</time>
      </trkpt>
      <trkpt lat="45.33526" lon="1.20008">
        <ele>268</ele>
        <time>2012-02-26T09:28:06Z</time>
      </trkpt>
      <trkpt lat="45.33527" lon="1.20003">
        <ele>268</ele>
        <time>2012-02-26T09:28:09Z</time>
      </trkpt>
      <trkpt lat="45.33528" lon="1.19999">
        <ele>268</ele>
        <time>2012-02-26T09:28:11Z</time>
      </trkpt>
      <trkpt lat="45.33531" lon="1.19994">
        <ele>268</ele>
        <time>2012-02-26T09:28:13Z</time>
      </trkpt>
      <trkpt lat="45.33533" lon="1.19988">
        <ele>268</ele>
        <time>2012-02-26T09:28:15Z</time>
      </trkpt>
      <trkpt lat="45.33534" lon="1.19983">
        <ele>268</ele>
        <time>2012-02-26T09:28:17Z</time>
      </trkpt>
      <trkpt lat="45.33535" lon="1.19979">
        <ele>267</ele>
        <time>2012-02-26T09:28:19Z</time>
      </trkpt>
      <trkpt lat="45.33536" lon="1.19975">
        <ele>267</ele>
        <time>2012-02-26T09:28:21Z</time>
      </trkpt>
      <trkpt lat="45.33536" lon="1.19971">
        <ele>267</ele>
        <time>2012-02-26T09:28:23Z</time>
      </trkpt>
      <trkpt lat="45.33538" lon="1.19966">
        <ele>267</ele>
        <time>2012-02-26T09:28:25Z</time>
      </trkpt>
      <trkpt lat="45.33539" lon="1.19957">
        <ele>267</ele>
        <time>2012-02-26T09:28:27Z</time>
      </trkpt>
      <trkpt lat="45.33541" lon="1.19952">
        <ele>267</ele>
        <time>2012-02-26T09:28:29Z</time>
      </trkpt>
      <trkpt lat="45.33543" lon="1.19946">
        <ele>267</ele>
        <time>2012-02-26T09:28:31Z</time>
      </trkpt>
      <trkpt lat="45.33544" lon="1.1994">
        <ele>267</ele>
        <time>2012-02-26T09:28:33Z</time>
      </trkpt>
      <trkpt lat="45.33545" lon="1.19934">
        <ele>267</ele>
        <time>2012-02-26T09:28:35Z</time>
      </trkpt>
      <trkpt lat="45.33546" lon="1.19928">
        <ele>267</ele>
        <time>2012-02-26T09:28:37Z</time>
      </trkpt>
      <trkpt lat="45.33548" lon="1.1992">
        <ele>267</ele>
        <time>2012-02-26T09:28:39Z</time>
      </trkpt>
      <trkpt lat="45.33549" lon="1.19914">
        <ele>266</ele>
        <time>2012-02-26T09:28:41Z</time>
      </trkpt>
      <trkpt lat="45.33551" lon="1.19909">
        <ele>265</ele>
        <time>2012-02-26T09:28:43Z</time>
      </trkpt>
      <trkpt lat="45.33553" lon="1.19903">
        <ele>265</ele>
        <time>2012-02-26T09:28:45Z</time>
      </trkpt>
      <trkpt lat="45.33556" lon="1.19897">
        <ele>264</ele>
        <time>2012-02-26T09:28:47Z</time>
      </trkpt>
      <trkpt lat="45.33559" lon="1.19891">
        <ele>263</ele>
        <time>2012-02-26T09:28:49Z</time>
      </trkpt>
      <trkpt lat="45.33561" lon="1.19885">
        <ele>263</ele>
        <time>2012-02-26T09:28:51Z</time>
      </trkpt>
      <trkpt lat="45.33563" lon="1.19879">
        <ele>262</ele>
        <time>2012-02-26T09:28:53Z</time>
      </trkpt>
      <trkpt lat="45.33566" lon="1.19873">
        <ele>262</ele>
        <time>2012-02-26T09:28:55Z</time>
      </trkpt>
      <trkpt lat="45.33569" lon="1.19867">
        <ele>261</ele>
        <time>2012-02-26T09:28:57Z</time>
      </trkpt>
      <trkpt lat="45.33573" lon="1.19859">
        <ele>261</ele>
        <time>2012-02-26T09:28:59Z</time>
      </trkpt>
      <trkpt lat="45.33577" lon="1.19854">
        <ele>259</ele>
        <time>2012-02-26T09:29:01Z</time>
      </trkpt>
      <trkpt lat="45.33579" lon="1.19848">
        <ele>258</ele>
        <time>2012-02-26T09:29:03Z</time>
      </trkpt>
      <trkpt lat="45.33581" lon="1.19841">
        <ele>257</ele>
        <time>2012-02-26T09:29:05Z</time>
      </trkpt>
      <trkpt lat="45.33584" lon="1.19837">
        <ele>257</ele>
        <time>2012-02-26T09:29:07Z</time>
      </trkpt>
      <trkpt lat="45.33586" lon="1.19835">
        <ele>256</ele>
        <time>2012-02-26T09:29:09Z</time>
      </trkpt>
      <trkpt lat="45.33588" lon="1.19836">
        <ele>255</ele>
        <time>2012-02-26T09:29:11Z</time>
      </trkpt>
      <trkpt lat="45.33592" lon="1.19839">
        <ele>255</ele>
        <time>2012-02-26T09:29:13Z</time>
      </trkpt>
      <trkpt lat="45.33596" lon="1.1984">
        <ele>255</ele>
        <time>2012-02-26T09:29:15Z</time>
      </trkpt>
      <trkpt lat="45.336" lon="1.19842">
        <ele>255</ele>
        <time>2012-02-26T09:29:17Z</time>
      </trkpt>
      <trkpt lat="45.33604" lon="1.19844">
        <ele>255</ele>
        <time>2012-02-26T09:29:20Z</time>
      </trkpt>
      <trkpt lat="45.33607" lon="1.19845">
        <ele>255</ele>
        <time>2012-02-26T09:29:22Z</time>
      </trkpt>
      <trkpt lat="45.3361" lon="1.19845">
        <ele>255</ele>
        <time>2012-02-26T09:29:24Z</time>
      </trkpt>
      <trkpt lat="45.33616" lon="1.19844">
        <ele>255</ele>
        <time>2012-02-26T09:29:26Z</time>
      </trkpt>
      <trkpt lat="45.33622" lon="1.19843">
        <ele>255</ele>
        <time>2012-02-26T09:29:28Z</time>
      </trkpt>
      <trkpt lat="45.33627" lon="1.19841">
        <ele>255</ele>
        <time>2012-02-26T09:29:30Z</time>
      </trkpt>
      <trkpt lat="45.33631" lon="1.19838">
        <ele>257</ele>
        <time>2012-02-26T09:29:32Z</time>
      </trkpt>
      <trkpt lat="45.33634" lon="1.19837">
        <ele>258</ele>
        <time>2012-02-26T09:29:34Z</time>
      </trkpt>
      <trkpt lat="45.33637" lon="1.19835">
        <ele>258</ele>
        <time>2012-02-26T09:29:36Z</time>
      </trkpt>
      <trkpt lat="45.33643" lon="1.19833">
        <ele>259</ele>
        <time>2012-02-26T09:29:38Z</time>
      </trkpt>
      <trkpt lat="45.33649" lon="1.19834">
        <ele>260</ele>
        <time>2012-02-26T09:29:40Z</time>
      </trkpt>
      <trkpt lat="45.33655" lon="1.1983">
        <ele>262</ele>
        <time>2012-02-26T09:29:42Z</time>
      </trkpt>
      <trkpt lat="45.33659" lon="1.19826">
        <ele>263</ele>
        <time>2012-02-26T09:29:44Z</time>
      </trkpt>
      <trkpt lat="45.33666" lon="1.19825">
        <ele>264</ele>
        <time>2012-02-26T09:29:46Z</time>
      </trkpt>
      <trkpt lat="45.33672" lon="1.19823">
        <ele>264</ele>
        <time>2012-02-26T09:29:48Z</time>
      </trkpt>
      <trkpt lat="45.33678" lon="1.19822">
        <ele>264</ele>
        <time>2012-02-26T09:29:50Z</time>
      </trkpt>
      <trkpt lat="45.33684" lon="1.19819">
        <ele>264</ele>
        <time>2012-02-26T09:29:52Z</time>
      </trkpt>
      <trkpt lat="45.33689" lon="1.19816">
        <ele>264</ele>
        <time>2012-02-26T09:29:54Z</time>
      </trkpt>
      <trkpt lat="45.33693" lon="1.19812">
        <ele>264</ele>
        <time>2012-02-26T09:29:56Z</time>
      </trkpt>
      <trkpt lat="45.33696" lon="1.19807">
        <ele>264</ele>
        <time>2012-02-26T09:29:58Z</time>
      </trkpt>
      <trkpt lat="45.337" lon="1.19804">
        <ele>264</ele>
        <time>2012-02-26T09:30:00Z</time>
      </trkpt>
      <trkpt lat="45.33704" lon="1.19798">
        <ele>264</ele>
        <time>2012-02-26T09:30:02Z</time>
      </trkpt>
      <trkpt lat="45.33709" lon="1.19794">
        <ele>264</ele>
        <time>2012-02-26T09:30:04Z</time>
      </trkpt>
      <trkpt lat="45.33715" lon="1.19791">
        <ele>264</ele>
        <time>2012-02-26T09:30:06Z</time>
      </trkpt>
      <trkpt lat="45.33719" lon="1.19787">
        <ele>263</ele>
        <time>2012-02-26T09:30:09Z</time>
      </trkpt>
      <trkpt lat="45.33725" lon="1.19781">
        <ele>263</ele>
        <time>2012-02-26T09:30:11Z</time>
      </trkpt>
      <trkpt lat="45.33729" lon="1.19775">
        <ele>262</ele>
        <time>2012-02-26T09:30:13Z</time>
      </trkpt>
      <trkpt lat="45.33733" lon="1.1977">
        <ele>261</ele>
        <time>2012-02-26T09:30:15Z</time>
      </trkpt>
      <trkpt lat="45.33736" lon="1.19766">
        <ele>261</ele>
        <time>2012-02-26T09:30:17Z</time>
      </trkpt>
      <trkpt lat="45.33741" lon="1.19766">
        <ele>261</ele>
        <time>2012-02-26T09:30:19Z</time>
      </trkpt>
      <trkpt lat="45.33745" lon="1.19771">
        <ele>261</ele>
        <time>2012-02-26T09:30:21Z</time>
      </trkpt>
      <trkpt lat="45.33749" lon="1.19776">
        <ele>261</ele>
        <time>2012-02-26T09:30:23Z</time>
      </trkpt>
      <trkpt lat="45.33755" lon="1.1978">
        <ele>261</ele>
        <time>2012-02-26T09:30:25Z</time>
      </trkpt>
      <trkpt lat="45.33761" lon="1.19781">
        <ele>261</ele>
        <time>2012-02-26T09:30:27Z</time>
      </trkpt>
      <trkpt lat="45.33768" lon="1.19782">
        <ele>261</ele>
        <time>2012-02-26T09:30:29Z</time>
      </trkpt>
      <trkpt lat="45.33774" lon="1.19785">
        <ele>261</ele>
        <time>2012-02-26T09:30:31Z</time>
      </trkpt>
      <trkpt lat="45.3378" lon="1.19791">
        <ele>261</ele>
        <time>2012-02-26T09:30:33Z</time>
      </trkpt>
      <trkpt lat="45.33786" lon="1.19796">
        <ele>261</ele>
        <time>2012-02-26T09:30:35Z</time>
      </trkpt>
      <trkpt lat="45.33791" lon="1.198">
        <ele>261</ele>
        <time>2012-02-26T09:30:37Z</time>
      </trkpt>
      <trkpt lat="45.33796" lon="1.19803">
        <ele>261</ele>
        <time>2012-02-26T09:30:39Z</time>
      </trkpt>
      <trkpt lat="45.33801" lon="1.19803">
        <ele>261</ele>
        <time>2012-02-26T09:30:41Z</time>
      </trkpt>
      <trkpt lat="45.33806" lon="1.19804">
        <ele>261</ele>
        <time>2012-02-26T09:30:43Z</time>
      </trkpt>
      <trkpt lat="45.33812" lon="1.19807">
        <ele>261</ele>
        <time>2012-02-26T09:30:45Z</time>
      </trkpt>
      <trkpt lat="45.33819" lon="1.19812">
        <ele>261</ele>
        <time>2012-02-26T09:30:47Z</time>
      </trkpt>
      <trkpt lat="45.33824" lon="1.19815">
        <ele>260</ele>
        <time>2012-02-26T09:30:50Z</time>
      </trkpt>
      <trkpt lat="45.33832" lon="1.19819">
        <ele>258</ele>
        <time>2012-02-26T09:30:52Z</time>
      </trkpt>
      <trkpt lat="45.33839" lon="1.19824">
        <ele>257</ele>
        <time>2012-02-26T09:30:54Z</time>
      </trkpt>
      <trkpt lat="45.33847" lon="1.1983">
        <ele>257</ele>
        <time>2012-02-26T09:30:56Z</time>
      </trkpt>
      <trkpt lat="45.33856" lon="1.19836">
        <ele>257</ele>
        <time>2012-02-26T09:30:58Z</time>
      </trkpt>
      <trkpt lat="45.33862" lon="1.19842">
        <ele>256</ele>
        <time>2012-02-26T09:31:00Z</time>
      </trkpt>
      <trkpt lat="45.33868" lon="1.19847">
        <ele>255</ele>
        <time>2012-02-26T09:31:02Z</time>
      </trkpt>
      <trkpt lat="45.33872" lon="1.19851">
        <ele>253</ele>
        <time>2012-02-26T09:31:04Z</time>
      </trkpt>
      <trkpt lat="45.33878" lon="1.19854">
        <ele>252</ele>
        <time>2012-02-26T09:31:06Z</time>
      </trkpt>
      <trkpt lat="45.33883" lon="1.19857">
        <ele>251</ele>
        <time>2012-02-26T09:31:09Z</time>
      </trkpt>
      <trkpt lat="45.33893" lon="1.19863">
        <ele>248</ele>
        <time>2012-02-26T09:31:11Z</time>
      </trkpt>
      <trkpt lat="45.33899" lon="1.19863">
        <ele>248</ele>
        <time>2012-02-26T09:31:13Z</time>
      </trkpt>
      <trkpt lat="45.33906" lon="1.19859">
        <ele>247</ele>
        <time>2012-02-26T09:31:15Z</time>
      </trkpt>
      <trkpt lat="45.33913" lon="1.19853">
        <ele>247</ele>
        <time>2012-02-26T09:31:17Z</time>
      </trkpt>
      <trkpt lat="45.33917" lon="1.19845">
        <ele>246</ele>
        <time>2012-02-26T09:31:19Z</time>
      </trkpt>
      <trkpt lat="45.33915" lon="1.19836">
        <ele>244</ele>
        <time>2012-02-26T09:31:21Z</time>
      </trkpt>
      <trkpt lat="45.33913" lon="1.19828">
        <ele>243</ele>
        <time>2012-02-26T09:31:23Z</time>
      </trkpt>
      <trkpt lat="45.33908" lon="1.1982">
        <ele>242</ele>
        <time>2012-02-26T09:31:25Z</time>
      </trkpt>
      <trkpt lat="45.33903" lon="1.19812">
        <ele>240</ele>
        <time>2012-02-26T09:31:27Z</time>
      </trkpt>
      <trkpt lat="45.33898" lon="1.19807">
        <ele>239</ele>
        <time>2012-02-26T09:31:29Z</time>
      </trkpt>
      <trkpt lat="45.33892" lon="1.19805">
        <ele>237</ele>
        <time>2012-02-26T09:31:31Z</time>
      </trkpt>
      <trkpt lat="45.33888" lon="1.19804">
        <ele>236</ele>
        <time>2012-02-26T09:31:33Z</time>
      </trkpt>
      <trkpt lat="45.33883" lon="1.198">
        <ele>236</ele>
        <time>2012-02-26T09:31:35Z</time>
      </trkpt>
      <trkpt lat="45.33878" lon="1.19796">
        <ele>236</ele>
        <time>2012-02-26T09:31:37Z</time>
      </trkpt>
      <trkpt lat="45.33875" lon="1.19792">
        <ele>236</ele>
        <time>2012-02-26T09:31:39Z</time>
      </trkpt>
      <trkpt lat="45.33872" lon="1.19786">
        <ele>236</ele>
        <time>2012-02-26T09:31:41Z</time>
      </trkpt>
      <trkpt lat="45.33868" lon="1.19777">
        <ele>236</ele>
        <time>2012-02-26T09:31:43Z</time>
      </trkpt>
      <trkpt lat="45.33864" lon="1.19768">
        <ele>235</ele>
        <time>2012-02-26T09:31:45Z</time>
      </trkpt>
      <trkpt lat="45.3386" lon="1.19762">
        <ele>235</ele>
        <time>2012-02-26T09:31:47Z</time>
      </trkpt>
      <trkpt lat="45.33857" lon="1.19753">
        <ele>234</ele>
        <time>2012-02-26T09:31:49Z</time>
      </trkpt>
      <trkpt lat="45.33854" lon="1.19743">
        <ele>234</ele>
        <time>2012-02-26T09:31:51Z</time>
      </trkpt>
      <trkpt lat="45.33851" lon="1.19733">
        <ele>233</ele>
        <time>2012-02-26T09:31:53Z</time>
      </trkpt>
      <trkpt lat="45.33849" lon="1.19725">
        <ele>233</ele>
        <time>2012-02-26T09:31:55Z</time>
      </trkpt>
      <trkpt lat="45.33846" lon="1.19715">
        <ele>232</ele>
        <time>2012-02-26T09:31:57Z</time>
      </trkpt>
      <trkpt lat="45.33844" lon="1.19705">
        <ele>232</ele>
        <time>2012-02-26T09:31:59Z</time>
      </trkpt>
      <trkpt lat="45.33843" lon="1.19693">
        <ele>231</ele>
        <time>2012-02-26T09:32:01Z</time>
      </trkpt>
      <trkpt lat="45.33843" lon="1.19681">
        <ele>230</ele>
        <time>2012-02-26T09:32:03Z</time>
      </trkpt>
      <trkpt lat="45.33844" lon="1.19669">
        <ele>229</ele>
        <time>2012-02-26T09:32:05Z</time>
      </trkpt>
      <trkpt lat="45.33845" lon="1.19658">
        <ele>227</ele>
        <time>2012-02-26T09:32:07Z</time>
      </trkpt>
      <trkpt lat="45.33846" lon="1.19646">
        <ele>225</ele>
        <time>2012-02-26T09:32:09Z</time>
      </trkpt>
      <trkpt lat="45.33847" lon="1.19633">
        <ele>223</ele>
        <time>2012-02-26T09:32:11Z</time>
      </trkpt>
      <trkpt lat="45.33849" lon="1.19623">
        <ele>221</ele>
        <time>2012-02-26T09:32:13Z</time>
      </trkpt>
      <trkpt lat="45.3385" lon="1.19612">
        <ele>219</ele>
        <time>2012-02-26T09:32:15Z</time>
      </trkpt>
      <trkpt lat="45.33852" lon="1.19603">
        <ele>218</ele>
        <time>2012-02-26T09:32:17Z</time>
      </trkpt>
      <trkpt lat="45.33852" lon="1.19593">
        <ele>216</ele>
        <time>2012-02-26T09:32:19Z</time>
      </trkpt>
      <trkpt lat="45.33852" lon="1.19582">
        <ele>214</ele>
        <time>2012-02-26T09:32:21Z</time>
      </trkpt>
      <trkpt lat="45.33853" lon="1.19573">
        <ele>213</ele>
        <time>2012-02-26T09:32:23Z</time>
      </trkpt>
      <trkpt lat="45.33855" lon="1.19564">
        <ele>212</ele>
        <time>2012-02-26T09:32:25Z</time>
      </trkpt>
      <trkpt lat="45.33859" lon="1.19555">
        <ele>211</ele>
        <time>2012-02-26T09:32:27Z</time>
      </trkpt>
      <trkpt lat="45.3386" lon="1.19546">
        <ele>210</ele>
        <time>2012-02-26T09:32:29Z</time>
      </trkpt>
      <trkpt lat="45.33861" lon="1.19539">
        <ele>209</ele>
        <time>2012-02-26T09:32:31Z</time>
      </trkpt>
      <trkpt lat="45.33863" lon="1.19533">
        <ele>208</ele>
        <time>2012-02-26T09:32:33Z</time>
      </trkpt>
      <trkpt lat="45.33862" lon="1.19524">
        <ele>207</ele>
        <time>2012-02-26T09:32:35Z</time>
      </trkpt>
      <trkpt lat="45.33862" lon="1.19518">
        <ele>207</ele>
        <time>2012-02-26T09:32:37Z</time>
      </trkpt>
      <trkpt lat="45.33862" lon="1.19511">
        <ele>207</ele>
        <time>2012-02-26T09:32:39Z</time>
      </trkpt>
      <trkpt lat="45.33863" lon="1.19504">
        <ele>207</ele>
        <time>2012-02-26T09:32:41Z</time>
      </trkpt>
      <trkpt lat="45.3386" lon="1.19491">
        <ele>207</ele>
        <time>2012-02-26T09:32:43Z</time>
      </trkpt>
      <trkpt lat="45.33855" lon="1.1948">
        <ele>207</ele>
        <time>2012-02-26T09:32:45Z</time>
      </trkpt>
      <trkpt lat="45.33852" lon="1.19468">
        <ele>207</ele>
        <time>2012-02-26T09:32:47Z</time>
      </trkpt>
      <trkpt lat="45.33849" lon="1.19459">
        <ele>207</ele>
        <time>2012-02-26T09:32:49Z</time>
      </trkpt>
      <trkpt lat="45.33847" lon="1.19451">
        <ele>206</ele>
        <time>2012-02-26T09:32:51Z</time>
      </trkpt>
      <trkpt lat="45.33847" lon="1.19446">
        <ele>204</ele>
        <time>2012-02-26T09:32:53Z</time>
      </trkpt>
      <trkpt lat="45.33847" lon="1.1944">
        <ele>204</ele>
        <time>2012-02-26T09:32:55Z</time>
      </trkpt>
      <trkpt lat="45.33848" lon="1.19433">
        <ele>204</ele>
        <time>2012-02-26T09:32:57Z</time>
      </trkpt>
      <trkpt lat="45.33849" lon="1.19429">
        <ele>204</ele>
        <time>2012-02-26T09:32:59Z</time>
      </trkpt>
      <trkpt lat="45.33852" lon="1.19426">
        <ele>204</ele>
        <time>2012-02-26T09:33:01Z</time>
      </trkpt>
      <trkpt lat="45.33856" lon="1.19424">
        <ele>204</ele>
        <time>2012-02-26T09:33:03Z</time>
      </trkpt>
      <trkpt lat="45.33859" lon="1.19424">
        <ele>204</ele>
        <time>2012-02-26T09:33:05Z</time>
      </trkpt>
      <trkpt lat="45.33862" lon="1.19424">
        <ele>206</ele>
        <time>2012-02-26T09:33:07Z</time>
      </trkpt>
      <trkpt lat="45.33867" lon="1.19425">
        <ele>208</ele>
        <time>2012-02-26T09:33:09Z</time>
      </trkpt>
      <trkpt lat="45.3387" lon="1.19425">
        <ele>210</ele>
        <time>2012-02-26T09:33:11Z</time>
      </trkpt>
      <trkpt lat="45.33873" lon="1.19425">
        <ele>212</ele>
        <time>2012-02-26T09:33:15Z</time>
      </trkpt>
      <trkpt lat="45.33876" lon="1.19424">
        <ele>212</ele>
        <time>2012-02-26T09:33:17Z</time>
      </trkpt>
      <trkpt lat="45.3388" lon="1.19423">
        <ele>212</ele>
        <time>2012-02-26T09:33:19Z</time>
      </trkpt>
      <trkpt lat="45.33884" lon="1.19422">
        <ele>213</ele>
        <time>2012-02-26T09:33:21Z</time>
      </trkpt>
      <trkpt lat="45.33887" lon="1.19421">
        <ele>214</ele>
        <time>2012-02-26T09:33:23Z</time>
      </trkpt>
      <trkpt lat="45.33891" lon="1.19417">
        <ele>215</ele>
        <time>2012-02-26T09:33:26Z</time>
      </trkpt>
      <trkpt lat="45.33893" lon="1.19413">
        <ele>215</ele>
        <time>2012-02-26T09:33:28Z</time>
      </trkpt>
      <trkpt lat="45.33894" lon="1.19408">
        <ele>215</ele>
        <time>2012-02-26T09:33:30Z</time>
      </trkpt>
      <trkpt lat="45.33894" lon="1.19402">
        <ele>215</ele>
        <time>2012-02-26T09:33:32Z</time>
      </trkpt>
      <trkpt lat="45.33894" lon="1.19397">
        <ele>215</ele>
        <time>2012-02-26T09:33:34Z</time>
      </trkpt>
      <trkpt lat="45.33895" lon="1.19391">
        <ele>215</ele>
        <time>2012-02-26T09:33:36Z</time>
      </trkpt>
      <trkpt lat="45.33897" lon="1.19386">
        <ele>215</ele>
        <time>2012-02-26T09:33:38Z</time>
      </trkpt>
      <trkpt lat="45.33901" lon="1.19388">
        <ele>215</ele>
        <time>2012-02-26T09:33:40Z</time>
      </trkpt>
      <trkpt lat="45.33906" lon="1.19391">
        <ele>216</ele>
        <time>2012-02-26T09:33:42Z</time>
      </trkpt>
      <trkpt lat="45.3391" lon="1.1939">
        <ele>216</ele>
        <time>2012-02-26T09:33:44Z</time>
      </trkpt>
      <trkpt lat="45.33915" lon="1.19389">
        <ele>216</ele>
        <time>2012-02-26T09:33:46Z</time>
      </trkpt>
      <trkpt lat="45.3392" lon="1.19386">
        <ele>216</ele>
        <time>2012-02-26T09:33:48Z</time>
      </trkpt>
      <trkpt lat="45.33925" lon="1.19383">
        <ele>216</ele>
        <time>2012-02-26T09:33:50Z</time>
      </trkpt>
      <trkpt lat="45.3393" lon="1.19381">
        <ele>216</ele>
        <time>2012-02-26T09:33:52Z</time>
      </trkpt>
      <trkpt lat="45.33935" lon="1.19376">
        <ele>216</ele>
        <time>2012-02-26T09:33:54Z</time>
      </trkpt>
      <trkpt lat="45.33941" lon="1.19372">
        <ele>216</ele>
        <time>2012-02-26T09:33:56Z</time>
      </trkpt>
      <trkpt lat="45.33948" lon="1.19369">
        <ele>216</ele>
        <time>2012-02-26T09:33:58Z</time>
      </trkpt>
      <trkpt lat="45.33954" lon="1.19365">
        <ele>216</ele>
        <time>2012-02-26T09:34:00Z</time>
      </trkpt>
      <trkpt lat="45.33958" lon="1.1936">
        <ele>216</ele>
        <time>2012-02-26T09:34:02Z</time>
      </trkpt>
      <trkpt lat="45.33963" lon="1.19353">
        <ele>216</ele>
        <time>2012-02-26T09:34:04Z</time>
      </trkpt>
      <trkpt lat="45.33968" lon="1.19346">
        <ele>216</ele>
        <time>2012-02-26T09:34:06Z</time>
      </trkpt>
      <trkpt lat="45.33973" lon="1.19338">
        <ele>216</ele>
        <time>2012-02-26T09:34:09Z</time>
      </trkpt>
      <trkpt lat="45.33981" lon="1.19327">
        <ele>214</ele>
        <time>2012-02-26T09:34:11Z</time>
      </trkpt>
      <trkpt lat="45.33984" lon="1.1932">
        <ele>213</ele>
        <time>2012-02-26T09:34:13Z</time>
      </trkpt>
      <trkpt lat="45.33987" lon="1.19312">
        <ele>211</ele>
        <time>2012-02-26T09:34:15Z</time>
      </trkpt>
      <trkpt lat="45.33989" lon="1.19305">
        <ele>209</ele>
        <time>2012-02-26T09:34:17Z</time>
      </trkpt>
      <trkpt lat="45.33992" lon="1.19297">
        <ele>207</ele>
        <time>2012-02-26T09:34:19Z</time>
      </trkpt>
      <trkpt lat="45.33993" lon="1.1929">
        <ele>205</ele>
        <time>2012-02-26T09:34:21Z</time>
      </trkpt>
      <trkpt lat="45.33994" lon="1.19284">
        <ele>203</ele>
        <time>2012-02-26T09:34:23Z</time>
      </trkpt>
      <trkpt lat="45.33996" lon="1.19276">
        <ele>201</ele>
        <time>2012-02-26T09:34:25Z</time>
      </trkpt>
      <trkpt lat="45.33996" lon="1.19269">
        <ele>200</ele>
        <time>2012-02-26T09:34:27Z</time>
      </trkpt>
      <trkpt lat="45.33997" lon="1.1926">
        <ele>198</ele>
        <time>2012-02-26T09:34:29Z</time>
      </trkpt>
      <trkpt lat="45.33998" lon="1.19251">
        <ele>197</ele>
        <time>2012-02-26T09:34:31Z</time>
      </trkpt>
      <trkpt lat="45.33998" lon="1.19242">
        <ele>197</ele>
        <time>2012-02-26T09:34:33Z</time>
      </trkpt>
      <trkpt lat="45.34" lon="1.19233">
        <ele>197</ele>
        <time>2012-02-26T09:34:35Z</time>
      </trkpt>
      <trkpt lat="45.34" lon="1.19223">
        <ele>196</ele>
        <time>2012-02-26T09:34:37Z</time>
      </trkpt>
      <trkpt lat="45.34001" lon="1.19213">
        <ele>195</ele>
        <time>2012-02-26T09:34:39Z</time>
      </trkpt>
      <trkpt lat="45.34002" lon="1.19202">
        <ele>194</ele>
        <time>2012-02-26T09:34:41Z</time>
      </trkpt>
      <trkpt lat="45.34002" lon="1.19192">
        <ele>193</ele>
        <time>2012-02-26T09:34:43Z</time>
      </trkpt>
      <trkpt lat="45.34003" lon="1.19182">
        <ele>191</ele>
        <time>2012-02-26T09:34:45Z</time>
      </trkpt>
      <trkpt lat="45.34005" lon="1.19173">
        <ele>190</ele>
        <time>2012-02-26T09:34:47Z</time>
      </trkpt>
      <trkpt lat="45.34005" lon="1.19166">
        <ele>189</ele>
        <time>2012-02-26T09:34:49Z</time>
      </trkpt>
      <trkpt lat="45.34004" lon="1.19156">
        <ele>188</ele>
        <time>2012-02-26T09:34:51Z</time>
      </trkpt>
      <trkpt lat="45.34003" lon="1.19151">
        <ele>188</ele>
        <time>2012-02-26T09:34:53Z</time>
      </trkpt>
      <trkpt lat="45.34" lon="1.19146">
        <ele>188</ele>
        <time>2012-02-26T09:34:55Z</time>
      </trkpt>
      <trkpt lat="45.33997" lon="1.1914">
        <ele>188</ele>
        <time>2012-02-26T09:34:57Z</time>
      </trkpt>
      <trkpt lat="45.33995" lon="1.19135">
        <ele>188</ele>
        <time>2012-02-26T09:34:59Z</time>
      </trkpt>
      <trkpt lat="45.33993" lon="1.1913">
        <ele>188</ele>
        <time>2012-02-26T09:35:01Z</time>
      </trkpt>
      <trkpt lat="45.33989" lon="1.19125">
        <ele>187</ele>
        <time>2012-02-26T09:35:03Z</time>
      </trkpt>
      <trkpt lat="45.33986" lon="1.19121">
        <ele>186</ele>
        <time>2012-02-26T09:35:05Z</time>
      </trkpt>
      <trkpt lat="45.33982" lon="1.19117">
        <ele>186</ele>
        <time>2012-02-26T09:35:07Z</time>
      </trkpt>
      <trkpt lat="45.33979" lon="1.19113">
        <ele>185</ele>
        <time>2012-02-26T09:35:09Z</time>
      </trkpt>
      <trkpt lat="45.33977" lon="1.19109">
        <ele>185</ele>
        <time>2012-02-26T09:35:11Z</time>
      </trkpt>
      <trkpt lat="45.33975" lon="1.19104">
        <ele>184</ele>
        <time>2012-02-26T09:35:13Z</time>
      </trkpt>
      <trkpt lat="45.33971" lon="1.19098">
        <ele>183</ele>
        <time>2012-02-26T09:35:15Z</time>
      </trkpt>
      <trkpt lat="45.33968" lon="1.19094">
        <ele>183</ele>
        <time>2012-02-26T09:35:17Z</time>
      </trkpt>
      <trkpt lat="45.33966" lon="1.19088">
        <ele>183</ele>
        <time>2012-02-26T09:35:19Z</time>
      </trkpt>
      <trkpt lat="45.33963" lon="1.19081">
        <ele>182</ele>
        <time>2012-02-26T09:35:21Z</time>
      </trkpt>
      <trkpt lat="45.3396" lon="1.19076">
        <ele>181</ele>
        <time>2012-02-26T09:35:23Z</time>
      </trkpt>
      <trkpt lat="45.33957" lon="1.19071">
        <ele>181</ele>
        <time>2012-02-26T09:35:25Z</time>
      </trkpt>
      <trkpt lat="45.33955" lon="1.19064">
        <ele>181</ele>
        <time>2012-02-26T09:35:27Z</time>
      </trkpt>
      <trkpt lat="45.33953" lon="1.19057">
        <ele>181</ele>
        <time>2012-02-26T09:35:29Z</time>
      </trkpt>
      <trkpt lat="45.33955" lon="1.19051">
        <ele>181</ele>
        <time>2012-02-26T09:35:31Z</time>
      </trkpt>
      <trkpt lat="45.33956" lon="1.19046">
        <ele>181</ele>
        <time>2012-02-26T09:35:33Z</time>
      </trkpt>
      <trkpt lat="45.33957" lon="1.19037">
        <ele>181</ele>
        <time>2012-02-26T09:35:35Z</time>
      </trkpt>
      <trkpt lat="45.33957" lon="1.19027">
        <ele>181</ele>
        <time>2012-02-26T09:35:37Z</time>
      </trkpt>
      <trkpt lat="45.3396" lon="1.19018">
        <ele>181</ele>
        <time>2012-02-26T09:35:39Z</time>
      </trkpt>
      <trkpt lat="45.33965" lon="1.19011">
        <ele>181</ele>
        <time>2012-02-26T09:35:41Z</time>
      </trkpt>
      <trkpt lat="45.33967" lon="1.19005">
        <ele>181</ele>
        <time>2012-02-26T09:35:43Z</time>
      </trkpt>
      <trkpt lat="45.33969" lon="1.19">
        <ele>181</ele>
        <time>2012-02-26T09:35:45Z</time>
      </trkpt>
      <trkpt lat="45.33972" lon="1.18995">
        <ele>181</ele>
        <time>2012-02-26T09:35:47Z</time>
      </trkpt>
      <trkpt lat="45.33974" lon="1.18989">
        <ele>182</ele>
        <time>2012-02-26T09:35:49Z</time>
      </trkpt>
      <trkpt lat="45.33977" lon="1.18984">
        <ele>183</ele>
        <time>2012-02-26T09:35:51Z</time>
      </trkpt>
      <trkpt lat="45.33978" lon="1.18977">
        <ele>184</ele>
        <time>2012-02-26T09:35:53Z</time>
      </trkpt>
      <trkpt lat="45.33981" lon="1.1897">
        <ele>184</ele>
        <time>2012-02-26T09:35:55Z</time>
      </trkpt>
      <trkpt lat="45.33985" lon="1.18964">
        <ele>184</ele>
        <time>2012-02-26T09:35:57Z</time>
      </trkpt>
      <trkpt lat="45.33987" lon="1.18957">
        <ele>184</ele>
        <time>2012-02-26T09:35:59Z</time>
      </trkpt>
      <trkpt lat="45.33989" lon="1.1895">
        <ele>184</ele>
        <time>2012-02-26T09:36:01Z</time>
      </trkpt>
      <trkpt lat="45.33991" lon="1.18941">
        <ele>184</ele>
        <time>2012-02-26T09:36:03Z</time>
      </trkpt>
      <trkpt lat="45.33991" lon="1.18933">
        <ele>184</ele>
        <time>2012-02-26T09:36:05Z</time>
      </trkpt>
      <trkpt lat="45.33992" lon="1.18924">
        <ele>184</ele>
        <time>2012-02-26T09:36:07Z</time>
      </trkpt>
      <trkpt lat="45.33992" lon="1.18917">
        <ele>184</ele>
        <time>2012-02-26T09:36:09Z</time>
      </trkpt>
      <trkpt lat="45.33992" lon="1.18909">
        <ele>184</ele>
        <time>2012-02-26T09:36:11Z</time>
      </trkpt>
      <trkpt lat="45.33993" lon="1.18901">
        <ele>184</ele>
        <time>2012-02-26T09:36:13Z</time>
      </trkpt>
      <trkpt lat="45.33992" lon="1.18894">
        <ele>184</ele>
        <time>2012-02-26T09:36:15Z</time>
      </trkpt>
      <trkpt lat="45.33992" lon="1.18884">
        <ele>184</ele>
        <time>2012-02-26T09:36:17Z</time>
      </trkpt>
      <trkpt lat="45.33992" lon="1.18874">
        <ele>184</ele>
        <time>2012-02-26T09:36:19Z</time>
      </trkpt>
      <trkpt lat="45.33994" lon="1.18864">
        <ele>184</ele>
        <time>2012-02-26T09:36:21Z</time>
      </trkpt>
      <trkpt lat="45.33994" lon="1.18855">
        <ele>184</ele>
        <time>2012-02-26T09:36:23Z</time>
      </trkpt>
      <trkpt lat="45.33995" lon="1.18847">
        <ele>184</ele>
        <time>2012-02-26T09:36:25Z</time>
      </trkpt>
      <trkpt lat="45.33994" lon="1.18835">
        <ele>184</ele>
        <time>2012-02-26T09:36:27Z</time>
      </trkpt>
      <trkpt lat="45.33995" lon="1.18827">
        <ele>184</ele>
        <time>2012-02-26T09:36:29Z</time>
      </trkpt>
      <trkpt lat="45.33995" lon="1.18818">
        <ele>184</ele>
        <time>2012-02-26T09:36:31Z</time>
      </trkpt>
      <trkpt lat="45.33997" lon="1.18809">
        <ele>184</ele>
        <time>2012-02-26T09:36:33Z</time>
      </trkpt>
      <trkpt lat="45.33999" lon="1.18799">
        <ele>184</ele>
        <time>2012-02-26T09:36:35Z</time>
      </trkpt>
      <trkpt lat="45.34" lon="1.18788">
        <ele>184</ele>
        <time>2012-02-26T09:36:37Z</time>
      </trkpt>
      <trkpt lat="45.34001" lon="1.18777">
        <ele>184</ele>
        <time>2012-02-26T09:36:39Z</time>
      </trkpt>
      <trkpt lat="45.34001" lon="1.18768">
        <ele>183</ele>
        <time>2012-02-26T09:36:41Z</time>
      </trkpt>
      <trkpt lat="45.34002" lon="1.1876">
        <ele>183</ele>
        <time>2012-02-26T09:36:43Z</time>
      </trkpt>
      <trkpt lat="45.34001" lon="1.18751">
        <ele>183</ele>
        <time>2012-02-26T09:36:45Z</time>
      </trkpt>
      <trkpt lat="45.34" lon="1.18739">
        <ele>183</ele>
        <time>2012-02-26T09:36:47Z</time>
      </trkpt>
      <trkpt lat="45.33999" lon="1.18727">
        <ele>183</ele>
        <time>2012-02-26T09:36:49Z</time>
      </trkpt>
      <trkpt lat="45.34003" lon="1.18718">
        <ele>183</ele>
        <time>2012-02-26T09:36:51Z</time>
      </trkpt>
      <trkpt lat="45.34007" lon="1.18709">
        <ele>183</ele>
        <time>2012-02-26T09:36:53Z</time>
      </trkpt>
      <trkpt lat="45.34008" lon="1.187">
        <ele>183</ele>
        <time>2012-02-26T09:36:55Z</time>
      </trkpt>
      <trkpt lat="45.3401" lon="1.18691">
        <ele>183</ele>
        <time>2012-02-26T09:36:57Z</time>
      </trkpt>
      <trkpt lat="45.34013" lon="1.18684">
        <ele>183</ele>
        <time>2012-02-26T09:36:59Z</time>
      </trkpt>
      <trkpt lat="45.34014" lon="1.18676">
        <ele>183</ele>
        <time>2012-02-26T09:37:01Z</time>
      </trkpt>
      <trkpt lat="45.34016" lon="1.18669">
        <ele>182</ele>
        <time>2012-02-26T09:37:03Z</time>
      </trkpt>
      <trkpt lat="45.34014" lon="1.18659">
        <ele>181</ele>
        <time>2012-02-26T09:37:05Z</time>
      </trkpt>
      <trkpt lat="45.34014" lon="1.18651">
        <ele>181</ele>
        <time>2012-02-26T09:37:07Z</time>
      </trkpt>
      <trkpt lat="45.34014" lon="1.18643">
        <ele>181</ele>
        <time>2012-02-26T09:37:09Z</time>
      </trkpt>
      <trkpt lat="45.34013" lon="1.18634">
        <ele>181</ele>
        <time>2012-02-26T09:37:11Z</time>
      </trkpt>
      <trkpt lat="45.34014" lon="1.18627">
        <ele>179</ele>
        <time>2012-02-26T09:37:13Z</time>
      </trkpt>
      <trkpt lat="45.34016" lon="1.18618">
        <ele>178</ele>
        <time>2012-02-26T09:37:15Z</time>
      </trkpt>
      <trkpt lat="45.3402" lon="1.1861">
        <ele>177</ele>
        <time>2012-02-26T09:37:17Z</time>
      </trkpt>
      <trkpt lat="45.34024" lon="1.18601">
        <ele>176</ele>
        <time>2012-02-26T09:37:19Z</time>
      </trkpt>
      <trkpt lat="45.34028" lon="1.18592">
        <ele>176</ele>
        <time>2012-02-26T09:37:21Z</time>
      </trkpt>
      <trkpt lat="45.34027" lon="1.18581">
        <ele>176</ele>
        <time>2012-02-26T09:37:23Z</time>
      </trkpt>
      <trkpt lat="45.34026" lon="1.1857">
        <ele>176</ele>
        <time>2012-02-26T09:37:25Z</time>
      </trkpt>
      <trkpt lat="45.34026" lon="1.18561">
        <ele>176</ele>
        <time>2012-02-26T09:37:27Z</time>
      </trkpt>
      <trkpt lat="45.34025" lon="1.18553">
        <ele>176</ele>
        <time>2012-02-26T09:37:29Z</time>
      </trkpt>
      <trkpt lat="45.34024" lon="1.18543">
        <ele>176</ele>
        <time>2012-02-26T09:37:31Z</time>
      </trkpt>
      <trkpt lat="45.34023" lon="1.18534">
        <ele>177</ele>
        <time>2012-02-26T09:37:33Z</time>
      </trkpt>
      <trkpt lat="45.34021" lon="1.18524">
        <ele>177</ele>
        <time>2012-02-26T09:37:35Z</time>
      </trkpt>
      <trkpt lat="45.34019" lon="1.18514">
        <ele>177</ele>
        <time>2012-02-26T09:37:37Z</time>
      </trkpt>
      <trkpt lat="45.34018" lon="1.18508">
        <ele>178</ele>
        <time>2012-02-26T09:37:39Z</time>
      </trkpt>
      <trkpt lat="45.34015" lon="1.185">
        <ele>178</ele>
        <time>2012-02-26T09:37:41Z</time>
      </trkpt>
      <trkpt lat="45.34012" lon="1.18493">
        <ele>178</ele>
        <time>2012-02-26T09:37:43Z</time>
      </trkpt>
      <trkpt lat="45.34008" lon="1.18487">
        <ele>178</ele>
        <time>2012-02-26T09:37:45Z</time>
      </trkpt>
      <trkpt lat="45.34004" lon="1.18481">
        <ele>179</ele>
        <time>2012-02-26T09:37:47Z</time>
      </trkpt>
      <trkpt lat="45.34001" lon="1.18478">
        <ele>180</ele>
        <time>2012-02-26T09:37:49Z</time>
      </trkpt>
      <trkpt lat="45.33997" lon="1.18473">
        <ele>180</ele>
        <time>2012-02-26T09:37:51Z</time>
      </trkpt>
      <trkpt lat="45.33992" lon="1.18466">
        <ele>180</ele>
        <time>2012-02-26T09:37:53Z</time>
      </trkpt>
      <trkpt lat="45.33988" lon="1.1846">
        <ele>180</ele>
        <time>2012-02-26T09:37:55Z</time>
      </trkpt>
      <trkpt lat="45.33984" lon="1.18455">
        <ele>180</ele>
        <time>2012-02-26T09:37:57Z</time>
      </trkpt>
      <trkpt lat="45.33981" lon="1.18448">
        <ele>180</ele>
        <time>2012-02-26T09:37:59Z</time>
      </trkpt>
      <trkpt lat="45.33978" lon="1.18442">
        <ele>178</ele>
        <time>2012-02-26T09:38:01Z</time>
      </trkpt>
      <trkpt lat="45.33975" lon="1.18435">
        <ele>176</ele>
        <time>2012-02-26T09:38:03Z</time>
      </trkpt>
      <trkpt lat="45.33972" lon="1.18428">
        <ele>174</ele>
        <time>2012-02-26T09:38:05Z</time>
      </trkpt>
      <trkpt lat="45.33969" lon="1.1842">
        <ele>172</ele>
        <time>2012-02-26T09:38:07Z</time>
      </trkpt>
      <trkpt lat="45.33965" lon="1.18411">
        <ele>170</ele>
        <time>2012-02-26T09:38:09Z</time>
      </trkpt>
      <trkpt lat="45.33963" lon="1.18402">
        <ele>168</ele>
        <time>2012-02-26T09:38:11Z</time>
      </trkpt>
      <trkpt lat="45.33962" lon="1.18394">
        <ele>166</ele>
        <time>2012-02-26T09:38:13Z</time>
      </trkpt>
      <trkpt lat="45.33962" lon="1.18389">
        <ele>164</ele>
        <time>2012-02-26T09:38:15Z</time>
      </trkpt>
      <trkpt lat="45.33962" lon="1.18384">
        <ele>162</ele>
        <time>2012-02-26T09:38:17Z</time>
      </trkpt>
      <trkpt lat="45.3396" lon="1.18379">
        <ele>161</ele>
        <time>2012-02-26T09:38:19Z</time>
      </trkpt>
      <trkpt lat="45.33961" lon="1.18371">
        <ele>161</ele>
        <time>2012-02-26T09:38:21Z</time>
      </trkpt>
      <trkpt lat="45.33962" lon="1.18362">
        <ele>161</ele>
        <time>2012-02-26T09:38:23Z</time>
      </trkpt>
      <trkpt lat="45.33964" lon="1.18354">
        <ele>161</ele>
        <time>2012-02-26T09:38:25Z</time>
      </trkpt>
      <trkpt lat="45.33965" lon="1.18345">
        <ele>161</ele>
        <time>2012-02-26T09:38:27Z</time>
      </trkpt>
      <trkpt lat="45.33964" lon="1.18335">
        <ele>161</ele>
        <time>2012-02-26T09:38:29Z</time>
      </trkpt>
      <trkpt lat="45.33964" lon="1.18327">
        <ele>161</ele>
        <time>2012-02-26T09:38:31Z</time>
      </trkpt>
      <trkpt lat="45.33963" lon="1.18318">
        <ele>161</ele>
        <time>2012-02-26T09:38:33Z</time>
      </trkpt>
      <trkpt lat="45.33963" lon="1.1831">
        <ele>161</ele>
        <time>2012-02-26T09:38:35Z</time>
      </trkpt>
      <trkpt lat="45.33962" lon="1.18301">
        <ele>161</ele>
        <time>2012-02-26T09:38:37Z</time>
      </trkpt>
      <trkpt lat="45.33963" lon="1.18292">
        <ele>161</ele>
        <time>2012-02-26T09:38:39Z</time>
      </trkpt>
      <trkpt lat="45.33963" lon="1.18283">
        <ele>161</ele>
        <time>2012-02-26T09:38:41Z</time>
      </trkpt>
      <trkpt lat="45.33965" lon="1.18275">
        <ele>161</ele>
        <time>2012-02-26T09:38:43Z</time>
      </trkpt>
      <trkpt lat="45.33966" lon="1.18266">
        <ele>161</ele>
        <time>2012-02-26T09:38:45Z</time>
      </trkpt>
      <trkpt lat="45.33966" lon="1.18259">
        <ele>161</ele>
        <time>2012-02-26T09:38:47Z</time>
      </trkpt>
      <trkpt lat="45.33966" lon="1.1825">
        <ele>161</ele>
        <time>2012-02-26T09:38:49Z</time>
      </trkpt>
      <trkpt lat="45.33965" lon="1.18242">
        <ele>161</ele>
        <time>2012-02-26T09:38:51Z</time>
      </trkpt>
      <trkpt lat="45.33965" lon="1.18234">
        <ele>161</ele>
        <time>2012-02-26T09:38:53Z</time>
      </trkpt>
      <trkpt lat="45.33964" lon="1.18227">
        <ele>161</ele>
        <time>2012-02-26T09:38:55Z</time>
      </trkpt>
      <trkpt lat="45.33964" lon="1.18217">
        <ele>161</ele>
        <time>2012-02-26T09:38:57Z</time>
      </trkpt>
      <trkpt lat="45.33963" lon="1.18207">
        <ele>161</ele>
        <time>2012-02-26T09:38:59Z</time>
      </trkpt>
      <trkpt lat="45.33964" lon="1.18195">
        <ele>161</ele>
        <time>2012-02-26T09:39:01Z</time>
      </trkpt>
      <trkpt lat="45.33965" lon="1.18183">
        <ele>161</ele>
        <time>2012-02-26T09:39:03Z</time>
      </trkpt>
      <trkpt lat="45.33966" lon="1.18172">
        <ele>161</ele>
        <time>2012-02-26T09:39:05Z</time>
      </trkpt>
      <trkpt lat="45.33966" lon="1.18163">
        <ele>161</ele>
        <time>2012-02-26T09:39:07Z</time>
      </trkpt>
      <trkpt lat="45.33967" lon="1.18153">
        <ele>161</ele>
        <time>2012-02-26T09:39:09Z</time>
      </trkpt>
      <trkpt lat="45.33969" lon="1.18142">
        <ele>161</ele>
        <time>2012-02-26T09:39:11Z</time>
      </trkpt>
      <trkpt lat="45.33972" lon="1.18132">
        <ele>163</ele>
        <time>2012-02-26T09:39:13Z</time>
      </trkpt>
      <trkpt lat="45.33975" lon="1.18122">
        <ele>165</ele>
        <time>2012-02-26T09:39:15Z</time>
      </trkpt>
      <trkpt lat="45.33978" lon="1.18113">
        <ele>167</ele>
        <time>2012-02-26T09:39:17Z</time>
      </trkpt>
      <trkpt lat="45.33981" lon="1.18103">
        <ele>169</ele>
        <time>2012-02-26T09:39:19Z</time>
      </trkpt>
      <trkpt lat="45.33987" lon="1.18094">
        <ele>171</ele>
        <time>2012-02-26T09:39:21Z</time>
      </trkpt>
      <trkpt lat="45.3399" lon="1.18085">
        <ele>173</ele>
        <time>2012-02-26T09:39:23Z</time>
      </trkpt>
      <trkpt lat="45.33992" lon="1.18076">
        <ele>175</ele>
        <time>2012-02-26T09:39:25Z</time>
      </trkpt>
      <trkpt lat="45.33995" lon="1.18067">
        <ele>177</ele>
        <time>2012-02-26T09:39:27Z</time>
      </trkpt>
      <trkpt lat="45.33999" lon="1.1806">
        <ele>179</ele>
        <time>2012-02-26T09:39:29Z</time>
      </trkpt>
      <trkpt lat="45.34003" lon="1.18052">
        <ele>181</ele>
        <time>2012-02-26T09:39:31Z</time>
      </trkpt>
      <trkpt lat="45.34008" lon="1.18045">
        <ele>182</ele>
        <time>2012-02-26T09:39:33Z</time>
      </trkpt>
      <trkpt lat="45.3401" lon="1.18037">
        <ele>183</ele>
        <time>2012-02-26T09:39:35Z</time>
      </trkpt>
      <trkpt lat="45.34013" lon="1.1803">
        <ele>183</ele>
        <time>2012-02-26T09:39:37Z</time>
      </trkpt>
      <trkpt lat="45.34016" lon="1.1802">
        <ele>183</ele>
        <time>2012-02-26T09:39:39Z</time>
      </trkpt>
      <trkpt lat="45.34019" lon="1.18013">
        <ele>183</ele>
        <time>2012-02-26T09:39:41Z</time>
      </trkpt>
      <trkpt lat="45.34024" lon="1.18006">
        <ele>183</ele>
        <time>2012-02-26T09:39:43Z</time>
      </trkpt>
      <trkpt lat="45.34028" lon="1.17997">
        <ele>183</ele>
        <time>2012-02-26T09:39:45Z</time>
      </trkpt>
      <trkpt lat="45.3403" lon="1.17991">
        <ele>183</ele>
        <time>2012-02-26T09:39:47Z</time>
      </trkpt>
      <trkpt lat="45.34034" lon="1.17988">
        <ele>183</ele>
        <time>2012-02-26T09:39:49Z</time>
      </trkpt>
      <trkpt lat="45.34039" lon="1.17985">
        <ele>183</ele>
        <time>2012-02-26T09:39:51Z</time>
      </trkpt>
      <trkpt lat="45.34044" lon="1.17979">
        <ele>183</ele>
        <time>2012-02-26T09:39:53Z</time>
      </trkpt>
      <trkpt lat="45.34049" lon="1.17973">
        <ele>183</ele>
        <time>2012-02-26T09:39:55Z</time>
      </trkpt>
      <trkpt lat="45.34055" lon="1.17967">
        <ele>183</ele>
        <time>2012-02-26T09:39:57Z</time>
      </trkpt>
      <trkpt lat="45.3406" lon="1.17962">
        <ele>183</ele>
        <time>2012-02-26T09:39:59Z</time>
      </trkpt>
      <trkpt lat="45.34065" lon="1.17956">
        <ele>183</ele>
        <time>2012-02-26T09:40:01Z</time>
      </trkpt>
      <trkpt lat="45.3407" lon="1.1795">
        <ele>183</ele>
        <time>2012-02-26T09:40:03Z</time>
      </trkpt>
      <trkpt lat="45.34074" lon="1.17943">
        <ele>183</ele>
        <time>2012-02-26T09:40:05Z</time>
      </trkpt>
      <trkpt lat="45.34077" lon="1.17937">
        <ele>183</ele>
        <time>2012-02-26T09:40:07Z</time>
      </trkpt>
      <trkpt lat="45.3408" lon="1.1793">
        <ele>183</ele>
        <time>2012-02-26T09:40:09Z</time>
      </trkpt>
      <trkpt lat="45.34084" lon="1.17924">
        <ele>183</ele>
        <time>2012-02-26T09:40:11Z</time>
      </trkpt>
      <trkpt lat="45.34089" lon="1.17917">
        <ele>183</ele>
        <time>2012-02-26T09:40:13Z</time>
      </trkpt>
      <trkpt lat="45.34095" lon="1.17912">
        <ele>183</ele>
        <time>2012-02-26T09:40:15Z</time>
      </trkpt>
      <trkpt lat="45.341" lon="1.17907">
        <ele>183</ele>
        <time>2012-02-26T09:40:17Z</time>
      </trkpt>
      <trkpt lat="45.34104" lon="1.17901">
        <ele>182</ele>
        <time>2012-02-26T09:40:19Z</time>
      </trkpt>
      <trkpt lat="45.34109" lon="1.17896">
        <ele>182</ele>
        <time>2012-02-26T09:40:21Z</time>
      </trkpt>
      <trkpt lat="45.34113" lon="1.17893">
        <ele>182</ele>
        <time>2012-02-26T09:40:23Z</time>
      </trkpt>
      <trkpt lat="45.34119" lon="1.17888">
        <ele>182</ele>
        <time>2012-02-26T09:40:25Z</time>
      </trkpt>
      <trkpt lat="45.34124" lon="1.17884">
        <ele>182</ele>
        <time>2012-02-26T09:40:27Z</time>
      </trkpt>
      <trkpt lat="45.34129" lon="1.17879">
        <ele>182</ele>
        <time>2012-02-26T09:40:29Z</time>
      </trkpt>
      <trkpt lat="45.34135" lon="1.17875">
        <ele>182</ele>
        <time>2012-02-26T09:40:31Z</time>
      </trkpt>
      <trkpt lat="45.34138" lon="1.17868">
        <ele>182</ele>
        <time>2012-02-26T09:40:33Z</time>
      </trkpt>
      <trkpt lat="45.34143" lon="1.17864">
        <ele>182</ele>
        <time>2012-02-26T09:40:35Z</time>
      </trkpt>
      <trkpt lat="45.34149" lon="1.17859">
        <ele>182</ele>
        <time>2012-02-26T09:40:37Z</time>
      </trkpt>
      <trkpt lat="45.34156" lon="1.17855">
        <ele>182</ele>
        <time>2012-02-26T09:40:39Z</time>
      </trkpt>
      <trkpt lat="45.3416" lon="1.17851">
        <ele>182</ele>
        <time>2012-02-26T09:40:41Z</time>
      </trkpt>
      <trkpt lat="45.34164" lon="1.17848">
        <ele>182</ele>
        <time>2012-02-26T09:40:43Z</time>
      </trkpt>
      <trkpt lat="45.34168" lon="1.17844">
        <ele>182</ele>
        <time>2012-02-26T09:40:45Z</time>
      </trkpt>
      <trkpt lat="45.34172" lon="1.17839">
        <ele>182</ele>
        <time>2012-02-26T09:40:47Z</time>
      </trkpt>
      <trkpt lat="45.34176" lon="1.17837">
        <ele>183</ele>
        <time>2012-02-26T09:40:49Z</time>
      </trkpt>
      <trkpt lat="45.34181" lon="1.17836">
        <ele>185</ele>
        <time>2012-02-26T09:40:51Z</time>
      </trkpt>
      <trkpt lat="45.34185" lon="1.17834">
        <ele>187</ele>
        <time>2012-02-26T09:40:53Z</time>
      </trkpt>
      <trkpt lat="45.34189" lon="1.17832">
        <ele>189</ele>
        <time>2012-02-26T09:40:55Z</time>
      </trkpt>
      <trkpt lat="45.34197" lon="1.1783">
        <ele>191</ele>
        <time>2012-02-26T09:40:57Z</time>
      </trkpt>
      <trkpt lat="45.34202" lon="1.17827">
        <ele>193</ele>
        <time>2012-02-26T09:40:59Z</time>
      </trkpt>
      <trkpt lat="45.34208" lon="1.17823">
        <ele>195</ele>
        <time>2012-02-26T09:41:01Z</time>
      </trkpt>
      <trkpt lat="45.34213" lon="1.17822">
        <ele>197</ele>
        <time>2012-02-26T09:41:03Z</time>
      </trkpt>
      <trkpt lat="45.3422" lon="1.17821">
        <ele>197</ele>
        <time>2012-02-26T09:41:05Z</time>
      </trkpt>
      <trkpt lat="45.34226" lon="1.1782">
        <ele>197</ele>
        <time>2012-02-26T09:41:07Z</time>
      </trkpt>
      <trkpt lat="45.34232" lon="1.17818">
        <ele>197</ele>
        <time>2012-02-26T09:41:09Z</time>
      </trkpt>
      <trkpt lat="45.34238" lon="1.17817">
        <ele>197</ele>
        <time>2012-02-26T09:41:11Z</time>
      </trkpt>
      <trkpt lat="45.34243" lon="1.17815">
        <ele>197</ele>
        <time>2012-02-26T09:41:13Z</time>
      </trkpt>
      <trkpt lat="45.3425" lon="1.17817">
        <ele>197</ele>
        <time>2012-02-26T09:41:15Z</time>
      </trkpt>
      <trkpt lat="45.34257" lon="1.17818">
        <ele>197</ele>
        <time>2012-02-26T09:41:17Z</time>
      </trkpt>
      <trkpt lat="45.34266" lon="1.17819">
        <ele>197</ele>
        <time>2012-02-26T09:41:19Z</time>
      </trkpt>
      <trkpt lat="45.34269" lon="1.17819">
        <ele>197</ele>
        <time>2012-02-26T09:41:21Z</time>
      </trkpt>
      <trkpt lat="45.34274" lon="1.17818">
        <ele>197</ele>
        <time>2012-02-26T09:41:25Z</time>
      </trkpt>
      <trkpt lat="45.34277" lon="1.17815">
        <ele>195</ele>
        <time>2012-02-26T09:41:27Z</time>
      </trkpt>
      <trkpt lat="45.3428" lon="1.17814">
        <ele>193</ele>
        <time>2012-02-26T09:41:29Z</time>
      </trkpt>
      <trkpt lat="45.34282" lon="1.17813">
        <ele>191</ele>
        <time>2012-02-26T09:41:31Z</time>
      </trkpt>
      <trkpt lat="45.34285" lon="1.17814">
        <ele>191</ele>
        <time>2012-02-26T09:41:33Z</time>
      </trkpt>
      <trkpt lat="45.34287" lon="1.17814">
        <ele>190</ele>
        <time>2012-02-26T09:41:35Z</time>
      </trkpt>
      <trkpt lat="45.34288" lon="1.17813">
        <ele>189</ele>
        <time>2012-02-26T09:41:37Z</time>
      </trkpt>
      <trkpt lat="45.3429" lon="1.17812">
        <ele>188</ele>
        <time>2012-02-26T09:41:39Z</time>
      </trkpt>
      <trkpt lat="45.34292" lon="1.17811">
        <ele>188</ele>
        <time>2012-02-26T09:41:41Z</time>
      </trkpt>
      <trkpt lat="45.34295" lon="1.17809">
        <ele>187</ele>
        <time>2012-02-26T09:41:43Z</time>
      </trkpt>
      <trkpt lat="45.34297" lon="1.17808">
        <ele>187</ele>
        <time>2012-02-26T09:41:45Z</time>
      </trkpt>
      <trkpt lat="45.34301" lon="1.17808">
        <ele>187</ele>
        <time>2012-02-26T09:41:48Z</time>
      </trkpt>
      <trkpt lat="45.34304" lon="1.17807">
        <ele>187</ele>
        <time>2012-02-26T09:41:50Z</time>
      </trkpt>
      <trkpt lat="45.34306" lon="1.17809">
        <ele>187</ele>
        <time>2012-02-26T09:41:53Z</time>
      </trkpt>
      <trkpt lat="45.34308" lon="1.17808">
        <ele>187</ele>
        <time>2012-02-26T09:41:55Z</time>
      </trkpt>
      <trkpt lat="45.34308" lon="1.17812">
        <ele>187</ele>
        <time>2012-02-26T09:41:57Z</time>
      </trkpt>
      <trkpt lat="45.34311" lon="1.17813">
        <ele>189</ele>
        <time>2012-02-26T09:41:59Z</time>
      </trkpt>
      <trkpt lat="45.34317" lon="1.17813">
        <ele>191</ele>
        <time>2012-02-26T09:42:01Z</time>
      </trkpt>
      <trkpt lat="45.34321" lon="1.17815">
        <ele>193</ele>
        <time>2012-02-26T09:42:03Z</time>
      </trkpt>
      <trkpt lat="45.34324" lon="1.17817">
        <ele>196</ele>
        <time>2012-02-26T09:42:06Z</time>
      </trkpt>
      <trkpt lat="45.34325" lon="1.17818">
        <ele>197</ele>
        <time>2012-02-26T09:42:10Z</time>
      </trkpt>
      <trkpt lat="45.34327" lon="1.17819">
        <ele>197</ele>
        <time>2012-02-26T09:42:12Z</time>
      </trkpt>
      <trkpt lat="45.34329" lon="1.17819">
        <ele>197</ele>
        <time>2012-02-26T09:42:14Z</time>
      </trkpt>
      <trkpt lat="45.34331" lon="1.1782">
        <ele>197</ele>
        <time>2012-02-26T09:42:16Z</time>
      </trkpt>
      <trkpt lat="45.34334" lon="1.17824">
        <ele>199</ele>
        <time>2012-02-26T09:42:19Z</time>
      </trkpt>
      <trkpt lat="45.34335" lon="1.17825">
        <ele>200</ele>
        <time>2012-02-26T09:42:22Z</time>
      </trkpt>
      <trkpt lat="45.34337" lon="1.17825">
        <ele>200</ele>
        <time>2012-02-26T09:42:24Z</time>
      </trkpt>
      <trkpt lat="45.34338" lon="1.17825">
        <ele>200</ele>
        <time>2012-02-26T09:42:26Z</time>
      </trkpt>
      <trkpt lat="45.34338" lon="1.17827">
        <ele>201</ele>
        <time>2012-02-26T09:42:28Z</time>
      </trkpt>
      <trkpt lat="45.34341" lon="1.17828">
        <ele>201</ele>
        <time>2012-02-26T09:42:30Z</time>
      </trkpt>
      <trkpt lat="45.34343" lon="1.17832">
        <ele>202</ele>
        <time>2012-02-26T09:42:33Z</time>
      </trkpt>
      <trkpt lat="45.34344" lon="1.17833">
        <ele>202</ele>
        <time>2012-02-26T09:42:35Z</time>
      </trkpt>
      <trkpt lat="45.34347" lon="1.17835">
        <ele>202</ele>
        <time>2012-02-26T09:42:38Z</time>
      </trkpt>
      <trkpt lat="45.34348" lon="1.17838">
        <ele>202</ele>
        <time>2012-02-26T09:42:40Z</time>
      </trkpt>
      <trkpt lat="45.34349" lon="1.1784">
        <ele>202</ele>
        <time>2012-02-26T09:42:42Z</time>
      </trkpt>
      <trkpt lat="45.34352" lon="1.17844">
        <ele>202</ele>
        <time>2012-02-26T09:42:45Z</time>
      </trkpt>
      <trkpt lat="45.34351" lon="1.17848">
        <ele>204</ele>
        <time>2012-02-26T09:42:47Z</time>
      </trkpt>
      <trkpt lat="45.34352" lon="1.17852">
        <ele>207</ele>
        <time>2012-02-26T09:42:50Z</time>
      </trkpt>
      <trkpt lat="45.34355" lon="1.17852">
        <ele>209</ele>
        <time>2012-02-26T09:42:52Z</time>
      </trkpt>
      <trkpt lat="45.34358" lon="1.1785">
        <ele>211</ele>
        <time>2012-02-26T09:42:55Z</time>
      </trkpt>
      <trkpt lat="45.34358" lon="1.17849">
        <ele>211</ele>
        <time>2012-02-26T09:42:57Z</time>
      </trkpt>
      <trkpt lat="45.34359" lon="1.17845">
        <ele>211</ele>
        <time>2012-02-26T09:42:59Z</time>
      </trkpt>
      <trkpt lat="45.34362" lon="1.17841">
        <ele>211</ele>
        <time>2012-02-26T09:43:01Z</time>
      </trkpt>
      <trkpt lat="45.34364" lon="1.17837">
        <ele>211</ele>
        <time>2012-02-26T09:43:04Z</time>
      </trkpt>
      <trkpt lat="45.34366" lon="1.17835">
        <ele>211</ele>
        <time>2012-02-26T09:43:06Z</time>
      </trkpt>
      <trkpt lat="45.34367" lon="1.17831">
        <ele>211</ele>
        <time>2012-02-26T09:43:09Z</time>
      </trkpt>
      <trkpt lat="45.34367" lon="1.17826">
        <ele>211</ele>
        <time>2012-02-26T09:43:11Z</time>
      </trkpt>
      <trkpt lat="45.34369" lon="1.1782">
        <ele>211</ele>
        <time>2012-02-26T09:43:13Z</time>
      </trkpt>
      <trkpt lat="45.34371" lon="1.17816">
        <ele>211</ele>
        <time>2012-02-26T09:43:15Z</time>
      </trkpt>
      <trkpt lat="45.34372" lon="1.1781">
        <ele>210</ele>
        <time>2012-02-26T09:43:17Z</time>
      </trkpt>
      <trkpt lat="45.34374" lon="1.17805">
        <ele>209</ele>
        <time>2012-02-26T09:43:19Z</time>
      </trkpt>
      <trkpt lat="45.34375" lon="1.17801">
        <ele>209</ele>
        <time>2012-02-26T09:43:21Z</time>
      </trkpt>
      <trkpt lat="45.34375" lon="1.17798">
        <ele>208</ele>
        <time>2012-02-26T09:43:23Z</time>
      </trkpt>
      <trkpt lat="45.34377" lon="1.17794">
        <ele>207</ele>
        <time>2012-02-26T09:43:25Z</time>
      </trkpt>
      <trkpt lat="45.34377" lon="1.17791">
        <ele>207</ele>
        <time>2012-02-26T09:43:27Z</time>
      </trkpt>
      <trkpt lat="45.34378" lon="1.17787">
        <ele>207</ele>
        <time>2012-02-26T09:43:29Z</time>
      </trkpt>
      <trkpt lat="45.34379" lon="1.17783">
        <ele>207</ele>
        <time>2012-02-26T09:43:31Z</time>
      </trkpt>
      <trkpt lat="45.3438" lon="1.17778">
        <ele>207</ele>
        <time>2012-02-26T09:43:33Z</time>
      </trkpt>
      <trkpt lat="45.3438" lon="1.17772">
        <ele>206</ele>
        <time>2012-02-26T09:43:35Z</time>
      </trkpt>
      <trkpt lat="45.34381" lon="1.17766">
        <ele>206</ele>
        <time>2012-02-26T09:43:37Z</time>
      </trkpt>
      <trkpt lat="45.34381" lon="1.17761">
        <ele>206</ele>
        <time>2012-02-26T09:43:39Z</time>
      </trkpt>
      <trkpt lat="45.3438" lon="1.17755">
        <ele>206</ele>
        <time>2012-02-26T09:43:41Z</time>
      </trkpt>
      <trkpt lat="45.34381" lon="1.1775">
        <ele>206</ele>
        <time>2012-02-26T09:43:43Z</time>
      </trkpt>
      <trkpt lat="45.34382" lon="1.17744">
        <ele>206</ele>
        <time>2012-02-26T09:43:45Z</time>
      </trkpt>
      <trkpt lat="45.34382" lon="1.17739">
        <ele>206</ele>
        <time>2012-02-26T09:43:47Z</time>
      </trkpt>
      <trkpt lat="45.34383" lon="1.17735">
        <ele>206</ele>
        <time>2012-02-26T09:43:49Z</time>
      </trkpt>
      <trkpt lat="45.34383" lon="1.17729">
        <ele>206</ele>
        <time>2012-02-26T09:43:51Z</time>
      </trkpt>
      <trkpt lat="45.34382" lon="1.17724">
        <ele>206</ele>
        <time>2012-02-26T09:43:53Z</time>
      </trkpt>
      <trkpt lat="45.34382" lon="1.17719">
        <ele>206</ele>
        <time>2012-02-26T09:43:55Z</time>
      </trkpt>
      <trkpt lat="45.34381" lon="1.17715">
        <ele>206</ele>
        <time>2012-02-26T09:43:57Z</time>
      </trkpt>
      <trkpt lat="45.34379" lon="1.17709">
        <ele>206</ele>
        <time>2012-02-26T09:43:59Z</time>
      </trkpt>
      <trkpt lat="45.34377" lon="1.17704">
        <ele>206</ele>
        <time>2012-02-26T09:44:01Z</time>
      </trkpt>
      <trkpt lat="45.34375" lon="1.177">
        <ele>207</ele>
        <time>2012-02-26T09:44:03Z</time>
      </trkpt>
      <trkpt lat="45.34375" lon="1.17695">
        <ele>208</ele>
        <time>2012-02-26T09:44:05Z</time>
      </trkpt>
      <trkpt lat="45.34374" lon="1.17691">
        <ele>209</ele>
        <time>2012-02-26T09:44:07Z</time>
      </trkpt>
      <trkpt lat="45.34373" lon="1.17686">
        <ele>210</ele>
        <time>2012-02-26T09:44:09Z</time>
      </trkpt>
      <trkpt lat="45.34372" lon="1.17682">
        <ele>211</ele>
        <time>2012-02-26T09:44:11Z</time>
      </trkpt>
      <trkpt lat="45.34371" lon="1.17678">
        <ele>211</ele>
        <time>2012-02-26T09:44:13Z</time>
      </trkpt>
      <trkpt lat="45.34369" lon="1.17674">
        <ele>212</ele>
        <time>2012-02-26T09:44:15Z</time>
      </trkpt>
      <trkpt lat="45.34367" lon="1.1767">
        <ele>212</ele>
        <time>2012-02-26T09:44:17Z</time>
      </trkpt>
      <trkpt lat="45.34364" lon="1.17665">
        <ele>213</ele>
        <time>2012-02-26T09:44:19Z</time>
      </trkpt>
      <trkpt lat="45.34362" lon="1.1766">
        <ele>213</ele>
        <time>2012-02-26T09:44:21Z</time>
      </trkpt>
      <trkpt lat="45.34359" lon="1.17658">
        <ele>214</ele>
        <time>2012-02-26T09:44:23Z</time>
      </trkpt>
      <trkpt lat="45.34357" lon="1.17657">
        <ele>214</ele>
        <time>2012-02-26T09:44:25Z</time>
      </trkpt>
      <trkpt lat="45.34355" lon="1.17659">
        <ele>215</ele>
        <time>2012-02-26T09:44:27Z</time>
      </trkpt>
      <trkpt lat="45.34353" lon="1.17662">
        <ele>215</ele>
        <time>2012-02-26T09:44:29Z</time>
      </trkpt>
      <trkpt lat="45.34353" lon="1.17664">
        <ele>216</ele>
        <time>2012-02-26T09:44:31Z</time>
      </trkpt>
      <trkpt lat="45.34351" lon="1.17667">
        <ele>217</ele>
        <time>2012-02-26T09:44:33Z</time>
      </trkpt>
      <trkpt lat="45.3435" lon="1.1767">
        <ele>219</ele>
        <time>2012-02-26T09:44:35Z</time>
      </trkpt>
      <trkpt lat="45.34349" lon="1.17672">
        <ele>219</ele>
        <time>2012-02-26T09:44:37Z</time>
      </trkpt>
      <trkpt lat="45.34348" lon="1.17675">
        <ele>220</ele>
        <time>2012-02-26T09:44:39Z</time>
      </trkpt>
      <trkpt lat="45.34347" lon="1.17677">
        <ele>220</ele>
        <time>2012-02-26T09:44:41Z</time>
      </trkpt>
      <trkpt lat="45.34345" lon="1.17683">
        <ele>221</ele>
        <time>2012-02-26T09:44:44Z</time>
      </trkpt>
      <trkpt lat="45.34342" lon="1.17688">
        <ele>221</ele>
        <time>2012-02-26T09:44:47Z</time>
      </trkpt>
      <trkpt lat="45.34341" lon="1.17691">
        <ele>221</ele>
        <time>2012-02-26T09:44:49Z</time>
      </trkpt>
      <trkpt lat="45.34339" lon="1.17696">
        <ele>222</ele>
        <time>2012-02-26T09:44:51Z</time>
      </trkpt>
      <trkpt lat="45.34338" lon="1.17699">
        <ele>222</ele>
        <time>2012-02-26T09:44:53Z</time>
      </trkpt>
      <trkpt lat="45.34337" lon="1.17702">
        <ele>222</ele>
        <time>2012-02-26T09:44:55Z</time>
      </trkpt>
      <trkpt lat="45.34334" lon="1.17703">
        <ele>222</ele>
        <time>2012-02-26T09:44:57Z</time>
      </trkpt>
      <trkpt lat="45.34331" lon="1.17705">
        <ele>223</ele>
        <time>2012-02-26T09:44:59Z</time>
      </trkpt>
      <trkpt lat="45.34329" lon="1.17707">
        <ele>223</ele>
        <time>2012-02-26T09:45:01Z</time>
      </trkpt>
      <trkpt lat="45.34324" lon="1.1771">
        <ele>223</ele>
        <time>2012-02-26T09:45:03Z</time>
      </trkpt>
      <trkpt lat="45.3432" lon="1.17711">
        <ele>223</ele>
        <time>2012-02-26T09:45:05Z</time>
      </trkpt>
      <trkpt lat="45.34316" lon="1.1771">
        <ele>223</ele>
        <time>2012-02-26T09:45:07Z</time>
      </trkpt>
      <trkpt lat="45.34313" lon="1.17709">
        <ele>223</ele>
        <time>2012-02-26T09:45:09Z</time>
      </trkpt>
      <trkpt lat="45.34309" lon="1.17707">
        <ele>223</ele>
        <time>2012-02-26T09:45:11Z</time>
      </trkpt>
      <trkpt lat="45.34305" lon="1.17705">
        <ele>223</ele>
        <time>2012-02-26T09:45:13Z</time>
      </trkpt>
      <trkpt lat="45.34301" lon="1.17701">
        <ele>223</ele>
        <time>2012-02-26T09:45:15Z</time>
      </trkpt>
      <trkpt lat="45.34298" lon="1.17697">
        <ele>223</ele>
        <time>2012-02-26T09:45:17Z</time>
      </trkpt>
      <trkpt lat="45.34294" lon="1.17693">
        <ele>223</ele>
        <time>2012-02-26T09:45:19Z</time>
      </trkpt>
      <trkpt lat="45.34291" lon="1.17689">
        <ele>224</ele>
        <time>2012-02-26T09:45:21Z</time>
      </trkpt>
      <trkpt lat="45.34287" lon="1.17685">
        <ele>226</ele>
        <time>2012-02-26T09:45:23Z</time>
      </trkpt>
      <trkpt lat="45.34284" lon="1.17681">
        <ele>228</ele>
        <time>2012-02-26T09:45:25Z</time>
      </trkpt>
      <trkpt lat="45.34281" lon="1.17677">
        <ele>229</ele>
        <time>2012-02-26T09:45:27Z</time>
      </trkpt>
      <trkpt lat="45.34278" lon="1.17672">
        <ele>231</ele>
        <time>2012-02-26T09:45:29Z</time>
      </trkpt>
      <trkpt lat="45.34275" lon="1.17667">
        <ele>232</ele>
        <time>2012-02-26T09:45:31Z</time>
      </trkpt>
      <trkpt lat="45.34271" lon="1.17665">
        <ele>233</ele>
        <time>2012-02-26T09:45:33Z</time>
      </trkpt>
      <trkpt lat="45.34268" lon="1.17662">
        <ele>234</ele>
        <time>2012-02-26T09:45:35Z</time>
      </trkpt>
      <trkpt lat="45.34265" lon="1.1766">
        <ele>235</ele>
        <time>2012-02-26T09:45:37Z</time>
      </trkpt>
      <trkpt lat="45.34261" lon="1.17655">
        <ele>237</ele>
        <time>2012-02-26T09:45:39Z</time>
      </trkpt>
      <trkpt lat="45.34257" lon="1.17649">
        <ele>238</ele>
        <time>2012-02-26T09:45:41Z</time>
      </trkpt>
      <trkpt lat="45.34253" lon="1.17645">
        <ele>240</ele>
        <time>2012-02-26T09:45:43Z</time>
      </trkpt>
      <trkpt lat="45.34251" lon="1.17643">
        <ele>240</ele>
        <time>2012-02-26T09:45:45Z</time>
      </trkpt>
      <trkpt lat="45.34247" lon="1.17639">
        <ele>241</ele>
        <time>2012-02-26T09:45:47Z</time>
      </trkpt>
      <trkpt lat="45.34245" lon="1.17636">
        <ele>241</ele>
        <time>2012-02-26T09:45:49Z</time>
      </trkpt>
      <trkpt lat="45.34242" lon="1.17634">
        <ele>241</ele>
        <time>2012-02-26T09:45:51Z</time>
      </trkpt>
      <trkpt lat="45.34238" lon="1.17631">
        <ele>241</ele>
        <time>2012-02-26T09:45:54Z</time>
      </trkpt>
      <trkpt lat="45.34236" lon="1.1763">
        <ele>241</ele>
        <time>2012-02-26T09:45:56Z</time>
      </trkpt>
      <trkpt lat="45.34234" lon="1.17628">
        <ele>241</ele>
        <time>2012-02-26T09:45:58Z</time>
      </trkpt>
      <trkpt lat="45.3423" lon="1.17625">
        <ele>241</ele>
        <time>2012-02-26T09:46:01Z</time>
      </trkpt>
      <trkpt lat="45.34227" lon="1.17624">
        <ele>241</ele>
        <time>2012-02-26T09:46:03Z</time>
      </trkpt>
      <trkpt lat="45.34226" lon="1.17623">
        <ele>241</ele>
        <time>2012-02-26T09:46:05Z</time>
      </trkpt>
      <trkpt lat="45.34223" lon="1.17621">
        <ele>241</ele>
        <time>2012-02-26T09:46:07Z</time>
      </trkpt>
      <trkpt lat="45.34221" lon="1.17619">
        <ele>241</ele>
        <time>2012-02-26T09:46:09Z</time>
      </trkpt>
      <trkpt lat="45.34218" lon="1.17617">
        <ele>241</ele>
        <time>2012-02-26T09:46:11Z</time>
      </trkpt>
      <trkpt lat="45.34216" lon="1.17614">
        <ele>242</ele>
        <time>2012-02-26T09:46:13Z</time>
      </trkpt>
      <trkpt lat="45.34214" lon="1.17612">
        <ele>242</ele>
        <time>2012-02-26T09:46:15Z</time>
      </trkpt>
      <trkpt lat="45.34212" lon="1.1761">
        <ele>242</ele>
        <time>2012-02-26T09:46:17Z</time>
      </trkpt>
      <trkpt lat="45.3421" lon="1.17608">
        <ele>242</ele>
        <time>2012-02-26T09:46:19Z</time>
      </trkpt>
      <trkpt lat="45.34208" lon="1.17607">
        <ele>243</ele>
        <time>2012-02-26T09:46:21Z</time>
      </trkpt>
      <trkpt lat="45.34205" lon="1.17605">
        <ele>243</ele>
        <time>2012-02-26T09:46:23Z</time>
      </trkpt>
      <trkpt lat="45.34201" lon="1.17601">
        <ele>244</ele>
        <time>2012-02-26T09:46:25Z</time>
      </trkpt>
      <trkpt lat="45.34198" lon="1.17599">
        <ele>246</ele>
        <time>2012-02-26T09:46:27Z</time>
      </trkpt>
      <trkpt lat="45.34196" lon="1.17596">
        <ele>246</ele>
        <time>2012-02-26T09:46:29Z</time>
      </trkpt>
      <trkpt lat="45.34193" lon="1.17595">
        <ele>247</ele>
        <time>2012-02-26T09:46:31Z</time>
      </trkpt>
      <trkpt lat="45.34191" lon="1.17595">
        <ele>247</ele>
        <time>2012-02-26T09:46:33Z</time>
      </trkpt>
      <trkpt lat="45.3419" lon="1.17594">
        <ele>248</ele>
        <time>2012-02-26T09:46:35Z</time>
      </trkpt>
      <trkpt lat="45.34187" lon="1.17594">
        <ele>248</ele>
        <time>2012-02-26T09:46:37Z</time>
      </trkpt>
      <trkpt lat="45.34186" lon="1.17592">
        <ele>249</ele>
        <time>2012-02-26T09:46:39Z</time>
      </trkpt>
      <trkpt lat="45.34183" lon="1.1759">
        <ele>249</ele>
        <time>2012-02-26T09:46:41Z</time>
      </trkpt>
      <trkpt lat="45.34181" lon="1.17588">
        <ele>250</ele>
        <time>2012-02-26T09:46:43Z</time>
      </trkpt>
      <trkpt lat="45.34177" lon="1.17587">
        <ele>250</ele>
        <time>2012-02-26T09:46:45Z</time>
      </trkpt>
      <trkpt lat="45.34174" lon="1.17585">
        <ele>251</ele>
        <time>2012-02-26T09:46:47Z</time>
      </trkpt>
      <trkpt lat="45.3417" lon="1.17583">
        <ele>252</ele>
        <time>2012-02-26T09:46:50Z</time>
      </trkpt>
      <trkpt lat="45.34168" lon="1.17583">
        <ele>252</ele>
        <time>2012-02-26T09:46:52Z</time>
      </trkpt>
      <trkpt lat="45.34165" lon="1.17582">
        <ele>253</ele>
        <time>2012-02-26T09:46:54Z</time>
      </trkpt>
      <trkpt lat="45.34162" lon="1.17581">
        <ele>254</ele>
        <time>2012-02-26T09:46:56Z</time>
      </trkpt>
      <trkpt lat="45.3416" lon="1.1758">
        <ele>254</ele>
        <time>2012-02-26T09:46:58Z</time>
      </trkpt>
      <trkpt lat="45.34156" lon="1.1758">
        <ele>255</ele>
        <time>2012-02-26T09:47:00Z</time>
      </trkpt>
      <trkpt lat="45.34153" lon="1.17578">
        <ele>256</ele>
        <time>2012-02-26T09:47:02Z</time>
      </trkpt>
      <trkpt lat="45.3415" lon="1.17577">
        <ele>256</ele>
        <time>2012-02-26T09:47:04Z</time>
      </trkpt>
      <trkpt lat="45.34147" lon="1.17576">
        <ele>257</ele>
        <time>2012-02-26T09:47:07Z</time>
      </trkpt>
      <trkpt lat="45.34144" lon="1.17575">
        <ele>258</ele>
        <time>2012-02-26T09:47:09Z</time>
      </trkpt>
      <trkpt lat="45.34141" lon="1.17574">
        <ele>258</ele>
        <time>2012-02-26T09:47:11Z</time>
      </trkpt>
      <trkpt lat="45.34138" lon="1.17573">
        <ele>258</ele>
        <time>2012-02-26T09:47:14Z</time>
      </trkpt>
      <trkpt lat="45.34134" lon="1.17571">
        <ele>258</ele>
        <time>2012-02-26T09:47:16Z</time>
      </trkpt>
      <trkpt lat="45.34132" lon="1.1757">
        <ele>258</ele>
        <time>2012-02-26T09:47:19Z</time>
      </trkpt>
      <trkpt lat="45.34129" lon="1.1757">
        <ele>259</ele>
        <time>2012-02-26T09:47:21Z</time>
      </trkpt>
      <trkpt lat="45.34126" lon="1.1757">
        <ele>259</ele>
        <time>2012-02-26T09:47:23Z</time>
      </trkpt>
      <trkpt lat="45.34123" lon="1.1757">
        <ele>260</ele>
        <time>2012-02-26T09:47:25Z</time>
      </trkpt>
      <trkpt lat="45.3412" lon="1.17571">
        <ele>260</ele>
        <time>2012-02-26T09:47:27Z</time>
      </trkpt>
      <trkpt lat="45.34116" lon="1.1757">
        <ele>262</ele>
        <time>2012-02-26T09:47:30Z</time>
      </trkpt>
      <trkpt lat="45.34113" lon="1.17572">
        <ele>262</ele>
        <time>2012-02-26T09:47:32Z</time>
      </trkpt>
      <trkpt lat="45.34111" lon="1.17575">
        <ele>263</ele>
        <time>2012-02-26T09:47:34Z</time>
      </trkpt>
      <trkpt lat="45.34111" lon="1.17578">
        <ele>263</ele>
        <time>2012-02-26T09:47:36Z</time>
      </trkpt>
      <trkpt lat="45.34111" lon="1.1758">
        <ele>263</ele>
        <time>2012-02-26T09:47:38Z</time>
      </trkpt>
      <trkpt lat="45.34111" lon="1.17583">
        <ele>263</ele>
        <time>2012-02-26T09:47:40Z</time>
      </trkpt>
      <trkpt lat="45.3411" lon="1.17587">
        <ele>264</ele>
        <time>2012-02-26T09:47:43Z</time>
      </trkpt>
      <trkpt lat="45.34109" lon="1.1759">
        <ele>265</ele>
        <time>2012-02-26T09:47:45Z</time>
      </trkpt>
      <trkpt lat="45.34106" lon="1.17593">
        <ele>266</ele>
        <time>2012-02-26T09:47:47Z</time>
      </trkpt>
      <trkpt lat="45.34103" lon="1.17597">
        <ele>267</ele>
        <time>2012-02-26T09:47:49Z</time>
      </trkpt>
      <trkpt lat="45.34101" lon="1.17599">
        <ele>268</ele>
        <time>2012-02-26T09:47:51Z</time>
      </trkpt>
      <trkpt lat="45.34098" lon="1.17602">
        <ele>268</ele>
        <time>2012-02-26T09:47:53Z</time>
      </trkpt>
      <trkpt lat="45.34096" lon="1.17602">
        <ele>268</ele>
        <time>2012-02-26T09:47:55Z</time>
      </trkpt>
      <trkpt lat="45.34093" lon="1.17603">
        <ele>269</ele>
        <time>2012-02-26T09:47:57Z</time>
      </trkpt>
      <trkpt lat="45.3409" lon="1.17603">
        <ele>270</ele>
        <time>2012-02-26T09:47:59Z</time>
      </trkpt>
      <trkpt lat="45.34089" lon="1.17601">
        <ele>270</ele>
        <time>2012-02-26T09:48:01Z</time>
      </trkpt>
      <trkpt lat="45.34087" lon="1.17599">
        <ele>270</ele>
        <time>2012-02-26T09:48:03Z</time>
      </trkpt>
      <trkpt lat="45.34084" lon="1.17598">
        <ele>270</ele>
        <time>2012-02-26T09:48:05Z</time>
      </trkpt>
      <trkpt lat="45.34082" lon="1.17595">
        <ele>270</ele>
        <time>2012-02-26T09:48:07Z</time>
      </trkpt>
      <trkpt lat="45.34079" lon="1.17593">
        <ele>270</ele>
        <time>2012-02-26T09:48:09Z</time>
      </trkpt>
      <trkpt lat="45.34077" lon="1.1759">
        <ele>270</ele>
        <time>2012-02-26T09:48:11Z</time>
      </trkpt>
      <trkpt lat="45.34076" lon="1.17588">
        <ele>270</ele>
        <time>2012-02-26T09:48:13Z</time>
      </trkpt>
      <trkpt lat="45.34072" lon="1.17586">
        <ele>270</ele>
        <time>2012-02-26T09:48:15Z</time>
      </trkpt>
      <trkpt lat="45.34068" lon="1.17584">
        <ele>270</ele>
        <time>2012-02-26T09:48:17Z</time>
      </trkpt>
      <trkpt lat="45.34064" lon="1.17581">
        <ele>270</ele>
        <time>2012-02-26T09:48:19Z</time>
      </trkpt>
      <trkpt lat="45.34059" lon="1.17578">
        <ele>270</ele>
        <time>2012-02-26T09:48:21Z</time>
      </trkpt>
      <trkpt lat="45.34054" lon="1.17575">
        <ele>270</ele>
        <time>2012-02-26T09:48:23Z</time>
      </trkpt>
      <trkpt lat="45.34049" lon="1.17573">
        <ele>271</ele>
        <time>2012-02-26T09:48:25Z</time>
      </trkpt>
      <trkpt lat="45.34045" lon="1.17571">
        <ele>272</ele>
        <time>2012-02-26T09:48:27Z</time>
      </trkpt>
      <trkpt lat="45.3404" lon="1.17569">
        <ele>273</ele>
        <time>2012-02-26T09:48:29Z</time>
      </trkpt>
      <trkpt lat="45.34034" lon="1.1757">
        <ele>274</ele>
        <time>2012-02-26T09:48:31Z</time>
      </trkpt>
      <trkpt lat="45.3403" lon="1.1757">
        <ele>275</ele>
        <time>2012-02-26T09:48:33Z</time>
      </trkpt>
      <trkpt lat="45.34024" lon="1.1757">
        <ele>276</ele>
        <time>2012-02-26T09:48:35Z</time>
      </trkpt>
      <trkpt lat="45.3402" lon="1.17568">
        <ele>278</ele>
        <time>2012-02-26T09:48:37Z</time>
      </trkpt>
      <trkpt lat="45.34015" lon="1.1757">
        <ele>279</ele>
        <time>2012-02-26T09:48:39Z</time>
      </trkpt>
      <trkpt lat="45.3401" lon="1.17572">
        <ele>280</ele>
        <time>2012-02-26T09:48:41Z</time>
      </trkpt>
      <trkpt lat="45.34005" lon="1.17572">
        <ele>282</ele>
        <time>2012-02-26T09:48:43Z</time>
      </trkpt>
      <trkpt lat="45.34" lon="1.17572">
        <ele>283</ele>
        <time>2012-02-26T09:48:45Z</time>
      </trkpt>
      <trkpt lat="45.33995" lon="1.17572">
        <ele>284</ele>
        <time>2012-02-26T09:48:47Z</time>
      </trkpt>
      <trkpt lat="45.33991" lon="1.17571">
        <ele>285</ele>
        <time>2012-02-26T09:48:49Z</time>
      </trkpt>
      <trkpt lat="45.33987" lon="1.17571">
        <ele>286</ele>
        <time>2012-02-26T09:48:51Z</time>
      </trkpt>
      <trkpt lat="45.33983" lon="1.1757">
        <ele>287</ele>
        <time>2012-02-26T09:48:53Z</time>
      </trkpt>
      <trkpt lat="45.33978" lon="1.17569">
        <ele>288</ele>
        <time>2012-02-26T09:48:55Z</time>
      </trkpt>
      <trkpt lat="45.33975" lon="1.17568">
        <ele>289</ele>
        <time>2012-02-26T09:48:57Z</time>
      </trkpt>
      <trkpt lat="45.33971" lon="1.17567">
        <ele>290</ele>
        <time>2012-02-26T09:48:59Z</time>
      </trkpt>
      <trkpt lat="45.33967" lon="1.17567">
        <ele>291</ele>
        <time>2012-02-26T09:49:01Z</time>
      </trkpt>
      <trkpt lat="45.33963" lon="1.17566">
        <ele>292</ele>
        <time>2012-02-26T09:49:03Z</time>
      </trkpt>
      <trkpt lat="45.33959" lon="1.17567">
        <ele>292</ele>
        <time>2012-02-26T09:49:05Z</time>
      </trkpt>
      <trkpt lat="45.33954" lon="1.17567">
        <ele>294</ele>
        <time>2012-02-26T09:49:07Z</time>
      </trkpt>
      <trkpt lat="45.3395" lon="1.17568">
        <ele>295</ele>
        <time>2012-02-26T09:49:09Z</time>
      </trkpt>
      <trkpt lat="45.33946" lon="1.17568">
        <ele>296</ele>
        <time>2012-02-26T09:49:11Z</time>
      </trkpt>
      <trkpt lat="45.33941" lon="1.17569">
        <ele>297</ele>
        <time>2012-02-26T09:49:13Z</time>
      </trkpt>
      <trkpt lat="45.33936" lon="1.17568">
        <ele>297</ele>
        <time>2012-02-26T09:49:15Z</time>
      </trkpt>
      <trkpt lat="45.33932" lon="1.17569">
        <ele>297</ele>
        <time>2012-02-26T09:49:17Z</time>
      </trkpt>
      <trkpt lat="45.33927" lon="1.1757">
        <ele>298</ele>
        <time>2012-02-26T09:49:19Z</time>
      </trkpt>
      <trkpt lat="45.33922" lon="1.17571">
        <ele>299</ele>
        <time>2012-02-26T09:49:21Z</time>
      </trkpt>
      <trkpt lat="45.33918" lon="1.1757">
        <ele>299</ele>
        <time>2012-02-26T09:49:23Z</time>
      </trkpt>
      <trkpt lat="45.33914" lon="1.1757">
        <ele>299</ele>
        <time>2012-02-26T09:49:25Z</time>
      </trkpt>
      <trkpt lat="45.3391" lon="1.1757">
        <ele>299</ele>
        <time>2012-02-26T09:49:27Z</time>
      </trkpt>
      <trkpt lat="45.33905" lon="1.17571">
        <ele>299</ele>
        <time>2012-02-26T09:49:29Z</time>
      </trkpt>
      <trkpt lat="45.339" lon="1.17572">
        <ele>299</ele>
        <time>2012-02-26T09:49:31Z</time>
      </trkpt>
      <trkpt lat="45.33895" lon="1.17573">
        <ele>299</ele>
        <time>2012-02-26T09:49:33Z</time>
      </trkpt>
      <trkpt lat="45.33891" lon="1.17572">
        <ele>299</ele>
        <time>2012-02-26T09:49:35Z</time>
      </trkpt>
      <trkpt lat="45.33887" lon="1.17569">
        <ele>300</ele>
        <time>2012-02-26T09:49:37Z</time>
      </trkpt>
      <trkpt lat="45.33883" lon="1.17567">
        <ele>300</ele>
        <time>2012-02-26T09:49:39Z</time>
      </trkpt>
      <trkpt lat="45.33877" lon="1.17566">
        <ele>301</ele>
        <time>2012-02-26T09:49:41Z</time>
      </trkpt>
      <trkpt lat="45.33873" lon="1.17564">
        <ele>302</ele>
        <time>2012-02-26T09:49:43Z</time>
      </trkpt>
      <trkpt lat="45.33868" lon="1.17564">
        <ele>302</ele>
        <time>2012-02-26T09:49:45Z</time>
      </trkpt>
      <trkpt lat="45.33864" lon="1.17563">
        <ele>302</ele>
        <time>2012-02-26T09:49:47Z</time>
      </trkpt>
      <trkpt lat="45.33859" lon="1.17563">
        <ele>303</ele>
        <time>2012-02-26T09:49:49Z</time>
      </trkpt>
      <trkpt lat="45.33854" lon="1.17562">
        <ele>304</ele>
        <time>2012-02-26T09:49:51Z</time>
      </trkpt>
      <trkpt lat="45.33849" lon="1.17562">
        <ele>305</ele>
        <time>2012-02-26T09:49:53Z</time>
      </trkpt>
      <trkpt lat="45.33845" lon="1.17561">
        <ele>305</ele>
        <time>2012-02-26T09:49:55Z</time>
      </trkpt>
      <trkpt lat="45.33841" lon="1.1756">
        <ele>306</ele>
        <time>2012-02-26T09:49:57Z</time>
      </trkpt>
      <trkpt lat="45.33837" lon="1.17559">
        <ele>306</ele>
        <time>2012-02-26T09:49:59Z</time>
      </trkpt>
      <trkpt lat="45.33833" lon="1.17557">
        <ele>306</ele>
        <time>2012-02-26T09:50:01Z</time>
      </trkpt>
      <trkpt lat="45.33829" lon="1.17555">
        <ele>306</ele>
        <time>2012-02-26T09:50:03Z</time>
      </trkpt>
      <trkpt lat="45.33825" lon="1.17555">
        <ele>306</ele>
        <time>2012-02-26T09:50:05Z</time>
      </trkpt>
      <trkpt lat="45.33821" lon="1.17555">
        <ele>306</ele>
        <time>2012-02-26T09:50:07Z</time>
      </trkpt>
      <trkpt lat="45.33818" lon="1.17552">
        <ele>306</ele>
        <time>2012-02-26T09:50:09Z</time>
      </trkpt>
      <trkpt lat="45.33814" lon="1.1755">
        <ele>306</ele>
        <time>2012-02-26T09:50:11Z</time>
      </trkpt>
      <trkpt lat="45.33809" lon="1.1755">
        <ele>306</ele>
        <time>2012-02-26T09:50:13Z</time>
      </trkpt>
      <trkpt lat="45.33806" lon="1.1755">
        <ele>306</ele>
        <time>2012-02-26T09:50:15Z</time>
      </trkpt>
      <trkpt lat="45.33802" lon="1.17549">
        <ele>306</ele>
        <time>2012-02-26T09:50:17Z</time>
      </trkpt>
      <trkpt lat="45.33798" lon="1.17547">
        <ele>306</ele>
        <time>2012-02-26T09:50:19Z</time>
      </trkpt>
      <trkpt lat="45.33794" lon="1.17546">
        <ele>306</ele>
        <time>2012-02-26T09:50:21Z</time>
      </trkpt>
      <trkpt lat="45.3379" lon="1.17546">
        <ele>306</ele>
        <time>2012-02-26T09:50:23Z</time>
      </trkpt>
      <trkpt lat="45.33786" lon="1.17546">
        <ele>306</ele>
        <time>2012-02-26T09:50:25Z</time>
      </trkpt>
      <trkpt lat="45.33781" lon="1.17546">
        <ele>306</ele>
        <time>2012-02-26T09:50:27Z</time>
      </trkpt>
      <trkpt lat="45.33778" lon="1.17545">
        <ele>306</ele>
        <time>2012-02-26T09:50:29Z</time>
      </trkpt>
      <trkpt lat="45.33774" lon="1.17544">
        <ele>306</ele>
        <time>2012-02-26T09:50:31Z</time>
      </trkpt>
      <trkpt lat="45.3377" lon="1.17542">
        <ele>306</ele>
        <time>2012-02-26T09:50:33Z</time>
      </trkpt>
      <trkpt lat="45.33766" lon="1.1754">
        <ele>306</ele>
        <time>2012-02-26T09:50:35Z</time>
      </trkpt>
      <trkpt lat="45.33762" lon="1.17538">
        <ele>307</ele>
        <time>2012-02-26T09:50:37Z</time>
      </trkpt>
      <trkpt lat="45.33758" lon="1.17536">
        <ele>307</ele>
        <time>2012-02-26T09:50:39Z</time>
      </trkpt>
      <trkpt lat="45.33754" lon="1.17534">
        <ele>308</ele>
        <time>2012-02-26T09:50:41Z</time>
      </trkpt>
      <trkpt lat="45.3375" lon="1.17534">
        <ele>308</ele>
        <time>2012-02-26T09:50:43Z</time>
      </trkpt>
      <trkpt lat="45.33746" lon="1.17533">
        <ele>309</ele>
        <time>2012-02-26T09:50:45Z</time>
      </trkpt>
      <trkpt lat="45.33741" lon="1.17533">
        <ele>309</ele>
        <time>2012-02-26T09:50:47Z</time>
      </trkpt>
      <trkpt lat="45.33738" lon="1.17533">
        <ele>309</ele>
        <time>2012-02-26T09:50:49Z</time>
      </trkpt>
      <trkpt lat="45.33733" lon="1.17531">
        <ele>309</ele>
        <time>2012-02-26T09:50:51Z</time>
      </trkpt>
      <trkpt lat="45.3373" lon="1.17529">
        <ele>310</ele>
        <time>2012-02-26T09:50:53Z</time>
      </trkpt>
      <trkpt lat="45.33725" lon="1.17526">
        <ele>311</ele>
        <time>2012-02-26T09:50:55Z</time>
      </trkpt>
      <trkpt lat="45.33721" lon="1.17523">
        <ele>311</ele>
        <time>2012-02-26T09:50:57Z</time>
      </trkpt>
      <trkpt lat="45.33717" lon="1.17521">
        <ele>312</ele>
        <time>2012-02-26T09:50:59Z</time>
      </trkpt>
      <trkpt lat="45.33713" lon="1.17519">
        <ele>312</ele>
        <time>2012-02-26T09:51:01Z</time>
      </trkpt>
      <trkpt lat="45.33709" lon="1.17517">
        <ele>312</ele>
        <time>2012-02-26T09:51:03Z</time>
      </trkpt>
      <trkpt lat="45.33704" lon="1.17515">
        <ele>312</ele>
        <time>2012-02-26T09:51:05Z</time>
      </trkpt>
      <trkpt lat="45.337" lon="1.17515">
        <ele>312</ele>
        <time>2012-02-26T09:51:07Z</time>
      </trkpt>
      <trkpt lat="45.33695" lon="1.17513">
        <ele>313</ele>
        <time>2012-02-26T09:51:09Z</time>
      </trkpt>
      <trkpt lat="45.33691" lon="1.17512">
        <ele>313</ele>
        <time>2012-02-26T09:51:11Z</time>
      </trkpt>
      <trkpt lat="45.33687" lon="1.17511">
        <ele>313</ele>
        <time>2012-02-26T09:51:13Z</time>
      </trkpt>
      <trkpt lat="45.33683" lon="1.1751">
        <ele>313</ele>
        <time>2012-02-26T09:51:15Z</time>
      </trkpt>
      <trkpt lat="45.33679" lon="1.17509">
        <ele>313</ele>
        <time>2012-02-26T09:51:17Z</time>
      </trkpt>
      <trkpt lat="45.33675" lon="1.17507">
        <ele>313</ele>
        <time>2012-02-26T09:51:19Z</time>
      </trkpt>
      <trkpt lat="45.33672" lon="1.17507">
        <ele>313</ele>
        <time>2012-02-26T09:51:21Z</time>
      </trkpt>
      <trkpt lat="45.33668" lon="1.17507">
        <ele>313</ele>
        <time>2012-02-26T09:51:23Z</time>
      </trkpt>
      <trkpt lat="45.33664" lon="1.17507">
        <ele>313</ele>
        <time>2012-02-26T09:51:25Z</time>
      </trkpt>
      <trkpt lat="45.33661" lon="1.17508">
        <ele>313</ele>
        <time>2012-02-26T09:51:27Z</time>
      </trkpt>
      <trkpt lat="45.33657" lon="1.1751">
        <ele>313</ele>
        <time>2012-02-26T09:51:29Z</time>
      </trkpt>
      <trkpt lat="45.33653" lon="1.17511">
        <ele>313</ele>
        <time>2012-02-26T09:51:31Z</time>
      </trkpt>
      <trkpt lat="45.33649" lon="1.17511">
        <ele>313</ele>
        <time>2012-02-26T09:51:33Z</time>
      </trkpt>
      <trkpt lat="45.33645" lon="1.17512">
        <ele>313</ele>
        <time>2012-02-26T09:51:35Z</time>
      </trkpt>
      <trkpt lat="45.33641" lon="1.17514">
        <ele>313</ele>
        <time>2012-02-26T09:51:37Z</time>
      </trkpt>
      <trkpt lat="45.33637" lon="1.17515">
        <ele>313</ele>
        <time>2012-02-26T09:51:39Z</time>
      </trkpt>
      <trkpt lat="45.33631" lon="1.17516">
        <ele>313</ele>
        <time>2012-02-26T09:51:41Z</time>
      </trkpt>
      <trkpt lat="45.33627" lon="1.17517">
        <ele>313</ele>
        <time>2012-02-26T09:51:43Z</time>
      </trkpt>
      <trkpt lat="45.33623" lon="1.1752">
        <ele>314</ele>
        <time>2012-02-26T09:51:45Z</time>
      </trkpt>
      <trkpt lat="45.33618" lon="1.1752">
        <ele>314</ele>
        <time>2012-02-26T09:51:47Z</time>
      </trkpt>
      <trkpt lat="45.33613" lon="1.17524">
        <ele>315</ele>
        <time>2012-02-26T09:51:49Z</time>
      </trkpt>
      <trkpt lat="45.33608" lon="1.17525">
        <ele>316</ele>
        <time>2012-02-26T09:51:51Z</time>
      </trkpt>
      <trkpt lat="45.33605" lon="1.17526">
        <ele>317</ele>
        <time>2012-02-26T09:51:53Z</time>
      </trkpt>
      <trkpt lat="45.33601" lon="1.1753">
        <ele>317</ele>
        <time>2012-02-26T09:51:55Z</time>
      </trkpt>
      <trkpt lat="45.33598" lon="1.17532">
        <ele>319</ele>
        <time>2012-02-26T09:51:57Z</time>
      </trkpt>
      <trkpt lat="45.33594" lon="1.17532">
        <ele>320</ele>
        <time>2012-02-26T09:51:59Z</time>
      </trkpt>
      <trkpt lat="45.33591" lon="1.17531">
        <ele>321</ele>
        <time>2012-02-26T09:52:01Z</time>
      </trkpt>
      <trkpt lat="45.33587" lon="1.1753">
        <ele>321</ele>
        <time>2012-02-26T09:52:03Z</time>
      </trkpt>
      <trkpt lat="45.33584" lon="1.17529">
        <ele>321</ele>
        <time>2012-02-26T09:52:05Z</time>
      </trkpt>
      <trkpt lat="45.33579" lon="1.17531">
        <ele>321</ele>
        <time>2012-02-26T09:52:07Z</time>
      </trkpt>
      <trkpt lat="45.33575" lon="1.17532">
        <ele>321</ele>
        <time>2012-02-26T09:52:09Z</time>
      </trkpt>
      <trkpt lat="45.33571" lon="1.17535">
        <ele>321</ele>
        <time>2012-02-26T09:52:11Z</time>
      </trkpt>
      <trkpt lat="45.33565" lon="1.17541">
        <ele>321</ele>
        <time>2012-02-26T09:52:13Z</time>
      </trkpt>
      <trkpt lat="45.3356" lon="1.17542">
        <ele>323</ele>
        <time>2012-02-26T09:52:15Z</time>
      </trkpt>
      <trkpt lat="45.33555" lon="1.17543">
        <ele>324</ele>
        <time>2012-02-26T09:52:17Z</time>
      </trkpt>
      <trkpt lat="45.3355" lon="1.17545">
        <ele>326</ele>
        <time>2012-02-26T09:52:19Z</time>
      </trkpt>
      <trkpt lat="45.33546" lon="1.17544">
        <ele>327</ele>
        <time>2012-02-26T09:52:21Z</time>
      </trkpt>
      <trkpt lat="45.33542" lon="1.17543">
        <ele>328</ele>
        <time>2012-02-26T09:52:23Z</time>
      </trkpt>
      <trkpt lat="45.33537" lon="1.17543">
        <ele>328</ele>
        <time>2012-02-26T09:52:25Z</time>
      </trkpt>
      <trkpt lat="45.33533" lon="1.17542">
        <ele>328</ele>
        <time>2012-02-26T09:52:27Z</time>
      </trkpt>
      <trkpt lat="45.33528" lon="1.17542">
        <ele>329</ele>
        <time>2012-02-26T09:52:29Z</time>
      </trkpt>
      <trkpt lat="45.33524" lon="1.17541">
        <ele>330</ele>
        <time>2012-02-26T09:52:31Z</time>
      </trkpt>
      <trkpt lat="45.3352" lon="1.17539">
        <ele>330</ele>
        <time>2012-02-26T09:52:33Z</time>
      </trkpt>
      <trkpt lat="45.33516" lon="1.17535">
        <ele>331</ele>
        <time>2012-02-26T09:52:35Z</time>
      </trkpt>
      <trkpt lat="45.3351" lon="1.17534">
        <ele>332</ele>
        <time>2012-02-26T09:52:37Z</time>
      </trkpt>
      <trkpt lat="45.33505" lon="1.17533">
        <ele>333</ele>
        <time>2012-02-26T09:52:39Z</time>
      </trkpt>
      <trkpt lat="45.33501" lon="1.1753">
        <ele>335</ele>
        <time>2012-02-26T09:52:41Z</time>
      </trkpt>
      <trkpt lat="45.33496" lon="1.17528">
        <ele>336</ele>
        <time>2012-02-26T09:52:43Z</time>
      </trkpt>
      <trkpt lat="45.33492" lon="1.17526">
        <ele>336</ele>
        <time>2012-02-26T09:52:45Z</time>
      </trkpt>
      <trkpt lat="45.33486" lon="1.17526">
        <ele>337</ele>
        <time>2012-02-26T09:52:47Z</time>
      </trkpt>
      <trkpt lat="45.33483" lon="1.17521">
        <ele>338</ele>
        <time>2012-02-26T09:52:49Z</time>
      </trkpt>
      <trkpt lat="45.33485" lon="1.17513">
        <ele>338</ele>
        <time>2012-02-26T09:52:51Z</time>
      </trkpt>
      <trkpt lat="45.3349" lon="1.17507">
        <ele>338</ele>
        <time>2012-02-26T09:52:53Z</time>
      </trkpt>
      <trkpt lat="45.33495" lon="1.17505">
        <ele>338</ele>
        <time>2012-02-26T09:52:55Z</time>
      </trkpt>
      <trkpt lat="45.335" lon="1.17502">
        <ele>338</ele>
        <time>2012-02-26T09:52:57Z</time>
      </trkpt>
      <trkpt lat="45.33506" lon="1.17499">
        <ele>338</ele>
        <time>2012-02-26T09:52:59Z</time>
      </trkpt>
      <trkpt lat="45.33511" lon="1.17496">
        <ele>338</ele>
        <time>2012-02-26T09:53:01Z</time>
      </trkpt>
      <trkpt lat="45.33516" lon="1.17493">
        <ele>338</ele>
        <time>2012-02-26T09:53:03Z</time>
      </trkpt>
      <trkpt lat="45.33521" lon="1.17489">
        <ele>338</ele>
        <time>2012-02-26T09:53:05Z</time>
      </trkpt>
      <trkpt lat="45.33526" lon="1.17486">
        <ele>338</ele>
        <time>2012-02-26T09:53:07Z</time>
      </trkpt>
      <trkpt lat="45.3353" lon="1.17482">
        <ele>338</ele>
        <time>2012-02-26T09:53:09Z</time>
      </trkpt>
      <trkpt lat="45.33535" lon="1.17476">
        <ele>338</ele>
        <time>2012-02-26T09:53:11Z</time>
      </trkpt>
      <trkpt lat="45.33538" lon="1.17471">
        <ele>338</ele>
        <time>2012-02-26T09:53:13Z</time>
      </trkpt>
      <trkpt lat="45.33543" lon="1.17467">
        <ele>338</ele>
        <time>2012-02-26T09:53:15Z</time>
      </trkpt>
      <trkpt lat="45.33547" lon="1.17461">
        <ele>338</ele>
        <time>2012-02-26T09:53:17Z</time>
      </trkpt>
      <trkpt lat="45.3355" lon="1.17455">
        <ele>338</ele>
        <time>2012-02-26T09:53:19Z</time>
      </trkpt>
      <trkpt lat="45.33554" lon="1.17449">
        <ele>338</ele>
        <time>2012-02-26T09:53:21Z</time>
      </trkpt>
      <trkpt lat="45.33558" lon="1.17443">
        <ele>338</ele>
        <time>2012-02-26T09:53:23Z</time>
      </trkpt>
      <trkpt lat="45.33563" lon="1.17437">
        <ele>338</ele>
        <time>2012-02-26T09:53:25Z</time>
      </trkpt>
      <trkpt lat="45.33566" lon="1.17431">
        <ele>338</ele>
        <time>2012-02-26T09:53:27Z</time>
      </trkpt>
      <trkpt lat="45.33571" lon="1.17426">
        <ele>338</ele>
        <time>2012-02-26T09:53:29Z</time>
      </trkpt>
      <trkpt lat="45.33574" lon="1.17421">
        <ele>338</ele>
        <time>2012-02-26T09:53:31Z</time>
      </trkpt>
      <trkpt lat="45.33579" lon="1.17415">
        <ele>338</ele>
        <time>2012-02-26T09:53:33Z</time>
      </trkpt>
      <trkpt lat="45.33583" lon="1.17409">
        <ele>338</ele>
        <time>2012-02-26T09:53:35Z</time>
      </trkpt>
      <trkpt lat="45.33587" lon="1.17403">
        <ele>338</ele>
        <time>2012-02-26T09:53:37Z</time>
      </trkpt>
      <trkpt lat="45.33591" lon="1.17397">
        <ele>338</ele>
        <time>2012-02-26T09:53:39Z</time>
      </trkpt>
      <trkpt lat="45.33595" lon="1.17391">
        <ele>338</ele>
        <time>2012-02-26T09:53:41Z</time>
      </trkpt>
      <trkpt lat="45.336" lon="1.17386">
        <ele>338</ele>
        <time>2012-02-26T09:53:43Z</time>
      </trkpt>
      <trkpt lat="45.33604" lon="1.17381">
        <ele>338</ele>
        <time>2012-02-26T09:53:45Z</time>
      </trkpt>
      <trkpt lat="45.33608" lon="1.17374">
        <ele>337</ele>
        <time>2012-02-26T09:53:47Z</time>
      </trkpt>
      <trkpt lat="45.33612" lon="1.17369">
        <ele>337</ele>
        <time>2012-02-26T09:53:49Z</time>
      </trkpt>
      <trkpt lat="45.33616" lon="1.17362">
        <ele>337</ele>
        <time>2012-02-26T09:53:51Z</time>
      </trkpt>
      <trkpt lat="45.3362" lon="1.17356">
        <ele>337</ele>
        <time>2012-02-26T09:53:53Z</time>
      </trkpt>
      <trkpt lat="45.33624" lon="1.1735">
        <ele>337</ele>
        <time>2012-02-26T09:53:55Z</time>
      </trkpt>
      <trkpt lat="45.33628" lon="1.17344">
        <ele>336</ele>
        <time>2012-02-26T09:53:57Z</time>
      </trkpt>
      <trkpt lat="45.33632" lon="1.17338">
        <ele>336</ele>
        <time>2012-02-26T09:53:59Z</time>
      </trkpt>
      <trkpt lat="45.33637" lon="1.17331">
        <ele>335</ele>
        <time>2012-02-26T09:54:01Z</time>
      </trkpt>
      <trkpt lat="45.3364" lon="1.17325">
        <ele>335</ele>
        <time>2012-02-26T09:54:03Z</time>
      </trkpt>
      <trkpt lat="45.33644" lon="1.17318">
        <ele>335</ele>
        <time>2012-02-26T09:54:05Z</time>
      </trkpt>
      <trkpt lat="45.33648" lon="1.17312">
        <ele>335</ele>
        <time>2012-02-26T09:54:07Z</time>
      </trkpt>
      <trkpt lat="45.33652" lon="1.17306">
        <ele>335</ele>
        <time>2012-02-26T09:54:09Z</time>
      </trkpt>
      <trkpt lat="45.33656" lon="1.17299">
        <ele>335</ele>
        <time>2012-02-26T09:54:11Z</time>
      </trkpt>
      <trkpt lat="45.3366" lon="1.17293">
        <ele>335</ele>
        <time>2012-02-26T09:54:13Z</time>
      </trkpt>
      <trkpt lat="45.33664" lon="1.17286">
        <ele>335</ele>
        <time>2012-02-26T09:54:15Z</time>
      </trkpt>
      <trkpt lat="45.33668" lon="1.17281">
        <ele>335</ele>
        <time>2012-02-26T09:54:17Z</time>
      </trkpt>
      <trkpt lat="45.33672" lon="1.17275">
        <ele>335</ele>
        <time>2012-02-26T09:54:19Z</time>
      </trkpt>
      <trkpt lat="45.33676" lon="1.17269">
        <ele>335</ele>
        <time>2012-02-26T09:54:21Z</time>
      </trkpt>
      <trkpt lat="45.3368" lon="1.17263">
        <ele>335</ele>
        <time>2012-02-26T09:54:23Z</time>
      </trkpt>
      <trkpt lat="45.33684" lon="1.17257">
        <ele>334</ele>
        <time>2012-02-26T09:54:25Z</time>
      </trkpt>
      <trkpt lat="45.33687" lon="1.1725">
        <ele>334</ele>
        <time>2012-02-26T09:54:27Z</time>
      </trkpt>
      <trkpt lat="45.33691" lon="1.17242">
        <ele>333</ele>
        <time>2012-02-26T09:54:29Z</time>
      </trkpt>
      <trkpt lat="45.33695" lon="1.17235">
        <ele>332</ele>
        <time>2012-02-26T09:54:31Z</time>
      </trkpt>
      <trkpt lat="45.33697" lon="1.17228">
        <ele>332</ele>
        <time>2012-02-26T09:54:33Z</time>
      </trkpt>
      <trkpt lat="45.337" lon="1.17221">
        <ele>332</ele>
        <time>2012-02-26T09:54:35Z</time>
      </trkpt>
      <trkpt lat="45.33703" lon="1.17214">
        <ele>332</ele>
        <time>2012-02-26T09:54:37Z</time>
      </trkpt>
      <trkpt lat="45.33706" lon="1.17207">
        <ele>332</ele>
        <time>2012-02-26T09:54:39Z</time>
      </trkpt>
      <trkpt lat="45.33709" lon="1.17201">
        <ele>332</ele>
        <time>2012-02-26T09:54:41Z</time>
      </trkpt>
      <trkpt lat="45.33713" lon="1.17195">
        <ele>332</ele>
        <time>2012-02-26T09:54:43Z</time>
      </trkpt>
      <trkpt lat="45.33717" lon="1.17189">
        <ele>332</ele>
        <time>2012-02-26T09:54:45Z</time>
      </trkpt>
      <trkpt lat="45.3372" lon="1.17183">
        <ele>332</ele>
        <time>2012-02-26T09:54:47Z</time>
      </trkpt>
      <trkpt lat="45.33722" lon="1.17176">
        <ele>332</ele>
        <time>2012-02-26T09:54:49Z</time>
      </trkpt>
      <trkpt lat="45.33725" lon="1.17169">
        <ele>332</ele>
        <time>2012-02-26T09:54:51Z</time>
      </trkpt>
      <trkpt lat="45.33727" lon="1.17161">
        <ele>332</ele>
        <time>2012-02-26T09:54:53Z</time>
      </trkpt>
      <trkpt lat="45.3373" lon="1.17154">
        <ele>332</ele>
        <time>2012-02-26T09:54:55Z</time>
      </trkpt>
      <trkpt lat="45.33733" lon="1.17146">
        <ele>332</ele>
        <time>2012-02-26T09:54:57Z</time>
      </trkpt>
      <trkpt lat="45.33736" lon="1.17139">
        <ele>332</ele>
        <time>2012-02-26T09:54:59Z</time>
      </trkpt>
      <trkpt lat="45.33739" lon="1.17131">
        <ele>332</ele>
        <time>2012-02-26T09:55:01Z</time>
      </trkpt>
      <trkpt lat="45.33742" lon="1.17123">
        <ele>332</ele>
        <time>2012-02-26T09:55:03Z</time>
      </trkpt>
      <trkpt lat="45.33745" lon="1.17116">
        <ele>332</ele>
        <time>2012-02-26T09:55:05Z</time>
      </trkpt>
      <trkpt lat="45.33748" lon="1.1711">
        <ele>332</ele>
        <time>2012-02-26T09:55:07Z</time>
      </trkpt>
      <trkpt lat="45.33751" lon="1.17103">
        <ele>332</ele>
        <time>2012-02-26T09:55:09Z</time>
      </trkpt>
      <trkpt lat="45.33754" lon="1.17096">
        <ele>332</ele>
        <time>2012-02-26T09:55:11Z</time>
      </trkpt>
      <trkpt lat="45.33757" lon="1.17089">
        <ele>332</ele>
        <time>2012-02-26T09:55:13Z</time>
      </trkpt>
      <trkpt lat="45.33759" lon="1.17081">
        <ele>332</ele>
        <time>2012-02-26T09:55:15Z</time>
      </trkpt>
      <trkpt lat="45.33762" lon="1.17074">
        <ele>332</ele>
        <time>2012-02-26T09:55:17Z</time>
      </trkpt>
      <trkpt lat="45.33765" lon="1.17067">
        <ele>332</ele>
        <time>2012-02-26T09:55:19Z</time>
      </trkpt>
      <trkpt lat="45.33768" lon="1.17061">
        <ele>332</ele>
        <time>2012-02-26T09:55:21Z</time>
      </trkpt>
      <trkpt lat="45.3377" lon="1.17054">
        <ele>332</ele>
        <time>2012-02-26T09:55:23Z</time>
      </trkpt>
      <trkpt lat="45.33772" lon="1.17046">
        <ele>332</ele>
        <time>2012-02-26T09:55:25Z</time>
      </trkpt>
      <trkpt lat="45.33774" lon="1.17038">
        <ele>333</ele>
        <time>2012-02-26T09:55:27Z</time>
      </trkpt>
      <trkpt lat="45.33775" lon="1.17031">
        <ele>333</ele>
        <time>2012-02-26T09:55:29Z</time>
      </trkpt>
      <trkpt lat="45.33777" lon="1.17024">
        <ele>333</ele>
        <time>2012-02-26T09:55:31Z</time>
      </trkpt>
      <trkpt lat="45.33778" lon="1.17016">
        <ele>333</ele>
        <time>2012-02-26T09:55:33Z</time>
      </trkpt>
      <trkpt lat="45.33779" lon="1.17007">
        <ele>334</ele>
        <time>2012-02-26T09:55:35Z</time>
      </trkpt>
      <trkpt lat="45.33781" lon="1.16999">
        <ele>334</ele>
        <time>2012-02-26T09:55:37Z</time>
      </trkpt>
      <trkpt lat="45.33783" lon="1.16991">
        <ele>334</ele>
        <time>2012-02-26T09:55:39Z</time>
      </trkpt>
      <trkpt lat="45.33786" lon="1.16983">
        <ele>334</ele>
        <time>2012-02-26T09:55:41Z</time>
      </trkpt>
      <trkpt lat="45.33788" lon="1.16976">
        <ele>334</ele>
        <time>2012-02-26T09:55:43Z</time>
      </trkpt>
      <trkpt lat="45.33792" lon="1.16969">
        <ele>334</ele>
        <time>2012-02-26T09:55:45Z</time>
      </trkpt>
      <trkpt lat="45.33794" lon="1.16962">
        <ele>334</ele>
        <time>2012-02-26T09:55:47Z</time>
      </trkpt>
      <trkpt lat="45.33796" lon="1.16955">
        <ele>334</ele>
        <time>2012-02-26T09:55:49Z</time>
      </trkpt>
      <trkpt lat="45.33798" lon="1.16947">
        <ele>335</ele>
        <time>2012-02-26T09:55:51Z</time>
      </trkpt>
      <trkpt lat="45.338" lon="1.1694">
        <ele>336</ele>
        <time>2012-02-26T09:55:53Z</time>
      </trkpt>
      <trkpt lat="45.33804" lon="1.16935">
        <ele>336</ele>
        <time>2012-02-26T09:55:55Z</time>
      </trkpt>
      <trkpt lat="45.33807" lon="1.16929">
        <ele>336</ele>
        <time>2012-02-26T09:55:57Z</time>
      </trkpt>
      <trkpt lat="45.3381" lon="1.16923">
        <ele>336</ele>
        <time>2012-02-26T09:55:59Z</time>
      </trkpt>
      <trkpt lat="45.33814" lon="1.16916">
        <ele>336</ele>
        <time>2012-02-26T09:56:01Z</time>
      </trkpt>
      <trkpt lat="45.33817" lon="1.16909">
        <ele>336</ele>
        <time>2012-02-26T09:56:03Z</time>
      </trkpt>
      <trkpt lat="45.33819" lon="1.16901">
        <ele>336</ele>
        <time>2012-02-26T09:56:05Z</time>
      </trkpt>
      <trkpt lat="45.33819" lon="1.1689">
        <ele>336</ele>
        <time>2012-02-26T09:56:07Z</time>
      </trkpt>
      <trkpt lat="45.3382" lon="1.1688">
        <ele>336</ele>
        <time>2012-02-26T09:56:09Z</time>
      </trkpt>
      <trkpt lat="45.33822" lon="1.1687">
        <ele>336</ele>
        <time>2012-02-26T09:56:11Z</time>
      </trkpt>
      <trkpt lat="45.33821" lon="1.16861">
        <ele>336</ele>
        <time>2012-02-26T09:56:13Z</time>
      </trkpt>
      <trkpt lat="45.33821" lon="1.16852">
        <ele>336</ele>
        <time>2012-02-26T09:56:15Z</time>
      </trkpt>
      <trkpt lat="45.33821" lon="1.1684">
        <ele>336</ele>
        <time>2012-02-26T09:56:17Z</time>
      </trkpt>
      <trkpt lat="45.33823" lon="1.1683">
        <ele>336</ele>
        <time>2012-02-26T09:56:19Z</time>
      </trkpt>
      <trkpt lat="45.33826" lon="1.16822">
        <ele>336</ele>
        <time>2012-02-26T09:56:21Z</time>
      </trkpt>
      <trkpt lat="45.33828" lon="1.16813">
        <ele>336</ele>
        <time>2012-02-26T09:56:23Z</time>
      </trkpt>
      <trkpt lat="45.33831" lon="1.16805">
        <ele>336</ele>
        <time>2012-02-26T09:56:25Z</time>
      </trkpt>
      <trkpt lat="45.33832" lon="1.16795">
        <ele>336</ele>
        <time>2012-02-26T09:56:27Z</time>
      </trkpt>
      <trkpt lat="45.33833" lon="1.16785">
        <ele>336</ele>
        <time>2012-02-26T09:56:29Z</time>
      </trkpt>
      <trkpt lat="45.33833" lon="1.16775">
        <ele>336</ele>
        <time>2012-02-26T09:56:31Z</time>
      </trkpt>
      <trkpt lat="45.33833" lon="1.16766">
        <ele>336</ele>
        <time>2012-02-26T09:56:33Z</time>
      </trkpt>
      <trkpt lat="45.33834" lon="1.16758">
        <ele>336</ele>
        <time>2012-02-26T09:56:35Z</time>
      </trkpt>
      <trkpt lat="45.33835" lon="1.16748">
        <ele>335</ele>
        <time>2012-02-26T09:56:37Z</time>
      </trkpt>
      <trkpt lat="45.33836" lon="1.16739">
        <ele>334</ele>
        <time>2012-02-26T09:56:39Z</time>
      </trkpt>
      <trkpt lat="45.33837" lon="1.16729">
        <ele>334</ele>
        <time>2012-02-26T09:56:41Z</time>
      </trkpt>
      <trkpt lat="45.33838" lon="1.1672">
        <ele>333</ele>
        <time>2012-02-26T09:56:43Z</time>
      </trkpt>
      <trkpt lat="45.33839" lon="1.1671">
        <ele>333</ele>
        <time>2012-02-26T09:56:45Z</time>
      </trkpt>
      <trkpt lat="45.33841" lon="1.16701">
        <ele>333</ele>
        <time>2012-02-26T09:56:47Z</time>
      </trkpt>
      <trkpt lat="45.33842" lon="1.16692">
        <ele>333</ele>
        <time>2012-02-26T09:56:49Z</time>
      </trkpt>
      <trkpt lat="45.33843" lon="1.16683">
        <ele>333</ele>
        <time>2012-02-26T09:56:51Z</time>
      </trkpt>
      <trkpt lat="45.33839" lon="1.16675">
        <ele>333</ele>
        <time>2012-02-26T09:56:53Z</time>
      </trkpt>
      <trkpt lat="45.33833" lon="1.16669">
        <ele>333</ele>
        <time>2012-02-26T09:56:55Z</time>
      </trkpt>
      <trkpt lat="45.33826" lon="1.16665">
        <ele>333</ele>
        <time>2012-02-26T09:56:57Z</time>
      </trkpt>
      <trkpt lat="45.33819" lon="1.16661">
        <ele>333</ele>
        <time>2012-02-26T09:56:59Z</time>
      </trkpt>
      <trkpt lat="45.33812" lon="1.16658">
        <ele>333</ele>
        <time>2012-02-26T09:57:01Z</time>
      </trkpt>
      <trkpt lat="45.33806" lon="1.16654">
        <ele>333</ele>
        <time>2012-02-26T09:57:03Z</time>
      </trkpt>
      <trkpt lat="45.33799" lon="1.1665">
        <ele>332</ele>
        <time>2012-02-26T09:57:05Z</time>
      </trkpt>
      <trkpt lat="45.33793" lon="1.16644">
        <ele>331</ele>
        <time>2012-02-26T09:57:07Z</time>
      </trkpt>
      <trkpt lat="45.33787" lon="1.16637">
        <ele>331</ele>
        <time>2012-02-26T09:57:09Z</time>
      </trkpt>
      <trkpt lat="45.33782" lon="1.16631">
        <ele>330</ele>
        <time>2012-02-26T09:57:11Z</time>
      </trkpt>
      <trkpt lat="45.33777" lon="1.16623">
        <ele>329</ele>
        <time>2012-02-26T09:57:13Z</time>
      </trkpt>
      <trkpt lat="45.33772" lon="1.16617">
        <ele>329</ele>
        <time>2012-02-26T09:57:15Z</time>
      </trkpt>
      <trkpt lat="45.33766" lon="1.1661">
        <ele>328</ele>
        <time>2012-02-26T09:57:17Z</time>
      </trkpt>
      <trkpt lat="45.33761" lon="1.16603">
        <ele>327</ele>
        <time>2012-02-26T09:57:19Z</time>
      </trkpt>
      <trkpt lat="45.33756" lon="1.16596">
        <ele>327</ele>
        <time>2012-02-26T09:57:21Z</time>
      </trkpt>
      <trkpt lat="45.33751" lon="1.16589">
        <ele>327</ele>
        <time>2012-02-26T09:57:23Z</time>
      </trkpt>
      <trkpt lat="45.33746" lon="1.16583">
        <ele>326</ele>
        <time>2012-02-26T09:57:25Z</time>
      </trkpt>
      <trkpt lat="45.33741" lon="1.16576">
        <ele>326</ele>
        <time>2012-02-26T09:57:27Z</time>
      </trkpt>
      <trkpt lat="45.33737" lon="1.16569">
        <ele>325</ele>
        <time>2012-02-26T09:57:29Z</time>
      </trkpt>
      <trkpt lat="45.33733" lon="1.1656">
        <ele>325</ele>
        <time>2012-02-26T09:57:31Z</time>
      </trkpt>
      <trkpt lat="45.33731" lon="1.16551">
        <ele>324</ele>
        <time>2012-02-26T09:57:33Z</time>
      </trkpt>
      <trkpt lat="45.33733" lon="1.16542">
        <ele>323</ele>
        <time>2012-02-26T09:57:35Z</time>
      </trkpt>
      <trkpt lat="45.33738" lon="1.16534">
        <ele>322</ele>
        <time>2012-02-26T09:57:37Z</time>
      </trkpt>
      <trkpt lat="45.33743" lon="1.16527">
        <ele>322</ele>
        <time>2012-02-26T09:57:39Z</time>
      </trkpt>
      <trkpt lat="45.33748" lon="1.1652">
        <ele>321</ele>
        <time>2012-02-26T09:57:41Z</time>
      </trkpt>
      <trkpt lat="45.33752" lon="1.16513">
        <ele>321</ele>
        <time>2012-02-26T09:57:43Z</time>
      </trkpt>
      <trkpt lat="45.33756" lon="1.16506">
        <ele>321</ele>
        <time>2012-02-26T09:57:45Z</time>
      </trkpt>
      <trkpt lat="45.33761" lon="1.16499">
        <ele>321</ele>
        <time>2012-02-26T09:57:47Z</time>
      </trkpt>
      <trkpt lat="45.33766" lon="1.16493">
        <ele>320</ele>
        <time>2012-02-26T09:57:49Z</time>
      </trkpt>
      <trkpt lat="45.33771" lon="1.16487">
        <ele>319</ele>
        <time>2012-02-26T09:57:51Z</time>
      </trkpt>
      <trkpt lat="45.33776" lon="1.1648">
        <ele>319</ele>
        <time>2012-02-26T09:57:53Z</time>
      </trkpt>
      <trkpt lat="45.33781" lon="1.16474">
        <ele>319</ele>
        <time>2012-02-26T09:57:55Z</time>
      </trkpt>
      <trkpt lat="45.33785" lon="1.16468">
        <ele>319</ele>
        <time>2012-02-26T09:57:57Z</time>
      </trkpt>
      <trkpt lat="45.3379" lon="1.16462">
        <ele>319</ele>
        <time>2012-02-26T09:57:59Z</time>
      </trkpt>
      <trkpt lat="45.33795" lon="1.16455">
        <ele>319</ele>
        <time>2012-02-26T09:58:01Z</time>
      </trkpt>
      <trkpt lat="45.33799" lon="1.16448">
        <ele>319</ele>
        <time>2012-02-26T09:58:03Z</time>
      </trkpt>
      <trkpt lat="45.33804" lon="1.16441">
        <ele>319</ele>
        <time>2012-02-26T09:58:05Z</time>
      </trkpt>
      <trkpt lat="45.33808" lon="1.16434">
        <ele>319</ele>
        <time>2012-02-26T09:58:07Z</time>
      </trkpt>
      <trkpt lat="45.33812" lon="1.16427">
        <ele>319</ele>
        <time>2012-02-26T09:58:09Z</time>
      </trkpt>
      <trkpt lat="45.33817" lon="1.1642">
        <ele>319</ele>
        <time>2012-02-26T09:58:11Z</time>
      </trkpt>
      <trkpt lat="45.33822" lon="1.16414">
        <ele>319</ele>
        <time>2012-02-26T09:58:13Z</time>
      </trkpt>
      <trkpt lat="45.33826" lon="1.16407">
        <ele>319</ele>
        <time>2012-02-26T09:58:15Z</time>
      </trkpt>
      <trkpt lat="45.33831" lon="1.164">
        <ele>318</ele>
        <time>2012-02-26T09:58:17Z</time>
      </trkpt>
      <trkpt lat="45.33836" lon="1.16393">
        <ele>318</ele>
        <time>2012-02-26T09:58:19Z</time>
      </trkpt>
      <trkpt lat="45.33841" lon="1.16386">
        <ele>317</ele>
        <time>2012-02-26T09:58:21Z</time>
      </trkpt>
      <trkpt lat="45.33845" lon="1.16378">
        <ele>316</ele>
        <time>2012-02-26T09:58:23Z</time>
      </trkpt>
      <trkpt lat="45.33849" lon="1.16372">
        <ele>316</ele>
        <time>2012-02-26T09:58:25Z</time>
      </trkpt>
      <trkpt lat="45.33854" lon="1.16364">
        <ele>316</ele>
        <time>2012-02-26T09:58:27Z</time>
      </trkpt>
      <trkpt lat="45.33858" lon="1.16356">
        <ele>316</ele>
        <time>2012-02-26T09:58:29Z</time>
      </trkpt>
      <trkpt lat="45.33863" lon="1.1635">
        <ele>316</ele>
        <time>2012-02-26T09:58:31Z</time>
      </trkpt>
      <trkpt lat="45.33868" lon="1.16344">
        <ele>315</ele>
        <time>2012-02-26T09:58:33Z</time>
      </trkpt>
      <trkpt lat="45.33874" lon="1.16338">
        <ele>314</ele>
        <time>2012-02-26T09:58:35Z</time>
      </trkpt>
      <trkpt lat="45.3388" lon="1.16332">
        <ele>313</ele>
        <time>2012-02-26T09:58:37Z</time>
      </trkpt>
      <trkpt lat="45.33885" lon="1.16327">
        <ele>311</ele>
        <time>2012-02-26T09:58:39Z</time>
      </trkpt>
      <trkpt lat="45.33891" lon="1.16323">
        <ele>310</ele>
        <time>2012-02-26T09:58:41Z</time>
      </trkpt>
      <trkpt lat="45.33898" lon="1.16323">
        <ele>309</ele>
        <time>2012-02-26T09:58:43Z</time>
      </trkpt>
      <trkpt lat="45.33905" lon="1.16326">
        <ele>308</ele>
        <time>2012-02-26T09:58:45Z</time>
      </trkpt>
      <trkpt lat="45.33911" lon="1.1633">
        <ele>307</ele>
        <time>2012-02-26T09:58:47Z</time>
      </trkpt>
      <trkpt lat="45.33917" lon="1.16333">
        <ele>306</ele>
        <time>2012-02-26T09:58:49Z</time>
      </trkpt>
      <trkpt lat="45.33923" lon="1.16337">
        <ele>306</ele>
        <time>2012-02-26T09:58:51Z</time>
      </trkpt>
      <trkpt lat="45.3393" lon="1.16341">
        <ele>305</ele>
        <time>2012-02-26T09:58:53Z</time>
      </trkpt>
      <trkpt lat="45.33936" lon="1.16346">
        <ele>305</ele>
        <time>2012-02-26T09:58:55Z</time>
      </trkpt>
      <trkpt lat="45.33942" lon="1.1635">
        <ele>304</ele>
        <time>2012-02-26T09:58:57Z</time>
      </trkpt>
      <trkpt lat="45.33948" lon="1.16353">
        <ele>304</ele>
        <time>2012-02-26T09:58:59Z</time>
      </trkpt>
      <trkpt lat="45.33954" lon="1.16356">
        <ele>304</ele>
        <time>2012-02-26T09:59:01Z</time>
      </trkpt>
      <trkpt lat="45.3396" lon="1.16357">
        <ele>303</ele>
        <time>2012-02-26T09:59:03Z</time>
      </trkpt>
      <trkpt lat="45.33966" lon="1.16358">
        <ele>303</ele>
        <time>2012-02-26T09:59:05Z</time>
      </trkpt>
      <trkpt lat="45.33973" lon="1.16358">
        <ele>303</ele>
        <time>2012-02-26T09:59:07Z</time>
      </trkpt>
      <trkpt lat="45.33979" lon="1.16356">
        <ele>303</ele>
        <time>2012-02-26T09:59:09Z</time>
      </trkpt>
      <trkpt lat="45.33985" lon="1.16352">
        <ele>302</ele>
        <time>2012-02-26T09:59:11Z</time>
      </trkpt>
      <trkpt lat="45.33991" lon="1.16349">
        <ele>302</ele>
        <time>2012-02-26T09:59:13Z</time>
      </trkpt>
      <trkpt lat="45.33997" lon="1.16345">
        <ele>302</ele>
        <time>2012-02-26T09:59:15Z</time>
      </trkpt>
      <trkpt lat="45.34003" lon="1.16341">
        <ele>302</ele>
        <time>2012-02-26T09:59:17Z</time>
      </trkpt>
      <trkpt lat="45.3401" lon="1.16338">
        <ele>302</ele>
        <time>2012-02-26T09:59:19Z</time>
      </trkpt>
      <trkpt lat="45.34016" lon="1.16334">
        <ele>301</ele>
        <time>2012-02-26T09:59:21Z</time>
      </trkpt>
      <trkpt lat="45.34023" lon="1.16329">
        <ele>301</ele>
        <time>2012-02-26T09:59:23Z</time>
      </trkpt>
      <trkpt lat="45.34029" lon="1.16325">
        <ele>300</ele>
        <time>2012-02-26T09:59:25Z</time>
      </trkpt>
      <trkpt lat="45.34035" lon="1.16321">
        <ele>299</ele>
        <time>2012-02-26T09:59:27Z</time>
      </trkpt>
      <trkpt lat="45.34042" lon="1.16318">
        <ele>299</ele>
        <time>2012-02-26T09:59:29Z</time>
      </trkpt>
      <trkpt lat="45.34047" lon="1.16312">
        <ele>298</ele>
        <time>2012-02-26T09:59:31Z</time>
      </trkpt>
      <trkpt lat="45.34052" lon="1.16306">
        <ele>297</ele>
        <time>2012-02-26T09:59:33Z</time>
      </trkpt>
      <trkpt lat="45.34055" lon="1.16297">
        <ele>296</ele>
        <time>2012-02-26T09:59:35Z</time>
      </trkpt>
      <trkpt lat="45.34058" lon="1.16288">
        <ele>295</ele>
        <time>2012-02-26T09:59:37Z</time>
      </trkpt>
      <trkpt lat="45.34061" lon="1.16279">
        <ele>293</ele>
        <time>2012-02-26T09:59:39Z</time>
      </trkpt>
      <trkpt lat="45.34065" lon="1.16271">
        <ele>292</ele>
        <time>2012-02-26T09:59:41Z</time>
      </trkpt>
      <trkpt lat="45.34071" lon="1.16268">
        <ele>290</ele>
        <time>2012-02-26T09:59:43Z</time>
      </trkpt>
      <trkpt lat="45.34078" lon="1.16269">
        <ele>289</ele>
        <time>2012-02-26T09:59:45Z</time>
      </trkpt>
      <trkpt lat="45.34083" lon="1.16273">
        <ele>287</ele>
        <time>2012-02-26T09:59:47Z</time>
      </trkpt>
      <trkpt lat="45.34089" lon="1.16279">
        <ele>286</ele>
        <time>2012-02-26T09:59:49Z</time>
      </trkpt>
      <trkpt lat="45.34095" lon="1.16285">
        <ele>285</ele>
        <time>2012-02-26T09:59:51Z</time>
      </trkpt>
      <trkpt lat="45.34102" lon="1.1629">
        <ele>283</ele>
        <time>2012-02-26T09:59:53Z</time>
      </trkpt>
      <trkpt lat="45.34108" lon="1.16293">
        <ele>281</ele>
        <time>2012-02-26T09:59:55Z</time>
      </trkpt>
      <trkpt lat="45.34116" lon="1.16296">
        <ele>280</ele>
        <time>2012-02-26T09:59:57Z</time>
      </trkpt>
      <trkpt lat="45.34123" lon="1.163">
        <ele>279</ele>
        <time>2012-02-26T09:59:59Z</time>
      </trkpt>
      <trkpt lat="45.34131" lon="1.16304">
        <ele>278</ele>
        <time>2012-02-26T10:00:01Z</time>
      </trkpt>
      <trkpt lat="45.34139" lon="1.16308">
        <ele>277</ele>
        <time>2012-02-26T10:00:03Z</time>
      </trkpt>
      <trkpt lat="45.34147" lon="1.16313">
        <ele>277</ele>
        <time>2012-02-26T10:00:05Z</time>
      </trkpt>
      <trkpt lat="45.34155" lon="1.16317">
        <ele>276</ele>
        <time>2012-02-26T10:00:07Z</time>
      </trkpt>
      <trkpt lat="45.34163" lon="1.16319">
        <ele>276</ele>
        <time>2012-02-26T10:00:09Z</time>
      </trkpt>
      <trkpt lat="45.34169" lon="1.1632">
        <ele>276</ele>
        <time>2012-02-26T10:00:11Z</time>
      </trkpt>
      <trkpt lat="45.34177" lon="1.16321">
        <ele>276</ele>
        <time>2012-02-26T10:00:13Z</time>
      </trkpt>
      <trkpt lat="45.34184" lon="1.16322">
        <ele>275</ele>
        <time>2012-02-26T10:00:15Z</time>
      </trkpt>
      <trkpt lat="45.34191" lon="1.16323">
        <ele>274</ele>
        <time>2012-02-26T10:00:17Z</time>
      </trkpt>
      <trkpt lat="45.34197" lon="1.16324">
        <ele>274</ele>
        <time>2012-02-26T10:00:19Z</time>
      </trkpt>
      <trkpt lat="45.34204" lon="1.16324">
        <ele>274</ele>
        <time>2012-02-26T10:00:21Z</time>
      </trkpt>
      <trkpt lat="45.34211" lon="1.16321">
        <ele>273</ele>
        <time>2012-02-26T10:00:23Z</time>
      </trkpt>
      <trkpt lat="45.34215" lon="1.16314">
        <ele>272</ele>
        <time>2012-02-26T10:00:25Z</time>
      </trkpt>
      <trkpt lat="45.34218" lon="1.16305">
        <ele>271</ele>
        <time>2012-02-26T10:00:27Z</time>
      </trkpt>
      <trkpt lat="45.3422" lon="1.16295">
        <ele>270</ele>
        <time>2012-02-26T10:00:29Z</time>
      </trkpt>
      <trkpt lat="45.34222" lon="1.16285">
        <ele>269</ele>
        <time>2012-02-26T10:00:31Z</time>
      </trkpt>
      <trkpt lat="45.34224" lon="1.16275">
        <ele>268</ele>
        <time>2012-02-26T10:00:33Z</time>
      </trkpt>
      <trkpt lat="45.34225" lon="1.16264">
        <ele>268</ele>
        <time>2012-02-26T10:00:35Z</time>
      </trkpt>
      <trkpt lat="45.34227" lon="1.16254">
        <ele>267</ele>
        <time>2012-02-26T10:00:37Z</time>
      </trkpt>
      <trkpt lat="45.34229" lon="1.16243">
        <ele>267</ele>
        <time>2012-02-26T10:00:39Z</time>
      </trkpt>
      <trkpt lat="45.34231" lon="1.16234">
        <ele>266</ele>
        <time>2012-02-26T10:00:41Z</time>
      </trkpt>
      <trkpt lat="45.34234" lon="1.16224">
        <ele>265</ele>
        <time>2012-02-26T10:00:43Z</time>
      </trkpt>
      <trkpt lat="45.34237" lon="1.16216">
        <ele>264</ele>
        <time>2012-02-26T10:00:45Z</time>
      </trkpt>
      <trkpt lat="45.3424" lon="1.16208">
        <ele>263</ele>
        <time>2012-02-26T10:00:47Z</time>
      </trkpt>
      <trkpt lat="45.34245" lon="1.16201">
        <ele>261</ele>
        <time>2012-02-26T10:00:49Z</time>
      </trkpt>
      <trkpt lat="45.3425" lon="1.16198">
        <ele>259</ele>
        <time>2012-02-26T10:00:51Z</time>
      </trkpt>
      <trkpt lat="45.34259" lon="1.16199">
        <ele>257</ele>
        <time>2012-02-26T10:00:53Z</time>
      </trkpt>
      <trkpt lat="45.34267" lon="1.16203">
        <ele>255</ele>
        <time>2012-02-26T10:00:55Z</time>
      </trkpt>
      <trkpt lat="45.34272" lon="1.16206">
        <ele>253</ele>
        <time>2012-02-26T10:00:57Z</time>
      </trkpt>
      <trkpt lat="45.3428" lon="1.16209">
        <ele>251</ele>
        <time>2012-02-26T10:00:59Z</time>
      </trkpt>
      <trkpt lat="45.34287" lon="1.1621">
        <ele>249</ele>
        <time>2012-02-26T10:01:01Z</time>
      </trkpt>
      <trkpt lat="45.34293" lon="1.16213">
        <ele>247</ele>
        <time>2012-02-26T10:01:03Z</time>
      </trkpt>
      <trkpt lat="45.343" lon="1.16215">
        <ele>246</ele>
        <time>2012-02-26T10:01:05Z</time>
      </trkpt>
      <trkpt lat="45.34305" lon="1.16215">
        <ele>246</ele>
        <time>2012-02-26T10:01:07Z</time>
      </trkpt>
      <trkpt lat="45.3431" lon="1.16214">
        <ele>246</ele>
        <time>2012-02-26T10:01:09Z</time>
      </trkpt>
      <trkpt lat="45.34315" lon="1.16212">
        <ele>246</ele>
        <time>2012-02-26T10:01:11Z</time>
      </trkpt>
      <trkpt lat="45.34321" lon="1.16212">
        <ele>246</ele>
        <time>2012-02-26T10:01:13Z</time>
      </trkpt>
      <trkpt lat="45.34326" lon="1.16212">
        <ele>246</ele>
        <time>2012-02-26T10:01:15Z</time>
      </trkpt>
      <trkpt lat="45.34332" lon="1.16211">
        <ele>246</ele>
        <time>2012-02-26T10:01:17Z</time>
      </trkpt>
      <trkpt lat="45.34339" lon="1.16208">
        <ele>246</ele>
        <time>2012-02-26T10:01:19Z</time>
      </trkpt>
      <trkpt lat="45.34346" lon="1.16204">
        <ele>246</ele>
        <time>2012-02-26T10:01:21Z</time>
      </trkpt>
      <trkpt lat="45.34352" lon="1.16199">
        <ele>246</ele>
        <time>2012-02-26T10:01:23Z</time>
      </trkpt>
      <trkpt lat="45.34358" lon="1.16195">
        <ele>246</ele>
        <time>2012-02-26T10:01:25Z</time>
      </trkpt>
      <trkpt lat="45.34364" lon="1.16191">
        <ele>246</ele>
        <time>2012-02-26T10:01:27Z</time>
      </trkpt>
      <trkpt lat="45.3437" lon="1.16187">
        <ele>245</ele>
        <time>2012-02-26T10:01:29Z</time>
      </trkpt>
      <trkpt lat="45.34377" lon="1.16185">
        <ele>244</ele>
        <time>2012-02-26T10:01:31Z</time>
      </trkpt>
      <trkpt lat="45.34382" lon="1.1618">
        <ele>243</ele>
        <time>2012-02-26T10:01:33Z</time>
      </trkpt>
      <trkpt lat="45.34388" lon="1.16173">
        <ele>242</ele>
        <time>2012-02-26T10:01:35Z</time>
      </trkpt>
      <trkpt lat="45.34392" lon="1.16165">
        <ele>241</ele>
        <time>2012-02-26T10:01:37Z</time>
      </trkpt>
      <trkpt lat="45.34396" lon="1.16158">
        <ele>239</ele>
        <time>2012-02-26T10:01:39Z</time>
      </trkpt>
      <trkpt lat="45.34399" lon="1.1615">
        <ele>237</ele>
        <time>2012-02-26T10:01:41Z</time>
      </trkpt>
      <trkpt lat="45.34403" lon="1.16141">
        <ele>235</ele>
        <time>2012-02-26T10:01:43Z</time>
      </trkpt>
      <trkpt lat="45.34407" lon="1.16132">
        <ele>233</ele>
        <time>2012-02-26T10:01:45Z</time>
      </trkpt>
      <trkpt lat="45.34409" lon="1.16124">
        <ele>232</ele>
        <time>2012-02-26T10:01:47Z</time>
      </trkpt>
      <trkpt lat="45.34413" lon="1.16115">
        <ele>231</ele>
        <time>2012-02-26T10:01:49Z</time>
      </trkpt>
      <trkpt lat="45.34418" lon="1.16106">
        <ele>229</ele>
        <time>2012-02-26T10:01:51Z</time>
      </trkpt>
      <trkpt lat="45.34421" lon="1.16097">
        <ele>229</ele>
        <time>2012-02-26T10:01:53Z</time>
      </trkpt>
      <trkpt lat="45.34425" lon="1.16088">
        <ele>229</ele>
        <time>2012-02-26T10:01:55Z</time>
      </trkpt>
      <trkpt lat="45.3443" lon="1.16081">
        <ele>229</ele>
        <time>2012-02-26T10:01:57Z</time>
      </trkpt>
      <trkpt lat="45.34436" lon="1.16074">
        <ele>228</ele>
        <time>2012-02-26T10:01:59Z</time>
      </trkpt>
      <trkpt lat="45.34441" lon="1.16066">
        <ele>227</ele>
        <time>2012-02-26T10:02:01Z</time>
      </trkpt>
      <trkpt lat="45.34446" lon="1.16057">
        <ele>226</ele>
        <time>2012-02-26T10:02:03Z</time>
      </trkpt>
      <trkpt lat="45.34451" lon="1.16049">
        <ele>225</ele>
        <time>2012-02-26T10:02:05Z</time>
      </trkpt>
      <trkpt lat="45.34457" lon="1.16042">
        <ele>224</ele>
        <time>2012-02-26T10:02:07Z</time>
      </trkpt>
      <trkpt lat="45.34463" lon="1.16036">
        <ele>224</ele>
        <time>2012-02-26T10:02:09Z</time>
      </trkpt>
      <trkpt lat="45.3447" lon="1.16031">
        <ele>223</ele>
        <time>2012-02-26T10:02:11Z</time>
      </trkpt>
      <trkpt lat="45.34476" lon="1.16025">
        <ele>222</ele>
        <time>2012-02-26T10:02:13Z</time>
      </trkpt>
      <trkpt lat="45.34481" lon="1.16019">
        <ele>222</ele>
        <time>2012-02-26T10:02:15Z</time>
      </trkpt>
      <trkpt lat="45.34487" lon="1.16013">
        <ele>221</ele>
        <time>2012-02-26T10:02:17Z</time>
      </trkpt>
      <trkpt lat="45.34493" lon="1.16006">
        <ele>220</ele>
        <time>2012-02-26T10:02:19Z</time>
      </trkpt>
      <trkpt lat="45.34498" lon="1.15998">
        <ele>220</ele>
        <time>2012-02-26T10:02:21Z</time>
      </trkpt>
      <trkpt lat="45.34503" lon="1.15991">
        <ele>220</ele>
        <time>2012-02-26T10:02:23Z</time>
      </trkpt>
      <trkpt lat="45.34508" lon="1.15984">
        <ele>219</ele>
        <time>2012-02-26T10:02:25Z</time>
      </trkpt>
      <trkpt lat="45.34514" lon="1.15977">
        <ele>218</ele>
        <time>2012-02-26T10:02:27Z</time>
      </trkpt>
      <trkpt lat="45.34519" lon="1.1597">
        <ele>217</ele>
        <time>2012-02-26T10:02:29Z</time>
      </trkpt>
      <trkpt lat="45.34524" lon="1.15964">
        <ele>216</ele>
        <time>2012-02-26T10:02:31Z</time>
      </trkpt>
      <trkpt lat="45.34529" lon="1.15958">
        <ele>214</ele>
        <time>2012-02-26T10:02:33Z</time>
      </trkpt>
      <trkpt lat="45.34534" lon="1.15951">
        <ele>212</ele>
        <time>2012-02-26T10:02:35Z</time>
      </trkpt>
      <trkpt lat="45.34535" lon="1.15942">
        <ele>211</ele>
        <time>2012-02-26T10:02:37Z</time>
      </trkpt>
      <trkpt lat="45.34537" lon="1.15933">
        <ele>209</ele>
        <time>2012-02-26T10:02:39Z</time>
      </trkpt>
      <trkpt lat="45.34538" lon="1.15923">
        <ele>209</ele>
        <time>2012-02-26T10:02:41Z</time>
      </trkpt>
      <trkpt lat="45.34537" lon="1.15913">
        <ele>208</ele>
        <time>2012-02-26T10:02:43Z</time>
      </trkpt>
      <trkpt lat="45.34538" lon="1.15904">
        <ele>208</ele>
        <time>2012-02-26T10:02:45Z</time>
      </trkpt>
      <trkpt lat="45.3454" lon="1.15895">
        <ele>207</ele>
        <time>2012-02-26T10:02:47Z</time>
      </trkpt>
      <trkpt lat="45.34544" lon="1.15888">
        <ele>207</ele>
        <time>2012-02-26T10:02:49Z</time>
      </trkpt>
      <trkpt lat="45.34547" lon="1.1588">
        <ele>206</ele>
        <time>2012-02-26T10:02:51Z</time>
      </trkpt>
      <trkpt lat="45.34552" lon="1.15873">
        <ele>205</ele>
        <time>2012-02-26T10:02:53Z</time>
      </trkpt>
      <trkpt lat="45.34556" lon="1.15867">
        <ele>204</ele>
        <time>2012-02-26T10:02:55Z</time>
      </trkpt>
      <trkpt lat="45.3456" lon="1.15861">
        <ele>202</ele>
        <time>2012-02-26T10:02:57Z</time>
      </trkpt>
      <trkpt lat="45.34565" lon="1.15856">
        <ele>200</ele>
        <time>2012-02-26T10:02:59Z</time>
      </trkpt>
      <trkpt lat="45.34571" lon="1.15851">
        <ele>198</ele>
        <time>2012-02-26T10:03:01Z</time>
      </trkpt>
      <trkpt lat="45.34576" lon="1.15849">
        <ele>196</ele>
        <time>2012-02-26T10:03:03Z</time>
      </trkpt>
      <trkpt lat="45.34582" lon="1.15847">
        <ele>194</ele>
        <time>2012-02-26T10:03:05Z</time>
      </trkpt>
      <trkpt lat="45.34588" lon="1.15843">
        <ele>192</ele>
        <time>2012-02-26T10:03:07Z</time>
      </trkpt>
      <trkpt lat="45.34591" lon="1.15837">
        <ele>190</ele>
        <time>2012-02-26T10:03:09Z</time>
      </trkpt>
      <trkpt lat="45.34596" lon="1.15833">
        <ele>188</ele>
        <time>2012-02-26T10:03:11Z</time>
      </trkpt>
      <trkpt lat="45.346" lon="1.15828">
        <ele>186</ele>
        <time>2012-02-26T10:03:13Z</time>
      </trkpt>
      <trkpt lat="45.34605" lon="1.15822">
        <ele>184</ele>
        <time>2012-02-26T10:03:15Z</time>
      </trkpt>
      <trkpt lat="45.34607" lon="1.15814">
        <ele>182</ele>
        <time>2012-02-26T10:03:17Z</time>
      </trkpt>
      <trkpt lat="45.34609" lon="1.15807">
        <ele>180</ele>
        <time>2012-02-26T10:03:19Z</time>
      </trkpt>
      <trkpt lat="45.34613" lon="1.158">
        <ele>178</ele>
        <time>2012-02-26T10:03:21Z</time>
      </trkpt>
      <trkpt lat="45.34617" lon="1.15797">
        <ele>176</ele>
        <time>2012-02-26T10:03:23Z</time>
      </trkpt>
      <trkpt lat="45.34622" lon="1.15795">
        <ele>174</ele>
        <time>2012-02-26T10:03:25Z</time>
      </trkpt>
      <trkpt lat="45.34627" lon="1.15791">
        <ele>172</ele>
        <time>2012-02-26T10:03:27Z</time>
      </trkpt>
      <trkpt lat="45.34631" lon="1.15787">
        <ele>170</ele>
        <time>2012-02-26T10:03:29Z</time>
      </trkpt>
      <trkpt lat="45.34635" lon="1.15782">
        <ele>167</ele>
        <time>2012-02-26T10:03:31Z</time>
      </trkpt>
      <trkpt lat="45.34638" lon="1.15778">
        <ele>164</ele>
        <time>2012-02-26T10:03:33Z</time>
      </trkpt>
      <trkpt lat="45.34642" lon="1.15775">
        <ele>162</ele>
        <time>2012-02-26T10:03:35Z</time>
      </trkpt>
      <trkpt lat="45.34646" lon="1.15769">
        <ele>159</ele>
        <time>2012-02-26T10:03:37Z</time>
      </trkpt>
      <trkpt lat="45.3465" lon="1.15763">
        <ele>157</ele>
        <time>2012-02-26T10:03:39Z</time>
      </trkpt>
      <trkpt lat="45.34653" lon="1.15755">
        <ele>155</ele>
        <time>2012-02-26T10:03:41Z</time>
      </trkpt>
      <trkpt lat="45.34655" lon="1.15748">
        <ele>153</ele>
        <time>2012-02-26T10:03:43Z</time>
      </trkpt>
      <trkpt lat="45.34655" lon="1.15739">
        <ele>152</ele>
        <time>2012-02-26T10:03:45Z</time>
      </trkpt>
      <trkpt lat="45.34652" lon="1.15731">
        <ele>150</ele>
        <time>2012-02-26T10:03:47Z</time>
      </trkpt>
      <trkpt lat="45.34649" lon="1.15725">
        <ele>150</ele>
        <time>2012-02-26T10:03:49Z</time>
      </trkpt>
      <trkpt lat="45.34645" lon="1.15717">
        <ele>150</ele>
        <time>2012-02-26T10:03:51Z</time>
      </trkpt>
      <trkpt lat="45.34642" lon="1.15708">
        <ele>150</ele>
        <time>2012-02-26T10:03:53Z</time>
      </trkpt>
      <trkpt lat="45.34641" lon="1.15701">
        <ele>150</ele>
        <time>2012-02-26T10:03:55Z</time>
      </trkpt>
      <trkpt lat="45.34641" lon="1.15693">
        <ele>150</ele>
        <time>2012-02-26T10:03:57Z</time>
      </trkpt>
      <trkpt lat="45.34642" lon="1.15686">
        <ele>152</ele>
        <time>2012-02-26T10:03:59Z</time>
      </trkpt>
      <trkpt lat="45.34643" lon="1.15676">
        <ele>153</ele>
        <time>2012-02-26T10:04:01Z</time>
      </trkpt>
      <trkpt lat="45.34644" lon="1.15667">
        <ele>155</ele>
        <time>2012-02-26T10:04:03Z</time>
      </trkpt>
      <trkpt lat="45.34643" lon="1.15658">
        <ele>156</ele>
        <time>2012-02-26T10:04:05Z</time>
      </trkpt>
      <trkpt lat="45.34639" lon="1.15652">
        <ele>157</ele>
        <time>2012-02-26T10:04:07Z</time>
      </trkpt>
      <trkpt lat="45.34634" lon="1.15646">
        <ele>159</ele>
        <time>2012-02-26T10:04:09Z</time>
      </trkpt>
      <trkpt lat="45.34632" lon="1.15636">
        <ele>161</ele>
        <time>2012-02-26T10:04:11Z</time>
      </trkpt>
      <trkpt lat="45.3463" lon="1.15628">
        <ele>163</ele>
        <time>2012-02-26T10:04:13Z</time>
      </trkpt>
      <trkpt lat="45.34632" lon="1.15618">
        <ele>165</ele>
        <time>2012-02-26T10:04:15Z</time>
      </trkpt>
      <trkpt lat="45.34631" lon="1.1561">
        <ele>167</ele>
        <time>2012-02-26T10:04:17Z</time>
      </trkpt>
      <trkpt lat="45.34628" lon="1.15602">
        <ele>168</ele>
        <time>2012-02-26T10:04:19Z</time>
      </trkpt>
      <trkpt lat="45.34625" lon="1.15594">
        <ele>169</ele>
        <time>2012-02-26T10:04:21Z</time>
      </trkpt>
      <trkpt lat="45.34622" lon="1.15585">
        <ele>169</ele>
        <time>2012-02-26T10:04:23Z</time>
      </trkpt>
      <trkpt lat="45.34622" lon="1.15576">
        <ele>169</ele>
        <time>2012-02-26T10:04:25Z</time>
      </trkpt>
      <trkpt lat="45.3462" lon="1.15568">
        <ele>169</ele>
        <time>2012-02-26T10:04:27Z</time>
      </trkpt>
      <trkpt lat="45.34617" lon="1.1556">
        <ele>169</ele>
        <time>2012-02-26T10:04:29Z</time>
      </trkpt>
      <trkpt lat="45.34615" lon="1.15552">
        <ele>169</ele>
        <time>2012-02-26T10:04:31Z</time>
      </trkpt>
      <trkpt lat="45.34613" lon="1.15546">
        <ele>169</ele>
        <time>2012-02-26T10:04:33Z</time>
      </trkpt>
      <trkpt lat="45.34609" lon="1.15541">
        <ele>169</ele>
        <time>2012-02-26T10:04:35Z</time>
      </trkpt>
      <trkpt lat="45.34604" lon="1.15539">
        <ele>169</ele>
        <time>2012-02-26T10:04:37Z</time>
      </trkpt>
      <trkpt lat="45.34599" lon="1.15539">
        <ele>169</ele>
        <time>2012-02-26T10:04:39Z</time>
      </trkpt>
      <trkpt lat="45.34594" lon="1.15538">
        <ele>169</ele>
        <time>2012-02-26T10:04:41Z</time>
      </trkpt>
      <trkpt lat="45.34588" lon="1.15535">
        <ele>169</ele>
        <time>2012-02-26T10:04:43Z</time>
      </trkpt>
      <trkpt lat="45.34584" lon="1.15531">
        <ele>169</ele>
        <time>2012-02-26T10:04:45Z</time>
      </trkpt>
      <trkpt lat="45.34579" lon="1.15527">
        <ele>169</ele>
        <time>2012-02-26T10:04:47Z</time>
      </trkpt>
      <trkpt lat="45.34575" lon="1.15522">
        <ele>169</ele>
        <time>2012-02-26T10:04:49Z</time>
      </trkpt>
      <trkpt lat="45.34572" lon="1.15517">
        <ele>169</ele>
        <time>2012-02-26T10:04:51Z</time>
      </trkpt>
      <trkpt lat="45.34568" lon="1.15511">
        <ele>169</ele>
        <time>2012-02-26T10:04:53Z</time>
      </trkpt>
      <trkpt lat="45.34564" lon="1.15505">
        <ele>169</ele>
        <time>2012-02-26T10:04:55Z</time>
      </trkpt>
      <trkpt lat="45.34559" lon="1.15498">
        <ele>169</ele>
        <time>2012-02-26T10:04:57Z</time>
      </trkpt>
      <trkpt lat="45.34556" lon="1.15492">
        <ele>170</ele>
        <time>2012-02-26T10:04:59Z</time>
      </trkpt>
      <trkpt lat="45.34554" lon="1.15486">
        <ele>171</ele>
        <time>2012-02-26T10:05:01Z</time>
      </trkpt>
      <trkpt lat="45.34551" lon="1.1548">
        <ele>171</ele>
        <time>2012-02-26T10:05:03Z</time>
      </trkpt>
      <trkpt lat="45.34547" lon="1.15474">
        <ele>172</ele>
        <time>2012-02-26T10:05:05Z</time>
      </trkpt>
      <trkpt lat="45.34547" lon="1.15468">
        <ele>172</ele>
        <time>2012-02-26T10:05:07Z</time>
      </trkpt>
      <trkpt lat="45.34544" lon="1.1546">
        <ele>172</ele>
        <time>2012-02-26T10:05:09Z</time>
      </trkpt>
      <trkpt lat="45.34539" lon="1.15453">
        <ele>172</ele>
        <time>2012-02-26T10:05:11Z</time>
      </trkpt>
      <trkpt lat="45.34535" lon="1.15448">
        <ele>172</ele>
        <time>2012-02-26T10:05:13Z</time>
      </trkpt>
      <trkpt lat="45.34531" lon="1.15442">
        <ele>173</ele>
        <time>2012-02-26T10:05:15Z</time>
      </trkpt>
      <trkpt lat="45.34527" lon="1.15436">
        <ele>174</ele>
        <time>2012-02-26T10:05:17Z</time>
      </trkpt>
      <trkpt lat="45.34522" lon="1.15428">
        <ele>175</ele>
        <time>2012-02-26T10:05:19Z</time>
      </trkpt>
      <trkpt lat="45.34518" lon="1.15423">
        <ele>177</ele>
        <time>2012-02-26T10:05:21Z</time>
      </trkpt>
      <trkpt lat="45.34515" lon="1.15417">
        <ele>177</ele>
        <time>2012-02-26T10:05:23Z</time>
      </trkpt>
      <trkpt lat="45.34511" lon="1.1541">
        <ele>177</ele>
        <time>2012-02-26T10:05:25Z</time>
      </trkpt>
      <trkpt lat="45.34507" lon="1.15404">
        <ele>178</ele>
        <time>2012-02-26T10:05:27Z</time>
      </trkpt>
      <trkpt lat="45.34502" lon="1.15398">
        <ele>178</ele>
        <time>2012-02-26T10:05:29Z</time>
      </trkpt>
      <trkpt lat="45.34497" lon="1.15391">
        <ele>178</ele>
        <time>2012-02-26T10:05:31Z</time>
      </trkpt>
      <trkpt lat="45.34493" lon="1.15385">
        <ele>178</ele>
        <time>2012-02-26T10:05:33Z</time>
      </trkpt>
      <trkpt lat="45.34488" lon="1.15378">
        <ele>178</ele>
        <time>2012-02-26T10:05:35Z</time>
      </trkpt>
      <trkpt lat="45.34484" lon="1.15372">
        <ele>178</ele>
        <time>2012-02-26T10:05:37Z</time>
      </trkpt>
      <trkpt lat="45.34479" lon="1.15371">
        <ele>178</ele>
        <time>2012-02-26T10:05:39Z</time>
      </trkpt>
      <trkpt lat="45.34475" lon="1.15369">
        <ele>178</ele>
        <time>2012-02-26T10:05:41Z</time>
      </trkpt>
      <trkpt lat="45.34471" lon="1.15364">
        <ele>178</ele>
        <time>2012-02-26T10:05:43Z</time>
      </trkpt>
      <trkpt lat="45.34468" lon="1.15357">
        <ele>178</ele>
        <time>2012-02-26T10:05:45Z</time>
      </trkpt>
      <trkpt lat="45.34465" lon="1.15348">
        <ele>178</ele>
        <time>2012-02-26T10:05:47Z</time>
      </trkpt>
      <trkpt lat="45.34461" lon="1.15341">
        <ele>178</ele>
        <time>2012-02-26T10:05:49Z</time>
      </trkpt>
      <trkpt lat="45.34457" lon="1.15336">
        <ele>178</ele>
        <time>2012-02-26T10:05:51Z</time>
      </trkpt>
      <trkpt lat="45.34452" lon="1.15333">
        <ele>178</ele>
        <time>2012-02-26T10:05:53Z</time>
      </trkpt>
      <trkpt lat="45.34446" lon="1.15333">
        <ele>178</ele>
        <time>2012-02-26T10:05:55Z</time>
      </trkpt>
      <trkpt lat="45.3444" lon="1.15333">
        <ele>178</ele>
        <time>2012-02-26T10:05:57Z</time>
      </trkpt>
      <trkpt lat="45.34436" lon="1.15336">
        <ele>178</ele>
        <time>2012-02-26T10:06:00Z</time>
      </trkpt>
      <trkpt lat="45.34435" lon="1.15343">
        <ele>177</ele>
        <time>2012-02-26T10:06:02Z</time>
      </trkpt>
      <trkpt lat="45.34432" lon="1.15352">
        <ele>177</ele>
        <time>2012-02-26T10:06:04Z</time>
      </trkpt>
      <trkpt lat="45.34427" lon="1.15356">
        <ele>177</ele>
        <time>2012-02-26T10:06:06Z</time>
      </trkpt>
      <trkpt lat="45.34421" lon="1.15359">
        <ele>177</ele>
        <time>2012-02-26T10:06:08Z</time>
      </trkpt>
      <trkpt lat="45.34415" lon="1.1536">
        <ele>176</ele>
        <time>2012-02-26T10:06:10Z</time>
      </trkpt>
      <trkpt lat="45.34409" lon="1.15363">
        <ele>176</ele>
        <time>2012-02-26T10:06:12Z</time>
      </trkpt>
      <trkpt lat="45.34406" lon="1.15368">
        <ele>175</ele>
        <time>2012-02-26T10:06:14Z</time>
      </trkpt>
      <trkpt lat="45.34403" lon="1.15373">
        <ele>175</ele>
        <time>2012-02-26T10:06:16Z</time>
      </trkpt>
      <trkpt lat="45.344" lon="1.1538">
        <ele>174</ele>
        <time>2012-02-26T10:06:18Z</time>
      </trkpt>
      <trkpt lat="45.34394" lon="1.15385">
        <ele>174</ele>
        <time>2012-02-26T10:06:20Z</time>
      </trkpt>
      <trkpt lat="45.34389" lon="1.15389">
        <ele>174</ele>
        <time>2012-02-26T10:06:22Z</time>
      </trkpt>
      <trkpt lat="45.34385" lon="1.15394">
        <ele>174</ele>
        <time>2012-02-26T10:06:24Z</time>
      </trkpt>
      <trkpt lat="45.34383" lon="1.15399">
        <ele>174</ele>
        <time>2012-02-26T10:06:26Z</time>
      </trkpt>
      <trkpt lat="45.3438" lon="1.15402">
        <ele>174</ele>
        <time>2012-02-26T10:06:28Z</time>
      </trkpt>
      <trkpt lat="45.34376" lon="1.15403">
        <ele>174</ele>
        <time>2012-02-26T10:06:30Z</time>
      </trkpt>
      <trkpt lat="45.34372" lon="1.15409">
        <ele>174</ele>
        <time>2012-02-26T10:06:32Z</time>
      </trkpt>
      <trkpt lat="45.34369" lon="1.15416">
        <ele>174</ele>
        <time>2012-02-26T10:06:34Z</time>
      </trkpt>
      <trkpt lat="45.34369" lon="1.15423">
        <ele>174</ele>
        <time>2012-02-26T10:06:36Z</time>
      </trkpt>
      <trkpt lat="45.34366" lon="1.15432">
        <ele>174</ele>
        <time>2012-02-26T10:06:38Z</time>
      </trkpt>
      <trkpt lat="45.34365" lon="1.15439">
        <ele>174</ele>
        <time>2012-02-26T10:06:40Z</time>
      </trkpt>
      <trkpt lat="45.34362" lon="1.15447">
        <ele>174</ele>
        <time>2012-02-26T10:06:42Z</time>
      </trkpt>
      <trkpt lat="45.34361" lon="1.15454">
        <ele>174</ele>
        <time>2012-02-26T10:06:44Z</time>
      </trkpt>
      <trkpt lat="45.3436" lon="1.15462">
        <ele>174</ele>
        <time>2012-02-26T10:06:46Z</time>
      </trkpt>
      <trkpt lat="45.34359" lon="1.1547">
        <ele>174</ele>
        <time>2012-02-26T10:06:48Z</time>
      </trkpt>
      <trkpt lat="45.34361" lon="1.15478">
        <ele>174</ele>
        <time>2012-02-26T10:06:50Z</time>
      </trkpt>
      <trkpt lat="45.34361" lon="1.15486">
        <ele>174</ele>
        <time>2012-02-26T10:06:52Z</time>
      </trkpt>
      <trkpt lat="45.3436" lon="1.15494">
        <ele>174</ele>
        <time>2012-02-26T10:06:54Z</time>
      </trkpt>
      <trkpt lat="45.34359" lon="1.15501">
        <ele>174</ele>
        <time>2012-02-26T10:06:56Z</time>
      </trkpt>
      <trkpt lat="45.34358" lon="1.15507">
        <ele>174</ele>
        <time>2012-02-26T10:06:58Z</time>
      </trkpt>
      <trkpt lat="45.34357" lon="1.15514">
        <ele>174</ele>
        <time>2012-02-26T10:07:00Z</time>
      </trkpt>
      <trkpt lat="45.34354" lon="1.15517">
        <ele>174</ele>
        <time>2012-02-26T10:07:02Z</time>
      </trkpt>
      <trkpt lat="45.34349" lon="1.15522">
        <ele>174</ele>
        <time>2012-02-26T10:07:04Z</time>
      </trkpt>
      <trkpt lat="45.34344" lon="1.15528">
        <ele>174</ele>
        <time>2012-02-26T10:07:06Z</time>
      </trkpt>
      <trkpt lat="45.34338" lon="1.15536">
        <ele>174</ele>
        <time>2012-02-26T10:07:08Z</time>
      </trkpt>
      <trkpt lat="45.34333" lon="1.15543">
        <ele>174</ele>
        <time>2012-02-26T10:07:10Z</time>
      </trkpt>
      <trkpt lat="45.34328" lon="1.15551">
        <ele>174</ele>
        <time>2012-02-26T10:07:12Z</time>
      </trkpt>
      <trkpt lat="45.34324" lon="1.15559">
        <ele>175</ele>
        <time>2012-02-26T10:07:14Z</time>
      </trkpt>
      <trkpt lat="45.3432" lon="1.15565">
        <ele>175</ele>
        <time>2012-02-26T10:07:16Z</time>
      </trkpt>
      <trkpt lat="45.34316" lon="1.15573">
        <ele>176</ele>
        <time>2012-02-26T10:07:18Z</time>
      </trkpt>
      <trkpt lat="45.34313" lon="1.15577">
        <ele>177</ele>
        <time>2012-02-26T10:07:20Z</time>
      </trkpt>
      <trkpt lat="45.3431" lon="1.1558">
        <ele>177</ele>
        <time>2012-02-26T10:07:22Z</time>
      </trkpt>
      <trkpt lat="45.34304" lon="1.15586">
        <ele>178</ele>
        <time>2012-02-26T10:07:24Z</time>
      </trkpt>
      <trkpt lat="45.343" lon="1.15592">
        <ele>179</ele>
        <time>2012-02-26T10:07:26Z</time>
      </trkpt>
      <trkpt lat="45.34294" lon="1.15596">
        <ele>181</ele>
        <time>2012-02-26T10:07:28Z</time>
      </trkpt>
      <trkpt lat="45.34288" lon="1.15599">
        <ele>182</ele>
        <time>2012-02-26T10:07:30Z</time>
      </trkpt>
      <trkpt lat="45.34283" lon="1.15601">
        <ele>183</ele>
        <time>2012-02-26T10:07:32Z</time>
      </trkpt>
      <trkpt lat="45.34278" lon="1.15604">
        <ele>183</ele>
        <time>2012-02-26T10:07:34Z</time>
      </trkpt>
      <trkpt lat="45.34272" lon="1.15607">
        <ele>183</ele>
        <time>2012-02-26T10:07:36Z</time>
      </trkpt>
      <trkpt lat="45.34266" lon="1.15608">
        <ele>183</ele>
        <time>2012-02-26T10:07:38Z</time>
      </trkpt>
      <trkpt lat="45.34261" lon="1.15605">
        <ele>183</ele>
        <time>2012-02-26T10:07:40Z</time>
      </trkpt>
      <trkpt lat="45.34259" lon="1.15605">
        <ele>180</ele>
        <time>2012-02-26T10:07:43Z</time>
      </trkpt>
      <trkpt lat="45.34256" lon="1.15605">
        <ele>178</ele>
        <time>2012-02-26T10:07:45Z</time>
      </trkpt>
      <trkpt lat="45.34251" lon="1.15603">
        <ele>176</ele>
        <time>2012-02-26T10:07:47Z</time>
      </trkpt>
      <trkpt lat="45.34246" lon="1.15602">
        <ele>176</ele>
        <time>2012-02-26T10:07:49Z</time>
      </trkpt>
      <trkpt lat="45.3424" lon="1.156">
        <ele>176</ele>
        <time>2012-02-26T10:07:51Z</time>
      </trkpt>
      <trkpt lat="45.34235" lon="1.15601">
        <ele>176</ele>
        <time>2012-02-26T10:07:53Z</time>
      </trkpt>
      <trkpt lat="45.3423" lon="1.15603">
        <ele>176</ele>
        <time>2012-02-26T10:07:55Z</time>
      </trkpt>
      <trkpt lat="45.34226" lon="1.15603">
        <ele>176</ele>
        <time>2012-02-26T10:07:57Z</time>
      </trkpt>
      <trkpt lat="45.34222" lon="1.156">
        <ele>176</ele>
        <time>2012-02-26T10:07:59Z</time>
      </trkpt>
      <trkpt lat="45.34218" lon="1.15598">
        <ele>176</ele>
        <time>2012-02-26T10:08:01Z</time>
      </trkpt>
      <trkpt lat="45.34214" lon="1.15597">
        <ele>175</ele>
        <time>2012-02-26T10:08:03Z</time>
      </trkpt>
      <trkpt lat="45.34212" lon="1.15599">
        <ele>174</ele>
        <time>2012-02-26T10:08:05Z</time>
      </trkpt>
      <trkpt lat="45.34209" lon="1.15602">
        <ele>173</ele>
        <time>2012-02-26T10:08:07Z</time>
      </trkpt>
      <trkpt lat="45.34205" lon="1.156">
        <ele>171</ele>
        <time>2012-02-26T10:08:11Z</time>
      </trkpt>
      <trkpt lat="45.34201" lon="1.156">
        <ele>170</ele>
        <time>2012-02-26T10:08:13Z</time>
      </trkpt>
      <trkpt lat="45.34197" lon="1.15596">
        <ele>169</ele>
        <time>2012-02-26T10:08:15Z</time>
      </trkpt>
      <trkpt lat="45.34194" lon="1.15596">
        <ele>168</ele>
        <time>2012-02-26T10:08:17Z</time>
      </trkpt>
      <trkpt lat="45.34192" lon="1.15596">
        <ele>167</ele>
        <time>2012-02-26T10:08:19Z</time>
      </trkpt>
      <trkpt lat="45.34188" lon="1.15594">
        <ele>167</ele>
        <time>2012-02-26T10:08:21Z</time>
      </trkpt>
      <trkpt lat="45.34185" lon="1.15594">
        <ele>167</ele>
        <time>2012-02-26T10:08:23Z</time>
      </trkpt>
      <trkpt lat="45.34181" lon="1.15593">
        <ele>167</ele>
        <time>2012-02-26T10:08:25Z</time>
      </trkpt>
      <trkpt lat="45.34178" lon="1.15589">
        <ele>166</ele>
        <time>2012-02-26T10:08:27Z</time>
      </trkpt>
      <trkpt lat="45.34173" lon="1.15588">
        <ele>166</ele>
        <time>2012-02-26T10:08:29Z</time>
      </trkpt>
      <trkpt lat="45.34169" lon="1.15589">
        <ele>166</ele>
        <time>2012-02-26T10:08:32Z</time>
      </trkpt>
      <trkpt lat="45.34167" lon="1.15588">
        <ele>166</ele>
        <time>2012-02-26T10:08:34Z</time>
      </trkpt>
      <trkpt lat="45.34163" lon="1.15587">
        <ele>166</ele>
        <time>2012-02-26T10:08:36Z</time>
      </trkpt>
      <trkpt lat="45.34161" lon="1.15584">
        <ele>166</ele>
        <time>2012-02-26T10:08:38Z</time>
      </trkpt>
      <trkpt lat="45.3416" lon="1.1558">
        <ele>166</ele>
        <time>2012-02-26T10:08:40Z</time>
      </trkpt>
      <trkpt lat="45.34158" lon="1.15577">
        <ele>166</ele>
        <time>2012-02-26T10:08:42Z</time>
      </trkpt>
      <trkpt lat="45.34157" lon="1.15574">
        <ele>166</ele>
        <time>2012-02-26T10:08:44Z</time>
      </trkpt>
      <trkpt lat="45.34156" lon="1.15569">
        <ele>166</ele>
        <time>2012-02-26T10:08:46Z</time>
      </trkpt>
      <trkpt lat="45.34155" lon="1.15566">
        <ele>170</ele>
        <time>2012-02-26T10:08:50Z</time>
      </trkpt>
      <trkpt lat="45.34153" lon="1.15565">
        <ele>170</ele>
        <time>2012-02-26T10:08:52Z</time>
      </trkpt>
      <trkpt lat="45.34153" lon="1.15563">
        <ele>171</ele>
        <time>2012-02-26T10:08:54Z</time>
      </trkpt>
      <trkpt lat="45.3415" lon="1.15559">
        <ele>171</ele>
        <time>2012-02-26T10:08:56Z</time>
      </trkpt>
      <trkpt lat="45.34149" lon="1.15555">
        <ele>171</ele>
        <time>2012-02-26T10:08:59Z</time>
      </trkpt>
      <trkpt lat="45.34147" lon="1.15551">
        <ele>171</ele>
        <time>2012-02-26T10:09:01Z</time>
      </trkpt>
      <trkpt lat="45.34145" lon="1.1555">
        <ele>171</ele>
        <time>2012-02-26T10:09:03Z</time>
      </trkpt>
      <trkpt lat="45.34144" lon="1.15546">
        <ele>172</ele>
        <time>2012-02-26T10:09:06Z</time>
      </trkpt>
      <trkpt lat="45.34144" lon="1.15542">
        <ele>173</ele>
        <time>2012-02-26T10:09:09Z</time>
      </trkpt>
      <trkpt lat="45.34144" lon="1.15536">
        <ele>175</ele>
        <time>2012-02-26T10:09:11Z</time>
      </trkpt>
      <trkpt lat="45.34146" lon="1.15532">
        <ele>176</ele>
        <time>2012-02-26T10:09:13Z</time>
      </trkpt>
      <trkpt lat="45.34147" lon="1.15529">
        <ele>176</ele>
        <time>2012-02-26T10:09:15Z</time>
      </trkpt>
      <trkpt lat="45.34146" lon="1.15525">
        <ele>176</ele>
        <time>2012-02-26T10:09:17Z</time>
      </trkpt>
      <trkpt lat="45.34143" lon="1.1552">
        <ele>176</ele>
        <time>2012-02-26T10:09:20Z</time>
      </trkpt>
      <trkpt lat="45.34142" lon="1.15516">
        <ele>176</ele>
        <time>2012-02-26T10:09:22Z</time>
      </trkpt>
      <trkpt lat="45.34142" lon="1.15512">
        <ele>176</ele>
        <time>2012-02-26T10:09:24Z</time>
      </trkpt>
      <trkpt lat="45.34142" lon="1.15506">
        <ele>176</ele>
        <time>2012-02-26T10:09:26Z</time>
      </trkpt>
      <trkpt lat="45.34142" lon="1.15499">
        <ele>176</ele>
        <time>2012-02-26T10:09:28Z</time>
      </trkpt>
      <trkpt lat="45.34143" lon="1.15493">
        <ele>176</ele>
        <time>2012-02-26T10:09:30Z</time>
      </trkpt>
      <trkpt lat="45.34146" lon="1.15487">
        <ele>176</ele>
        <time>2012-02-26T10:09:32Z</time>
      </trkpt>
      <trkpt lat="45.34147" lon="1.15483">
        <ele>176</ele>
        <time>2012-02-26T10:09:34Z</time>
      </trkpt>
      <trkpt lat="45.3415" lon="1.15476">
        <ele>176</ele>
        <time>2012-02-26T10:09:36Z</time>
      </trkpt>
      <trkpt lat="45.34152" lon="1.15471">
        <ele>177</ele>
        <time>2012-02-26T10:09:38Z</time>
      </trkpt>
      <trkpt lat="45.34154" lon="1.15466">
        <ele>178</ele>
        <time>2012-02-26T10:09:40Z</time>
      </trkpt>
      <trkpt lat="45.34158" lon="1.15462">
        <ele>179</ele>
        <time>2012-02-26T10:09:42Z</time>
      </trkpt>
      <trkpt lat="45.3416" lon="1.15458">
        <ele>179</ele>
        <time>2012-02-26T10:09:44Z</time>
      </trkpt>
      <trkpt lat="45.34162" lon="1.15454">
        <ele>179</ele>
        <time>2012-02-26T10:09:46Z</time>
      </trkpt>
      <trkpt lat="45.34163" lon="1.1545">
        <ele>179</ele>
        <time>2012-02-26T10:09:48Z</time>
      </trkpt>
      <trkpt lat="45.34163" lon="1.15445">
        <ele>179</ele>
        <time>2012-02-26T10:09:50Z</time>
      </trkpt>
      <trkpt lat="45.34163" lon="1.15441">
        <ele>179</ele>
        <time>2012-02-26T10:09:52Z</time>
      </trkpt>
      <trkpt lat="45.34164" lon="1.15436">
        <ele>179</ele>
        <time>2012-02-26T10:09:54Z</time>
      </trkpt>
      <trkpt lat="45.34164" lon="1.15431">
        <ele>178</ele>
        <time>2012-02-26T10:09:56Z</time>
      </trkpt>
      <trkpt lat="45.34165" lon="1.15426">
        <ele>177</ele>
        <time>2012-02-26T10:09:58Z</time>
      </trkpt>
      <trkpt lat="45.34165" lon="1.1542">
        <ele>175</ele>
        <time>2012-02-26T10:10:00Z</time>
      </trkpt>
      <trkpt lat="45.34166" lon="1.15414">
        <ele>174</ele>
        <time>2012-02-26T10:10:02Z</time>
      </trkpt>
      <trkpt lat="45.34166" lon="1.1541">
        <ele>172</ele>
        <time>2012-02-26T10:10:04Z</time>
      </trkpt>
      <trkpt lat="45.34166" lon="1.15405">
        <ele>171</ele>
        <time>2012-02-26T10:10:06Z</time>
      </trkpt>
      <trkpt lat="45.34163" lon="1.15399">
        <ele>170</ele>
        <time>2012-02-26T10:10:08Z</time>
      </trkpt>
      <trkpt lat="45.34162" lon="1.15394">
        <ele>170</ele>
        <time>2012-02-26T10:10:10Z</time>
      </trkpt>
      <trkpt lat="45.34161" lon="1.15389">
        <ele>169</ele>
        <time>2012-02-26T10:10:12Z</time>
      </trkpt>
      <trkpt lat="45.34161" lon="1.15385">
        <ele>168</ele>
        <time>2012-02-26T10:10:14Z</time>
      </trkpt>
      <trkpt lat="45.34161" lon="1.15381">
        <ele>168</ele>
        <time>2012-02-26T10:10:16Z</time>
      </trkpt>
      <trkpt lat="45.34161" lon="1.15377">
        <ele>168</ele>
        <time>2012-02-26T10:10:18Z</time>
      </trkpt>
      <trkpt lat="45.3416" lon="1.15372">
        <ele>166</ele>
        <time>2012-02-26T10:10:20Z</time>
      </trkpt>
      <trkpt lat="45.34161" lon="1.15368">
        <ele>164</ele>
        <time>2012-02-26T10:10:22Z</time>
      </trkpt>
      <trkpt lat="45.34164" lon="1.15362">
        <ele>162</ele>
        <time>2012-02-26T10:10:24Z</time>
      </trkpt>
      <trkpt lat="45.34164" lon="1.15357">
        <ele>160</ele>
        <time>2012-02-26T10:10:26Z</time>
      </trkpt>
      <trkpt lat="45.34167" lon="1.15352">
        <ele>159</ele>
        <time>2012-02-26T10:10:28Z</time>
      </trkpt>
      <trkpt lat="45.34169" lon="1.15347">
        <ele>158</ele>
        <time>2012-02-26T10:10:30Z</time>
      </trkpt>
      <trkpt lat="45.34169" lon="1.15342">
        <ele>157</ele>
        <time>2012-02-26T10:10:32Z</time>
      </trkpt>
      <trkpt lat="45.34171" lon="1.15338">
        <ele>155</ele>
        <time>2012-02-26T10:10:34Z</time>
      </trkpt>
      <trkpt lat="45.34172" lon="1.15332">
        <ele>153</ele>
        <time>2012-02-26T10:10:36Z</time>
      </trkpt>
      <trkpt lat="45.3417" lon="1.15328">
        <ele>152</ele>
        <time>2012-02-26T10:10:38Z</time>
      </trkpt>
      <trkpt lat="45.34168" lon="1.15324">
        <ele>152</ele>
        <time>2012-02-26T10:10:40Z</time>
      </trkpt>
      <trkpt lat="45.34166" lon="1.15318">
        <ele>153</ele>
        <time>2012-02-26T10:10:42Z</time>
      </trkpt>
      <trkpt lat="45.34168" lon="1.15311">
        <ele>155</ele>
        <time>2012-02-26T10:10:44Z</time>
      </trkpt>
      <trkpt lat="45.3417" lon="1.15308">
        <ele>157</ele>
        <time>2012-02-26T10:10:46Z</time>
      </trkpt>
      <trkpt lat="45.34172" lon="1.15303">
        <ele>158</ele>
        <time>2012-02-26T10:10:49Z</time>
      </trkpt>
      <trkpt lat="45.34172" lon="1.15299">
        <ele>158</ele>
        <time>2012-02-26T10:10:52Z</time>
      </trkpt>
      <trkpt lat="45.34172" lon="1.15296">
        <ele>158</ele>
        <time>2012-02-26T10:10:54Z</time>
      </trkpt>
      <trkpt lat="45.3417" lon="1.15296">
        <ele>158</ele>
        <time>2012-02-26T10:10:57Z</time>
      </trkpt>
      <trkpt lat="45.34169" lon="1.15298">
        <ele>159</ele>
        <time>2012-02-26T10:10:59Z</time>
      </trkpt>
      <trkpt lat="45.34168" lon="1.153">
        <ele>162</ele>
        <time>2012-02-26T10:11:02Z</time>
      </trkpt>
      <trkpt lat="45.34166" lon="1.15303">
        <ele>164</ele>
        <time>2012-02-26T10:11:04Z</time>
      </trkpt>
      <trkpt lat="45.34166" lon="1.15307">
        <ele>166</ele>
        <time>2012-02-26T10:11:06Z</time>
      </trkpt>
      <trkpt lat="45.34165" lon="1.15311">
        <ele>168</ele>
        <time>2012-02-26T10:11:08Z</time>
      </trkpt>
      <trkpt lat="45.34164" lon="1.15318">
        <ele>170</ele>
        <time>2012-02-26T10:11:10Z</time>
      </trkpt>
      <trkpt lat="45.34161" lon="1.15324">
        <ele>172</ele>
        <time>2012-02-26T10:11:12Z</time>
      </trkpt>
      <trkpt lat="45.34159" lon="1.1533">
        <ele>174</ele>
        <time>2012-02-26T10:11:14Z</time>
      </trkpt>
      <trkpt lat="45.34158" lon="1.15337">
        <ele>175</ele>
        <time>2012-02-26T10:11:16Z</time>
      </trkpt>
      <trkpt lat="45.34157" lon="1.15344">
        <ele>176</ele>
        <time>2012-02-26T10:11:18Z</time>
      </trkpt>
      <trkpt lat="45.34156" lon="1.15352">
        <ele>177</ele>
        <time>2012-02-26T10:11:20Z</time>
      </trkpt>
      <trkpt lat="45.34155" lon="1.15356">
        <ele>178</ele>
        <time>2012-02-26T10:11:22Z</time>
      </trkpt>
      <trkpt lat="45.34155" lon="1.15359">
        <ele>178</ele>
        <time>2012-02-26T10:11:24Z</time>
      </trkpt>
      <trkpt lat="45.34155" lon="1.15362">
        <ele>178</ele>
        <time>2012-02-26T10:11:26Z</time>
      </trkpt>
      <trkpt lat="45.34153" lon="1.15367">
        <ele>178</ele>
        <time>2012-02-26T10:11:29Z</time>
      </trkpt>
      <trkpt lat="45.34152" lon="1.15372">
        <ele>178</ele>
        <time>2012-02-26T10:11:32Z</time>
      </trkpt>
      <trkpt lat="45.34152" lon="1.15376">
        <ele>179</ele>
        <time>2012-02-26T10:11:34Z</time>
      </trkpt>
      <trkpt lat="45.34152" lon="1.15379">
        <ele>180</ele>
        <time>2012-02-26T10:11:36Z</time>
      </trkpt>
      <trkpt lat="45.34152" lon="1.15382">
        <ele>181</ele>
        <time>2012-02-26T10:11:38Z</time>
      </trkpt>
      <trkpt lat="45.34152" lon="1.15386">
        <ele>182</ele>
        <time>2012-02-26T10:11:40Z</time>
      </trkpt>
      <trkpt lat="45.34149" lon="1.15389">
        <ele>183</ele>
        <time>2012-02-26T10:11:44Z</time>
      </trkpt>
      <trkpt lat="45.34148" lon="1.15386">
        <ele>183</ele>
        <time>2012-02-26T10:11:46Z</time>
      </trkpt>
      <trkpt lat="45.34146" lon="1.15385">
        <ele>183</ele>
        <time>2012-02-26T10:11:48Z</time>
      </trkpt>
      <trkpt lat="45.34145" lon="1.15383">
        <ele>183</ele>
        <time>2012-02-26T10:11:50Z</time>
      </trkpt>
      <trkpt lat="45.34143" lon="1.15382">
        <ele>183</ele>
        <time>2012-02-26T10:11:52Z</time>
      </trkpt>
      <trkpt lat="45.34144" lon="1.1538">
        <ele>183</ele>
        <time>2012-02-26T10:11:54Z</time>
      </trkpt>
      <trkpt lat="45.34143" lon="1.15377">
        <ele>183</ele>
        <time>2012-02-26T10:11:56Z</time>
      </trkpt>
      <trkpt lat="45.34142" lon="1.15373">
        <ele>183</ele>
        <time>2012-02-26T10:11:59Z</time>
      </trkpt>
      <trkpt lat="45.3414" lon="1.1537">
        <ele>183</ele>
        <time>2012-02-26T10:12:02Z</time>
      </trkpt>
      <trkpt lat="45.34138" lon="1.15368">
        <ele>183</ele>
        <time>2012-02-26T10:12:05Z</time>
      </trkpt>
      <trkpt lat="45.34136" lon="1.15367">
        <ele>183</ele>
        <time>2012-02-26T10:12:08Z</time>
      </trkpt>
      <trkpt lat="45.34136" lon="1.15365">
        <ele>183</ele>
        <time>2012-02-26T10:12:10Z</time>
      </trkpt>
      <trkpt lat="45.34135" lon="1.15364">
        <ele>183</ele>
        <time>2012-02-26T10:12:15Z</time>
      </trkpt>
      <trkpt lat="45.34134" lon="1.1536">
        <ele>183</ele>
        <time>2012-02-26T10:12:18Z</time>
      </trkpt>
      <trkpt lat="45.34133" lon="1.15358">
        <ele>184</ele>
        <time>2012-02-26T10:12:22Z</time>
      </trkpt>
      <trkpt lat="45.34132" lon="1.15356">
        <ele>185</ele>
        <time>2012-02-26T10:12:24Z</time>
      </trkpt>
      <trkpt lat="45.3413" lon="1.15354">
        <ele>186</ele>
        <time>2012-02-26T10:12:26Z</time>
      </trkpt>
      <trkpt lat="45.34127" lon="1.15352">
        <ele>187</ele>
        <time>2012-02-26T10:12:29Z</time>
      </trkpt>
      <trkpt lat="45.34126" lon="1.15351">
        <ele>187</ele>
        <time>2012-02-26T10:12:31Z</time>
      </trkpt>
      <trkpt lat="45.34124" lon="1.15349">
        <ele>188</ele>
        <time>2012-02-26T10:12:33Z</time>
      </trkpt>
      <trkpt lat="45.34123" lon="1.15346">
        <ele>190</ele>
        <time>2012-02-26T10:12:36Z</time>
      </trkpt>
      <trkpt lat="45.34121" lon="1.15345">
        <ele>191</ele>
        <time>2012-02-26T10:12:38Z</time>
      </trkpt>
      <trkpt lat="45.3412" lon="1.15341">
        <ele>192</ele>
        <time>2012-02-26T10:12:40Z</time>
      </trkpt>
      <trkpt lat="45.34119" lon="1.15338">
        <ele>193</ele>
        <time>2012-02-26T10:12:43Z</time>
      </trkpt>
      <trkpt lat="45.34118" lon="1.15337">
        <ele>194</ele>
        <time>2012-02-26T10:12:45Z</time>
      </trkpt>
      <trkpt lat="45.34115" lon="1.15336">
        <ele>194</ele>
        <time>2012-02-26T10:12:47Z</time>
      </trkpt>
      <trkpt lat="45.34114" lon="1.15336">
        <ele>196</ele>
        <time>2012-02-26T10:12:49Z</time>
      </trkpt>
      <trkpt lat="45.34112" lon="1.15336">
        <ele>197</ele>
        <time>2012-02-26T10:12:51Z</time>
      </trkpt>
      <trkpt lat="45.3411" lon="1.15335">
        <ele>198</ele>
        <time>2012-02-26T10:12:53Z</time>
      </trkpt>
      <trkpt lat="45.34108" lon="1.15335">
        <ele>198</ele>
        <time>2012-02-26T10:12:55Z</time>
      </trkpt>
      <trkpt lat="45.34106" lon="1.15334">
        <ele>199</ele>
        <time>2012-02-26T10:12:57Z</time>
      </trkpt>
      <trkpt lat="45.34104" lon="1.15331">
        <ele>199</ele>
        <time>2012-02-26T10:12:59Z</time>
      </trkpt>
      <trkpt lat="45.34103" lon="1.15332">
        <ele>199</ele>
        <time>2012-02-26T10:13:01Z</time>
      </trkpt>
      <trkpt lat="45.34102" lon="1.15333">
        <ele>200</ele>
        <time>2012-02-26T10:13:04Z</time>
      </trkpt>
      <trkpt lat="45.341" lon="1.15334">
        <ele>201</ele>
        <time>2012-02-26T10:13:06Z</time>
      </trkpt>
      <trkpt lat="45.34099" lon="1.15335">
        <ele>202</ele>
        <time>2012-02-26T10:13:09Z</time>
      </trkpt>
      <trkpt lat="45.34098" lon="1.15337">
        <ele>203</ele>
        <time>2012-02-26T10:13:12Z</time>
      </trkpt>
      <trkpt lat="45.34098" lon="1.1534">
        <ele>203</ele>
        <time>2012-02-26T10:13:14Z</time>
      </trkpt>
      <trkpt lat="45.34098" lon="1.15341">
        <ele>203</ele>
        <time>2012-02-26T10:13:16Z</time>
      </trkpt>
      <trkpt lat="45.34099" lon="1.15343">
        <ele>204</ele>
        <time>2012-02-26T10:13:19Z</time>
      </trkpt>
      <trkpt lat="45.34099" lon="1.15345">
        <ele>205</ele>
        <time>2012-02-26T10:13:21Z</time>
      </trkpt>
      <trkpt lat="45.341" lon="1.15347">
        <ele>207</ele>
        <time>2012-02-26T10:13:24Z</time>
      </trkpt>
      <trkpt lat="45.34098" lon="1.1535">
        <ele>208</ele>
        <time>2012-02-26T10:13:26Z</time>
      </trkpt>
      <trkpt lat="45.34097" lon="1.15354">
        <ele>208</ele>
        <time>2012-02-26T10:13:29Z</time>
      </trkpt>
      <trkpt lat="45.34096" lon="1.15356">
        <ele>209</ele>
        <time>2012-02-26T10:13:31Z</time>
      </trkpt>
      <trkpt lat="45.34095" lon="1.15358">
        <ele>210</ele>
        <time>2012-02-26T10:13:33Z</time>
      </trkpt>
      <trkpt lat="45.34094" lon="1.15359">
        <ele>211</ele>
        <time>2012-02-26T10:13:35Z</time>
      </trkpt>
      <trkpt lat="45.34092" lon="1.1536">
        <ele>211</ele>
        <time>2012-02-26T10:13:37Z</time>
      </trkpt>
      <trkpt lat="45.34088" lon="1.1536">
        <ele>213</ele>
        <time>2012-02-26T10:13:42Z</time>
      </trkpt>
      <trkpt lat="45.34087" lon="1.15358">
        <ele>213</ele>
        <time>2012-02-26T10:13:46Z</time>
      </trkpt>
      <trkpt lat="45.34086" lon="1.15357">
        <ele>213</ele>
        <time>2012-02-26T10:13:48Z</time>
      </trkpt>
      <trkpt lat="45.34084" lon="1.15355">
        <ele>213</ele>
        <time>2012-02-26T10:13:50Z</time>
      </trkpt>
      <trkpt lat="45.34081" lon="1.15354">
        <ele>214</ele>
        <time>2012-02-26T10:13:52Z</time>
      </trkpt>
      <trkpt lat="45.34079" lon="1.15352">
        <ele>214</ele>
        <time>2012-02-26T10:13:55Z</time>
      </trkpt>
      <trkpt lat="45.34077" lon="1.15349">
        <ele>215</ele>
        <time>2012-02-26T10:13:57Z</time>
      </trkpt>
      <trkpt lat="45.34074" lon="1.15347">
        <ele>215</ele>
        <time>2012-02-26T10:13:59Z</time>
      </trkpt>
      <trkpt lat="45.34071" lon="1.15343">
        <ele>216</ele>
        <time>2012-02-26T10:14:01Z</time>
      </trkpt>
      <trkpt lat="45.34066" lon="1.15341">
        <ele>216</ele>
        <time>2012-02-26T10:14:03Z</time>
      </trkpt>
      <trkpt lat="45.34062" lon="1.15339">
        <ele>217</ele>
        <time>2012-02-26T10:14:05Z</time>
      </trkpt>
      <trkpt lat="45.34059" lon="1.15338">
        <ele>217</ele>
        <time>2012-02-26T10:14:07Z</time>
      </trkpt>
      <trkpt lat="45.34056" lon="1.15339">
        <ele>217</ele>
        <time>2012-02-26T10:14:09Z</time>
      </trkpt>
      <trkpt lat="45.34053" lon="1.15338">
        <ele>218</ele>
        <time>2012-02-26T10:14:11Z</time>
      </trkpt>
      <trkpt lat="45.34051" lon="1.15337">
        <ele>218</ele>
        <time>2012-02-26T10:14:13Z</time>
      </trkpt>
      <trkpt lat="45.34049" lon="1.15337">
        <ele>219</ele>
        <time>2012-02-26T10:14:15Z</time>
      </trkpt>
      <trkpt lat="45.34047" lon="1.15337">
        <ele>219</ele>
        <time>2012-02-26T10:14:17Z</time>
      </trkpt>
      <trkpt lat="45.34046" lon="1.15336">
        <ele>220</ele>
        <time>2012-02-26T10:14:19Z</time>
      </trkpt>
      <trkpt lat="45.34044" lon="1.15335">
        <ele>222</ele>
        <time>2012-02-26T10:14:21Z</time>
      </trkpt>
      <trkpt lat="45.34041" lon="1.15334">
        <ele>223</ele>
        <time>2012-02-26T10:14:24Z</time>
      </trkpt>
      <trkpt lat="45.34039" lon="1.15333">
        <ele>224</ele>
        <time>2012-02-26T10:14:26Z</time>
      </trkpt>
      <trkpt lat="45.34037" lon="1.15333">
        <ele>224</ele>
        <time>2012-02-26T10:14:28Z</time>
      </trkpt>
      <trkpt lat="45.34035" lon="1.15332">
        <ele>224</ele>
        <time>2012-02-26T10:14:30Z</time>
      </trkpt>
      <trkpt lat="45.34033" lon="1.15331">
        <ele>224</ele>
        <time>2012-02-26T10:14:32Z</time>
      </trkpt>
      <trkpt lat="45.34031" lon="1.1533">
        <ele>225</ele>
        <time>2012-02-26T10:14:34Z</time>
      </trkpt>
      <trkpt lat="45.34029" lon="1.15329">
        <ele>225</ele>
        <time>2012-02-26T10:14:36Z</time>
      </trkpt>
      <trkpt lat="45.34028" lon="1.15329">
        <ele>225</ele>
        <time>2012-02-26T10:14:38Z</time>
      </trkpt>
      <trkpt lat="45.34026" lon="1.15329">
        <ele>225</ele>
        <time>2012-02-26T10:14:40Z</time>
      </trkpt>
      <trkpt lat="45.34022" lon="1.1533">
        <ele>225</ele>
        <time>2012-02-26T10:14:42Z</time>
      </trkpt>
      <trkpt lat="45.3402" lon="1.15329">
        <ele>225</ele>
        <time>2012-02-26T10:14:45Z</time>
      </trkpt>
      <trkpt lat="45.34018" lon="1.15329">
        <ele>226</ele>
        <time>2012-02-26T10:14:47Z</time>
      </trkpt>
      <trkpt lat="45.34016" lon="1.15328">
        <ele>227</ele>
        <time>2012-02-26T10:14:49Z</time>
      </trkpt>
      <trkpt lat="45.34015" lon="1.1533">
        <ele>228</ele>
        <time>2012-02-26T10:14:51Z</time>
      </trkpt>
      <trkpt lat="45.34013" lon="1.15328">
        <ele>229</ele>
        <time>2012-02-26T10:14:53Z</time>
      </trkpt>
      <trkpt lat="45.34012" lon="1.15328">
        <ele>229</ele>
        <time>2012-02-26T10:14:55Z</time>
      </trkpt>
      <trkpt lat="45.3401" lon="1.15326">
        <ele>229</ele>
        <time>2012-02-26T10:14:58Z</time>
      </trkpt>
      <trkpt lat="45.34009" lon="1.15325">
        <ele>229</ele>
        <time>2012-02-26T10:15:00Z</time>
      </trkpt>
      <trkpt lat="45.34006" lon="1.15325">
        <ele>229</ele>
        <time>2012-02-26T10:15:05Z</time>
      </trkpt>
      <trkpt lat="45.34004" lon="1.15325">
        <ele>229</ele>
        <time>2012-02-26T10:15:07Z</time>
      </trkpt>
      <trkpt lat="45.34003" lon="1.15324">
        <ele>229</ele>
        <time>2012-02-26T10:15:09Z</time>
      </trkpt>
      <trkpt lat="45.34" lon="1.15324">
        <ele>229</ele>
        <time>2012-02-26T10:15:11Z</time>
      </trkpt>
      <trkpt lat="45.33998" lon="1.15324">
        <ele>229</ele>
        <time>2012-02-26T10:15:14Z</time>
      </trkpt>
      <trkpt lat="45.33996" lon="1.15325">
        <ele>230</ele>
        <time>2012-02-26T10:15:17Z</time>
      </trkpt>
      <trkpt lat="45.33994" lon="1.15325">
        <ele>231</ele>
        <time>2012-02-26T10:15:19Z</time>
      </trkpt>
      <trkpt lat="45.33993" lon="1.15326">
        <ele>231</ele>
        <time>2012-02-26T10:15:21Z</time>
      </trkpt>
      <trkpt lat="45.33991" lon="1.15328">
        <ele>232</ele>
        <time>2012-02-26T10:15:25Z</time>
      </trkpt>
      <trkpt lat="45.3399" lon="1.15328">
        <ele>233</ele>
        <time>2012-02-26T10:15:27Z</time>
      </trkpt>
      <trkpt lat="45.33986" lon="1.15328">
        <ele>234</ele>
        <time>2012-02-26T10:15:30Z</time>
      </trkpt>
      <trkpt lat="45.33984" lon="1.15327">
        <ele>236</ele>
        <time>2012-02-26T10:15:32Z</time>
      </trkpt>
      <trkpt lat="45.33983" lon="1.15328">
        <ele>236</ele>
        <time>2012-02-26T10:15:34Z</time>
      </trkpt>
      <trkpt lat="45.33981" lon="1.15328">
        <ele>237</ele>
        <time>2012-02-26T10:15:36Z</time>
      </trkpt>
      <trkpt lat="45.3398" lon="1.15329">
        <ele>237</ele>
        <time>2012-02-26T10:15:38Z</time>
      </trkpt>
      <trkpt lat="45.33979" lon="1.15329">
        <ele>238</ele>
        <time>2012-02-26T10:15:40Z</time>
      </trkpt>
      <trkpt lat="45.33977" lon="1.15329">
        <ele>238</ele>
        <time>2012-02-26T10:15:42Z</time>
      </trkpt>
      <trkpt lat="45.33976" lon="1.15328">
        <ele>238</ele>
        <time>2012-02-26T10:15:44Z</time>
      </trkpt>
      <trkpt lat="45.33975" lon="1.15327">
        <ele>239</ele>
        <time>2012-02-26T10:15:46Z</time>
      </trkpt>
      <trkpt lat="45.33973" lon="1.15327">
        <ele>239</ele>
        <time>2012-02-26T10:15:49Z</time>
      </trkpt>
      <trkpt lat="45.33972" lon="1.15327">
        <ele>240</ele>
        <time>2012-02-26T10:15:51Z</time>
      </trkpt>
      <trkpt lat="45.33971" lon="1.15327">
        <ele>240</ele>
        <time>2012-02-26T10:15:53Z</time>
      </trkpt>
      <trkpt lat="45.33969" lon="1.15327">
        <ele>241</ele>
        <time>2012-02-26T10:15:55Z</time>
      </trkpt>
      <trkpt lat="45.33967" lon="1.15328">
        <ele>241</ele>
        <time>2012-02-26T10:15:57Z</time>
      </trkpt>
      <trkpt lat="45.33966" lon="1.15328">
        <ele>243</ele>
        <time>2012-02-26T10:16:00Z</time>
      </trkpt>
      <trkpt lat="45.33963" lon="1.15328">
        <ele>244</ele>
        <time>2012-02-26T10:16:03Z</time>
      </trkpt>
      <trkpt lat="45.33962" lon="1.15329">
        <ele>245</ele>
        <time>2012-02-26T10:16:05Z</time>
      </trkpt>
      <trkpt lat="45.33961" lon="1.15331">
        <ele>245</ele>
        <time>2012-02-26T10:16:07Z</time>
      </trkpt>
      <trkpt lat="45.3396" lon="1.1533">
        <ele>246</ele>
        <time>2012-02-26T10:16:09Z</time>
      </trkpt>
      <trkpt lat="45.33957" lon="1.15331">
        <ele>246</ele>
        <time>2012-02-26T10:16:11Z</time>
      </trkpt>
      <trkpt lat="45.33957" lon="1.15333">
        <ele>248</ele>
        <time>2012-02-26T10:16:14Z</time>
      </trkpt>
      <trkpt lat="45.33958" lon="1.15335">
        <ele>249</ele>
        <time>2012-02-26T10:16:18Z</time>
      </trkpt>
      <trkpt lat="45.33957" lon="1.15337">
        <ele>250</ele>
        <time>2012-02-26T10:16:20Z</time>
      </trkpt>
      <trkpt lat="45.33955" lon="1.15337">
        <ele>252</ele>
        <time>2012-02-26T10:16:22Z</time>
      </trkpt>
      <trkpt lat="45.33956" lon="1.15338">
        <ele>254</ele>
        <time>2012-02-26T10:16:25Z</time>
      </trkpt>
      <trkpt lat="45.33957" lon="1.1534">
        <ele>256</ele>
        <time>2012-02-26T10:16:30Z</time>
      </trkpt>
      <trkpt lat="45.33958" lon="1.15342">
        <ele>257</ele>
        <time>2012-02-26T10:16:32Z</time>
      </trkpt>
      <trkpt lat="45.33961" lon="1.15345">
        <ele>258</ele>
        <time>2012-02-26T10:16:35Z</time>
      </trkpt>
      <trkpt lat="45.33961" lon="1.15348">
        <ele>258</ele>
        <time>2012-02-26T10:16:37Z</time>
      </trkpt>
      <trkpt lat="45.33961" lon="1.1535">
        <ele>259</ele>
        <time>2012-02-26T10:16:39Z</time>
      </trkpt>
      <trkpt lat="45.3396" lon="1.15353">
        <ele>260</ele>
        <time>2012-02-26T10:16:41Z</time>
      </trkpt>
      <trkpt lat="45.33961" lon="1.15355">
        <ele>261</ele>
        <time>2012-02-26T10:16:43Z</time>
      </trkpt>
      <trkpt lat="45.33961" lon="1.15357">
        <ele>262</ele>
        <time>2012-02-26T10:16:45Z</time>
      </trkpt>
      <trkpt lat="45.33961" lon="1.15362">
        <ele>263</ele>
        <time>2012-02-26T10:16:48Z</time>
      </trkpt>
      <trkpt lat="45.3396" lon="1.15364">
        <ele>264</ele>
        <time>2012-02-26T10:16:50Z</time>
      </trkpt>
      <trkpt lat="45.3396" lon="1.15367">
        <ele>264</ele>
        <time>2012-02-26T10:16:52Z</time>
      </trkpt>
      <trkpt lat="45.3396" lon="1.15369">
        <ele>265</ele>
        <time>2012-02-26T10:16:54Z</time>
      </trkpt>
      <trkpt lat="45.3396" lon="1.15373">
        <ele>265</ele>
        <time>2012-02-26T10:16:56Z</time>
      </trkpt>
      <trkpt lat="45.33962" lon="1.15377">
        <ele>265</ele>
        <time>2012-02-26T10:16:59Z</time>
      </trkpt>
      <trkpt lat="45.33963" lon="1.15379">
        <ele>265</ele>
        <time>2012-02-26T10:17:01Z</time>
      </trkpt>
      <trkpt lat="45.33964" lon="1.15384">
        <ele>265</ele>
        <time>2012-02-26T10:17:03Z</time>
      </trkpt>
      <trkpt lat="45.33966" lon="1.15387">
        <ele>265</ele>
        <time>2012-02-26T10:17:05Z</time>
      </trkpt>
      <trkpt lat="45.33968" lon="1.15389">
        <ele>265</ele>
        <time>2012-02-26T10:17:07Z</time>
      </trkpt>
      <trkpt lat="45.33969" lon="1.15392">
        <ele>265</ele>
        <time>2012-02-26T10:17:09Z</time>
      </trkpt>
      <trkpt lat="45.3397" lon="1.15395">
        <ele>265</ele>
        <time>2012-02-26T10:17:11Z</time>
      </trkpt>
      <trkpt lat="45.3397" lon="1.154">
        <ele>265</ele>
        <time>2012-02-26T10:17:13Z</time>
      </trkpt>
      <trkpt lat="45.33968" lon="1.15404">
        <ele>265</ele>
        <time>2012-02-26T10:17:16Z</time>
      </trkpt>
      <trkpt lat="45.33968" lon="1.15408">
        <ele>265</ele>
        <time>2012-02-26T10:17:18Z</time>
      </trkpt>
      <trkpt lat="45.33967" lon="1.15411">
        <ele>265</ele>
        <time>2012-02-26T10:17:21Z</time>
      </trkpt>
      <trkpt lat="45.33966" lon="1.15414">
        <ele>265</ele>
        <time>2012-02-26T10:17:23Z</time>
      </trkpt>
      <trkpt lat="45.33966" lon="1.15416">
        <ele>265</ele>
        <time>2012-02-26T10:17:25Z</time>
      </trkpt>
      <trkpt lat="45.33965" lon="1.15418">
        <ele>265</ele>
        <time>2012-02-26T10:17:27Z</time>
      </trkpt>
      <trkpt lat="45.33964" lon="1.1542">
        <ele>266</ele>
        <time>2012-02-26T10:17:29Z</time>
      </trkpt>
      <trkpt lat="45.33964" lon="1.15422">
        <ele>267</ele>
        <time>2012-02-26T10:17:32Z</time>
      </trkpt>
      <trkpt lat="45.33963" lon="1.15425">
        <ele>267</ele>
        <time>2012-02-26T10:17:34Z</time>
      </trkpt>
      <trkpt lat="45.33963" lon="1.15427">
        <ele>268</ele>
        <time>2012-02-26T10:17:36Z</time>
      </trkpt>
      <trkpt lat="45.33963" lon="1.1543">
        <ele>269</ele>
        <time>2012-02-26T10:17:38Z</time>
      </trkpt>
      <trkpt lat="45.33963" lon="1.15433">
        <ele>270</ele>
        <time>2012-02-26T10:17:40Z</time>
      </trkpt>
      <trkpt lat="45.33963" lon="1.15435">
        <ele>271</ele>
        <time>2012-02-26T10:17:42Z</time>
      </trkpt>
      <trkpt lat="45.33963" lon="1.15438">
        <ele>271</ele>
        <time>2012-02-26T10:17:45Z</time>
      </trkpt>
      <trkpt lat="45.33963" lon="1.15441">
        <ele>271</ele>
        <time>2012-02-26T10:17:47Z</time>
      </trkpt>
      <trkpt lat="45.33962" lon="1.15445">
        <ele>271</ele>
        <time>2012-02-26T10:17:49Z</time>
      </trkpt>
      <trkpt lat="45.33961" lon="1.15447">
        <ele>272</ele>
        <time>2012-02-26T10:17:51Z</time>
      </trkpt>
      <trkpt lat="45.3396" lon="1.15451">
        <ele>272</ele>
        <time>2012-02-26T10:17:53Z</time>
      </trkpt>
      <trkpt lat="45.33958" lon="1.15454">
        <ele>272</ele>
        <time>2012-02-26T10:17:56Z</time>
      </trkpt>
      <trkpt lat="45.33957" lon="1.15456">
        <ele>273</ele>
        <time>2012-02-26T10:17:58Z</time>
      </trkpt>
      <trkpt lat="45.33956" lon="1.1546">
        <ele>274</ele>
        <time>2012-02-26T10:18:01Z</time>
      </trkpt>
      <trkpt lat="45.33955" lon="1.15462">
        <ele>274</ele>
        <time>2012-02-26T10:18:03Z</time>
      </trkpt>
      <trkpt lat="45.33955" lon="1.15466">
        <ele>275</ele>
        <time>2012-02-26T10:18:05Z</time>
      </trkpt>
      <trkpt lat="45.33955" lon="1.15469">
        <ele>275</ele>
        <time>2012-02-26T10:18:07Z</time>
      </trkpt>
      <trkpt lat="45.33952" lon="1.15474">
        <ele>275</ele>
        <time>2012-02-26T10:18:10Z</time>
      </trkpt>
      <trkpt lat="45.3395" lon="1.15476">
        <ele>275</ele>
        <time>2012-02-26T10:18:12Z</time>
      </trkpt>
      <trkpt lat="45.33947" lon="1.1548">
        <ele>275</ele>
        <time>2012-02-26T10:18:15Z</time>
      </trkpt>
      <trkpt lat="45.33946" lon="1.15482">
        <ele>275</ele>
        <time>2012-02-26T10:18:17Z</time>
      </trkpt>
      <trkpt lat="45.33943" lon="1.15485">
        <ele>275</ele>
        <time>2012-02-26T10:18:19Z</time>
      </trkpt>
      <trkpt lat="45.33939" lon="1.15485">
        <ele>275</ele>
        <time>2012-02-26T10:18:21Z</time>
      </trkpt>
      <trkpt lat="45.33935" lon="1.15485">
        <ele>275</ele>
        <time>2012-02-26T10:18:23Z</time>
      </trkpt>
      <trkpt lat="45.3393" lon="1.15485">
        <ele>275</ele>
        <time>2012-02-26T10:18:25Z</time>
      </trkpt>
      <trkpt lat="45.33925" lon="1.15484">
        <ele>276</ele>
        <time>2012-02-26T10:18:27Z</time>
      </trkpt>
      <trkpt lat="45.33919" lon="1.15484">
        <ele>276</ele>
        <time>2012-02-26T10:18:29Z</time>
      </trkpt>
      <trkpt lat="45.33912" lon="1.15485">
        <ele>276</ele>
        <time>2012-02-26T10:18:31Z</time>
      </trkpt>
      <trkpt lat="45.33906" lon="1.15485">
        <ele>276</ele>
        <time>2012-02-26T10:18:33Z</time>
      </trkpt>
      <trkpt lat="45.33899" lon="1.15483">
        <ele>276</ele>
        <time>2012-02-26T10:18:35Z</time>
      </trkpt>
      <trkpt lat="45.33893" lon="1.15479">
        <ele>276</ele>
        <time>2012-02-26T10:18:37Z</time>
      </trkpt>
      <trkpt lat="45.33886" lon="1.15477">
        <ele>276</ele>
        <time>2012-02-26T10:18:39Z</time>
      </trkpt>
      <trkpt lat="45.33881" lon="1.15476">
        <ele>276</ele>
        <time>2012-02-26T10:18:41Z</time>
      </trkpt>
      <trkpt lat="45.33874" lon="1.15477">
        <ele>276</ele>
        <time>2012-02-26T10:18:43Z</time>
      </trkpt>
      <trkpt lat="45.33867" lon="1.15476">
        <ele>276</ele>
        <time>2012-02-26T10:18:45Z</time>
      </trkpt>
      <trkpt lat="45.33859" lon="1.15475">
        <ele>276</ele>
        <time>2012-02-26T10:18:47Z</time>
      </trkpt>
      <trkpt lat="45.33851" lon="1.15474">
        <ele>275</ele>
        <time>2012-02-26T10:18:49Z</time>
      </trkpt>
      <trkpt lat="45.33842" lon="1.15473">
        <ele>273</ele>
        <time>2012-02-26T10:18:51Z</time>
      </trkpt>
      <trkpt lat="45.33833" lon="1.1547">
        <ele>271</ele>
        <time>2012-02-26T10:18:53Z</time>
      </trkpt>
      <trkpt lat="45.33825" lon="1.15469">
        <ele>271</ele>
        <time>2012-02-26T10:18:55Z</time>
      </trkpt>
      <trkpt lat="45.33816" lon="1.15469">
        <ele>269</ele>
        <time>2012-02-26T10:18:57Z</time>
      </trkpt>
      <trkpt lat="45.33808" lon="1.15469">
        <ele>268</ele>
        <time>2012-02-26T10:18:59Z</time>
      </trkpt>
      <trkpt lat="45.33801" lon="1.15465">
        <ele>267</ele>
        <time>2012-02-26T10:19:01Z</time>
      </trkpt>
      <trkpt lat="45.33797" lon="1.15457">
        <ele>266</ele>
        <time>2012-02-26T10:19:03Z</time>
      </trkpt>
      <trkpt lat="45.33796" lon="1.15449">
        <ele>264</ele>
        <time>2012-02-26T10:19:05Z</time>
      </trkpt>
      <trkpt lat="45.33792" lon="1.15441">
        <ele>263</ele>
        <time>2012-02-26T10:19:07Z</time>
      </trkpt>
      <trkpt lat="45.33788" lon="1.15431">
        <ele>262</ele>
        <time>2012-02-26T10:19:09Z</time>
      </trkpt>
      <trkpt lat="45.33784" lon="1.1542">
        <ele>260</ele>
        <time>2012-02-26T10:19:11Z</time>
      </trkpt>
      <trkpt lat="45.33784" lon="1.15407">
        <ele>259</ele>
        <time>2012-02-26T10:19:13Z</time>
      </trkpt>
      <trkpt lat="45.33785" lon="1.15395">
        <ele>258</ele>
        <time>2012-02-26T10:19:15Z</time>
      </trkpt>
      <trkpt lat="45.33787" lon="1.15386">
        <ele>257</ele>
        <time>2012-02-26T10:19:17Z</time>
      </trkpt>
      <trkpt lat="45.33786" lon="1.15378">
        <ele>255</ele>
        <time>2012-02-26T10:19:19Z</time>
      </trkpt>
      <trkpt lat="45.33778" lon="1.15372">
        <ele>253</ele>
        <time>2012-02-26T10:19:21Z</time>
      </trkpt>
      <trkpt lat="45.33769" lon="1.15371">
        <ele>251</ele>
        <time>2012-02-26T10:19:23Z</time>
      </trkpt>
      <trkpt lat="45.33762" lon="1.15368">
        <ele>249</ele>
        <time>2012-02-26T10:19:25Z</time>
      </trkpt>
      <trkpt lat="45.33758" lon="1.15359">
        <ele>247</ele>
        <time>2012-02-26T10:19:27Z</time>
      </trkpt>
      <trkpt lat="45.33757" lon="1.15347">
        <ele>245</ele>
        <time>2012-02-26T10:19:29Z</time>
      </trkpt>
      <trkpt lat="45.33757" lon="1.15335">
        <ele>243</ele>
        <time>2012-02-26T10:19:31Z</time>
      </trkpt>
      <trkpt lat="45.33758" lon="1.15324">
        <ele>241</ele>
        <time>2012-02-26T10:19:33Z</time>
      </trkpt>
      <trkpt lat="45.33763" lon="1.15317">
        <ele>239</ele>
        <time>2012-02-26T10:19:35Z</time>
      </trkpt>
      <trkpt lat="45.33768" lon="1.15311">
        <ele>237</ele>
        <time>2012-02-26T10:19:37Z</time>
      </trkpt>
      <trkpt lat="45.33772" lon="1.15304">
        <ele>235</ele>
        <time>2012-02-26T10:19:39Z</time>
      </trkpt>
      <trkpt lat="45.33775" lon="1.15296">
        <ele>234</ele>
        <time>2012-02-26T10:19:41Z</time>
      </trkpt>
      <trkpt lat="45.33778" lon="1.15289">
        <ele>234</ele>
        <time>2012-02-26T10:19:43Z</time>
      </trkpt>
      <trkpt lat="45.33781" lon="1.15282">
        <ele>234</ele>
        <time>2012-02-26T10:19:45Z</time>
      </trkpt>
      <trkpt lat="45.33783" lon="1.15275">
        <ele>234</ele>
        <time>2012-02-26T10:19:47Z</time>
      </trkpt>
      <trkpt lat="45.33784" lon="1.15266">
        <ele>234</ele>
        <time>2012-02-26T10:19:49Z</time>
      </trkpt>
      <trkpt lat="45.33781" lon="1.15257">
        <ele>234</ele>
        <time>2012-02-26T10:19:51Z</time>
      </trkpt>
      <trkpt lat="45.33773" lon="1.1525">
        <ele>233</ele>
        <time>2012-02-26T10:19:53Z</time>
      </trkpt>
      <trkpt lat="45.33766" lon="1.15245">
        <ele>232</ele>
        <time>2012-02-26T10:19:55Z</time>
      </trkpt>
      <trkpt lat="45.33758" lon="1.1524">
        <ele>231</ele>
        <time>2012-02-26T10:19:57Z</time>
      </trkpt>
      <trkpt lat="45.33752" lon="1.15234">
        <ele>230</ele>
        <time>2012-02-26T10:19:59Z</time>
      </trkpt>
      <trkpt lat="45.33745" lon="1.15231">
        <ele>229</ele>
        <time>2012-02-26T10:20:01Z</time>
      </trkpt>
      <trkpt lat="45.33738" lon="1.15229">
        <ele>228</ele>
        <time>2012-02-26T10:20:03Z</time>
      </trkpt>
      <trkpt lat="45.33731" lon="1.15227">
        <ele>227</ele>
        <time>2012-02-26T10:20:05Z</time>
      </trkpt>
      <trkpt lat="45.33725" lon="1.15224">
        <ele>225</ele>
        <time>2012-02-26T10:20:07Z</time>
      </trkpt>
      <trkpt lat="45.33718" lon="1.15222">
        <ele>224</ele>
        <time>2012-02-26T10:20:09Z</time>
      </trkpt>
      <trkpt lat="45.33712" lon="1.1522">
        <ele>223</ele>
        <time>2012-02-26T10:20:11Z</time>
      </trkpt>
      <trkpt lat="45.33706" lon="1.1522">
        <ele>222</ele>
        <time>2012-02-26T10:20:13Z</time>
      </trkpt>
      <trkpt lat="45.33699" lon="1.15216">
        <ele>221</ele>
        <time>2012-02-26T10:20:15Z</time>
      </trkpt>
      <trkpt lat="45.33693" lon="1.15212">
        <ele>220</ele>
        <time>2012-02-26T10:20:17Z</time>
      </trkpt>
      <trkpt lat="45.33688" lon="1.15206">
        <ele>219</ele>
        <time>2012-02-26T10:20:19Z</time>
      </trkpt>
      <trkpt lat="45.33684" lon="1.152">
        <ele>219</ele>
        <time>2012-02-26T10:20:21Z</time>
      </trkpt>
      <trkpt lat="45.33679" lon="1.15196">
        <ele>218</ele>
        <time>2012-02-26T10:20:23Z</time>
      </trkpt>
      <trkpt lat="45.33675" lon="1.15193">
        <ele>217</ele>
        <time>2012-02-26T10:20:25Z</time>
      </trkpt>
      <trkpt lat="45.33673" lon="1.15188">
        <ele>216</ele>
        <time>2012-02-26T10:20:27Z</time>
      </trkpt>
      <trkpt lat="45.33671" lon="1.15182">
        <ele>215</ele>
        <time>2012-02-26T10:20:29Z</time>
      </trkpt>
      <trkpt lat="45.33666" lon="1.15176">
        <ele>214</ele>
        <time>2012-02-26T10:20:31Z</time>
      </trkpt>
      <trkpt lat="45.33662" lon="1.1517">
        <ele>214</ele>
        <time>2012-02-26T10:20:33Z</time>
      </trkpt>
      <trkpt lat="45.33658" lon="1.15164">
        <ele>213</ele>
        <time>2012-02-26T10:20:35Z</time>
      </trkpt>
      <trkpt lat="45.33654" lon="1.15157">
        <ele>213</ele>
        <time>2012-02-26T10:20:37Z</time>
      </trkpt>
      <trkpt lat="45.3365" lon="1.15151">
        <ele>212</ele>
        <time>2012-02-26T10:20:39Z</time>
      </trkpt>
      <trkpt lat="45.33646" lon="1.15144">
        <ele>212</ele>
        <time>2012-02-26T10:20:41Z</time>
      </trkpt>
      <trkpt lat="45.33642" lon="1.15139">
        <ele>212</ele>
        <time>2012-02-26T10:20:43Z</time>
      </trkpt>
      <trkpt lat="45.33637" lon="1.15135">
        <ele>211</ele>
        <time>2012-02-26T10:20:45Z</time>
      </trkpt>
      <trkpt lat="45.33631" lon="1.15131">
        <ele>210</ele>
        <time>2012-02-26T10:20:47Z</time>
      </trkpt>
      <trkpt lat="45.33625" lon="1.15127">
        <ele>209</ele>
        <time>2012-02-26T10:20:49Z</time>
      </trkpt>
      <trkpt lat="45.3362" lon="1.15123">
        <ele>209</ele>
        <time>2012-02-26T10:20:51Z</time>
      </trkpt>
      <trkpt lat="45.33614" lon="1.15119">
        <ele>208</ele>
        <time>2012-02-26T10:20:53Z</time>
      </trkpt>
      <trkpt lat="45.33609" lon="1.15114">
        <ele>207</ele>
        <time>2012-02-26T10:20:55Z</time>
      </trkpt>
      <trkpt lat="45.33604" lon="1.15112">
        <ele>206</ele>
        <time>2012-02-26T10:20:57Z</time>
      </trkpt>
      <trkpt lat="45.33598" lon="1.1511">
        <ele>205</ele>
        <time>2012-02-26T10:20:59Z</time>
      </trkpt>
      <trkpt lat="45.33593" lon="1.15107">
        <ele>204</ele>
        <time>2012-02-26T10:21:01Z</time>
      </trkpt>
      <trkpt lat="45.33588" lon="1.15101">
        <ele>203</ele>
        <time>2012-02-26T10:21:03Z</time>
      </trkpt>
      <trkpt lat="45.33583" lon="1.15098">
        <ele>203</ele>
        <time>2012-02-26T10:21:05Z</time>
      </trkpt>
      <trkpt lat="45.33577" lon="1.15094">
        <ele>202</ele>
        <time>2012-02-26T10:21:07Z</time>
      </trkpt>
      <trkpt lat="45.33573" lon="1.15089">
        <ele>200</ele>
        <time>2012-02-26T10:21:09Z</time>
      </trkpt>
      <trkpt lat="45.33569" lon="1.15082">
        <ele>199</ele>
        <time>2012-02-26T10:21:11Z</time>
      </trkpt>
      <trkpt lat="45.33569" lon="1.15074">
        <ele>198</ele>
        <time>2012-02-26T10:21:13Z</time>
      </trkpt>
      <trkpt lat="45.33568" lon="1.15068">
        <ele>197</ele>
        <time>2012-02-26T10:21:15Z</time>
      </trkpt>
      <trkpt lat="45.33564" lon="1.15064">
        <ele>196</ele>
        <time>2012-02-26T10:21:17Z</time>
      </trkpt>
      <trkpt lat="45.3356" lon="1.1506">
        <ele>194</ele>
        <time>2012-02-26T10:21:19Z</time>
      </trkpt>
      <trkpt lat="45.33557" lon="1.15055">
        <ele>193</ele>
        <time>2012-02-26T10:21:21Z</time>
      </trkpt>
      <trkpt lat="45.33554" lon="1.15052">
        <ele>192</ele>
        <time>2012-02-26T10:21:23Z</time>
      </trkpt>
      <trkpt lat="45.33551" lon="1.15051">
        <ele>191</ele>
        <time>2012-02-26T10:21:25Z</time>
      </trkpt>
      <trkpt lat="45.33548" lon="1.1505">
        <ele>189</ele>
        <time>2012-02-26T10:21:27Z</time>
      </trkpt>
      <trkpt lat="45.33545" lon="1.1505">
        <ele>188</ele>
        <time>2012-02-26T10:21:29Z</time>
      </trkpt>
      <trkpt lat="45.33543" lon="1.15052">
        <ele>186</ele>
        <time>2012-02-26T10:21:31Z</time>
      </trkpt>
      <trkpt lat="45.33542" lon="1.15052">
        <ele>185</ele>
        <time>2012-02-26T10:21:33Z</time>
      </trkpt>
      <trkpt lat="45.33539" lon="1.15052">
        <ele>183</ele>
        <time>2012-02-26T10:21:36Z</time>
      </trkpt>
      <trkpt lat="45.33536" lon="1.15051">
        <ele>181</ele>
        <time>2012-02-26T10:21:39Z</time>
      </trkpt>
      <trkpt lat="45.33534" lon="1.1505">
        <ele>179</ele>
        <time>2012-02-26T10:21:41Z</time>
      </trkpt>
      <trkpt lat="45.33531" lon="1.15051">
        <ele>178</ele>
        <time>2012-02-26T10:21:43Z</time>
      </trkpt>
      <trkpt lat="45.33527" lon="1.15053">
        <ele>177</ele>
        <time>2012-02-26T10:21:45Z</time>
      </trkpt>
      <trkpt lat="45.33523" lon="1.15056">
        <ele>176</ele>
        <time>2012-02-26T10:21:47Z</time>
      </trkpt>
      <trkpt lat="45.33522" lon="1.15062">
        <ele>176</ele>
        <time>2012-02-26T10:21:49Z</time>
      </trkpt>
      <trkpt lat="45.3352" lon="1.15065">
        <ele>175</ele>
        <time>2012-02-26T10:21:51Z</time>
      </trkpt>
      <trkpt lat="45.33517" lon="1.15066">
        <ele>173</ele>
        <time>2012-02-26T10:21:54Z</time>
      </trkpt>
      <trkpt lat="45.33514" lon="1.15066">
        <ele>171</ele>
        <time>2012-02-26T10:21:56Z</time>
      </trkpt>
      <trkpt lat="45.3351" lon="1.15065">
        <ele>169</ele>
        <time>2012-02-26T10:21:59Z</time>
      </trkpt>
      <trkpt lat="45.33507" lon="1.15064">
        <ele>167</ele>
        <time>2012-02-26T10:22:01Z</time>
      </trkpt>
      <trkpt lat="45.33501" lon="1.15061">
        <ele>166</ele>
        <time>2012-02-26T10:22:03Z</time>
      </trkpt>
      <trkpt lat="45.33495" lon="1.15057">
        <ele>164</ele>
        <time>2012-02-26T10:22:05Z</time>
      </trkpt>
      <trkpt lat="45.33489" lon="1.15055">
        <ele>162</ele>
        <time>2012-02-26T10:22:07Z</time>
      </trkpt>
      <trkpt lat="45.33484" lon="1.15053">
        <ele>160</ele>
        <time>2012-02-26T10:22:09Z</time>
      </trkpt>
      <trkpt lat="45.33479" lon="1.15052">
        <ele>159</ele>
        <time>2012-02-26T10:22:11Z</time>
      </trkpt>
      <trkpt lat="45.33474" lon="1.15051">
        <ele>159</ele>
        <time>2012-02-26T10:22:13Z</time>
      </trkpt>
      <trkpt lat="45.3347" lon="1.15051">
        <ele>159</ele>
        <time>2012-02-26T10:22:15Z</time>
      </trkpt>
      <trkpt lat="45.33467" lon="1.15054">
        <ele>159</ele>
        <time>2012-02-26T10:22:17Z</time>
      </trkpt>
      <trkpt lat="45.33463" lon="1.15057">
        <ele>159</ele>
        <time>2012-02-26T10:22:19Z</time>
      </trkpt>
      <trkpt lat="45.33458" lon="1.15059">
        <ele>159</ele>
        <time>2012-02-26T10:22:21Z</time>
      </trkpt>
      <trkpt lat="45.33453" lon="1.15068">
        <ele>159</ele>
        <time>2012-02-26T10:22:23Z</time>
      </trkpt>
      <trkpt lat="45.3345" lon="1.15073">
        <ele>159</ele>
        <time>2012-02-26T10:22:25Z</time>
      </trkpt>
      <trkpt lat="45.33447" lon="1.15076">
        <ele>159</ele>
        <time>2012-02-26T10:22:27Z</time>
      </trkpt>
      <trkpt lat="45.33444" lon="1.1508">
        <ele>159</ele>
        <time>2012-02-26T10:22:29Z</time>
      </trkpt>
      <trkpt lat="45.33442" lon="1.15083">
        <ele>159</ele>
        <time>2012-02-26T10:22:31Z</time>
      </trkpt>
      <trkpt lat="45.33439" lon="1.15086">
        <ele>159</ele>
        <time>2012-02-26T10:22:33Z</time>
      </trkpt>
      <trkpt lat="45.33437" lon="1.15088">
        <ele>159</ele>
        <time>2012-02-26T10:22:35Z</time>
      </trkpt>
      <trkpt lat="45.33434" lon="1.1509">
        <ele>161</ele>
        <time>2012-02-26T10:22:38Z</time>
      </trkpt>
      <trkpt lat="45.33432" lon="1.15092">
        <ele>161</ele>
        <time>2012-02-26T10:22:40Z</time>
      </trkpt>
      <trkpt lat="45.33429" lon="1.15096">
        <ele>162</ele>
        <time>2012-02-26T10:22:42Z</time>
      </trkpt>
      <trkpt lat="45.33427" lon="1.15098">
        <ele>164</ele>
        <time>2012-02-26T10:22:44Z</time>
      </trkpt>
      <trkpt lat="45.33426" lon="1.15099">
        <ele>165</ele>
        <time>2012-02-26T10:22:46Z</time>
      </trkpt>
      <trkpt lat="45.33424" lon="1.15102">
        <ele>166</ele>
        <time>2012-02-26T10:22:48Z</time>
      </trkpt>
      <trkpt lat="45.33423" lon="1.15107">
        <ele>167</ele>
        <time>2012-02-26T10:22:50Z</time>
      </trkpt>
      <trkpt lat="45.33421" lon="1.15111">
        <ele>167</ele>
        <time>2012-02-26T10:22:52Z</time>
      </trkpt>
      <trkpt lat="45.33418" lon="1.15114">
        <ele>167</ele>
        <time>2012-02-26T10:22:55Z</time>
      </trkpt>
      <trkpt lat="45.33417" lon="1.15116">
        <ele>167</ele>
        <time>2012-02-26T10:22:57Z</time>
      </trkpt>
      <trkpt lat="45.33414" lon="1.15119">
        <ele>168</ele>
        <time>2012-02-26T10:22:59Z</time>
      </trkpt>
      <trkpt lat="45.33413" lon="1.15123">
        <ele>168</ele>
        <time>2012-02-26T10:23:01Z</time>
      </trkpt>
      <trkpt lat="45.33411" lon="1.15125">
        <ele>168</ele>
        <time>2012-02-26T10:23:03Z</time>
      </trkpt>
      <trkpt lat="45.33409" lon="1.15131">
        <ele>168</ele>
        <time>2012-02-26T10:23:06Z</time>
      </trkpt>
      <trkpt lat="45.33408" lon="1.15137">
        <ele>170</ele>
        <time>2012-02-26T10:23:09Z</time>
      </trkpt>
      <trkpt lat="45.33405" lon="1.15142">
        <ele>172</ele>
        <time>2012-02-26T10:23:11Z</time>
      </trkpt>
      <trkpt lat="45.33402" lon="1.15146">
        <ele>173</ele>
        <time>2012-02-26T10:23:13Z</time>
      </trkpt>
      <trkpt lat="45.33399" lon="1.15153">
        <ele>174</ele>
        <time>2012-02-26T10:23:15Z</time>
      </trkpt>
      <trkpt lat="45.33397" lon="1.15157">
        <ele>175</ele>
        <time>2012-02-26T10:23:17Z</time>
      </trkpt>
      <trkpt lat="45.33394" lon="1.15159">
        <ele>176</ele>
        <time>2012-02-26T10:23:19Z</time>
      </trkpt>
      <trkpt lat="45.33391" lon="1.1516">
        <ele>177</ele>
        <time>2012-02-26T10:23:21Z</time>
      </trkpt>
      <trkpt lat="45.33388" lon="1.15162">
        <ele>178</ele>
        <time>2012-02-26T10:23:23Z</time>
      </trkpt>
      <trkpt lat="45.33385" lon="1.15164">
        <ele>178</ele>
        <time>2012-02-26T10:23:25Z</time>
      </trkpt>
      <trkpt lat="45.33384" lon="1.15167">
        <ele>179</ele>
        <time>2012-02-26T10:23:27Z</time>
      </trkpt>
      <trkpt lat="45.33381" lon="1.1517">
        <ele>179</ele>
        <time>2012-02-26T10:23:29Z</time>
      </trkpt>
      <trkpt lat="45.33381" lon="1.15172">
        <ele>179</ele>
        <time>2012-02-26T10:23:31Z</time>
      </trkpt>
      <trkpt lat="45.33379" lon="1.15176">
        <ele>179</ele>
        <time>2012-02-26T10:23:34Z</time>
      </trkpt>
      <trkpt lat="45.33379" lon="1.15178">
        <ele>179</ele>
        <time>2012-02-26T10:23:36Z</time>
      </trkpt>
      <trkpt lat="45.33375" lon="1.15185">
        <ele>179</ele>
        <time>2012-02-26T10:23:39Z</time>
      </trkpt>
      <trkpt lat="45.33372" lon="1.1519">
        <ele>179</ele>
        <time>2012-02-26T10:23:41Z</time>
      </trkpt>
      <trkpt lat="45.33369" lon="1.15193">
        <ele>179</ele>
        <time>2012-02-26T10:23:43Z</time>
      </trkpt>
      <trkpt lat="45.33367" lon="1.15197">
        <ele>179</ele>
        <time>2012-02-26T10:23:45Z</time>
      </trkpt>
      <trkpt lat="45.33365" lon="1.152">
        <ele>179</ele>
        <time>2012-02-26T10:23:47Z</time>
      </trkpt>
      <trkpt lat="45.33363" lon="1.15203">
        <ele>179</ele>
        <time>2012-02-26T10:23:49Z</time>
      </trkpt>
      <trkpt lat="45.33362" lon="1.15203">
        <ele>179</ele>
        <time>2012-02-26T10:23:51Z</time>
      </trkpt>
      <trkpt lat="45.33359" lon="1.15206">
        <ele>179</ele>
        <time>2012-02-26T10:23:53Z</time>
      </trkpt>
      <trkpt lat="45.33357" lon="1.1521">
        <ele>179</ele>
        <time>2012-02-26T10:23:55Z</time>
      </trkpt>
      <trkpt lat="45.33355" lon="1.15212">
        <ele>179</ele>
        <time>2012-02-26T10:23:57Z</time>
      </trkpt>
      <trkpt lat="45.33352" lon="1.15216">
        <ele>179</ele>
        <time>2012-02-26T10:24:00Z</time>
      </trkpt>
      <trkpt lat="45.33351" lon="1.1522">
        <ele>179</ele>
        <time>2012-02-26T10:24:03Z</time>
      </trkpt>
      <trkpt lat="45.33348" lon="1.15222">
        <ele>179</ele>
        <time>2012-02-26T10:24:05Z</time>
      </trkpt>
      <trkpt lat="45.33343" lon="1.15225">
        <ele>181</ele>
        <time>2012-02-26T10:24:07Z</time>
      </trkpt>
      <trkpt lat="45.33336" lon="1.15221">
        <ele>182</ele>
        <time>2012-02-26T10:24:09Z</time>
      </trkpt>
      <trkpt lat="45.3333" lon="1.15215">
        <ele>182</ele>
        <time>2012-02-26T10:24:11Z</time>
      </trkpt>
      <trkpt lat="45.33326" lon="1.15208">
        <ele>183</ele>
        <time>2012-02-26T10:24:13Z</time>
      </trkpt>
      <trkpt lat="45.33323" lon="1.15202">
        <ele>183</ele>
        <time>2012-02-26T10:24:15Z</time>
      </trkpt>
      <trkpt lat="45.33319" lon="1.15192">
        <ele>183</ele>
        <time>2012-02-26T10:24:17Z</time>
      </trkpt>
      <trkpt lat="45.33315" lon="1.15184">
        <ele>183</ele>
        <time>2012-02-26T10:24:19Z</time>
      </trkpt>
      <trkpt lat="45.33313" lon="1.15179">
        <ele>183</ele>
        <time>2012-02-26T10:24:21Z</time>
      </trkpt>
      <trkpt lat="45.33311" lon="1.15176">
        <ele>183</ele>
        <time>2012-02-26T10:24:23Z</time>
      </trkpt>
      <trkpt lat="45.33309" lon="1.15177">
        <ele>183</ele>
        <time>2012-02-26T10:24:25Z</time>
      </trkpt>
      <trkpt lat="45.33306" lon="1.15176">
        <ele>183</ele>
        <time>2012-02-26T10:24:27Z</time>
      </trkpt>
      <trkpt lat="45.33304" lon="1.15175">
        <ele>183</ele>
        <time>2012-02-26T10:24:29Z</time>
      </trkpt>
      <trkpt lat="45.33302" lon="1.15172">
        <ele>183</ele>
        <time>2012-02-26T10:24:31Z</time>
      </trkpt>
      <trkpt lat="45.333" lon="1.1517">
        <ele>183</ele>
        <time>2012-02-26T10:24:33Z</time>
      </trkpt>
      <trkpt lat="45.33297" lon="1.15168">
        <ele>183</ele>
        <time>2012-02-26T10:24:35Z</time>
      </trkpt>
      <trkpt lat="45.33294" lon="1.15167">
        <ele>183</ele>
        <time>2012-02-26T10:24:37Z</time>
      </trkpt>
      <trkpt lat="45.33291" lon="1.15166">
        <ele>183</ele>
        <time>2012-02-26T10:24:40Z</time>
      </trkpt>
      <trkpt lat="45.33288" lon="1.15165">
        <ele>183</ele>
        <time>2012-02-26T10:24:43Z</time>
      </trkpt>
      <trkpt lat="45.33286" lon="1.15165">
        <ele>183</ele>
        <time>2012-02-26T10:24:45Z</time>
      </trkpt>
      <trkpt lat="45.33285" lon="1.15166">
        <ele>183</ele>
        <time>2012-02-26T10:24:47Z</time>
      </trkpt>
      <trkpt lat="45.33284" lon="1.15166">
        <ele>183</ele>
        <time>2012-02-26T10:24:49Z</time>
      </trkpt>
      <trkpt lat="45.33282" lon="1.15164">
        <ele>183</ele>
        <time>2012-02-26T10:24:51Z</time>
      </trkpt>
      <trkpt lat="45.33282" lon="1.1516">
        <ele>183</ele>
        <time>2012-02-26T10:24:57Z</time>
      </trkpt>
      <trkpt lat="45.33279" lon="1.15155">
        <ele>183</ele>
        <time>2012-02-26T10:25:00Z</time>
      </trkpt>
      <trkpt lat="45.33281" lon="1.15153">
        <ele>183</ele>
        <time>2012-02-26T10:25:02Z</time>
      </trkpt>
      <trkpt lat="45.3328" lon="1.1515">
        <ele>183</ele>
        <time>2012-02-26T10:25:05Z</time>
      </trkpt>
      <trkpt lat="45.33281" lon="1.15148">
        <ele>183</ele>
        <time>2012-02-26T10:25:07Z</time>
      </trkpt>
      <trkpt lat="45.33281" lon="1.15147">
        <ele>183</ele>
        <time>2012-02-26T10:25:09Z</time>
      </trkpt>
      <trkpt lat="45.33281" lon="1.15145">
        <ele>183</ele>
        <time>2012-02-26T10:25:11Z</time>
      </trkpt>
      <trkpt lat="45.33281" lon="1.15143">
        <ele>183</ele>
        <time>2012-02-26T10:25:14Z</time>
      </trkpt>
      <trkpt lat="45.33281" lon="1.15142">
        <ele>182</ele>
        <time>2012-02-26T10:25:19Z</time>
      </trkpt>
      <trkpt lat="45.33283" lon="1.15141">
        <ele>179</ele>
        <time>2012-02-26T10:25:24Z</time>
      </trkpt>
      <trkpt lat="45.33283" lon="1.15139">
        <ele>178</ele>
        <time>2012-02-26T10:25:26Z</time>
      </trkpt>
      <trkpt lat="45.33284" lon="1.15135">
        <ele>178</ele>
        <time>2012-02-26T10:25:29Z</time>
      </trkpt>
      <trkpt lat="45.33285" lon="1.15132">
        <ele>178</ele>
        <time>2012-02-26T10:25:31Z</time>
      </trkpt>
      <trkpt lat="45.33286" lon="1.15129">
        <ele>178</ele>
        <time>2012-02-26T10:25:33Z</time>
      </trkpt>
      <trkpt lat="45.33287" lon="1.15125">
        <ele>177</ele>
        <time>2012-02-26T10:25:36Z</time>
      </trkpt>
      <trkpt lat="45.33287" lon="1.15122">
        <ele>176</ele>
        <time>2012-02-26T10:25:38Z</time>
      </trkpt>
      <trkpt lat="45.33288" lon="1.1512">
        <ele>175</ele>
        <time>2012-02-26T10:25:40Z</time>
      </trkpt>
      <trkpt lat="45.33289" lon="1.15117">
        <ele>174</ele>
        <time>2012-02-26T10:25:42Z</time>
      </trkpt>
      <trkpt lat="45.33291" lon="1.15115">
        <ele>174</ele>
        <time>2012-02-26T10:25:44Z</time>
      </trkpt>
      <trkpt lat="45.33292" lon="1.15114">
        <ele>173</ele>
        <time>2012-02-26T10:25:46Z</time>
      </trkpt>
      <trkpt lat="45.33294" lon="1.15111">
        <ele>172</ele>
        <time>2012-02-26T10:25:48Z</time>
      </trkpt>
      <trkpt lat="45.33295" lon="1.15108">
        <ele>171</ele>
        <time>2012-02-26T10:25:50Z</time>
      </trkpt>
      <trkpt lat="45.33295" lon="1.15103">
        <ele>170</ele>
        <time>2012-02-26T10:25:52Z</time>
      </trkpt>
      <trkpt lat="45.33293" lon="1.15098">
        <ele>170</ele>
        <time>2012-02-26T10:25:54Z</time>
      </trkpt>
      <trkpt lat="45.33289" lon="1.15097">
        <ele>170</ele>
        <time>2012-02-26T10:25:56Z</time>
      </trkpt>
      <trkpt lat="45.33286" lon="1.15096">
        <ele>169</ele>
        <time>2012-02-26T10:25:59Z</time>
      </trkpt>
      <trkpt lat="45.33283" lon="1.15095">
        <ele>168</ele>
        <time>2012-02-26T10:26:02Z</time>
      </trkpt>
      <trkpt lat="45.33281" lon="1.15091">
        <ele>168</ele>
        <time>2012-02-26T10:26:04Z</time>
      </trkpt>
      <trkpt lat="45.33277" lon="1.15086">
        <ele>167</ele>
        <time>2012-02-26T10:26:06Z</time>
      </trkpt>
      <trkpt lat="45.33273" lon="1.15082">
        <ele>165</ele>
        <time>2012-02-26T10:26:08Z</time>
      </trkpt>
      <trkpt lat="45.33269" lon="1.15081">
        <ele>163</ele>
        <time>2012-02-26T10:26:10Z</time>
      </trkpt>
      <trkpt lat="45.33265" lon="1.15082">
        <ele>161</ele>
        <time>2012-02-26T10:26:12Z</time>
      </trkpt>
      <trkpt lat="45.33262" lon="1.15081">
        <ele>160</ele>
        <time>2012-02-26T10:26:14Z</time>
      </trkpt>
      <trkpt lat="45.33258" lon="1.1508">
        <ele>159</ele>
        <time>2012-02-26T10:26:16Z</time>
      </trkpt>
      <trkpt lat="45.33254" lon="1.15077">
        <ele>158</ele>
        <time>2012-02-26T10:26:18Z</time>
      </trkpt>
      <trkpt lat="45.33248" lon="1.15076">
        <ele>156</ele>
        <time>2012-02-26T10:26:20Z</time>
      </trkpt>
      <trkpt lat="45.33244" lon="1.15075">
        <ele>155</ele>
        <time>2012-02-26T10:26:22Z</time>
      </trkpt>
      <trkpt lat="45.33241" lon="1.15074">
        <ele>154</ele>
        <time>2012-02-26T10:26:24Z</time>
      </trkpt>
      <trkpt lat="45.33238" lon="1.15073">
        <ele>152</ele>
        <time>2012-02-26T10:26:27Z</time>
      </trkpt>
      <trkpt lat="45.33236" lon="1.15071">
        <ele>151</ele>
        <time>2012-02-26T10:26:29Z</time>
      </trkpt>
      <trkpt lat="45.33233" lon="1.15069">
        <ele>151</ele>
        <time>2012-02-26T10:26:31Z</time>
      </trkpt>
      <trkpt lat="45.33229" lon="1.15068">
        <ele>151</ele>
        <time>2012-02-26T10:26:33Z</time>
      </trkpt>
      <trkpt lat="45.33226" lon="1.15069">
        <ele>151</ele>
        <time>2012-02-26T10:26:35Z</time>
      </trkpt>
      <trkpt lat="45.33221" lon="1.15068">
        <ele>151</ele>
        <time>2012-02-26T10:26:37Z</time>
      </trkpt>
      <trkpt lat="45.33217" lon="1.15065">
        <ele>151</ele>
        <time>2012-02-26T10:26:39Z</time>
      </trkpt>
      <trkpt lat="45.33216" lon="1.15057">
        <ele>151</ele>
        <time>2012-02-26T10:26:41Z</time>
      </trkpt>
      <trkpt lat="45.33217" lon="1.15048">
        <ele>151</ele>
        <time>2012-02-26T10:26:43Z</time>
      </trkpt>
      <trkpt lat="45.33219" lon="1.1504">
        <ele>151</ele>
        <time>2012-02-26T10:26:45Z</time>
      </trkpt>
      <trkpt lat="45.33221" lon="1.15032">
        <ele>151</ele>
        <time>2012-02-26T10:26:47Z</time>
      </trkpt>
      <trkpt lat="45.33223" lon="1.15025">
        <ele>151</ele>
        <time>2012-02-26T10:26:49Z</time>
      </trkpt>
      <trkpt lat="45.33225" lon="1.15017">
        <ele>151</ele>
        <time>2012-02-26T10:26:51Z</time>
      </trkpt>
      <trkpt lat="45.33227" lon="1.1501">
        <ele>151</ele>
        <time>2012-02-26T10:26:53Z</time>
      </trkpt>
      <trkpt lat="45.33228" lon="1.15002">
        <ele>151</ele>
        <time>2012-02-26T10:26:55Z</time>
      </trkpt>
      <trkpt lat="45.3323" lon="1.14994">
        <ele>151</ele>
        <time>2012-02-26T10:26:57Z</time>
      </trkpt>
      <trkpt lat="45.3323" lon="1.14986">
        <ele>151</ele>
        <time>2012-02-26T10:26:59Z</time>
      </trkpt>
      <trkpt lat="45.33231" lon="1.14979">
        <ele>151</ele>
        <time>2012-02-26T10:27:01Z</time>
      </trkpt>
      <trkpt lat="45.33229" lon="1.14972">
        <ele>151</ele>
        <time>2012-02-26T10:27:03Z</time>
      </trkpt>
      <trkpt lat="45.33227" lon="1.14965">
        <ele>151</ele>
        <time>2012-02-26T10:27:05Z</time>
      </trkpt>
      <trkpt lat="45.33224" lon="1.1496">
        <ele>151</ele>
        <time>2012-02-26T10:27:07Z</time>
      </trkpt>
      <trkpt lat="45.3322" lon="1.14955">
        <ele>151</ele>
        <time>2012-02-26T10:27:09Z</time>
      </trkpt>
      <trkpt lat="45.33216" lon="1.14951">
        <ele>152</ele>
        <time>2012-02-26T10:27:11Z</time>
      </trkpt>
      <trkpt lat="45.33211" lon="1.14948">
        <ele>153</ele>
        <time>2012-02-26T10:27:13Z</time>
      </trkpt>
      <trkpt lat="45.33206" lon="1.14944">
        <ele>154</ele>
        <time>2012-02-26T10:27:15Z</time>
      </trkpt>
      <trkpt lat="45.33202" lon="1.14941">
        <ele>155</ele>
        <time>2012-02-26T10:27:17Z</time>
      </trkpt>
      <trkpt lat="45.33197" lon="1.14939">
        <ele>156</ele>
        <time>2012-02-26T10:27:19Z</time>
      </trkpt>
      <trkpt lat="45.33192" lon="1.14936">
        <ele>157</ele>
        <time>2012-02-26T10:27:21Z</time>
      </trkpt>
      <trkpt lat="45.33188" lon="1.14935">
        <ele>158</ele>
        <time>2012-02-26T10:27:23Z</time>
      </trkpt>
      <trkpt lat="45.33183" lon="1.14933">
        <ele>158</ele>
        <time>2012-02-26T10:27:25Z</time>
      </trkpt>
      <trkpt lat="45.33178" lon="1.14931">
        <ele>159</ele>
        <time>2012-02-26T10:27:27Z</time>
      </trkpt>
      <trkpt lat="45.33173" lon="1.14929">
        <ele>160</ele>
        <time>2012-02-26T10:27:29Z</time>
      </trkpt>
      <trkpt lat="45.33169" lon="1.14927">
        <ele>161</ele>
        <time>2012-02-26T10:27:31Z</time>
      </trkpt>
      <trkpt lat="45.33164" lon="1.14926">
        <ele>162</ele>
        <time>2012-02-26T10:27:33Z</time>
      </trkpt>
      <trkpt lat="45.3316" lon="1.14924">
        <ele>163</ele>
        <time>2012-02-26T10:27:35Z</time>
      </trkpt>
      <trkpt lat="45.33155" lon="1.14923">
        <ele>164</ele>
        <time>2012-02-26T10:27:37Z</time>
      </trkpt>
      <trkpt lat="45.33151" lon="1.14922">
        <ele>165</ele>
        <time>2012-02-26T10:27:39Z</time>
      </trkpt>
      <trkpt lat="45.33146" lon="1.14919">
        <ele>165</ele>
        <time>2012-02-26T10:27:41Z</time>
      </trkpt>
      <trkpt lat="45.33141" lon="1.14919">
        <ele>165</ele>
        <time>2012-02-26T10:27:43Z</time>
      </trkpt>
      <trkpt lat="45.33137" lon="1.14916">
        <ele>165</ele>
        <time>2012-02-26T10:27:45Z</time>
      </trkpt>
      <trkpt lat="45.33136" lon="1.1491">
        <ele>165</ele>
        <time>2012-02-26T10:27:47Z</time>
      </trkpt>
      <trkpt lat="45.3314" lon="1.14909">
        <ele>166</ele>
        <time>2012-02-26T10:27:49Z</time>
      </trkpt>
      <trkpt lat="45.33144" lon="1.14909">
        <ele>166</ele>
        <time>2012-02-26T10:27:51Z</time>
      </trkpt>
      <trkpt lat="45.33149" lon="1.14909">
        <ele>166</ele>
        <time>2012-02-26T10:27:53Z</time>
      </trkpt>
      <trkpt lat="45.33155" lon="1.14911">
        <ele>166</ele>
        <time>2012-02-26T10:27:55Z</time>
      </trkpt>
      <trkpt lat="45.33159" lon="1.14911">
        <ele>167</ele>
        <time>2012-02-26T10:27:57Z</time>
      </trkpt>
      <trkpt lat="45.33164" lon="1.14912">
        <ele>167</ele>
        <time>2012-02-26T10:27:59Z</time>
      </trkpt>
      <trkpt lat="45.33168" lon="1.14911">
        <ele>168</ele>
        <time>2012-02-26T10:28:01Z</time>
      </trkpt>
      <trkpt lat="45.33173" lon="1.14913">
        <ele>168</ele>
        <time>2012-02-26T10:28:03Z</time>
      </trkpt>
      <trkpt lat="45.33178" lon="1.14912">
        <ele>169</ele>
        <time>2012-02-26T10:28:05Z</time>
      </trkpt>
      <trkpt lat="45.33183" lon="1.14911">
        <ele>170</ele>
        <time>2012-02-26T10:28:07Z</time>
      </trkpt>
      <trkpt lat="45.33188" lon="1.14909">
        <ele>170</ele>
        <time>2012-02-26T10:28:09Z</time>
      </trkpt>
      <trkpt lat="45.33191" lon="1.14909">
        <ele>170</ele>
        <time>2012-02-26T10:28:11Z</time>
      </trkpt>
      <trkpt lat="45.33196" lon="1.14909">
        <ele>171</ele>
        <time>2012-02-26T10:28:13Z</time>
      </trkpt>
      <trkpt lat="45.33199" lon="1.14911">
        <ele>172</ele>
        <time>2012-02-26T10:28:15Z</time>
      </trkpt>
      <trkpt lat="45.33204" lon="1.1491">
        <ele>172</ele>
        <time>2012-02-26T10:28:17Z</time>
      </trkpt>
      <trkpt lat="45.33208" lon="1.1491">
        <ele>172</ele>
        <time>2012-02-26T10:28:19Z</time>
      </trkpt>
      <trkpt lat="45.33212" lon="1.14911">
        <ele>173</ele>
        <time>2012-02-26T10:28:21Z</time>
      </trkpt>
      <trkpt lat="45.33215" lon="1.14912">
        <ele>174</ele>
        <time>2012-02-26T10:28:23Z</time>
      </trkpt>
      <trkpt lat="45.3322" lon="1.14913">
        <ele>175</ele>
        <time>2012-02-26T10:28:25Z</time>
      </trkpt>
      <trkpt lat="45.33224" lon="1.14913">
        <ele>175</ele>
        <time>2012-02-26T10:28:27Z</time>
      </trkpt>
      <trkpt lat="45.33228" lon="1.14915">
        <ele>176</ele>
        <time>2012-02-26T10:28:29Z</time>
      </trkpt>
      <trkpt lat="45.33233" lon="1.14918">
        <ele>176</ele>
        <time>2012-02-26T10:28:31Z</time>
      </trkpt>
      <trkpt lat="45.33237" lon="1.14918">
        <ele>177</ele>
        <time>2012-02-26T10:28:33Z</time>
      </trkpt>
      <trkpt lat="45.3324" lon="1.1492">
        <ele>177</ele>
        <time>2012-02-26T10:28:35Z</time>
      </trkpt>
      <trkpt lat="45.33245" lon="1.14921">
        <ele>178</ele>
        <time>2012-02-26T10:28:37Z</time>
      </trkpt>
      <trkpt lat="45.33248" lon="1.14925">
        <ele>178</ele>
        <time>2012-02-26T10:28:39Z</time>
      </trkpt>
      <trkpt lat="45.33253" lon="1.14928">
        <ele>178</ele>
        <time>2012-02-26T10:28:41Z</time>
      </trkpt>
      <trkpt lat="45.33256" lon="1.1493">
        <ele>178</ele>
        <time>2012-02-26T10:28:43Z</time>
      </trkpt>
      <trkpt lat="45.33258" lon="1.14934">
        <ele>178</ele>
        <time>2012-02-26T10:28:45Z</time>
      </trkpt>
      <trkpt lat="45.33262" lon="1.14935">
        <ele>179</ele>
        <time>2012-02-26T10:28:47Z</time>
      </trkpt>
      <trkpt lat="45.33266" lon="1.14935">
        <ele>180</ele>
        <time>2012-02-26T10:28:49Z</time>
      </trkpt>
      <trkpt lat="45.3327" lon="1.14934">
        <ele>180</ele>
        <time>2012-02-26T10:28:51Z</time>
      </trkpt>
      <trkpt lat="45.33274" lon="1.14935">
        <ele>180</ele>
        <time>2012-02-26T10:28:53Z</time>
      </trkpt>
      <trkpt lat="45.33279" lon="1.14933">
        <ele>180</ele>
        <time>2012-02-26T10:28:55Z</time>
      </trkpt>
      <trkpt lat="45.33283" lon="1.14932">
        <ele>180</ele>
        <time>2012-02-26T10:28:57Z</time>
      </trkpt>
      <trkpt lat="45.33287" lon="1.14932">
        <ele>181</ele>
        <time>2012-02-26T10:28:59Z</time>
      </trkpt>
      <trkpt lat="45.33291" lon="1.14932">
        <ele>182</ele>
        <time>2012-02-26T10:29:01Z</time>
      </trkpt>
      <trkpt lat="45.33295" lon="1.14931">
        <ele>182</ele>
        <time>2012-02-26T10:29:03Z</time>
      </trkpt>
      <trkpt lat="45.33298" lon="1.14931">
        <ele>183</ele>
        <time>2012-02-26T10:29:05Z</time>
      </trkpt>
      <trkpt lat="45.33302" lon="1.14931">
        <ele>184</ele>
        <time>2012-02-26T10:29:07Z</time>
      </trkpt>
      <trkpt lat="45.33305" lon="1.14931">
        <ele>184</ele>
        <time>2012-02-26T10:29:09Z</time>
      </trkpt>
      <trkpt lat="45.33307" lon="1.14933">
        <ele>184</ele>
        <time>2012-02-26T10:29:11Z</time>
      </trkpt>
      <trkpt lat="45.33309" lon="1.14934">
        <ele>184</ele>
        <time>2012-02-26T10:29:13Z</time>
      </trkpt>
      <trkpt lat="45.33312" lon="1.14935">
        <ele>184</ele>
        <time>2012-02-26T10:29:15Z</time>
      </trkpt>
      <trkpt lat="45.33316" lon="1.14935">
        <ele>184</ele>
        <time>2012-02-26T10:29:17Z</time>
      </trkpt>
      <trkpt lat="45.33319" lon="1.14933">
        <ele>184</ele>
        <time>2012-02-26T10:29:19Z</time>
      </trkpt>
      <trkpt lat="45.33322" lon="1.14931">
        <ele>184</ele>
        <time>2012-02-26T10:29:21Z</time>
      </trkpt>
      <trkpt lat="45.33324" lon="1.14929">
        <ele>184</ele>
        <time>2012-02-26T10:29:23Z</time>
      </trkpt>
      <trkpt lat="45.33327" lon="1.14927">
        <ele>184</ele>
        <time>2012-02-26T10:29:25Z</time>
      </trkpt>
      <trkpt lat="45.33329" lon="1.14924">
        <ele>185</ele>
        <time>2012-02-26T10:29:27Z</time>
      </trkpt>
      <trkpt lat="45.33331" lon="1.14919">
        <ele>185</ele>
        <time>2012-02-26T10:29:29Z</time>
      </trkpt>
      <trkpt lat="45.33332" lon="1.14914">
        <ele>185</ele>
        <time>2012-02-26T10:29:31Z</time>
      </trkpt>
      <trkpt lat="45.33333" lon="1.1491">
        <ele>185</ele>
        <time>2012-02-26T10:29:33Z</time>
      </trkpt>
      <trkpt lat="45.33332" lon="1.14906">
        <ele>185</ele>
        <time>2012-02-26T10:29:35Z</time>
      </trkpt>
      <trkpt lat="45.33332" lon="1.14902">
        <ele>185</ele>
        <time>2012-02-26T10:29:37Z</time>
      </trkpt>
      <trkpt lat="45.33331" lon="1.14899">
        <ele>185</ele>
        <time>2012-02-26T10:29:39Z</time>
      </trkpt>
      <trkpt lat="45.3333" lon="1.14895">
        <ele>185</ele>
        <time>2012-02-26T10:29:41Z</time>
      </trkpt>
      <trkpt lat="45.3333" lon="1.14891">
        <ele>187</ele>
        <time>2012-02-26T10:29:43Z</time>
      </trkpt>
      <trkpt lat="45.33329" lon="1.14886">
        <ele>188</ele>
        <time>2012-02-26T10:29:45Z</time>
      </trkpt>
      <trkpt lat="45.33329" lon="1.14881">
        <ele>189</ele>
        <time>2012-02-26T10:29:47Z</time>
      </trkpt>
      <trkpt lat="45.33329" lon="1.14874">
        <ele>190</ele>
        <time>2012-02-26T10:29:49Z</time>
      </trkpt>
      <trkpt lat="45.33329" lon="1.14865">
        <ele>190</ele>
        <time>2012-02-26T10:29:51Z</time>
      </trkpt>
      <trkpt lat="45.33329" lon="1.14856">
        <ele>191</ele>
        <time>2012-02-26T10:29:53Z</time>
      </trkpt>
      <trkpt lat="45.3333" lon="1.14847">
        <ele>191</ele>
        <time>2012-02-26T10:29:55Z</time>
      </trkpt>
      <trkpt lat="45.33331" lon="1.14839">
        <ele>192</ele>
        <time>2012-02-26T10:29:57Z</time>
      </trkpt>
      <trkpt lat="45.33334" lon="1.14832">
        <ele>193</ele>
        <time>2012-02-26T10:29:59Z</time>
      </trkpt>
      <trkpt lat="45.33336" lon="1.14826">
        <ele>193</ele>
        <time>2012-02-26T10:30:01Z</time>
      </trkpt>
      <trkpt lat="45.33337" lon="1.1482">
        <ele>193</ele>
        <time>2012-02-26T10:30:03Z</time>
      </trkpt>
      <trkpt lat="45.33341" lon="1.14814">
        <ele>194</ele>
        <time>2012-02-26T10:30:05Z</time>
      </trkpt>
      <trkpt lat="45.33343" lon="1.14808">
        <ele>196</ele>
        <time>2012-02-26T10:30:07Z</time>
      </trkpt>
      <trkpt lat="45.33345" lon="1.14805">
        <ele>198</ele>
        <time>2012-02-26T10:30:09Z</time>
      </trkpt>
      <trkpt lat="45.33346" lon="1.14803">
        <ele>199</ele>
        <time>2012-02-26T10:30:11Z</time>
      </trkpt>
      <trkpt lat="45.33346" lon="1.14798">
        <ele>200</ele>
        <time>2012-02-26T10:30:14Z</time>
      </trkpt>
      <trkpt lat="45.33347" lon="1.14794">
        <ele>201</ele>
        <time>2012-02-26T10:30:17Z</time>
      </trkpt>
      <trkpt lat="45.33348" lon="1.1479">
        <ele>201</ele>
        <time>2012-02-26T10:30:19Z</time>
      </trkpt>
      <trkpt lat="45.33349" lon="1.14787">
        <ele>202</ele>
        <time>2012-02-26T10:30:21Z</time>
      </trkpt>
      <trkpt lat="45.3335" lon="1.14785">
        <ele>203</ele>
        <time>2012-02-26T10:30:23Z</time>
      </trkpt>
      <trkpt lat="45.33352" lon="1.1478">
        <ele>203</ele>
        <time>2012-02-26T10:30:25Z</time>
      </trkpt>
      <trkpt lat="45.33353" lon="1.14778">
        <ele>203</ele>
        <time>2012-02-26T10:30:27Z</time>
      </trkpt>
      <trkpt lat="45.33355" lon="1.14775">
        <ele>203</ele>
        <time>2012-02-26T10:30:30Z</time>
      </trkpt>
      <trkpt lat="45.33357" lon="1.14772">
        <ele>204</ele>
        <time>2012-02-26T10:30:32Z</time>
      </trkpt>
      <trkpt lat="45.33358" lon="1.14769">
        <ele>204</ele>
        <time>2012-02-26T10:30:34Z</time>
      </trkpt>
      <trkpt lat="45.33359" lon="1.14765">
        <ele>204</ele>
        <time>2012-02-26T10:30:36Z</time>
      </trkpt>
      <trkpt lat="45.33361" lon="1.14761">
        <ele>204</ele>
        <time>2012-02-26T10:30:38Z</time>
      </trkpt>
      <trkpt lat="45.33361" lon="1.14758">
        <ele>204</ele>
        <time>2012-02-26T10:30:40Z</time>
      </trkpt>
      <trkpt lat="45.33363" lon="1.14755">
        <ele>204</ele>
        <time>2012-02-26T10:30:42Z</time>
      </trkpt>
      <trkpt lat="45.33364" lon="1.14752">
        <ele>204</ele>
        <time>2012-02-26T10:30:44Z</time>
      </trkpt>
      <trkpt lat="45.33365" lon="1.1475">
        <ele>204</ele>
        <time>2012-02-26T10:30:46Z</time>
      </trkpt>
      <trkpt lat="45.33366" lon="1.14746">
        <ele>204</ele>
        <time>2012-02-26T10:30:48Z</time>
      </trkpt>
      <trkpt lat="45.33368" lon="1.14743">
        <ele>204</ele>
        <time>2012-02-26T10:30:50Z</time>
      </trkpt>
      <trkpt lat="45.33369" lon="1.14739">
        <ele>204</ele>
        <time>2012-02-26T10:30:52Z</time>
      </trkpt>
      <trkpt lat="45.33371" lon="1.14735">
        <ele>204</ele>
        <time>2012-02-26T10:30:54Z</time>
      </trkpt>
      <trkpt lat="45.33371" lon="1.14731">
        <ele>205</ele>
        <time>2012-02-26T10:30:57Z</time>
      </trkpt>
      <trkpt lat="45.33373" lon="1.14728">
        <ele>206</ele>
        <time>2012-02-26T10:30:59Z</time>
      </trkpt>
      <trkpt lat="45.33376" lon="1.14724">
        <ele>207</ele>
        <time>2012-02-26T10:31:02Z</time>
      </trkpt>
      <trkpt lat="45.33377" lon="1.14719">
        <ele>208</ele>
        <time>2012-02-26T10:31:05Z</time>
      </trkpt>
      <trkpt lat="45.33379" lon="1.14715">
        <ele>209</ele>
        <time>2012-02-26T10:31:07Z</time>
      </trkpt>
      <trkpt lat="45.33381" lon="1.14712">
        <ele>209</ele>
        <time>2012-02-26T10:31:09Z</time>
      </trkpt>
      <trkpt lat="45.33382" lon="1.14709">
        <ele>210</ele>
        <time>2012-02-26T10:31:11Z</time>
      </trkpt>
      <trkpt lat="45.33384" lon="1.14706">
        <ele>210</ele>
        <time>2012-02-26T10:31:13Z</time>
      </trkpt>
      <trkpt lat="45.33386" lon="1.14702">
        <ele>210</ele>
        <time>2012-02-26T10:31:15Z</time>
      </trkpt>
      <trkpt lat="45.33388" lon="1.14699">
        <ele>210</ele>
        <time>2012-02-26T10:31:17Z</time>
      </trkpt>
      <trkpt lat="45.3339" lon="1.14695">
        <ele>210</ele>
        <time>2012-02-26T10:31:19Z</time>
      </trkpt>
      <trkpt lat="45.33391" lon="1.14693">
        <ele>210</ele>
        <time>2012-02-26T10:31:21Z</time>
      </trkpt>
      <trkpt lat="45.33393" lon="1.1469">
        <ele>210</ele>
        <time>2012-02-26T10:31:23Z</time>
      </trkpt>
      <trkpt lat="45.33395" lon="1.14687">
        <ele>210</ele>
        <time>2012-02-26T10:31:25Z</time>
      </trkpt>
      <trkpt lat="45.33396" lon="1.14684">
        <ele>210</ele>
        <time>2012-02-26T10:31:27Z</time>
      </trkpt>
      <trkpt lat="45.33396" lon="1.14681">
        <ele>210</ele>
        <time>2012-02-26T10:31:29Z</time>
      </trkpt>
      <trkpt lat="45.33397" lon="1.14676">
        <ele>210</ele>
        <time>2012-02-26T10:31:32Z</time>
      </trkpt>
      <trkpt lat="45.33398" lon="1.14673">
        <ele>210</ele>
        <time>2012-02-26T10:31:34Z</time>
      </trkpt>
      <trkpt lat="45.334" lon="1.14668">
        <ele>210</ele>
        <time>2012-02-26T10:31:36Z</time>
      </trkpt>
      <trkpt lat="45.33403" lon="1.14665">
        <ele>210</ele>
        <time>2012-02-26T10:31:38Z</time>
      </trkpt>
      <trkpt lat="45.33406" lon="1.1466">
        <ele>210</ele>
        <time>2012-02-26T10:31:40Z</time>
      </trkpt>
      <trkpt lat="45.3341" lon="1.14655">
        <ele>210</ele>
        <time>2012-02-26T10:31:42Z</time>
      </trkpt>
      <trkpt lat="45.33414" lon="1.1465">
        <ele>210</ele>
        <time>2012-02-26T10:31:44Z</time>
      </trkpt>
      <trkpt lat="45.33418" lon="1.14646">
        <ele>210</ele>
        <time>2012-02-26T10:31:46Z</time>
      </trkpt>
      <trkpt lat="45.33422" lon="1.1464">
        <ele>211</ele>
        <time>2012-02-26T10:31:48Z</time>
      </trkpt>
      <trkpt lat="45.33425" lon="1.14633">
        <ele>213</ele>
        <time>2012-02-26T10:31:50Z</time>
      </trkpt>
      <trkpt lat="45.33427" lon="1.14628">
        <ele>215</ele>
        <time>2012-02-26T10:31:52Z</time>
      </trkpt>
      <trkpt lat="45.33429" lon="1.14621">
        <ele>217</ele>
        <time>2012-02-26T10:31:54Z</time>
      </trkpt>
      <trkpt lat="45.33431" lon="1.14616">
        <ele>217</ele>
        <time>2012-02-26T10:31:56Z</time>
      </trkpt>
      <trkpt lat="45.33433" lon="1.1461">
        <ele>218</ele>
        <time>2012-02-26T10:31:58Z</time>
      </trkpt>
      <trkpt lat="45.33435" lon="1.14605">
        <ele>218</ele>
        <time>2012-02-26T10:32:00Z</time>
      </trkpt>
      <trkpt lat="45.33437" lon="1.146">
        <ele>218</ele>
        <time>2012-02-26T10:32:02Z</time>
      </trkpt>
      <trkpt lat="45.33438" lon="1.14594">
        <ele>219</ele>
        <time>2012-02-26T10:32:04Z</time>
      </trkpt>
      <trkpt lat="45.33439" lon="1.14587">
        <ele>221</ele>
        <time>2012-02-26T10:32:06Z</time>
      </trkpt>
      <trkpt lat="45.33442" lon="1.14581">
        <ele>223</ele>
        <time>2012-02-26T10:32:08Z</time>
      </trkpt>
      <trkpt lat="45.33443" lon="1.14575">
        <ele>225</ele>
        <time>2012-02-26T10:32:10Z</time>
      </trkpt>
      <trkpt lat="45.33445" lon="1.14569">
        <ele>227</ele>
        <time>2012-02-26T10:32:12Z</time>
      </trkpt>
      <trkpt lat="45.33448" lon="1.14564">
        <ele>228</ele>
        <time>2012-02-26T10:32:14Z</time>
      </trkpt>
      <trkpt lat="45.3345" lon="1.1456">
        <ele>229</ele>
        <time>2012-02-26T10:32:16Z</time>
      </trkpt>
      <trkpt lat="45.33453" lon="1.14556">
        <ele>230</ele>
        <time>2012-02-26T10:32:18Z</time>
      </trkpt>
      <trkpt lat="45.33455" lon="1.14553">
        <ele>230</ele>
        <time>2012-02-26T10:32:20Z</time>
      </trkpt>
      <trkpt lat="45.33458" lon="1.1455">
        <ele>230</ele>
        <time>2012-02-26T10:32:22Z</time>
      </trkpt>
      <trkpt lat="45.3346" lon="1.14547">
        <ele>230</ele>
        <time>2012-02-26T10:32:24Z</time>
      </trkpt>
      <trkpt lat="45.33463" lon="1.14545">
        <ele>230</ele>
        <time>2012-02-26T10:32:26Z</time>
      </trkpt>
      <trkpt lat="45.33465" lon="1.14543">
        <ele>230</ele>
        <time>2012-02-26T10:32:28Z</time>
      </trkpt>
      <trkpt lat="45.33468" lon="1.14538">
        <ele>230</ele>
        <time>2012-02-26T10:32:31Z</time>
      </trkpt>
      <trkpt lat="45.33469" lon="1.14536">
        <ele>230</ele>
        <time>2012-02-26T10:32:33Z</time>
      </trkpt>
      <trkpt lat="45.33472" lon="1.14532">
        <ele>230</ele>
        <time>2012-02-26T10:32:36Z</time>
      </trkpt>
      <trkpt lat="45.33475" lon="1.14529">
        <ele>230</ele>
        <time>2012-02-26T10:32:38Z</time>
      </trkpt>
      <trkpt lat="45.33478" lon="1.14527">
        <ele>230</ele>
        <time>2012-02-26T10:32:41Z</time>
      </trkpt>
      <trkpt lat="45.33479" lon="1.14524">
        <ele>230</ele>
        <time>2012-02-26T10:32:43Z</time>
      </trkpt>
      <trkpt lat="45.33482" lon="1.14522">
        <ele>230</ele>
        <time>2012-02-26T10:32:45Z</time>
      </trkpt>
      <trkpt lat="45.33485" lon="1.14517">
        <ele>230</ele>
        <time>2012-02-26T10:32:47Z</time>
      </trkpt>
      <trkpt lat="45.33491" lon="1.14512">
        <ele>230</ele>
        <time>2012-02-26T10:32:49Z</time>
      </trkpt>
      <trkpt lat="45.33496" lon="1.14507">
        <ele>230</ele>
        <time>2012-02-26T10:32:51Z</time>
      </trkpt>
      <trkpt lat="45.335" lon="1.14502">
        <ele>231</ele>
        <time>2012-02-26T10:32:53Z</time>
      </trkpt>
      <trkpt lat="45.33504" lon="1.14497">
        <ele>232</ele>
        <time>2012-02-26T10:32:55Z</time>
      </trkpt>
      <trkpt lat="45.33507" lon="1.14492">
        <ele>233</ele>
        <time>2012-02-26T10:32:57Z</time>
      </trkpt>
      <trkpt lat="45.3351" lon="1.14489">
        <ele>233</ele>
        <time>2012-02-26T10:32:59Z</time>
      </trkpt>
      <trkpt lat="45.33513" lon="1.14485">
        <ele>234</ele>
        <time>2012-02-26T10:33:01Z</time>
      </trkpt>
      <trkpt lat="45.33514" lon="1.14482">
        <ele>234</ele>
        <time>2012-02-26T10:33:03Z</time>
      </trkpt>
      <trkpt lat="45.33516" lon="1.14478">
        <ele>234</ele>
        <time>2012-02-26T10:33:06Z</time>
      </trkpt>
      <trkpt lat="45.33518" lon="1.14475">
        <ele>234</ele>
        <time>2012-02-26T10:33:08Z</time>
      </trkpt>
      <trkpt lat="45.3352" lon="1.14472">
        <ele>234</ele>
        <time>2012-02-26T10:33:10Z</time>
      </trkpt>
      <trkpt lat="45.33522" lon="1.14468">
        <ele>235</ele>
        <time>2012-02-26T10:33:13Z</time>
      </trkpt>
      <trkpt lat="45.33526" lon="1.14464">
        <ele>236</ele>
        <time>2012-02-26T10:33:15Z</time>
      </trkpt>
      <trkpt lat="45.33529" lon="1.14458">
        <ele>237</ele>
        <time>2012-02-26T10:33:17Z</time>
      </trkpt>
      <trkpt lat="45.33532" lon="1.14454">
        <ele>238</ele>
        <time>2012-02-26T10:33:19Z</time>
      </trkpt>
      <trkpt lat="45.33535" lon="1.14451">
        <ele>238</ele>
        <time>2012-02-26T10:33:21Z</time>
      </trkpt>
      <trkpt lat="45.33539" lon="1.14447">
        <ele>240</ele>
        <time>2012-02-26T10:33:23Z</time>
      </trkpt>
      <trkpt lat="45.33544" lon="1.14443">
        <ele>242</ele>
        <time>2012-02-26T10:33:25Z</time>
      </trkpt>
      <trkpt lat="45.33548" lon="1.1444">
        <ele>244</ele>
        <time>2012-02-26T10:33:27Z</time>
      </trkpt>
      <trkpt lat="45.33551" lon="1.14436">
        <ele>244</ele>
        <time>2012-02-26T10:33:29Z</time>
      </trkpt>
      <trkpt lat="45.33555" lon="1.14433">
        <ele>244</ele>
        <time>2012-02-26T10:33:31Z</time>
      </trkpt>
      <trkpt lat="45.33558" lon="1.14429">
        <ele>245</ele>
        <time>2012-02-26T10:33:33Z</time>
      </trkpt>
      <trkpt lat="45.33561" lon="1.14425">
        <ele>246</ele>
        <time>2012-02-26T10:33:35Z</time>
      </trkpt>
      <trkpt lat="45.33564" lon="1.14422">
        <ele>246</ele>
        <time>2012-02-26T10:33:37Z</time>
      </trkpt>
      <trkpt lat="45.33568" lon="1.14419">
        <ele>247</ele>
        <time>2012-02-26T10:33:39Z</time>
      </trkpt>
      <trkpt lat="45.33572" lon="1.14419">
        <ele>248</ele>
        <time>2012-02-26T10:33:41Z</time>
      </trkpt>
      <trkpt lat="45.33575" lon="1.14419">
        <ele>249</ele>
        <time>2012-02-26T10:33:43Z</time>
      </trkpt>
      <trkpt lat="45.33579" lon="1.14418">
        <ele>249</ele>
        <time>2012-02-26T10:33:45Z</time>
      </trkpt>
      <trkpt lat="45.33584" lon="1.14417">
        <ele>249</ele>
        <time>2012-02-26T10:33:47Z</time>
      </trkpt>
      <trkpt lat="45.33588" lon="1.14416">
        <ele>250</ele>
        <time>2012-02-26T10:33:49Z</time>
      </trkpt>
      <trkpt lat="45.33593" lon="1.14416">
        <ele>251</ele>
        <time>2012-02-26T10:33:51Z</time>
      </trkpt>
      <trkpt lat="45.33597" lon="1.14417">
        <ele>252</ele>
        <time>2012-02-26T10:33:53Z</time>
      </trkpt>
      <trkpt lat="45.336" lon="1.14419">
        <ele>252</ele>
        <time>2012-02-26T10:33:55Z</time>
      </trkpt>
      <trkpt lat="45.33603" lon="1.14423">
        <ele>252</ele>
        <time>2012-02-26T10:33:58Z</time>
      </trkpt>
      <trkpt lat="45.33606" lon="1.14426">
        <ele>252</ele>
        <time>2012-02-26T10:34:00Z</time>
      </trkpt>
      <trkpt lat="45.33609" lon="1.14429">
        <ele>252</ele>
        <time>2012-02-26T10:34:02Z</time>
      </trkpt>
      <trkpt lat="45.3361" lon="1.14432">
        <ele>252</ele>
        <time>2012-02-26T10:34:04Z</time>
      </trkpt>
      <trkpt lat="45.33612" lon="1.14437">
        <ele>252</ele>
        <time>2012-02-26T10:34:07Z</time>
      </trkpt>
      <trkpt lat="45.33615" lon="1.1444">
        <ele>252</ele>
        <time>2012-02-26T10:34:09Z</time>
      </trkpt>
      <trkpt lat="45.33617" lon="1.14444">
        <ele>252</ele>
        <time>2012-02-26T10:34:11Z</time>
      </trkpt>
      <trkpt lat="45.33619" lon="1.14447">
        <ele>252</ele>
        <time>2012-02-26T10:34:13Z</time>
      </trkpt>
      <trkpt lat="45.33621" lon="1.14451">
        <ele>252</ele>
        <time>2012-02-26T10:34:15Z</time>
      </trkpt>
      <trkpt lat="45.33623" lon="1.14454">
        <ele>252</ele>
        <time>2012-02-26T10:34:18Z</time>
      </trkpt>
      <trkpt lat="45.33624" lon="1.14458">
        <ele>252</ele>
        <time>2012-02-26T10:34:20Z</time>
      </trkpt>
      <trkpt lat="45.33625" lon="1.14462">
        <ele>252</ele>
        <time>2012-02-26T10:34:22Z</time>
      </trkpt>
      <trkpt lat="45.33627" lon="1.14467">
        <ele>252</ele>
        <time>2012-02-26T10:34:24Z</time>
      </trkpt>
      <trkpt lat="45.33627" lon="1.14471">
        <ele>252</ele>
        <time>2012-02-26T10:34:26Z</time>
      </trkpt>
      <trkpt lat="45.3363" lon="1.14477">
        <ele>252</ele>
        <time>2012-02-26T10:34:28Z</time>
      </trkpt>
      <trkpt lat="45.33633" lon="1.14483">
        <ele>252</ele>
        <time>2012-02-26T10:34:30Z</time>
      </trkpt>
      <trkpt lat="45.33637" lon="1.14489">
        <ele>252</ele>
        <time>2012-02-26T10:34:32Z</time>
      </trkpt>
      <trkpt lat="45.33639" lon="1.14494">
        <ele>252</ele>
        <time>2012-02-26T10:34:34Z</time>
      </trkpt>
      <trkpt lat="45.33643" lon="1.14497">
        <ele>252</ele>
        <time>2012-02-26T10:34:36Z</time>
      </trkpt>
      <trkpt lat="45.33647" lon="1.14501">
        <ele>252</ele>
        <time>2012-02-26T10:34:38Z</time>
      </trkpt>
      <trkpt lat="45.33649" lon="1.14504">
        <ele>253</ele>
        <time>2012-02-26T10:34:40Z</time>
      </trkpt>
      <trkpt lat="45.33652" lon="1.14507">
        <ele>253</ele>
        <time>2012-02-26T10:34:42Z</time>
      </trkpt>
      <trkpt lat="45.33656" lon="1.14509">
        <ele>253</ele>
        <time>2012-02-26T10:34:44Z</time>
      </trkpt>
      <trkpt lat="45.33659" lon="1.14512">
        <ele>253</ele>
        <time>2012-02-26T10:34:46Z</time>
      </trkpt>
      <trkpt lat="45.33662" lon="1.14516">
        <ele>253</ele>
        <time>2012-02-26T10:34:48Z</time>
      </trkpt>
      <trkpt lat="45.33665" lon="1.14519">
        <ele>253</ele>
        <time>2012-02-26T10:34:50Z</time>
      </trkpt>
      <trkpt lat="45.33669" lon="1.14523">
        <ele>254</ele>
        <time>2012-02-26T10:34:52Z</time>
      </trkpt>
      <trkpt lat="45.33674" lon="1.14526">
        <ele>254</ele>
        <time>2012-02-26T10:34:54Z</time>
      </trkpt>
      <trkpt lat="45.33677" lon="1.14529">
        <ele>254</ele>
        <time>2012-02-26T10:34:56Z</time>
      </trkpt>
      <trkpt lat="45.33682" lon="1.14531">
        <ele>254</ele>
        <time>2012-02-26T10:34:58Z</time>
      </trkpt>
      <trkpt lat="45.33685" lon="1.14534">
        <ele>255</ele>
        <time>2012-02-26T10:35:00Z</time>
      </trkpt>
      <trkpt lat="45.33689" lon="1.14537">
        <ele>256</ele>
        <time>2012-02-26T10:35:02Z</time>
      </trkpt>
      <trkpt lat="45.33693" lon="1.14541">
        <ele>258</ele>
        <time>2012-02-26T10:35:04Z</time>
      </trkpt>
      <trkpt lat="45.33697" lon="1.14542">
        <ele>259</ele>
        <time>2012-02-26T10:35:06Z</time>
      </trkpt>
      <trkpt lat="45.33703" lon="1.14544">
        <ele>260</ele>
        <time>2012-02-26T10:35:08Z</time>
      </trkpt>
      <trkpt lat="45.33706" lon="1.14547">
        <ele>261</ele>
        <time>2012-02-26T10:35:11Z</time>
      </trkpt>
      <trkpt lat="45.33708" lon="1.14548">
        <ele>261</ele>
        <time>2012-02-26T10:35:13Z</time>
      </trkpt>
      <trkpt lat="45.33712" lon="1.14551">
        <ele>261</ele>
        <time>2012-02-26T10:35:16Z</time>
      </trkpt>
      <trkpt lat="45.33717" lon="1.14552">
        <ele>262</ele>
        <time>2012-02-26T10:35:19Z</time>
      </trkpt>
      <trkpt lat="45.3372" lon="1.1455">
        <ele>262</ele>
        <time>2012-02-26T10:35:21Z</time>
      </trkpt>
      <trkpt lat="45.33724" lon="1.14551">
        <ele>263</ele>
        <time>2012-02-26T10:35:23Z</time>
      </trkpt>
      <trkpt lat="45.33727" lon="1.14549">
        <ele>264</ele>
        <time>2012-02-26T10:35:26Z</time>
      </trkpt>
      <trkpt lat="45.3373" lon="1.14547">
        <ele>264</ele>
        <time>2012-02-26T10:35:28Z</time>
      </trkpt>
      <trkpt lat="45.33733" lon="1.14545">
        <ele>264</ele>
        <time>2012-02-26T10:35:31Z</time>
      </trkpt>
      <trkpt lat="45.33735" lon="1.14544">
        <ele>264</ele>
        <time>2012-02-26T10:35:33Z</time>
      </trkpt>
      <trkpt lat="45.33737" lon="1.14544">
        <ele>264</ele>
        <time>2012-02-26T10:35:35Z</time>
      </trkpt>
      <trkpt lat="45.33741" lon="1.14544">
        <ele>265</ele>
        <time>2012-02-26T10:35:37Z</time>
      </trkpt>
      <trkpt lat="45.33744" lon="1.14544">
        <ele>267</ele>
        <time>2012-02-26T10:35:40Z</time>
      </trkpt>
      <trkpt lat="45.33748" lon="1.14543">
        <ele>267</ele>
        <time>2012-02-26T10:35:42Z</time>
      </trkpt>
      <trkpt lat="45.33754" lon="1.14541">
        <ele>269</ele>
        <time>2012-02-26T10:35:44Z</time>
      </trkpt>
      <trkpt lat="45.33759" lon="1.1454">
        <ele>270</ele>
        <time>2012-02-26T10:35:46Z</time>
      </trkpt>
      <trkpt lat="45.33764" lon="1.14538">
        <ele>272</ele>
        <time>2012-02-26T10:35:48Z</time>
      </trkpt>
      <trkpt lat="45.33768" lon="1.14536">
        <ele>274</ele>
        <time>2012-02-26T10:35:50Z</time>
      </trkpt>
      <trkpt lat="45.33774" lon="1.14534">
        <ele>275</ele>
        <time>2012-02-26T10:35:52Z</time>
      </trkpt>
      <trkpt lat="45.33779" lon="1.14529">
        <ele>277</ele>
        <time>2012-02-26T10:35:54Z</time>
      </trkpt>
      <trkpt lat="45.33783" lon="1.14525">
        <ele>279</ele>
        <time>2012-02-26T10:35:56Z</time>
      </trkpt>
      <trkpt lat="45.33788" lon="1.14521">
        <ele>280</ele>
        <time>2012-02-26T10:35:58Z</time>
      </trkpt>
      <trkpt lat="45.33793" lon="1.14518">
        <ele>280</ele>
        <time>2012-02-26T10:36:00Z</time>
      </trkpt>
      <trkpt lat="45.33796" lon="1.14514">
        <ele>281</ele>
        <time>2012-02-26T10:36:02Z</time>
      </trkpt>
      <trkpt lat="45.33801" lon="1.1451">
        <ele>281</ele>
        <time>2012-02-26T10:36:04Z</time>
      </trkpt>
      <trkpt lat="45.33806" lon="1.14508">
        <ele>282</ele>
        <time>2012-02-26T10:36:06Z</time>
      </trkpt>
      <trkpt lat="45.33812" lon="1.14506">
        <ele>282</ele>
        <time>2012-02-26T10:36:08Z</time>
      </trkpt>
      <trkpt lat="45.33817" lon="1.14505">
        <ele>282</ele>
        <time>2012-02-26T10:36:10Z</time>
      </trkpt>
      <trkpt lat="45.33823" lon="1.14502">
        <ele>282</ele>
        <time>2012-02-26T10:36:12Z</time>
      </trkpt>
      <trkpt lat="45.33829" lon="1.14499">
        <ele>282</ele>
        <time>2012-02-26T10:36:14Z</time>
      </trkpt>
      <trkpt lat="45.33835" lon="1.14495">
        <ele>282</ele>
        <time>2012-02-26T10:36:16Z</time>
      </trkpt>
      <trkpt lat="45.33841" lon="1.14494">
        <ele>282</ele>
        <time>2012-02-26T10:36:18Z</time>
      </trkpt>
      <trkpt lat="45.33847" lon="1.14497">
        <ele>282</ele>
        <time>2012-02-26T10:36:20Z</time>
      </trkpt>
      <trkpt lat="45.33853" lon="1.14501">
        <ele>282</ele>
        <time>2012-02-26T10:36:22Z</time>
      </trkpt>
      <trkpt lat="45.33859" lon="1.14505">
        <ele>282</ele>
        <time>2012-02-26T10:36:24Z</time>
      </trkpt>
      <trkpt lat="45.33864" lon="1.14509">
        <ele>281</ele>
        <time>2012-02-26T10:36:26Z</time>
      </trkpt>
      <trkpt lat="45.33868" lon="1.14515">
        <ele>280</ele>
        <time>2012-02-26T10:36:28Z</time>
      </trkpt>
      <trkpt lat="45.33873" lon="1.14519">
        <ele>278</ele>
        <time>2012-02-26T10:36:30Z</time>
      </trkpt>
      <trkpt lat="45.33878" lon="1.14525">
        <ele>277</ele>
        <time>2012-02-26T10:36:32Z</time>
      </trkpt>
      <trkpt lat="45.33881" lon="1.14531">
        <ele>276</ele>
        <time>2012-02-26T10:36:34Z</time>
      </trkpt>
      <trkpt lat="45.33884" lon="1.14535">
        <ele>275</ele>
        <time>2012-02-26T10:36:36Z</time>
      </trkpt>
      <trkpt lat="45.33887" lon="1.1454">
        <ele>275</ele>
        <time>2012-02-26T10:36:38Z</time>
      </trkpt>
      <trkpt lat="45.33891" lon="1.14544">
        <ele>275</ele>
        <time>2012-02-26T10:36:40Z</time>
      </trkpt>
      <trkpt lat="45.33895" lon="1.14548">
        <ele>275</ele>
        <time>2012-02-26T10:36:42Z</time>
      </trkpt>
      <trkpt lat="45.33898" lon="1.14552">
        <ele>275</ele>
        <time>2012-02-26T10:36:44Z</time>
      </trkpt>
      <trkpt lat="45.33902" lon="1.14555">
        <ele>275</ele>
        <time>2012-02-26T10:36:46Z</time>
      </trkpt>
      <trkpt lat="45.33906" lon="1.14559">
        <ele>274</ele>
        <time>2012-02-26T10:36:48Z</time>
      </trkpt>
      <trkpt lat="45.33909" lon="1.14564">
        <ele>274</ele>
        <time>2012-02-26T10:36:50Z</time>
      </trkpt>
      <trkpt lat="45.33914" lon="1.14569">
        <ele>273</ele>
        <time>2012-02-26T10:36:52Z</time>
      </trkpt>
      <trkpt lat="45.33918" lon="1.14575">
        <ele>272</ele>
        <time>2012-02-26T10:36:54Z</time>
      </trkpt>
      <trkpt lat="45.33921" lon="1.1458">
        <ele>271</ele>
        <time>2012-02-26T10:36:56Z</time>
      </trkpt>
      <trkpt lat="45.33925" lon="1.14586">
        <ele>271</ele>
        <time>2012-02-26T10:36:58Z</time>
      </trkpt>
      <trkpt lat="45.33928" lon="1.14591">
        <ele>271</ele>
        <time>2012-02-26T10:37:00Z</time>
      </trkpt>
      <trkpt lat="45.33933" lon="1.14596">
        <ele>271</ele>
        <time>2012-02-26T10:37:02Z</time>
      </trkpt>
      <trkpt lat="45.33937" lon="1.14601">
        <ele>270</ele>
        <time>2012-02-26T10:37:04Z</time>
      </trkpt>
      <trkpt lat="45.33942" lon="1.14606">
        <ele>270</ele>
        <time>2012-02-26T10:37:06Z</time>
      </trkpt>
      <trkpt lat="45.33947" lon="1.14611">
        <ele>270</ele>
        <time>2012-02-26T10:37:08Z</time>
      </trkpt>
      <trkpt lat="45.33952" lon="1.14615">
        <ele>270</ele>
        <time>2012-02-26T10:37:10Z</time>
      </trkpt>
      <trkpt lat="45.33958" lon="1.1462">
        <ele>270</ele>
        <time>2012-02-26T10:37:12Z</time>
      </trkpt>
      <trkpt lat="45.33963" lon="1.14624">
        <ele>270</ele>
        <time>2012-02-26T10:37:14Z</time>
      </trkpt>
      <trkpt lat="45.3397" lon="1.14627">
        <ele>270</ele>
        <time>2012-02-26T10:37:16Z</time>
      </trkpt>
      <trkpt lat="45.33976" lon="1.14631">
        <ele>270</ele>
        <time>2012-02-26T10:37:18Z</time>
      </trkpt>
      <trkpt lat="45.33981" lon="1.14634">
        <ele>270</ele>
        <time>2012-02-26T10:37:20Z</time>
      </trkpt>
      <trkpt lat="45.33989" lon="1.14636">
        <ele>270</ele>
        <time>2012-02-26T10:37:22Z</time>
      </trkpt>
      <trkpt lat="45.33997" lon="1.14637">
        <ele>270</ele>
        <time>2012-02-26T10:37:24Z</time>
      </trkpt>
      <trkpt lat="45.34004" lon="1.1464">
        <ele>270</ele>
        <time>2012-02-26T10:37:26Z</time>
      </trkpt>
      <trkpt lat="45.34009" lon="1.14644">
        <ele>270</ele>
        <time>2012-02-26T10:37:28Z</time>
      </trkpt>
      <trkpt lat="45.34013" lon="1.14651">
        <ele>270</ele>
        <time>2012-02-26T10:37:30Z</time>
      </trkpt>
      <trkpt lat="45.34015" lon="1.14659">
        <ele>270</ele>
        <time>2012-02-26T10:37:32Z</time>
      </trkpt>
      <trkpt lat="45.34018" lon="1.14667">
        <ele>270</ele>
        <time>2012-02-26T10:37:34Z</time>
      </trkpt>
      <trkpt lat="45.34021" lon="1.14674">
        <ele>270</ele>
        <time>2012-02-26T10:37:36Z</time>
      </trkpt>
      <trkpt lat="45.34024" lon="1.14681">
        <ele>270</ele>
        <time>2012-02-26T10:37:38Z</time>
      </trkpt>
      <trkpt lat="45.34028" lon="1.14687">
        <ele>270</ele>
        <time>2012-02-26T10:37:40Z</time>
      </trkpt>
      <trkpt lat="45.34033" lon="1.14691">
        <ele>269</ele>
        <time>2012-02-26T10:37:42Z</time>
      </trkpt>
      <trkpt lat="45.34037" lon="1.14692">
        <ele>269</ele>
        <time>2012-02-26T10:37:44Z</time>
      </trkpt>
      <trkpt lat="45.34043" lon="1.14691">
        <ele>269</ele>
        <time>2012-02-26T10:37:46Z</time>
      </trkpt>
      <trkpt lat="45.34047" lon="1.14691">
        <ele>269</ele>
        <time>2012-02-26T10:37:48Z</time>
      </trkpt>
      <trkpt lat="45.3405" lon="1.14693">
        <ele>269</ele>
        <time>2012-02-26T10:37:50Z</time>
      </trkpt>
      <trkpt lat="45.34055" lon="1.14697">
        <ele>269</ele>
        <time>2012-02-26T10:37:52Z</time>
      </trkpt>
      <trkpt lat="45.34061" lon="1.14701">
        <ele>269</ele>
        <time>2012-02-26T10:37:54Z</time>
      </trkpt>
      <trkpt lat="45.34066" lon="1.14708">
        <ele>269</ele>
        <time>2012-02-26T10:37:56Z</time>
      </trkpt>
      <trkpt lat="45.3407" lon="1.14713">
        <ele>269</ele>
        <time>2012-02-26T10:37:58Z</time>
      </trkpt>
      <trkpt lat="45.34074" lon="1.14718">
        <ele>269</ele>
        <time>2012-02-26T10:38:00Z</time>
      </trkpt>
      <trkpt lat="45.34079" lon="1.14723">
        <ele>269</ele>
        <time>2012-02-26T10:38:02Z</time>
      </trkpt>
      <trkpt lat="45.34083" lon="1.14727">
        <ele>269</ele>
        <time>2012-02-26T10:38:04Z</time>
      </trkpt>
      <trkpt lat="45.34087" lon="1.14732">
        <ele>269</ele>
        <time>2012-02-26T10:38:06Z</time>
      </trkpt>
      <trkpt lat="45.3409" lon="1.14736">
        <ele>269</ele>
        <time>2012-02-26T10:38:08Z</time>
      </trkpt>
      <trkpt lat="45.34094" lon="1.1474">
        <ele>269</ele>
        <time>2012-02-26T10:38:10Z</time>
      </trkpt>
      <trkpt lat="45.34095" lon="1.14745">
        <ele>269</ele>
        <time>2012-02-26T10:38:12Z</time>
      </trkpt>
      <trkpt lat="45.34098" lon="1.1475">
        <ele>269</ele>
        <time>2012-02-26T10:38:14Z</time>
      </trkpt>
      <trkpt lat="45.34102" lon="1.14754">
        <ele>269</ele>
        <time>2012-02-26T10:38:16Z</time>
      </trkpt>
      <trkpt lat="45.34106" lon="1.14758">
        <ele>269</ele>
        <time>2012-02-26T10:38:18Z</time>
      </trkpt>
      <trkpt lat="45.34109" lon="1.14762">
        <ele>269</ele>
        <time>2012-02-26T10:38:20Z</time>
      </trkpt>
      <trkpt lat="45.34113" lon="1.14765">
        <ele>269</ele>
        <time>2012-02-26T10:38:22Z</time>
      </trkpt>
      <trkpt lat="45.34117" lon="1.14769">
        <ele>269</ele>
        <time>2012-02-26T10:38:24Z</time>
      </trkpt>
      <trkpt lat="45.3412" lon="1.14773">
        <ele>269</ele>
        <time>2012-02-26T10:38:26Z</time>
      </trkpt>
      <trkpt lat="45.34124" lon="1.14778">
        <ele>269</ele>
        <time>2012-02-26T10:38:28Z</time>
      </trkpt>
      <trkpt lat="45.34127" lon="1.14781">
        <ele>269</ele>
        <time>2012-02-26T10:38:30Z</time>
      </trkpt>
      <trkpt lat="45.34131" lon="1.14784">
        <ele>269</ele>
        <time>2012-02-26T10:38:32Z</time>
      </trkpt>
      <trkpt lat="45.34135" lon="1.14788">
        <ele>269</ele>
        <time>2012-02-26T10:38:34Z</time>
      </trkpt>
      <trkpt lat="45.34139" lon="1.14792">
        <ele>269</ele>
        <time>2012-02-26T10:38:36Z</time>
      </trkpt>
      <trkpt lat="45.34142" lon="1.14797">
        <ele>269</ele>
        <time>2012-02-26T10:38:38Z</time>
      </trkpt>
      <trkpt lat="45.34142" lon="1.14804">
        <ele>269</ele>
        <time>2012-02-26T10:38:40Z</time>
      </trkpt>
      <trkpt lat="45.34142" lon="1.14812">
        <ele>269</ele>
        <time>2012-02-26T10:38:42Z</time>
      </trkpt>
      <trkpt lat="45.34143" lon="1.14821">
        <ele>269</ele>
        <time>2012-02-26T10:38:44Z</time>
      </trkpt>
      <trkpt lat="45.34144" lon="1.14828">
        <ele>270</ele>
        <time>2012-02-26T10:38:46Z</time>
      </trkpt>
      <trkpt lat="45.34143" lon="1.14837">
        <ele>270</ele>
        <time>2012-02-26T10:38:48Z</time>
      </trkpt>
      <trkpt lat="45.34142" lon="1.14845">
        <ele>270</ele>
        <time>2012-02-26T10:38:50Z</time>
      </trkpt>
      <trkpt lat="45.3414" lon="1.14853">
        <ele>270</ele>
        <time>2012-02-26T10:38:52Z</time>
      </trkpt>
      <trkpt lat="45.34138" lon="1.14861">
        <ele>270</ele>
        <time>2012-02-26T10:38:54Z</time>
      </trkpt>
      <trkpt lat="45.34136" lon="1.14869">
        <ele>270</ele>
        <time>2012-02-26T10:38:56Z</time>
      </trkpt>
      <trkpt lat="45.34136" lon="1.14877">
        <ele>270</ele>
        <time>2012-02-26T10:38:58Z</time>
      </trkpt>
      <trkpt lat="45.34136" lon="1.14884">
        <ele>270</ele>
        <time>2012-02-26T10:39:01Z</time>
      </trkpt>
      <trkpt lat="45.34136" lon="1.14895">
        <ele>270</ele>
        <time>2012-02-26T10:39:03Z</time>
      </trkpt>
      <trkpt lat="45.34139" lon="1.14906">
        <ele>270</ele>
        <time>2012-02-26T10:39:06Z</time>
      </trkpt>
      <trkpt lat="45.34141" lon="1.14913">
        <ele>271</ele>
        <time>2012-02-26T10:39:08Z</time>
      </trkpt>
      <trkpt lat="45.34146" lon="1.14919">
        <ele>271</ele>
        <time>2012-02-26T10:39:10Z</time>
      </trkpt>
      <trkpt lat="45.3415" lon="1.14922">
        <ele>271</ele>
        <time>2012-02-26T10:39:12Z</time>
      </trkpt>
      <trkpt lat="45.34155" lon="1.14925">
        <ele>271</ele>
        <time>2012-02-26T10:39:14Z</time>
      </trkpt>
      <trkpt lat="45.3416" lon="1.14926">
        <ele>271</ele>
        <time>2012-02-26T10:39:16Z</time>
      </trkpt>
      <trkpt lat="45.34166" lon="1.14927">
        <ele>271</ele>
        <time>2012-02-26T10:39:18Z</time>
      </trkpt>
      <trkpt lat="45.34172" lon="1.14928">
        <ele>271</ele>
        <time>2012-02-26T10:39:20Z</time>
      </trkpt>
      <trkpt lat="45.34177" lon="1.14927">
        <ele>271</ele>
        <time>2012-02-26T10:39:22Z</time>
      </trkpt>
      <trkpt lat="45.34182" lon="1.14923">
        <ele>271</ele>
        <time>2012-02-26T10:39:24Z</time>
      </trkpt>
      <trkpt lat="45.34186" lon="1.14916">
        <ele>271</ele>
        <time>2012-02-26T10:39:26Z</time>
      </trkpt>
      <trkpt lat="45.34191" lon="1.14909">
        <ele>271</ele>
        <time>2012-02-26T10:39:28Z</time>
      </trkpt>
      <trkpt lat="45.34195" lon="1.14903">
        <ele>271</ele>
        <time>2012-02-26T10:39:30Z</time>
      </trkpt>
      <trkpt lat="45.342" lon="1.14898">
        <ele>271</ele>
        <time>2012-02-26T10:39:32Z</time>
      </trkpt>
      <trkpt lat="45.34204" lon="1.14892">
        <ele>271</ele>
        <time>2012-02-26T10:39:34Z</time>
      </trkpt>
      <trkpt lat="45.34207" lon="1.14885">
        <ele>271</ele>
        <time>2012-02-26T10:39:36Z</time>
      </trkpt>
      <trkpt lat="45.3421" lon="1.14878">
        <ele>271</ele>
        <time>2012-02-26T10:39:38Z</time>
      </trkpt>
      <trkpt lat="45.34213" lon="1.14871">
        <ele>271</ele>
        <time>2012-02-26T10:39:40Z</time>
      </trkpt>
      <trkpt lat="45.34216" lon="1.14863">
        <ele>271</ele>
        <time>2012-02-26T10:39:42Z</time>
      </trkpt>
      <trkpt lat="45.34221" lon="1.14857">
        <ele>271</ele>
        <time>2012-02-26T10:39:44Z</time>
      </trkpt>
      <trkpt lat="45.34227" lon="1.14853">
        <ele>271</ele>
        <time>2012-02-26T10:39:46Z</time>
      </trkpt>
      <trkpt lat="45.34232" lon="1.1485">
        <ele>271</ele>
        <time>2012-02-26T10:39:48Z</time>
      </trkpt>
      <trkpt lat="45.34238" lon="1.14846">
        <ele>271</ele>
        <time>2012-02-26T10:39:50Z</time>
      </trkpt>
      <trkpt lat="45.34245" lon="1.14844">
        <ele>271</ele>
        <time>2012-02-26T10:39:52Z</time>
      </trkpt>
      <trkpt lat="45.34251" lon="1.14842">
        <ele>271</ele>
        <time>2012-02-26T10:39:54Z</time>
      </trkpt>
      <trkpt lat="45.34258" lon="1.14841">
        <ele>270</ele>
        <time>2012-02-26T10:39:56Z</time>
      </trkpt>
      <trkpt lat="45.34264" lon="1.14839">
        <ele>270</ele>
        <time>2012-02-26T10:39:58Z</time>
      </trkpt>
      <trkpt lat="45.34269" lon="1.14836">
        <ele>270</ele>
        <time>2012-02-26T10:40:00Z</time>
      </trkpt>
      <trkpt lat="45.34274" lon="1.14833">
        <ele>270</ele>
        <time>2012-02-26T10:40:02Z</time>
      </trkpt>
      <trkpt lat="45.34278" lon="1.1483">
        <ele>269</ele>
        <time>2012-02-26T10:40:04Z</time>
      </trkpt>
      <trkpt lat="45.34282" lon="1.14826">
        <ele>269</ele>
        <time>2012-02-26T10:40:06Z</time>
      </trkpt>
      <trkpt lat="45.34285" lon="1.14823">
        <ele>269</ele>
        <time>2012-02-26T10:40:08Z</time>
      </trkpt>
      <trkpt lat="45.34289" lon="1.14821">
        <ele>269</ele>
        <time>2012-02-26T10:40:10Z</time>
      </trkpt>
      <trkpt lat="45.34293" lon="1.14818">
        <ele>269</ele>
        <time>2012-02-26T10:40:12Z</time>
      </trkpt>
      <trkpt lat="45.34298" lon="1.14814">
        <ele>269</ele>
        <time>2012-02-26T10:40:14Z</time>
      </trkpt>
      <trkpt lat="45.34301" lon="1.14812">
        <ele>269</ele>
        <time>2012-02-26T10:40:16Z</time>
      </trkpt>
      <trkpt lat="45.34306" lon="1.14809">
        <ele>269</ele>
        <time>2012-02-26T10:40:18Z</time>
      </trkpt>
      <trkpt lat="45.3431" lon="1.14806">
        <ele>269</ele>
        <time>2012-02-26T10:40:20Z</time>
      </trkpt>
      <trkpt lat="45.34316" lon="1.14803">
        <ele>269</ele>
        <time>2012-02-26T10:40:22Z</time>
      </trkpt>
      <trkpt lat="45.34321" lon="1.148">
        <ele>269</ele>
        <time>2012-02-26T10:40:24Z</time>
      </trkpt>
      <trkpt lat="45.34325" lon="1.14798">
        <ele>269</ele>
        <time>2012-02-26T10:40:26Z</time>
      </trkpt>
      <trkpt lat="45.34329" lon="1.14796">
        <ele>270</ele>
        <time>2012-02-26T10:40:28Z</time>
      </trkpt>
      <trkpt lat="45.34334" lon="1.14797">
        <ele>270</ele>
        <time>2012-02-26T10:40:30Z</time>
      </trkpt>
      <trkpt lat="45.34338" lon="1.14801">
        <ele>270</ele>
        <time>2012-02-26T10:40:32Z</time>
      </trkpt>
      <trkpt lat="45.34342" lon="1.14805">
        <ele>270</ele>
        <time>2012-02-26T10:40:34Z</time>
      </trkpt>
      <trkpt lat="45.34345" lon="1.14809">
        <ele>270</ele>
        <time>2012-02-26T10:40:36Z</time>
      </trkpt>
      <trkpt lat="45.34349" lon="1.14814">
        <ele>270</ele>
        <time>2012-02-26T10:40:38Z</time>
      </trkpt>
      <trkpt lat="45.34354" lon="1.14818">
        <ele>270</ele>
        <time>2012-02-26T10:40:40Z</time>
      </trkpt>
      <trkpt lat="45.34359" lon="1.14821">
        <ele>270</ele>
        <time>2012-02-26T10:40:42Z</time>
      </trkpt>
      <trkpt lat="45.34364" lon="1.14826">
        <ele>270</ele>
        <time>2012-02-26T10:40:44Z</time>
      </trkpt>
      <trkpt lat="45.34368" lon="1.1483">
        <ele>270</ele>
        <time>2012-02-26T10:40:46Z</time>
      </trkpt>
      <trkpt lat="45.34372" lon="1.14835">
        <ele>269</ele>
        <time>2012-02-26T10:40:48Z</time>
      </trkpt>
      <trkpt lat="45.34376" lon="1.14836">
        <ele>268</ele>
        <time>2012-02-26T10:40:50Z</time>
      </trkpt>
      <trkpt lat="45.3438" lon="1.14837">
        <ele>266</ele>
        <time>2012-02-26T10:40:52Z</time>
      </trkpt>
      <trkpt lat="45.34385" lon="1.14837">
        <ele>265</ele>
        <time>2012-02-26T10:40:54Z</time>
      </trkpt>
      <trkpt lat="45.3439" lon="1.14837">
        <ele>264</ele>
        <time>2012-02-26T10:40:56Z</time>
      </trkpt>
      <trkpt lat="45.34396" lon="1.14836">
        <ele>262</ele>
        <time>2012-02-26T10:40:58Z</time>
      </trkpt>
      <trkpt lat="45.34401" lon="1.14836">
        <ele>260</ele>
        <time>2012-02-26T10:41:00Z</time>
      </trkpt>
      <trkpt lat="45.34407" lon="1.14837">
        <ele>258</ele>
        <time>2012-02-26T10:41:02Z</time>
      </trkpt>
      <trkpt lat="45.34414" lon="1.14834">
        <ele>256</ele>
        <time>2012-02-26T10:41:04Z</time>
      </trkpt>
      <trkpt lat="45.34418" lon="1.14832">
        <ele>254</ele>
        <time>2012-02-26T10:41:06Z</time>
      </trkpt>
      <trkpt lat="45.34423" lon="1.14829">
        <ele>253</ele>
        <time>2012-02-26T10:41:08Z</time>
      </trkpt>
      <trkpt lat="45.34429" lon="1.14823">
        <ele>253</ele>
        <time>2012-02-26T10:41:10Z</time>
      </trkpt>
      <trkpt lat="45.34435" lon="1.14815">
        <ele>252</ele>
        <time>2012-02-26T10:41:12Z</time>
      </trkpt>
      <trkpt lat="45.34439" lon="1.14808">
        <ele>252</ele>
        <time>2012-02-26T10:41:14Z</time>
      </trkpt>
      <trkpt lat="45.34442" lon="1.14802">
        <ele>251</ele>
        <time>2012-02-26T10:41:16Z</time>
      </trkpt>
      <trkpt lat="45.34447" lon="1.14797">
        <ele>250</ele>
        <time>2012-02-26T10:41:18Z</time>
      </trkpt>
      <trkpt lat="45.34453" lon="1.14796">
        <ele>250</ele>
        <time>2012-02-26T10:41:20Z</time>
      </trkpt>
      <trkpt lat="45.34454" lon="1.14803">
        <ele>250</ele>
        <time>2012-02-26T10:41:22Z</time>
      </trkpt>
      <trkpt lat="45.34455" lon="1.1481">
        <ele>249</ele>
        <time>2012-02-26T10:41:24Z</time>
      </trkpt>
      <trkpt lat="45.34457" lon="1.14816">
        <ele>248</ele>
        <time>2012-02-26T10:41:26Z</time>
      </trkpt>
      <trkpt lat="45.3446" lon="1.14823">
        <ele>247</ele>
        <time>2012-02-26T10:41:28Z</time>
      </trkpt>
      <trkpt lat="45.34462" lon="1.1483">
        <ele>246</ele>
        <time>2012-02-26T10:41:30Z</time>
      </trkpt>
      <trkpt lat="45.34463" lon="1.14838">
        <ele>245</ele>
        <time>2012-02-26T10:41:32Z</time>
      </trkpt>
      <trkpt lat="45.34462" lon="1.14845">
        <ele>243</ele>
        <time>2012-02-26T10:41:34Z</time>
      </trkpt>
      <trkpt lat="45.34463" lon="1.14854">
        <ele>242</ele>
        <time>2012-02-26T10:41:36Z</time>
      </trkpt>
      <trkpt lat="45.34462" lon="1.14864">
        <ele>241</ele>
        <time>2012-02-26T10:41:38Z</time>
      </trkpt>
      <trkpt lat="45.34462" lon="1.14871">
        <ele>240</ele>
        <time>2012-02-26T10:41:40Z</time>
      </trkpt>
      <trkpt lat="45.3446" lon="1.1488">
        <ele>240</ele>
        <time>2012-02-26T10:41:42Z</time>
      </trkpt>
      <trkpt lat="45.34457" lon="1.14889">
        <ele>240</ele>
        <time>2012-02-26T10:41:44Z</time>
      </trkpt>
      <trkpt lat="45.34452" lon="1.14896">
        <ele>240</ele>
        <time>2012-02-26T10:41:46Z</time>
      </trkpt>
      <trkpt lat="45.34448" lon="1.149">
        <ele>239</ele>
        <time>2012-02-26T10:41:48Z</time>
      </trkpt>
      <trkpt lat="45.34443" lon="1.14905">
        <ele>239</ele>
        <time>2012-02-26T10:41:50Z</time>
      </trkpt>
      <trkpt lat="45.34438" lon="1.1491">
        <ele>238</ele>
        <time>2012-02-26T10:41:52Z</time>
      </trkpt>
      <trkpt lat="45.34436" lon="1.14919">
        <ele>238</ele>
        <time>2012-02-26T10:41:54Z</time>
      </trkpt>
      <trkpt lat="45.34432" lon="1.14925">
        <ele>237</ele>
        <time>2012-02-26T10:41:56Z</time>
      </trkpt>
      <trkpt lat="45.34429" lon="1.14934">
        <ele>236</ele>
        <time>2012-02-26T10:41:58Z</time>
      </trkpt>
      <trkpt lat="45.34427" lon="1.14938">
        <ele>235</ele>
        <time>2012-02-26T10:42:00Z</time>
      </trkpt>
      <trkpt lat="45.34425" lon="1.14943">
        <ele>234</ele>
        <time>2012-02-26T10:42:02Z</time>
      </trkpt>
      <trkpt lat="45.34422" lon="1.14949">
        <ele>232</ele>
        <time>2012-02-26T10:42:04Z</time>
      </trkpt>
      <trkpt lat="45.3442" lon="1.14955">
        <ele>230</ele>
        <time>2012-02-26T10:42:06Z</time>
      </trkpt>
      <trkpt lat="45.34416" lon="1.14962">
        <ele>228</ele>
        <time>2012-02-26T10:42:08Z</time>
      </trkpt>
      <trkpt lat="45.34412" lon="1.14967">
        <ele>226</ele>
        <time>2012-02-26T10:42:10Z</time>
      </trkpt>
      <trkpt lat="45.34408" lon="1.14972">
        <ele>224</ele>
        <time>2012-02-26T10:42:12Z</time>
      </trkpt>
      <trkpt lat="45.34406" lon="1.14978">
        <ele>224</ele>
        <time>2012-02-26T10:42:14Z</time>
      </trkpt>
      <trkpt lat="45.34405" lon="1.14982">
        <ele>222</ele>
        <time>2012-02-26T10:42:16Z</time>
      </trkpt>
      <trkpt lat="45.34403" lon="1.14985">
        <ele>220</ele>
        <time>2012-02-26T10:42:18Z</time>
      </trkpt>
      <trkpt lat="45.34401" lon="1.14991">
        <ele>218</ele>
        <time>2012-02-26T10:42:20Z</time>
      </trkpt>
      <trkpt lat="45.34398" lon="1.14999">
        <ele>216</ele>
        <time>2012-02-26T10:42:22Z</time>
      </trkpt>
      <trkpt lat="45.34397" lon="1.15005">
        <ele>214</ele>
        <time>2012-02-26T10:42:24Z</time>
      </trkpt>
      <trkpt lat="45.34396" lon="1.15011">
        <ele>212</ele>
        <time>2012-02-26T10:42:26Z</time>
      </trkpt>
      <trkpt lat="45.34395" lon="1.15017">
        <ele>210</ele>
        <time>2012-02-26T10:42:28Z</time>
      </trkpt>
      <trkpt lat="45.34392" lon="1.15024">
        <ele>209</ele>
        <time>2012-02-26T10:42:30Z</time>
      </trkpt>
      <trkpt lat="45.34389" lon="1.15032">
        <ele>208</ele>
        <time>2012-02-26T10:42:32Z</time>
      </trkpt>
      <trkpt lat="45.34387" lon="1.15037">
        <ele>206</ele>
        <time>2012-02-26T10:42:34Z</time>
      </trkpt>
      <trkpt lat="45.34386" lon="1.15043">
        <ele>205</ele>
        <time>2012-02-26T10:42:36Z</time>
      </trkpt>
      <trkpt lat="45.34384" lon="1.1505">
        <ele>205</ele>
        <time>2012-02-26T10:42:38Z</time>
      </trkpt>
      <trkpt lat="45.34383" lon="1.15057">
        <ele>205</ele>
        <time>2012-02-26T10:42:40Z</time>
      </trkpt>
      <trkpt lat="45.34383" lon="1.15062">
        <ele>205</ele>
        <time>2012-02-26T10:42:42Z</time>
      </trkpt>
      <trkpt lat="45.34382" lon="1.15069">
        <ele>205</ele>
        <time>2012-02-26T10:42:44Z</time>
      </trkpt>
      <trkpt lat="45.3438" lon="1.15077">
        <ele>205</ele>
        <time>2012-02-26T10:42:46Z</time>
      </trkpt>
      <trkpt lat="45.34377" lon="1.15086">
        <ele>205</ele>
        <time>2012-02-26T10:42:48Z</time>
      </trkpt>
      <trkpt lat="45.34374" lon="1.15095">
        <ele>203</ele>
        <time>2012-02-26T10:42:50Z</time>
      </trkpt>
      <trkpt lat="45.3437" lon="1.15105">
        <ele>203</ele>
        <time>2012-02-26T10:42:52Z</time>
      </trkpt>
      <trkpt lat="45.34369" lon="1.15112">
        <ele>203</ele>
        <time>2012-02-26T10:42:54Z</time>
      </trkpt>
      <trkpt lat="45.34368" lon="1.15119">
        <ele>203</ele>
        <time>2012-02-26T10:42:56Z</time>
      </trkpt>
      <trkpt lat="45.34366" lon="1.15127">
        <ele>202</ele>
        <time>2012-02-26T10:42:58Z</time>
      </trkpt>
      <trkpt lat="45.34365" lon="1.15134">
        <ele>201</ele>
        <time>2012-02-26T10:43:00Z</time>
      </trkpt>
      <trkpt lat="45.34365" lon="1.15143">
        <ele>201</ele>
        <time>2012-02-26T10:43:02Z</time>
      </trkpt>
      <trkpt lat="45.34363" lon="1.15149">
        <ele>200</ele>
        <time>2012-02-26T10:43:04Z</time>
      </trkpt>
      <trkpt lat="45.34362" lon="1.15156">
        <ele>199</ele>
        <time>2012-02-26T10:43:06Z</time>
      </trkpt>
      <trkpt lat="45.34362" lon="1.15164">
        <ele>198</ele>
        <time>2012-02-26T10:43:08Z</time>
      </trkpt>
      <trkpt lat="45.34363" lon="1.15173">
        <ele>197</ele>
        <time>2012-02-26T10:43:10Z</time>
      </trkpt>
      <trkpt lat="45.34363" lon="1.1518">
        <ele>195</ele>
        <time>2012-02-26T10:43:12Z</time>
      </trkpt>
      <trkpt lat="45.34364" lon="1.15188">
        <ele>194</ele>
        <time>2012-02-26T10:43:14Z</time>
      </trkpt>
      <trkpt lat="45.34364" lon="1.15197">
        <ele>193</ele>
        <time>2012-02-26T10:43:16Z</time>
      </trkpt>
      <trkpt lat="45.34365" lon="1.15205">
        <ele>192</ele>
        <time>2012-02-26T10:43:18Z</time>
      </trkpt>
      <trkpt lat="45.34366" lon="1.15214">
        <ele>192</ele>
        <time>2012-02-26T10:43:20Z</time>
      </trkpt>
      <trkpt lat="45.34368" lon="1.15224">
        <ele>191</ele>
        <time>2012-02-26T10:43:22Z</time>
      </trkpt>
      <trkpt lat="45.34371" lon="1.15232">
        <ele>190</ele>
        <time>2012-02-26T10:43:24Z</time>
      </trkpt>
      <trkpt lat="45.34372" lon="1.1524">
        <ele>190</ele>
        <time>2012-02-26T10:43:26Z</time>
      </trkpt>
      <trkpt lat="45.34368" lon="1.15244">
        <ele>190</ele>
        <time>2012-02-26T10:43:28Z</time>
      </trkpt>
      <trkpt lat="45.34361" lon="1.15243">
        <ele>189</ele>
        <time>2012-02-26T10:43:30Z</time>
      </trkpt>
      <trkpt lat="45.34356" lon="1.15243">
        <ele>189</ele>
        <time>2012-02-26T10:43:32Z</time>
      </trkpt>
      <trkpt lat="45.34349" lon="1.15242">
        <ele>188</ele>
        <time>2012-02-26T10:43:34Z</time>
      </trkpt>
      <trkpt lat="45.34343" lon="1.15242">
        <ele>187</ele>
        <time>2012-02-26T10:43:36Z</time>
      </trkpt>
      <trkpt lat="45.34336" lon="1.15241">
        <ele>185</ele>
        <time>2012-02-26T10:43:38Z</time>
      </trkpt>
      <trkpt lat="45.3433" lon="1.15244">
        <ele>185</ele>
        <time>2012-02-26T10:43:40Z</time>
      </trkpt>
      <trkpt lat="45.34325" lon="1.15247">
        <ele>184</ele>
        <time>2012-02-26T10:43:42Z</time>
      </trkpt>
      <trkpt lat="45.3432" lon="1.15252">
        <ele>183</ele>
        <time>2012-02-26T10:43:44Z</time>
      </trkpt>
      <trkpt lat="45.34316" lon="1.15254">
        <ele>181</ele>
        <time>2012-02-26T10:43:46Z</time>
      </trkpt>
      <trkpt lat="45.3431" lon="1.15257">
        <ele>180</ele>
        <time>2012-02-26T10:43:48Z</time>
      </trkpt>
      <trkpt lat="45.34305" lon="1.1526">
        <ele>179</ele>
        <time>2012-02-26T10:43:50Z</time>
      </trkpt>
      <trkpt lat="45.34299" lon="1.15262">
        <ele>178</ele>
        <time>2012-02-26T10:43:52Z</time>
      </trkpt>
      <trkpt lat="45.34293" lon="1.15266">
        <ele>177</ele>
        <time>2012-02-26T10:43:54Z</time>
      </trkpt>
      <trkpt lat="45.34288" lon="1.15269">
        <ele>177</ele>
        <time>2012-02-26T10:43:56Z</time>
      </trkpt>
      <trkpt lat="45.34283" lon="1.15273">
        <ele>176</ele>
        <time>2012-02-26T10:43:58Z</time>
      </trkpt>
      <trkpt lat="45.34277" lon="1.15274">
        <ele>175</ele>
        <time>2012-02-26T10:44:00Z</time>
      </trkpt>
      <trkpt lat="45.34269" lon="1.15275">
        <ele>175</ele>
        <time>2012-02-26T10:44:02Z</time>
      </trkpt>
      <trkpt lat="45.34263" lon="1.15278">
        <ele>173</ele>
        <time>2012-02-26T10:44:04Z</time>
      </trkpt>
      <trkpt lat="45.34257" lon="1.1528">
        <ele>172</ele>
        <time>2012-02-26T10:44:06Z</time>
      </trkpt>
      <trkpt lat="45.34251" lon="1.15283">
        <ele>170</ele>
        <time>2012-02-26T10:44:08Z</time>
      </trkpt>
      <trkpt lat="45.34246" lon="1.15283">
        <ele>169</ele>
        <time>2012-02-26T10:44:10Z</time>
      </trkpt>
      <trkpt lat="45.34241" lon="1.15285">
        <ele>168</ele>
        <time>2012-02-26T10:44:12Z</time>
      </trkpt>
      <trkpt lat="45.34236" lon="1.15289">
        <ele>166</ele>
        <time>2012-02-26T10:44:14Z</time>
      </trkpt>
      <trkpt lat="45.3423" lon="1.15297">
        <ele>165</ele>
        <time>2012-02-26T10:44:16Z</time>
      </trkpt>
      <trkpt lat="45.34225" lon="1.15305">
        <ele>165</ele>
        <time>2012-02-26T10:44:18Z</time>
      </trkpt>
      <trkpt lat="45.34221" lon="1.15313">
        <ele>165</ele>
        <time>2012-02-26T10:44:20Z</time>
      </trkpt>
      <trkpt lat="45.34218" lon="1.15319">
        <ele>165</ele>
        <time>2012-02-26T10:44:22Z</time>
      </trkpt>
      <trkpt lat="45.34214" lon="1.15324">
        <ele>165</ele>
        <time>2012-02-26T10:44:24Z</time>
      </trkpt>
      <trkpt lat="45.34208" lon="1.1533">
        <ele>164</ele>
        <time>2012-02-26T10:44:26Z</time>
      </trkpt>
      <trkpt lat="45.34205" lon="1.15334">
        <ele>163</ele>
        <time>2012-02-26T10:44:28Z</time>
      </trkpt>
      <trkpt lat="45.34203" lon="1.1534">
        <ele>163</ele>
        <time>2012-02-26T10:44:30Z</time>
      </trkpt>
      <trkpt lat="45.34203" lon="1.15348">
        <ele>163</ele>
        <time>2012-02-26T10:44:32Z</time>
      </trkpt>
      <trkpt lat="45.34203" lon="1.15354">
        <ele>163</ele>
        <time>2012-02-26T10:44:34Z</time>
      </trkpt>
      <trkpt lat="45.34203" lon="1.15361">
        <ele>163</ele>
        <time>2012-02-26T10:44:36Z</time>
      </trkpt>
      <trkpt lat="45.34203" lon="1.15368">
        <ele>162</ele>
        <time>2012-02-26T10:44:38Z</time>
      </trkpt>
      <trkpt lat="45.34204" lon="1.15375">
        <ele>162</ele>
        <time>2012-02-26T10:44:40Z</time>
      </trkpt>
      <trkpt lat="45.34203" lon="1.15383">
        <ele>162</ele>
        <time>2012-02-26T10:44:42Z</time>
      </trkpt>
      <trkpt lat="45.342" lon="1.15391">
        <ele>162</ele>
        <time>2012-02-26T10:44:44Z</time>
      </trkpt>
      <trkpt lat="45.342" lon="1.15397">
        <ele>162</ele>
        <time>2012-02-26T10:44:46Z</time>
      </trkpt>
      <trkpt lat="45.34199" lon="1.15405">
        <ele>162</ele>
        <time>2012-02-26T10:44:48Z</time>
      </trkpt>
      <trkpt lat="45.342" lon="1.15411">
        <ele>162</ele>
        <time>2012-02-26T10:44:50Z</time>
      </trkpt>
      <trkpt lat="45.34203" lon="1.15415">
        <ele>162</ele>
        <time>2012-02-26T10:44:52Z</time>
      </trkpt>
      <trkpt lat="45.34203" lon="1.15422">
        <ele>162</ele>
        <time>2012-02-26T10:44:54Z</time>
      </trkpt>
      <trkpt lat="45.34206" lon="1.15427">
        <ele>162</ele>
        <time>2012-02-26T10:44:56Z</time>
      </trkpt>
      <trkpt lat="45.34206" lon="1.15433">
        <ele>162</ele>
        <time>2012-02-26T10:44:58Z</time>
      </trkpt>
      <trkpt lat="45.34205" lon="1.1544">
        <ele>162</ele>
        <time>2012-02-26T10:45:00Z</time>
      </trkpt>
      <trkpt lat="45.34205" lon="1.15448">
        <ele>162</ele>
        <time>2012-02-26T10:45:02Z</time>
      </trkpt>
      <trkpt lat="45.34202" lon="1.15456">
        <ele>162</ele>
        <time>2012-02-26T10:45:04Z</time>
      </trkpt>
      <trkpt lat="45.34199" lon="1.15461">
        <ele>162</ele>
        <time>2012-02-26T10:45:06Z</time>
      </trkpt>
      <trkpt lat="45.34197" lon="1.15469">
        <ele>162</ele>
        <time>2012-02-26T10:45:08Z</time>
      </trkpt>
      <trkpt lat="45.34194" lon="1.15475">
        <ele>163</ele>
        <time>2012-02-26T10:45:10Z</time>
      </trkpt>
      <trkpt lat="45.34192" lon="1.15482">
        <ele>164</ele>
        <time>2012-02-26T10:45:12Z</time>
      </trkpt>
      <trkpt lat="45.34192" lon="1.15489">
        <ele>164</ele>
        <time>2012-02-26T10:45:14Z</time>
      </trkpt>
      <trkpt lat="45.34194" lon="1.15496">
        <ele>164</ele>
        <time>2012-02-26T10:45:16Z</time>
      </trkpt>
      <trkpt lat="45.34194" lon="1.15501">
        <ele>164</ele>
        <time>2012-02-26T10:45:18Z</time>
      </trkpt>
      <trkpt lat="45.34195" lon="1.15508">
        <ele>164</ele>
        <time>2012-02-26T10:45:20Z</time>
      </trkpt>
      <trkpt lat="45.34198" lon="1.15513">
        <ele>164</ele>
        <time>2012-02-26T10:45:22Z</time>
      </trkpt>
      <trkpt lat="45.342" lon="1.15518">
        <ele>164</ele>
        <time>2012-02-26T10:45:24Z</time>
      </trkpt>
      <trkpt lat="45.34202" lon="1.15519">
        <ele>164</ele>
        <time>2012-02-26T10:45:26Z</time>
      </trkpt>
      <trkpt lat="45.34206" lon="1.15523">
        <ele>164</ele>
        <time>2012-02-26T10:45:28Z</time>
      </trkpt>
      <trkpt lat="45.3421" lon="1.15528">
        <ele>164</ele>
        <time>2012-02-26T10:45:30Z</time>
      </trkpt>
      <trkpt lat="45.34212" lon="1.15531">
        <ele>164</ele>
        <time>2012-02-26T10:45:33Z</time>
      </trkpt>
      <trkpt lat="45.34214" lon="1.15535">
        <ele>164</ele>
        <time>2012-02-26T10:45:35Z</time>
      </trkpt>
      <trkpt lat="45.34218" lon="1.15537">
        <ele>164</ele>
        <time>2012-02-26T10:45:37Z</time>
      </trkpt>
      <trkpt lat="45.34224" lon="1.1554">
        <ele>164</ele>
        <time>2012-02-26T10:45:39Z</time>
      </trkpt>
      <trkpt lat="45.3423" lon="1.15542">
        <ele>164</ele>
        <time>2012-02-26T10:45:41Z</time>
      </trkpt>
      <trkpt lat="45.34236" lon="1.15543">
        <ele>164</ele>
        <time>2012-02-26T10:45:43Z</time>
      </trkpt>
      <trkpt lat="45.3424" lon="1.15545">
        <ele>164</ele>
        <time>2012-02-26T10:45:45Z</time>
      </trkpt>
      <trkpt lat="45.34244" lon="1.15545">
        <ele>164</ele>
        <time>2012-02-26T10:45:47Z</time>
      </trkpt>
      <trkpt lat="45.34249" lon="1.15546">
        <ele>164</ele>
        <time>2012-02-26T10:45:49Z</time>
      </trkpt>
      <trkpt lat="45.34255" lon="1.15546">
        <ele>164</ele>
        <time>2012-02-26T10:45:51Z</time>
      </trkpt>
      <trkpt lat="45.3426" lon="1.15546">
        <ele>164</ele>
        <time>2012-02-26T10:45:53Z</time>
      </trkpt>
      <trkpt lat="45.34265" lon="1.15544">
        <ele>164</ele>
        <time>2012-02-26T10:45:55Z</time>
      </trkpt>
      <trkpt lat="45.34271" lon="1.15541">
        <ele>164</ele>
        <time>2012-02-26T10:45:57Z</time>
      </trkpt>
      <trkpt lat="45.34276" lon="1.15539">
        <ele>164</ele>
        <time>2012-02-26T10:45:59Z</time>
      </trkpt>
      <trkpt lat="45.34281" lon="1.15538">
        <ele>164</ele>
        <time>2012-02-26T10:46:01Z</time>
      </trkpt>
      <trkpt lat="45.34287" lon="1.15535">
        <ele>164</ele>
        <time>2012-02-26T10:46:03Z</time>
      </trkpt>
      <trkpt lat="45.34291" lon="1.15531">
        <ele>164</ele>
        <time>2012-02-26T10:46:05Z</time>
      </trkpt>
      <trkpt lat="45.34294" lon="1.15527">
        <ele>164</ele>
        <time>2012-02-26T10:46:07Z</time>
      </trkpt>
      <trkpt lat="45.34298" lon="1.15523">
        <ele>165</ele>
        <time>2012-02-26T10:46:09Z</time>
      </trkpt>
      <trkpt lat="45.34301" lon="1.15518">
        <ele>167</ele>
        <time>2012-02-26T10:46:11Z</time>
      </trkpt>
      <trkpt lat="45.34304" lon="1.15513">
        <ele>169</ele>
        <time>2012-02-26T10:46:13Z</time>
      </trkpt>
      <trkpt lat="45.34306" lon="1.15508">
        <ele>169</ele>
        <time>2012-02-26T10:46:15Z</time>
      </trkpt>
      <trkpt lat="45.34309" lon="1.15503">
        <ele>169</ele>
        <time>2012-02-26T10:46:17Z</time>
      </trkpt>
      <trkpt lat="45.34312" lon="1.15497">
        <ele>169</ele>
        <time>2012-02-26T10:46:19Z</time>
      </trkpt>
      <trkpt lat="45.34316" lon="1.15491">
        <ele>169</ele>
        <time>2012-02-26T10:46:21Z</time>
      </trkpt>
      <trkpt lat="45.3432" lon="1.15485">
        <ele>169</ele>
        <time>2012-02-26T10:46:23Z</time>
      </trkpt>
      <trkpt lat="45.34322" lon="1.15479">
        <ele>169</ele>
        <time>2012-02-26T10:46:25Z</time>
      </trkpt>
      <trkpt lat="45.34323" lon="1.15472">
        <ele>168</ele>
        <time>2012-02-26T10:46:27Z</time>
      </trkpt>
      <trkpt lat="45.34324" lon="1.15465">
        <ele>166</ele>
        <time>2012-02-26T10:46:29Z</time>
      </trkpt>
      <trkpt lat="45.34325" lon="1.1546">
        <ele>165</ele>
        <time>2012-02-26T10:46:31Z</time>
      </trkpt>
      <trkpt lat="45.34326" lon="1.15456">
        <ele>165</ele>
        <time>2012-02-26T10:46:33Z</time>
      </trkpt>
      <trkpt lat="45.34327" lon="1.1545">
        <ele>165</ele>
        <time>2012-02-26T10:46:35Z</time>
      </trkpt>
      <trkpt lat="45.34329" lon="1.15445">
        <ele>165</ele>
        <time>2012-02-26T10:46:37Z</time>
      </trkpt>
      <trkpt lat="45.3433" lon="1.1544">
        <ele>164</ele>
        <time>2012-02-26T10:46:39Z</time>
      </trkpt>
      <trkpt lat="45.3433" lon="1.15434">
        <ele>163</ele>
        <time>2012-02-26T10:46:41Z</time>
      </trkpt>
      <trkpt lat="45.3433" lon="1.15429">
        <ele>163</ele>
        <time>2012-02-26T10:46:43Z</time>
      </trkpt>
      <trkpt lat="45.3433" lon="1.15426">
        <ele>163</ele>
        <time>2012-02-26T10:46:45Z</time>
      </trkpt>
      <trkpt lat="45.34331" lon="1.1542">
        <ele>163</ele>
        <time>2012-02-26T10:46:47Z</time>
      </trkpt>
      <trkpt lat="45.34333" lon="1.15413">
        <ele>162</ele>
        <time>2012-02-26T10:46:49Z</time>
      </trkpt>
      <trkpt lat="45.34334" lon="1.15408">
        <ele>161</ele>
        <time>2012-02-26T10:46:52Z</time>
      </trkpt>
      <trkpt lat="45.34334" lon="1.15404">
        <ele>160</ele>
        <time>2012-02-26T10:46:54Z</time>
      </trkpt>
      <trkpt lat="45.34334" lon="1.15401">
        <ele>160</ele>
        <time>2012-02-26T10:46:57Z</time>
      </trkpt>
      <trkpt lat="45.34335" lon="1.15399">
        <ele>160</ele>
        <time>2012-02-26T10:46:59Z</time>
      </trkpt>
      <trkpt lat="45.34335" lon="1.15395">
        <ele>160</ele>
        <time>2012-02-26T10:47:01Z</time>
      </trkpt>
      <trkpt lat="45.34335" lon="1.15391">
        <ele>160</ele>
        <time>2012-02-26T10:47:03Z</time>
      </trkpt>
      <trkpt lat="45.34334" lon="1.15386">
        <ele>160</ele>
        <time>2012-02-26T10:47:05Z</time>
      </trkpt>
      <trkpt lat="45.34335" lon="1.15382">
        <ele>160</ele>
        <time>2012-02-26T10:47:07Z</time>
      </trkpt>
      <trkpt lat="45.34337" lon="1.15378">
        <ele>160</ele>
        <time>2012-02-26T10:47:09Z</time>
      </trkpt>
      <trkpt lat="45.34338" lon="1.15375">
        <ele>160</ele>
        <time>2012-02-26T10:47:11Z</time>
      </trkpt>
      <trkpt lat="45.3434" lon="1.15371">
        <ele>160</ele>
        <time>2012-02-26T10:47:13Z</time>
      </trkpt>
      <trkpt lat="45.34342" lon="1.15371">
        <ele>160</ele>
        <time>2012-02-26T10:47:15Z</time>
      </trkpt>
      <trkpt lat="45.34346" lon="1.15371">
        <ele>162</ele>
        <time>2012-02-26T10:47:17Z</time>
      </trkpt>
      <trkpt lat="45.34351" lon="1.15366">
        <ele>164</ele>
        <time>2012-02-26T10:47:19Z</time>
      </trkpt>
      <trkpt lat="45.34354" lon="1.1536">
        <ele>166</ele>
        <time>2012-02-26T10:47:21Z</time>
      </trkpt>
      <trkpt lat="45.34356" lon="1.15353">
        <ele>166</ele>
        <time>2012-02-26T10:47:23Z</time>
      </trkpt>
      <trkpt lat="45.34359" lon="1.15349">
        <ele>166</ele>
        <time>2012-02-26T10:47:25Z</time>
      </trkpt>
      <trkpt lat="45.34362" lon="1.15345">
        <ele>167</ele>
        <time>2012-02-26T10:47:27Z</time>
      </trkpt>
      <trkpt lat="45.34364" lon="1.15341">
        <ele>167</ele>
        <time>2012-02-26T10:47:29Z</time>
      </trkpt>
      <trkpt lat="45.34367" lon="1.15337">
        <ele>167</ele>
        <time>2012-02-26T10:47:32Z</time>
      </trkpt>
      <trkpt lat="45.34369" lon="1.15334">
        <ele>167</ele>
        <time>2012-02-26T10:47:34Z</time>
      </trkpt>
      <trkpt lat="45.3437" lon="1.15332">
        <ele>167</ele>
        <time>2012-02-26T10:47:36Z</time>
      </trkpt>
      <trkpt lat="45.34371" lon="1.1533">
        <ele>167</ele>
        <time>2012-02-26T10:47:38Z</time>
      </trkpt>
      <trkpt lat="45.34372" lon="1.15329">
        <ele>167</ele>
        <time>2012-02-26T10:47:40Z</time>
      </trkpt>
      <trkpt lat="45.34374" lon="1.15328">
        <ele>167</ele>
        <time>2012-02-26T10:47:42Z</time>
      </trkpt>
      <trkpt lat="45.34377" lon="1.15328">
        <ele>167</ele>
        <time>2012-02-26T10:47:45Z</time>
      </trkpt>
      <trkpt lat="45.34379" lon="1.15326">
        <ele>167</ele>
        <time>2012-02-26T10:47:47Z</time>
      </trkpt>
      <trkpt lat="45.34384" lon="1.15324">
        <ele>169</ele>
        <time>2012-02-26T10:47:49Z</time>
      </trkpt>
      <trkpt lat="45.34388" lon="1.15322">
        <ele>171</ele>
        <time>2012-02-26T10:47:51Z</time>
      </trkpt>
      <trkpt lat="45.34395" lon="1.1532">
        <ele>173</ele>
        <time>2012-02-26T10:47:53Z</time>
      </trkpt>
      <trkpt lat="45.344" lon="1.15315">
        <ele>174</ele>
        <time>2012-02-26T10:47:55Z</time>
      </trkpt>
      <trkpt lat="45.34404" lon="1.15313">
        <ele>174</ele>
        <time>2012-02-26T10:47:57Z</time>
      </trkpt>
      <trkpt lat="45.34406" lon="1.1531">
        <ele>174</ele>
        <time>2012-02-26T10:47:59Z</time>
      </trkpt>
      <trkpt lat="45.34407" lon="1.15307">
        <ele>174</ele>
        <time>2012-02-26T10:48:01Z</time>
      </trkpt>
      <trkpt lat="45.34408" lon="1.15304">
        <ele>174</ele>
        <time>2012-02-26T10:48:03Z</time>
      </trkpt>
      <trkpt lat="45.3441" lon="1.153">
        <ele>174</ele>
        <time>2012-02-26T10:48:05Z</time>
      </trkpt>
      <trkpt lat="45.34411" lon="1.15297">
        <ele>174</ele>
        <time>2012-02-26T10:48:07Z</time>
      </trkpt>
      <trkpt lat="45.34412" lon="1.15292">
        <ele>174</ele>
        <time>2012-02-26T10:48:09Z</time>
      </trkpt>
      <trkpt lat="45.34414" lon="1.15288">
        <ele>174</ele>
        <time>2012-02-26T10:48:11Z</time>
      </trkpt>
      <trkpt lat="45.34417" lon="1.15282">
        <ele>174</ele>
        <time>2012-02-26T10:48:13Z</time>
      </trkpt>
      <trkpt lat="45.34419" lon="1.15277">
        <ele>174</ele>
        <time>2012-02-26T10:48:15Z</time>
      </trkpt>
      <trkpt lat="45.34421" lon="1.15273">
        <ele>174</ele>
        <time>2012-02-26T10:48:17Z</time>
      </trkpt>
      <trkpt lat="45.34421" lon="1.15272">
        <ele>174</ele>
        <time>2012-02-26T10:48:19Z</time>
      </trkpt>
      <trkpt lat="45.34423" lon="1.15269">
        <ele>174</ele>
        <time>2012-02-26T10:48:22Z</time>
      </trkpt>
      <trkpt lat="45.34427" lon="1.15268">
        <ele>174</ele>
        <time>2012-02-26T10:48:24Z</time>
      </trkpt>
      <trkpt lat="45.34429" lon="1.1527">
        <ele>174</ele>
        <time>2012-02-26T10:48:26Z</time>
      </trkpt>
      <trkpt lat="45.34434" lon="1.15275">
        <ele>175</ele>
        <time>2012-02-26T10:48:28Z</time>
      </trkpt>
      <trkpt lat="45.34441" lon="1.1528">
        <ele>175</ele>
        <time>2012-02-26T10:48:30Z</time>
      </trkpt>
      <trkpt lat="45.3445" lon="1.15281">
        <ele>175</ele>
        <time>2012-02-26T10:48:32Z</time>
      </trkpt>
      <trkpt lat="45.34458" lon="1.15281">
        <ele>177</ele>
        <time>2012-02-26T10:48:34Z</time>
      </trkpt>
      <trkpt lat="45.34465" lon="1.15286">
        <ele>177</ele>
        <time>2012-02-26T10:48:36Z</time>
      </trkpt>
      <trkpt lat="45.34473" lon="1.15291">
        <ele>177</ele>
        <time>2012-02-26T10:48:38Z</time>
      </trkpt>
      <trkpt lat="45.3448" lon="1.15297">
        <ele>177</ele>
        <time>2012-02-26T10:48:40Z</time>
      </trkpt>
      <trkpt lat="45.34486" lon="1.15304">
        <ele>177</ele>
        <time>2012-02-26T10:48:42Z</time>
      </trkpt>
      <trkpt lat="45.34492" lon="1.15311">
        <ele>177</ele>
        <time>2012-02-26T10:48:44Z</time>
      </trkpt>
      <trkpt lat="45.34498" lon="1.15317">
        <ele>177</ele>
        <time>2012-02-26T10:48:46Z</time>
      </trkpt>
      <trkpt lat="45.34501" lon="1.15324">
        <ele>176</ele>
        <time>2012-02-26T10:48:48Z</time>
      </trkpt>
      <trkpt lat="45.34507" lon="1.15328">
        <ele>174</ele>
        <time>2012-02-26T10:48:50Z</time>
      </trkpt>
      <trkpt lat="45.34513" lon="1.15334">
        <ele>172</ele>
        <time>2012-02-26T10:48:52Z</time>
      </trkpt>
      <trkpt lat="45.3452" lon="1.15339">
        <ele>170</ele>
        <time>2012-02-26T10:48:54Z</time>
      </trkpt>
      <trkpt lat="45.34524" lon="1.15343">
        <ele>169</ele>
        <time>2012-02-26T10:48:56Z</time>
      </trkpt>
      <trkpt lat="45.34528" lon="1.1535">
        <ele>168</ele>
        <time>2012-02-26T10:48:58Z</time>
      </trkpt>
      <trkpt lat="45.34532" lon="1.1536">
        <ele>168</ele>
        <time>2012-02-26T10:49:00Z</time>
      </trkpt>
      <trkpt lat="45.34536" lon="1.15368">
        <ele>168</ele>
        <time>2012-02-26T10:49:02Z</time>
      </trkpt>
      <trkpt lat="45.34538" lon="1.15376">
        <ele>168</ele>
        <time>2012-02-26T10:49:04Z</time>
      </trkpt>
      <trkpt lat="45.34542" lon="1.15385">
        <ele>168</ele>
        <time>2012-02-26T10:49:06Z</time>
      </trkpt>
      <trkpt lat="45.34544" lon="1.1539">
        <ele>168</ele>
        <time>2012-02-26T10:49:08Z</time>
      </trkpt>
      <trkpt lat="45.34547" lon="1.15395">
        <ele>168</ele>
        <time>2012-02-26T10:49:10Z</time>
      </trkpt>
      <trkpt lat="45.34551" lon="1.15398">
        <ele>168</ele>
        <time>2012-02-26T10:49:12Z</time>
      </trkpt>
      <trkpt lat="45.34556" lon="1.15402">
        <ele>168</ele>
        <time>2012-02-26T10:49:14Z</time>
      </trkpt>
      <trkpt lat="45.34559" lon="1.15409">
        <ele>168</ele>
        <time>2012-02-26T10:49:16Z</time>
      </trkpt>
      <trkpt lat="45.34562" lon="1.15417">
        <ele>168</ele>
        <time>2012-02-26T10:49:18Z</time>
      </trkpt>
      <trkpt lat="45.34566" lon="1.15424">
        <ele>168</ele>
        <time>2012-02-26T10:49:20Z</time>
      </trkpt>
      <trkpt lat="45.34568" lon="1.15431">
        <ele>168</ele>
        <time>2012-02-26T10:49:22Z</time>
      </trkpt>
      <trkpt lat="45.3457" lon="1.15439">
        <ele>168</ele>
        <time>2012-02-26T10:49:24Z</time>
      </trkpt>
      <trkpt lat="45.34571" lon="1.15446">
        <ele>168</ele>
        <time>2012-02-26T10:49:26Z</time>
      </trkpt>
      <trkpt lat="45.34575" lon="1.15451">
        <ele>169</ele>
        <time>2012-02-26T10:49:28Z</time>
      </trkpt>
      <trkpt lat="45.34581" lon="1.15456">
        <ele>170</ele>
        <time>2012-02-26T10:49:30Z</time>
      </trkpt>
      <trkpt lat="45.34589" lon="1.15461">
        <ele>171</ele>
        <time>2012-02-26T10:49:32Z</time>
      </trkpt>
      <trkpt lat="45.34592" lon="1.15466">
        <ele>171</ele>
        <time>2012-02-26T10:49:34Z</time>
      </trkpt>
      <trkpt lat="45.34596" lon="1.15471">
        <ele>172</ele>
        <time>2012-02-26T10:49:36Z</time>
      </trkpt>
      <trkpt lat="45.34599" lon="1.15476">
        <ele>172</ele>
        <time>2012-02-26T10:49:38Z</time>
      </trkpt>
      <trkpt lat="45.34604" lon="1.15481">
        <ele>172</ele>
        <time>2012-02-26T10:49:40Z</time>
      </trkpt>
      <trkpt lat="45.34608" lon="1.15485">
        <ele>172</ele>
        <time>2012-02-26T10:49:42Z</time>
      </trkpt>
      <trkpt lat="45.34612" lon="1.1549">
        <ele>172</ele>
        <time>2012-02-26T10:49:44Z</time>
      </trkpt>
      <trkpt lat="45.34616" lon="1.15495">
        <ele>172</ele>
        <time>2012-02-26T10:49:46Z</time>
      </trkpt>
      <trkpt lat="45.3462" lon="1.15499">
        <ele>172</ele>
        <time>2012-02-26T10:49:48Z</time>
      </trkpt>
      <trkpt lat="45.34624" lon="1.15504">
        <ele>172</ele>
        <time>2012-02-26T10:49:50Z</time>
      </trkpt>
      <trkpt lat="45.34628" lon="1.15508">
        <ele>172</ele>
        <time>2012-02-26T10:49:52Z</time>
      </trkpt>
      <trkpt lat="45.34632" lon="1.15512">
        <ele>172</ele>
        <time>2012-02-26T10:49:54Z</time>
      </trkpt>
      <trkpt lat="45.34636" lon="1.15516">
        <ele>172</ele>
        <time>2012-02-26T10:49:56Z</time>
      </trkpt>
      <trkpt lat="45.3464" lon="1.15522">
        <ele>172</ele>
        <time>2012-02-26T10:49:58Z</time>
      </trkpt>
      <trkpt lat="45.34643" lon="1.15528">
        <ele>172</ele>
        <time>2012-02-26T10:50:00Z</time>
      </trkpt>
      <trkpt lat="45.34646" lon="1.15534">
        <ele>172</ele>
        <time>2012-02-26T10:50:02Z</time>
      </trkpt>
      <trkpt lat="45.34649" lon="1.15541">
        <ele>172</ele>
        <time>2012-02-26T10:50:04Z</time>
      </trkpt>
      <trkpt lat="45.34649" lon="1.15549">
        <ele>172</ele>
        <time>2012-02-26T10:50:06Z</time>
      </trkpt>
      <trkpt lat="45.34651" lon="1.15558">
        <ele>172</ele>
        <time>2012-02-26T10:50:08Z</time>
      </trkpt>
      <trkpt lat="45.34655" lon="1.15567">
        <ele>172</ele>
        <time>2012-02-26T10:50:10Z</time>
      </trkpt>
      <trkpt lat="45.3466" lon="1.15572">
        <ele>172</ele>
        <time>2012-02-26T10:50:12Z</time>
      </trkpt>
      <trkpt lat="45.34664" lon="1.15577">
        <ele>172</ele>
        <time>2012-02-26T10:50:14Z</time>
      </trkpt>
      <trkpt lat="45.34666" lon="1.15585">
        <ele>172</ele>
        <time>2012-02-26T10:50:16Z</time>
      </trkpt>
      <trkpt lat="45.34667" lon="1.15592">
        <ele>172</ele>
        <time>2012-02-26T10:50:18Z</time>
      </trkpt>
      <trkpt lat="45.3467" lon="1.15598">
        <ele>172</ele>
        <time>2012-02-26T10:50:20Z</time>
      </trkpt>
      <trkpt lat="45.34671" lon="1.15603">
        <ele>170</ele>
        <time>2012-02-26T10:50:22Z</time>
      </trkpt>
      <trkpt lat="45.34672" lon="1.15607">
        <ele>169</ele>
        <time>2012-02-26T10:50:24Z</time>
      </trkpt>
      <trkpt lat="45.34673" lon="1.15611">
        <ele>168</ele>
        <time>2012-02-26T10:50:26Z</time>
      </trkpt>
      <trkpt lat="45.34676" lon="1.15616">
        <ele>167</ele>
        <time>2012-02-26T10:50:28Z</time>
      </trkpt>
      <trkpt lat="45.34679" lon="1.15624">
        <ele>166</ele>
        <time>2012-02-26T10:50:30Z</time>
      </trkpt>
      <trkpt lat="45.34683" lon="1.15632">
        <ele>166</ele>
        <time>2012-02-26T10:50:32Z</time>
      </trkpt>
      <trkpt lat="45.34683" lon="1.1564">
        <ele>166</ele>
        <time>2012-02-26T10:50:34Z</time>
      </trkpt>
      <trkpt lat="45.34684" lon="1.1565">
        <ele>166</ele>
        <time>2012-02-26T10:50:36Z</time>
      </trkpt>
      <trkpt lat="45.34685" lon="1.15656">
        <ele>166</ele>
        <time>2012-02-26T10:50:38Z</time>
      </trkpt>
      <trkpt lat="45.34686" lon="1.15664">
        <ele>166</ele>
        <time>2012-02-26T10:50:40Z</time>
      </trkpt>
      <trkpt lat="45.34687" lon="1.15672">
        <ele>166</ele>
        <time>2012-02-26T10:50:42Z</time>
      </trkpt>
      <trkpt lat="45.34688" lon="1.1568">
        <ele>166</ele>
        <time>2012-02-26T10:50:44Z</time>
      </trkpt>
      <trkpt lat="45.34688" lon="1.15687">
        <ele>166</ele>
        <time>2012-02-26T10:50:46Z</time>
      </trkpt>
      <trkpt lat="45.34689" lon="1.15696">
        <ele>166</ele>
        <time>2012-02-26T10:50:48Z</time>
      </trkpt>
      <trkpt lat="45.34689" lon="1.15705">
        <ele>166</ele>
        <time>2012-02-26T10:50:50Z</time>
      </trkpt>
      <trkpt lat="45.34689" lon="1.15713">
        <ele>166</ele>
        <time>2012-02-26T10:50:52Z</time>
      </trkpt>
      <trkpt lat="45.34691" lon="1.15722">
        <ele>166</ele>
        <time>2012-02-26T10:50:54Z</time>
      </trkpt>
      <trkpt lat="45.34692" lon="1.15729">
        <ele>166</ele>
        <time>2012-02-26T10:50:56Z</time>
      </trkpt>
      <trkpt lat="45.34694" lon="1.15737">
        <ele>167</ele>
        <time>2012-02-26T10:50:58Z</time>
      </trkpt>
      <trkpt lat="45.34695" lon="1.15746">
        <ele>167</ele>
        <time>2012-02-26T10:51:00Z</time>
      </trkpt>
      <trkpt lat="45.34696" lon="1.15754">
        <ele>167</ele>
        <time>2012-02-26T10:51:02Z</time>
      </trkpt>
      <trkpt lat="45.34696" lon="1.15761">
        <ele>167</ele>
        <time>2012-02-26T10:51:04Z</time>
      </trkpt>
      <trkpt lat="45.34695" lon="1.1577">
        <ele>167</ele>
        <time>2012-02-26T10:51:06Z</time>
      </trkpt>
      <trkpt lat="45.34695" lon="1.15776">
        <ele>167</ele>
        <time>2012-02-26T10:51:08Z</time>
      </trkpt>
      <trkpt lat="45.34696" lon="1.15783">
        <ele>167</ele>
        <time>2012-02-26T10:51:10Z</time>
      </trkpt>
      <trkpt lat="45.34697" lon="1.15788">
        <ele>167</ele>
        <time>2012-02-26T10:51:12Z</time>
      </trkpt>
      <trkpt lat="45.34697" lon="1.15797">
        <ele>167</ele>
        <time>2012-02-26T10:51:14Z</time>
      </trkpt>
      <trkpt lat="45.34698" lon="1.15804">
        <ele>167</ele>
        <time>2012-02-26T10:51:16Z</time>
      </trkpt>
      <trkpt lat="45.347" lon="1.15811">
        <ele>166</ele>
        <time>2012-02-26T10:51:18Z</time>
      </trkpt>
      <trkpt lat="45.34701" lon="1.15818">
        <ele>164</ele>
        <time>2012-02-26T10:51:20Z</time>
      </trkpt>
      <trkpt lat="45.34703" lon="1.15824">
        <ele>163</ele>
        <time>2012-02-26T10:51:22Z</time>
      </trkpt>
      <trkpt lat="45.34704" lon="1.15832">
        <ele>162</ele>
        <time>2012-02-26T10:51:24Z</time>
      </trkpt>
      <trkpt lat="45.34705" lon="1.15838">
        <ele>162</ele>
        <time>2012-02-26T10:51:26Z</time>
      </trkpt>
      <trkpt lat="45.34706" lon="1.15846">
        <ele>162</ele>
        <time>2012-02-26T10:51:28Z</time>
      </trkpt>
      <trkpt lat="45.34705" lon="1.15854">
        <ele>162</ele>
        <time>2012-02-26T10:51:30Z</time>
      </trkpt>
      <trkpt lat="45.34707" lon="1.15862">
        <ele>162</ele>
        <time>2012-02-26T10:51:32Z</time>
      </trkpt>
      <trkpt lat="45.34708" lon="1.15869">
        <ele>162</ele>
        <time>2012-02-26T10:51:34Z</time>
      </trkpt>
      <trkpt lat="45.34708" lon="1.1588">
        <ele>162</ele>
        <time>2012-02-26T10:51:36Z</time>
      </trkpt>
      <trkpt lat="45.34709" lon="1.15886">
        <ele>162</ele>
        <time>2012-02-26T10:51:38Z</time>
      </trkpt>
      <trkpt lat="45.34707" lon="1.15898">
        <ele>162</ele>
        <time>2012-02-26T10:51:40Z</time>
      </trkpt>
      <trkpt lat="45.34702" lon="1.15913">
        <ele>162</ele>
        <time>2012-02-26T10:51:43Z</time>
      </trkpt>
      <trkpt lat="45.34702" lon="1.15923">
        <ele>162</ele>
        <time>2012-02-26T10:51:45Z</time>
      </trkpt>
      <trkpt lat="45.34703" lon="1.15935">
        <ele>162</ele>
        <time>2012-02-26T10:51:47Z</time>
      </trkpt>
      <trkpt lat="45.347" lon="1.15945">
        <ele>164</ele>
        <time>2012-02-26T10:51:49Z</time>
      </trkpt>
      <trkpt lat="45.34696" lon="1.15953">
        <ele>165</ele>
        <time>2012-02-26T10:51:51Z</time>
      </trkpt>
      <trkpt lat="45.34695" lon="1.15962">
        <ele>166</ele>
        <time>2012-02-26T10:51:53Z</time>
      </trkpt>
      <trkpt lat="45.34696" lon="1.15969">
        <ele>167</ele>
        <time>2012-02-26T10:51:55Z</time>
      </trkpt>
      <trkpt lat="45.34695" lon="1.15977">
        <ele>167</ele>
        <time>2012-02-26T10:51:57Z</time>
      </trkpt>
      <trkpt lat="45.34693" lon="1.15986">
        <ele>167</ele>
        <time>2012-02-26T10:51:59Z</time>
      </trkpt>
      <trkpt lat="45.34689" lon="1.15995">
        <ele>167</ele>
        <time>2012-02-26T10:52:01Z</time>
      </trkpt>
      <trkpt lat="45.34686" lon="1.16003">
        <ele>167</ele>
        <time>2012-02-26T10:52:03Z</time>
      </trkpt>
      <trkpt lat="45.34683" lon="1.1601">
        <ele>167</ele>
        <time>2012-02-26T10:52:05Z</time>
      </trkpt>
      <trkpt lat="45.34681" lon="1.16017">
        <ele>168</ele>
        <time>2012-02-26T10:52:07Z</time>
      </trkpt>
      <trkpt lat="45.3468" lon="1.16024">
        <ele>168</ele>
        <time>2012-02-26T10:52:09Z</time>
      </trkpt>
      <trkpt lat="45.34678" lon="1.16032">
        <ele>168</ele>
        <time>2012-02-26T10:52:11Z</time>
      </trkpt>
      <trkpt lat="45.34675" lon="1.16038">
        <ele>168</ele>
        <time>2012-02-26T10:52:13Z</time>
      </trkpt>
      <trkpt lat="45.34669" lon="1.16045">
        <ele>168</ele>
        <time>2012-02-26T10:52:15Z</time>
      </trkpt>
      <trkpt lat="45.34666" lon="1.16052">
        <ele>168</ele>
        <time>2012-02-26T10:52:17Z</time>
      </trkpt>
      <trkpt lat="45.34662" lon="1.16062">
        <ele>168</ele>
        <time>2012-02-26T10:52:19Z</time>
      </trkpt>
      <trkpt lat="45.34661" lon="1.16071">
        <ele>169</ele>
        <time>2012-02-26T10:52:21Z</time>
      </trkpt>
      <trkpt lat="45.34659" lon="1.16077">
        <ele>169</ele>
        <time>2012-02-26T10:52:23Z</time>
      </trkpt>
      <trkpt lat="45.34658" lon="1.16085">
        <ele>169</ele>
        <time>2012-02-26T10:52:25Z</time>
      </trkpt>
      <trkpt lat="45.34657" lon="1.16092">
        <ele>169</ele>
        <time>2012-02-26T10:52:27Z</time>
      </trkpt>
      <trkpt lat="45.34655" lon="1.16101">
        <ele>169</ele>
        <time>2012-02-26T10:52:29Z</time>
      </trkpt>
      <trkpt lat="45.34653" lon="1.1611">
        <ele>170</ele>
        <time>2012-02-26T10:52:31Z</time>
      </trkpt>
      <trkpt lat="45.34649" lon="1.16114">
        <ele>171</ele>
        <time>2012-02-26T10:52:33Z</time>
      </trkpt>
      <trkpt lat="45.34645" lon="1.16119">
        <ele>172</ele>
        <time>2012-02-26T10:52:35Z</time>
      </trkpt>
      <trkpt lat="45.34641" lon="1.16125">
        <ele>172</ele>
        <time>2012-02-26T10:52:37Z</time>
      </trkpt>
      <trkpt lat="45.34636" lon="1.16133">
        <ele>172</ele>
        <time>2012-02-26T10:52:39Z</time>
      </trkpt>
      <trkpt lat="45.34633" lon="1.16137">
        <ele>172</ele>
        <time>2012-02-26T10:52:41Z</time>
      </trkpt>
      <trkpt lat="45.34631" lon="1.16143">
        <ele>172</ele>
        <time>2012-02-26T10:52:43Z</time>
      </trkpt>
      <trkpt lat="45.34629" lon="1.16151">
        <ele>172</ele>
        <time>2012-02-26T10:52:45Z</time>
      </trkpt>
      <trkpt lat="45.34626" lon="1.16156">
        <ele>172</ele>
        <time>2012-02-26T10:52:47Z</time>
      </trkpt>
      <trkpt lat="45.34624" lon="1.16163">
        <ele>172</ele>
        <time>2012-02-26T10:52:49Z</time>
      </trkpt>
      <trkpt lat="45.34621" lon="1.16168">
        <ele>172</ele>
        <time>2012-02-26T10:52:51Z</time>
      </trkpt>
      <trkpt lat="45.34617" lon="1.16173">
        <ele>172</ele>
        <time>2012-02-26T10:52:53Z</time>
      </trkpt>
      <trkpt lat="45.34613" lon="1.16177">
        <ele>172</ele>
        <time>2012-02-26T10:52:55Z</time>
      </trkpt>
      <trkpt lat="45.3461" lon="1.16182">
        <ele>172</ele>
        <time>2012-02-26T10:52:57Z</time>
      </trkpt>
      <trkpt lat="45.34608" lon="1.16184">
        <ele>172</ele>
        <time>2012-02-26T10:52:59Z</time>
      </trkpt>
      <trkpt lat="45.34605" lon="1.16188">
        <ele>172</ele>
        <time>2012-02-26T10:53:01Z</time>
      </trkpt>
      <trkpt lat="45.346" lon="1.1619">
        <ele>172</ele>
        <time>2012-02-26T10:53:03Z</time>
      </trkpt>
      <trkpt lat="45.34597" lon="1.1619">
        <ele>172</ele>
        <time>2012-02-26T10:53:05Z</time>
      </trkpt>
      <trkpt lat="45.34594" lon="1.16195">
        <ele>172</ele>
        <time>2012-02-26T10:53:07Z</time>
      </trkpt>
      <trkpt lat="45.34592" lon="1.16197">
        <ele>172</ele>
        <time>2012-02-26T10:53:09Z</time>
      </trkpt>
      <trkpt lat="45.34587" lon="1.16198">
        <ele>172</ele>
        <time>2012-02-26T10:53:11Z</time>
      </trkpt>
      <trkpt lat="45.34582" lon="1.162">
        <ele>172</ele>
        <time>2012-02-26T10:53:13Z</time>
      </trkpt>
      <trkpt lat="45.34577" lon="1.16204">
        <ele>171</ele>
        <time>2012-02-26T10:53:15Z</time>
      </trkpt>
      <trkpt lat="45.34573" lon="1.16209">
        <ele>169</ele>
        <time>2012-02-26T10:53:17Z</time>
      </trkpt>
      <trkpt lat="45.34568" lon="1.16215">
        <ele>169</ele>
        <time>2012-02-26T10:53:19Z</time>
      </trkpt>
      <trkpt lat="45.34565" lon="1.1622">
        <ele>169</ele>
        <time>2012-02-26T10:53:21Z</time>
      </trkpt>
      <trkpt lat="45.34562" lon="1.16226">
        <ele>169</ele>
        <time>2012-02-26T10:53:23Z</time>
      </trkpt>
      <trkpt lat="45.34558" lon="1.16229">
        <ele>169</ele>
        <time>2012-02-26T10:53:25Z</time>
      </trkpt>
      <trkpt lat="45.34554" lon="1.16235">
        <ele>169</ele>
        <time>2012-02-26T10:53:27Z</time>
      </trkpt>
      <trkpt lat="45.34549" lon="1.1624">
        <ele>169</ele>
        <time>2012-02-26T10:53:29Z</time>
      </trkpt>
      <trkpt lat="45.34544" lon="1.16245">
        <ele>168</ele>
        <time>2012-02-26T10:53:31Z</time>
      </trkpt>
      <trkpt lat="45.34541" lon="1.16248">
        <ele>167</ele>
        <time>2012-02-26T10:53:33Z</time>
      </trkpt>
      <trkpt lat="45.34539" lon="1.16253">
        <ele>167</ele>
        <time>2012-02-26T10:53:35Z</time>
      </trkpt>
      <trkpt lat="45.34537" lon="1.16261">
        <ele>167</ele>
        <time>2012-02-26T10:53:37Z</time>
      </trkpt>
      <trkpt lat="45.34536" lon="1.16269">
        <ele>167</ele>
        <time>2012-02-26T10:53:39Z</time>
      </trkpt>
      <trkpt lat="45.34534" lon="1.16276">
        <ele>167</ele>
        <time>2012-02-26T10:53:41Z</time>
      </trkpt>
      <trkpt lat="45.34532" lon="1.16284">
        <ele>168</ele>
        <time>2012-02-26T10:53:43Z</time>
      </trkpt>
      <trkpt lat="45.3453" lon="1.16292">
        <ele>169</ele>
        <time>2012-02-26T10:53:45Z</time>
      </trkpt>
      <trkpt lat="45.34528" lon="1.16299">
        <ele>170</ele>
        <time>2012-02-26T10:53:47Z</time>
      </trkpt>
      <trkpt lat="45.34527" lon="1.16307">
        <ele>170</ele>
        <time>2012-02-26T10:53:49Z</time>
      </trkpt>
      <trkpt lat="45.34528" lon="1.16316">
        <ele>170</ele>
        <time>2012-02-26T10:53:51Z</time>
      </trkpt>
      <trkpt lat="45.34531" lon="1.16323">
        <ele>170</ele>
        <time>2012-02-26T10:53:53Z</time>
      </trkpt>
      <trkpt lat="45.34532" lon="1.1633">
        <ele>170</ele>
        <time>2012-02-26T10:53:55Z</time>
      </trkpt>
      <trkpt lat="45.34535" lon="1.16338">
        <ele>170</ele>
        <time>2012-02-26T10:53:57Z</time>
      </trkpt>
      <trkpt lat="45.34538" lon="1.16344">
        <ele>170</ele>
        <time>2012-02-26T10:53:59Z</time>
      </trkpt>
      <trkpt lat="45.34541" lon="1.16352">
        <ele>170</ele>
        <time>2012-02-26T10:54:01Z</time>
      </trkpt>
      <trkpt lat="45.34544" lon="1.16358">
        <ele>170</ele>
        <time>2012-02-26T10:54:03Z</time>
      </trkpt>
      <trkpt lat="45.3455" lon="1.16365">
        <ele>170</ele>
        <time>2012-02-26T10:54:05Z</time>
      </trkpt>
      <trkpt lat="45.34555" lon="1.16371">
        <ele>170</ele>
        <time>2012-02-26T10:54:07Z</time>
      </trkpt>
      <trkpt lat="45.34561" lon="1.16375">
        <ele>170</ele>
        <time>2012-02-26T10:54:09Z</time>
      </trkpt>
      <trkpt lat="45.34565" lon="1.16381">
        <ele>170</ele>
        <time>2012-02-26T10:54:11Z</time>
      </trkpt>
      <trkpt lat="45.34568" lon="1.16389">
        <ele>170</ele>
        <time>2012-02-26T10:54:13Z</time>
      </trkpt>
      <trkpt lat="45.3457" lon="1.16396">
        <ele>170</ele>
        <time>2012-02-26T10:54:15Z</time>
      </trkpt>
      <trkpt lat="45.34573" lon="1.16403">
        <ele>170</ele>
        <time>2012-02-26T10:54:17Z</time>
      </trkpt>
      <trkpt lat="45.34576" lon="1.16411">
        <ele>170</ele>
        <time>2012-02-26T10:54:19Z</time>
      </trkpt>
      <trkpt lat="45.34579" lon="1.16416">
        <ele>170</ele>
        <time>2012-02-26T10:54:21Z</time>
      </trkpt>
      <trkpt lat="45.34583" lon="1.16422">
        <ele>170</ele>
        <time>2012-02-26T10:54:23Z</time>
      </trkpt>
      <trkpt lat="45.34587" lon="1.16429">
        <ele>170</ele>
        <time>2012-02-26T10:54:25Z</time>
      </trkpt>
      <trkpt lat="45.34591" lon="1.16433">
        <ele>170</ele>
        <time>2012-02-26T10:54:27Z</time>
      </trkpt>
      <trkpt lat="45.34596" lon="1.16437">
        <ele>170</ele>
        <time>2012-02-26T10:54:29Z</time>
      </trkpt>
      <trkpt lat="45.34599" lon="1.16442">
        <ele>170</ele>
        <time>2012-02-26T10:54:31Z</time>
      </trkpt>
      <trkpt lat="45.34604" lon="1.16445">
        <ele>170</ele>
        <time>2012-02-26T10:54:33Z</time>
      </trkpt>
      <trkpt lat="45.34609" lon="1.16449">
        <ele>170</ele>
        <time>2012-02-26T10:54:35Z</time>
      </trkpt>
      <trkpt lat="45.34613" lon="1.16455">
        <ele>170</ele>
        <time>2012-02-26T10:54:37Z</time>
      </trkpt>
      <trkpt lat="45.34617" lon="1.1646">
        <ele>170</ele>
        <time>2012-02-26T10:54:39Z</time>
      </trkpt>
      <trkpt lat="45.3462" lon="1.16465">
        <ele>170</ele>
        <time>2012-02-26T10:54:41Z</time>
      </trkpt>
      <trkpt lat="45.34624" lon="1.1647">
        <ele>170</ele>
        <time>2012-02-26T10:54:43Z</time>
      </trkpt>
      <trkpt lat="45.34626" lon="1.16477">
        <ele>170</ele>
        <time>2012-02-26T10:54:45Z</time>
      </trkpt>
      <trkpt lat="45.34626" lon="1.16485">
        <ele>170</ele>
        <time>2012-02-26T10:54:47Z</time>
      </trkpt>
      <trkpt lat="45.34627" lon="1.16492">
        <ele>170</ele>
        <time>2012-02-26T10:54:49Z</time>
      </trkpt>
      <trkpt lat="45.34629" lon="1.16498">
        <ele>170</ele>
        <time>2012-02-26T10:54:51Z</time>
      </trkpt>
      <trkpt lat="45.34633" lon="1.16504">
        <ele>170</ele>
        <time>2012-02-26T10:54:53Z</time>
      </trkpt>
      <trkpt lat="45.34636" lon="1.16511">
        <ele>170</ele>
        <time>2012-02-26T10:54:55Z</time>
      </trkpt>
      <trkpt lat="45.34638" lon="1.16516">
        <ele>170</ele>
        <time>2012-02-26T10:54:57Z</time>
      </trkpt>
      <trkpt lat="45.3464" lon="1.16523">
        <ele>170</ele>
        <time>2012-02-26T10:54:59Z</time>
      </trkpt>
      <trkpt lat="45.34643" lon="1.16528">
        <ele>170</ele>
        <time>2012-02-26T10:55:01Z</time>
      </trkpt>
      <trkpt lat="45.34645" lon="1.16534">
        <ele>170</ele>
        <time>2012-02-26T10:55:03Z</time>
      </trkpt>
      <trkpt lat="45.34647" lon="1.1654">
        <ele>170</ele>
        <time>2012-02-26T10:55:05Z</time>
      </trkpt>
      <trkpt lat="45.34649" lon="1.16545">
        <ele>170</ele>
        <time>2012-02-26T10:55:07Z</time>
      </trkpt>
      <trkpt lat="45.34651" lon="1.16549">
        <ele>170</ele>
        <time>2012-02-26T10:55:09Z</time>
      </trkpt>
      <trkpt lat="45.34651" lon="1.16552">
        <ele>170</ele>
        <time>2012-02-26T10:55:11Z</time>
      </trkpt>
      <trkpt lat="45.34651" lon="1.16556">
        <ele>170</ele>
        <time>2012-02-26T10:55:13Z</time>
      </trkpt>
      <trkpt lat="45.34654" lon="1.16559">
        <ele>170</ele>
        <time>2012-02-26T10:55:15Z</time>
      </trkpt>
      <trkpt lat="45.34655" lon="1.16563">
        <ele>170</ele>
        <time>2012-02-26T10:55:17Z</time>
      </trkpt>
      <trkpt lat="45.34657" lon="1.16569">
        <ele>170</ele>
        <time>2012-02-26T10:55:19Z</time>
      </trkpt>
      <trkpt lat="45.34657" lon="1.16574">
        <ele>170</ele>
        <time>2012-02-26T10:55:21Z</time>
      </trkpt>
      <trkpt lat="45.34657" lon="1.1658">
        <ele>170</ele>
        <time>2012-02-26T10:55:23Z</time>
      </trkpt>
      <trkpt lat="45.34656" lon="1.16588">
        <ele>171</ele>
        <time>2012-02-26T10:55:25Z</time>
      </trkpt>
      <trkpt lat="45.34655" lon="1.16594">
        <ele>173</ele>
        <time>2012-02-26T10:55:27Z</time>
      </trkpt>
      <trkpt lat="45.34653" lon="1.16601">
        <ele>175</ele>
        <time>2012-02-26T10:55:29Z</time>
      </trkpt>
      <trkpt lat="45.34651" lon="1.16609">
        <ele>177</ele>
        <time>2012-02-26T10:55:31Z</time>
      </trkpt>
      <trkpt lat="45.34649" lon="1.16617">
        <ele>178</ele>
        <time>2012-02-26T10:55:33Z</time>
      </trkpt>
      <trkpt lat="45.34647" lon="1.16625">
        <ele>178</ele>
        <time>2012-02-26T10:55:35Z</time>
      </trkpt>
      <trkpt lat="45.34646" lon="1.16632">
        <ele>178</ele>
        <time>2012-02-26T10:55:37Z</time>
      </trkpt>
      <trkpt lat="45.34642" lon="1.16639">
        <ele>178</ele>
        <time>2012-02-26T10:55:39Z</time>
      </trkpt>
      <trkpt lat="45.34638" lon="1.16649">
        <ele>178</ele>
        <time>2012-02-26T10:55:41Z</time>
      </trkpt>
      <trkpt lat="45.34633" lon="1.16657">
        <ele>180</ele>
        <time>2012-02-26T10:55:43Z</time>
      </trkpt>
      <trkpt lat="45.34628" lon="1.16663">
        <ele>182</ele>
        <time>2012-02-26T10:55:45Z</time>
      </trkpt>
      <trkpt lat="45.34625" lon="1.16668">
        <ele>183</ele>
        <time>2012-02-26T10:55:47Z</time>
      </trkpt>
      <trkpt lat="45.34622" lon="1.16672">
        <ele>183</ele>
        <time>2012-02-26T10:55:49Z</time>
      </trkpt>
      <trkpt lat="45.3462" lon="1.16675">
        <ele>183</ele>
        <time>2012-02-26T10:55:51Z</time>
      </trkpt>
      <trkpt lat="45.34617" lon="1.16677">
        <ele>183</ele>
        <time>2012-02-26T10:55:53Z</time>
      </trkpt>
      <trkpt lat="45.34613" lon="1.16681">
        <ele>183</ele>
        <time>2012-02-26T10:55:55Z</time>
      </trkpt>
      <trkpt lat="45.34609" lon="1.16684">
        <ele>183</ele>
        <time>2012-02-26T10:55:57Z</time>
      </trkpt>
      <trkpt lat="45.34604" lon="1.1669">
        <ele>183</ele>
        <time>2012-02-26T10:55:59Z</time>
      </trkpt>
      <trkpt lat="45.34602" lon="1.16693">
        <ele>183</ele>
        <time>2012-02-26T10:56:01Z</time>
      </trkpt>
      <trkpt lat="45.34598" lon="1.16695">
        <ele>183</ele>
        <time>2012-02-26T10:56:03Z</time>
      </trkpt>
      <trkpt lat="45.34594" lon="1.16699">
        <ele>183</ele>
        <time>2012-02-26T10:56:05Z</time>
      </trkpt>
      <trkpt lat="45.3459" lon="1.167">
        <ele>182</ele>
        <time>2012-02-26T10:56:07Z</time>
      </trkpt>
      <trkpt lat="45.34585" lon="1.16701">
        <ele>182</ele>
        <time>2012-02-26T10:56:09Z</time>
      </trkpt>
      <trkpt lat="45.34579" lon="1.16701">
        <ele>182</ele>
        <time>2012-02-26T10:56:11Z</time>
      </trkpt>
      <trkpt lat="45.34572" lon="1.16702">
        <ele>181</ele>
        <time>2012-02-26T10:56:13Z</time>
      </trkpt>
      <trkpt lat="45.34566" lon="1.16702">
        <ele>181</ele>
        <time>2012-02-26T10:56:15Z</time>
      </trkpt>
      <trkpt lat="45.3456" lon="1.16701">
        <ele>180</ele>
        <time>2012-02-26T10:56:17Z</time>
      </trkpt>
      <trkpt lat="45.34554" lon="1.16701">
        <ele>180</ele>
        <time>2012-02-26T10:56:19Z</time>
      </trkpt>
      <trkpt lat="45.34548" lon="1.16701">
        <ele>180</ele>
        <time>2012-02-26T10:56:21Z</time>
      </trkpt>
      <trkpt lat="45.34538" lon="1.16703">
        <ele>180</ele>
        <time>2012-02-26T10:56:24Z</time>
      </trkpt>
      <trkpt lat="45.34533" lon="1.16703">
        <ele>180</ele>
        <time>2012-02-26T10:56:26Z</time>
      </trkpt>
      <trkpt lat="45.34526" lon="1.16702">
        <ele>180</ele>
        <time>2012-02-26T10:56:28Z</time>
      </trkpt>
      <trkpt lat="45.34519" lon="1.167">
        <ele>180</ele>
        <time>2012-02-26T10:56:30Z</time>
      </trkpt>
      <trkpt lat="45.34514" lon="1.16699">
        <ele>180</ele>
        <time>2012-02-26T10:56:32Z</time>
      </trkpt>
      <trkpt lat="45.34504" lon="1.16699">
        <ele>180</ele>
        <time>2012-02-26T10:56:35Z</time>
      </trkpt>
      <trkpt lat="45.34498" lon="1.16699">
        <ele>180</ele>
        <time>2012-02-26T10:56:37Z</time>
      </trkpt>
      <trkpt lat="45.34492" lon="1.16699">
        <ele>180</ele>
        <time>2012-02-26T10:56:39Z</time>
      </trkpt>
      <trkpt lat="45.34486" lon="1.167">
        <ele>180</ele>
        <time>2012-02-26T10:56:41Z</time>
      </trkpt>
      <trkpt lat="45.34481" lon="1.16702">
        <ele>180</ele>
        <time>2012-02-26T10:56:43Z</time>
      </trkpt>
      <trkpt lat="45.34477" lon="1.16705">
        <ele>180</ele>
        <time>2012-02-26T10:56:45Z</time>
      </trkpt>
      <trkpt lat="45.34472" lon="1.16709">
        <ele>180</ele>
        <time>2012-02-26T10:56:47Z</time>
      </trkpt>
      <trkpt lat="45.34469" lon="1.16711">
        <ele>179</ele>
        <time>2012-02-26T10:56:49Z</time>
      </trkpt>
      <trkpt lat="45.34464" lon="1.16716">
        <ele>179</ele>
        <time>2012-02-26T10:56:51Z</time>
      </trkpt>
      <trkpt lat="45.34459" lon="1.16723">
        <ele>179</ele>
        <time>2012-02-26T10:56:53Z</time>
      </trkpt>
      <trkpt lat="45.34454" lon="1.16731">
        <ele>179</ele>
        <time>2012-02-26T10:56:55Z</time>
      </trkpt>
      <trkpt lat="45.34449" lon="1.16738">
        <ele>179</ele>
        <time>2012-02-26T10:56:57Z</time>
      </trkpt>
      <trkpt lat="45.34446" lon="1.16744">
        <ele>179</ele>
        <time>2012-02-26T10:56:59Z</time>
      </trkpt>
      <trkpt lat="45.34441" lon="1.16751">
        <ele>179</ele>
        <time>2012-02-26T10:57:01Z</time>
      </trkpt>
      <trkpt lat="45.34436" lon="1.16757">
        <ele>179</ele>
        <time>2012-02-26T10:57:03Z</time>
      </trkpt>
      <trkpt lat="45.34431" lon="1.16762">
        <ele>179</ele>
        <time>2012-02-26T10:57:05Z</time>
      </trkpt>
      <trkpt lat="45.34427" lon="1.16768">
        <ele>180</ele>
        <time>2012-02-26T10:57:07Z</time>
      </trkpt>
      <trkpt lat="45.34424" lon="1.16773">
        <ele>181</ele>
        <time>2012-02-26T10:57:09Z</time>
      </trkpt>
      <trkpt lat="45.34425" lon="1.16778">
        <ele>181</ele>
        <time>2012-02-26T10:57:11Z</time>
      </trkpt>
      <trkpt lat="45.34422" lon="1.16785">
        <ele>181</ele>
        <time>2012-02-26T10:57:13Z</time>
      </trkpt>
      <trkpt lat="45.34422" lon="1.16791">
        <ele>181</ele>
        <time>2012-02-26T10:57:15Z</time>
      </trkpt>
      <trkpt lat="45.34421" lon="1.16797">
        <ele>181</ele>
        <time>2012-02-26T10:57:17Z</time>
      </trkpt>
      <trkpt lat="45.34422" lon="1.16804">
        <ele>181</ele>
        <time>2012-02-26T10:57:19Z</time>
      </trkpt>
      <trkpt lat="45.34422" lon="1.16812">
        <ele>181</ele>
        <time>2012-02-26T10:57:21Z</time>
      </trkpt>
      <trkpt lat="45.34423" lon="1.1682">
        <ele>181</ele>
        <time>2012-02-26T10:57:23Z</time>
      </trkpt>
      <trkpt lat="45.34423" lon="1.16826">
        <ele>180</ele>
        <time>2012-02-26T10:57:25Z</time>
      </trkpt>
      <trkpt lat="45.34425" lon="1.16834">
        <ele>180</ele>
        <time>2012-02-26T10:57:27Z</time>
      </trkpt>
      <trkpt lat="45.34423" lon="1.16842">
        <ele>179</ele>
        <time>2012-02-26T10:57:29Z</time>
      </trkpt>
      <trkpt lat="45.34422" lon="1.1685">
        <ele>179</ele>
        <time>2012-02-26T10:57:31Z</time>
      </trkpt>
      <trkpt lat="45.34424" lon="1.16857">
        <ele>178</ele>
        <time>2012-02-26T10:57:33Z</time>
      </trkpt>
      <trkpt lat="45.34428" lon="1.16862">
        <ele>177</ele>
        <time>2012-02-26T10:57:35Z</time>
      </trkpt>
      <trkpt lat="45.3443" lon="1.16869">
        <ele>176</ele>
        <time>2012-02-26T10:57:37Z</time>
      </trkpt>
      <trkpt lat="45.34431" lon="1.16875">
        <ele>176</ele>
        <time>2012-02-26T10:57:39Z</time>
      </trkpt>
      <trkpt lat="45.34432" lon="1.16882">
        <ele>175</ele>
        <time>2012-02-26T10:57:41Z</time>
      </trkpt>
      <trkpt lat="45.34432" lon="1.1689">
        <ele>174</ele>
        <time>2012-02-26T10:57:43Z</time>
      </trkpt>
      <trkpt lat="45.34433" lon="1.16897">
        <ele>174</ele>
        <time>2012-02-26T10:57:45Z</time>
      </trkpt>
      <trkpt lat="45.34434" lon="1.16904">
        <ele>174</ele>
        <time>2012-02-26T10:57:47Z</time>
      </trkpt>
      <trkpt lat="45.34436" lon="1.16916">
        <ele>173</ele>
        <time>2012-02-26T10:57:50Z</time>
      </trkpt>
      <trkpt lat="45.34438" lon="1.16925">
        <ele>172</ele>
        <time>2012-02-26T10:57:52Z</time>
      </trkpt>
      <trkpt lat="45.34439" lon="1.16934">
        <ele>170</ele>
        <time>2012-02-26T10:57:54Z</time>
      </trkpt>
      <trkpt lat="45.34438" lon="1.16943">
        <ele>169</ele>
        <time>2012-02-26T10:57:56Z</time>
      </trkpt>
      <trkpt lat="45.34438" lon="1.16951">
        <ele>169</ele>
        <time>2012-02-26T10:57:58Z</time>
      </trkpt>
      <trkpt lat="45.34437" lon="1.16958">
        <ele>169</ele>
        <time>2012-02-26T10:58:00Z</time>
      </trkpt>
      <trkpt lat="45.34436" lon="1.16967">
        <ele>169</ele>
        <time>2012-02-26T10:58:02Z</time>
      </trkpt>
      <trkpt lat="45.34436" lon="1.16973">
        <ele>169</ele>
        <time>2012-02-26T10:58:04Z</time>
      </trkpt>
      <trkpt lat="45.34436" lon="1.16981">
        <ele>169</ele>
        <time>2012-02-26T10:58:06Z</time>
      </trkpt>
      <trkpt lat="45.34435" lon="1.16989">
        <ele>169</ele>
        <time>2012-02-26T10:58:08Z</time>
      </trkpt>
      <trkpt lat="45.34435" lon="1.16997">
        <ele>169</ele>
        <time>2012-02-26T10:58:10Z</time>
      </trkpt>
      <trkpt lat="45.34435" lon="1.17005">
        <ele>169</ele>
        <time>2012-02-26T10:58:12Z</time>
      </trkpt>
      <trkpt lat="45.34436" lon="1.17014">
        <ele>169</ele>
        <time>2012-02-26T10:58:14Z</time>
      </trkpt>
      <trkpt lat="45.34437" lon="1.1702">
        <ele>169</ele>
        <time>2012-02-26T10:58:16Z</time>
      </trkpt>
      <trkpt lat="45.34436" lon="1.17027">
        <ele>169</ele>
        <time>2012-02-26T10:58:18Z</time>
      </trkpt>
      <trkpt lat="45.34437" lon="1.17035">
        <ele>169</ele>
        <time>2012-02-26T10:58:20Z</time>
      </trkpt>
      <trkpt lat="45.34437" lon="1.17044">
        <ele>169</ele>
        <time>2012-02-26T10:58:22Z</time>
      </trkpt>
      <trkpt lat="45.34436" lon="1.17053">
        <ele>169</ele>
        <time>2012-02-26T10:58:24Z</time>
      </trkpt>
      <trkpt lat="45.34437" lon="1.17061">
        <ele>169</ele>
        <time>2012-02-26T10:58:26Z</time>
      </trkpt>
      <trkpt lat="45.34438" lon="1.17066">
        <ele>169</ele>
        <time>2012-02-26T10:58:28Z</time>
      </trkpt>
      <trkpt lat="45.3444" lon="1.17071">
        <ele>169</ele>
        <time>2012-02-26T10:58:30Z</time>
      </trkpt>
      <trkpt lat="45.3444" lon="1.17078">
        <ele>168</ele>
        <time>2012-02-26T10:58:32Z</time>
      </trkpt>
      <trkpt lat="45.34441" lon="1.17086">
        <ele>166</ele>
        <time>2012-02-26T10:58:34Z</time>
      </trkpt>
      <trkpt lat="45.34442" lon="1.1709">
        <ele>164</ele>
        <time>2012-02-26T10:58:36Z</time>
      </trkpt>
      <trkpt lat="45.34444" lon="1.17095">
        <ele>162</ele>
        <time>2012-02-26T10:58:38Z</time>
      </trkpt>
      <trkpt lat="45.34446" lon="1.17103">
        <ele>160</ele>
        <time>2012-02-26T10:58:40Z</time>
      </trkpt>
      <trkpt lat="45.34448" lon="1.17109">
        <ele>159</ele>
        <time>2012-02-26T10:58:42Z</time>
      </trkpt>
      <trkpt lat="45.34449" lon="1.17116">
        <ele>158</ele>
        <time>2012-02-26T10:58:44Z</time>
      </trkpt>
      <trkpt lat="45.3445" lon="1.17123">
        <ele>157</ele>
        <time>2012-02-26T10:58:46Z</time>
      </trkpt>
      <trkpt lat="45.34449" lon="1.1713">
        <ele>155</ele>
        <time>2012-02-26T10:58:48Z</time>
      </trkpt>
      <trkpt lat="45.3445" lon="1.17138">
        <ele>153</ele>
        <time>2012-02-26T10:58:50Z</time>
      </trkpt>
      <trkpt lat="45.34452" lon="1.17145">
        <ele>151</ele>
        <time>2012-02-26T10:58:52Z</time>
      </trkpt>
      <trkpt lat="45.34454" lon="1.17158">
        <ele>149</ele>
        <time>2012-02-26T10:58:55Z</time>
      </trkpt>
      <trkpt lat="45.34456" lon="1.17164">
        <ele>149</ele>
        <time>2012-02-26T10:58:57Z</time>
      </trkpt>
      <trkpt lat="45.34457" lon="1.17171">
        <ele>148</ele>
        <time>2012-02-26T10:58:59Z</time>
      </trkpt>
      <trkpt lat="45.34459" lon="1.17176">
        <ele>147</ele>
        <time>2012-02-26T10:59:01Z</time>
      </trkpt>
      <trkpt lat="45.34462" lon="1.17183">
        <ele>146</ele>
        <time>2012-02-26T10:59:03Z</time>
      </trkpt>
      <trkpt lat="45.34466" lon="1.17192">
        <ele>145</ele>
        <time>2012-02-26T10:59:05Z</time>
      </trkpt>
      <trkpt lat="45.34467" lon="1.17201">
        <ele>145</ele>
        <time>2012-02-26T10:59:07Z</time>
      </trkpt>
      <trkpt lat="45.34468" lon="1.17209">
        <ele>145</ele>
        <time>2012-02-26T10:59:09Z</time>
      </trkpt>
      <trkpt lat="45.34469" lon="1.17218">
        <ele>145</ele>
        <time>2012-02-26T10:59:11Z</time>
      </trkpt>
      <trkpt lat="45.3447" lon="1.17225">
        <ele>145</ele>
        <time>2012-02-26T10:59:13Z</time>
      </trkpt>
      <trkpt lat="45.34469" lon="1.17232">
        <ele>145</ele>
        <time>2012-02-26T10:59:15Z</time>
      </trkpt>
      <trkpt lat="45.34469" lon="1.17237">
        <ele>145</ele>
        <time>2012-02-26T10:59:17Z</time>
      </trkpt>
      <trkpt lat="45.3447" lon="1.17244">
        <ele>145</ele>
        <time>2012-02-26T10:59:19Z</time>
      </trkpt>
      <trkpt lat="45.34469" lon="1.17254">
        <ele>145</ele>
        <time>2012-02-26T10:59:21Z</time>
      </trkpt>
      <trkpt lat="45.34467" lon="1.17265">
        <ele>145</ele>
        <time>2012-02-26T10:59:23Z</time>
      </trkpt>
      <trkpt lat="45.34467" lon="1.17274">
        <ele>147</ele>
        <time>2012-02-26T10:59:25Z</time>
      </trkpt>
      <trkpt lat="45.34467" lon="1.17281">
        <ele>149</ele>
        <time>2012-02-26T10:59:27Z</time>
      </trkpt>
      <trkpt lat="45.34469" lon="1.17288">
        <ele>149</ele>
        <time>2012-02-26T10:59:29Z</time>
      </trkpt>
      <trkpt lat="45.34469" lon="1.17296">
        <ele>149</ele>
        <time>2012-02-26T10:59:31Z</time>
      </trkpt>
      <trkpt lat="45.34469" lon="1.17304">
        <ele>149</ele>
        <time>2012-02-26T10:59:33Z</time>
      </trkpt>
      <trkpt lat="45.34469" lon="1.17313">
        <ele>150</ele>
        <time>2012-02-26T10:59:35Z</time>
      </trkpt>
      <trkpt lat="45.34469" lon="1.17319">
        <ele>151</ele>
        <time>2012-02-26T10:59:37Z</time>
      </trkpt>
      <trkpt lat="45.3447" lon="1.17328">
        <ele>152</ele>
        <time>2012-02-26T10:59:39Z</time>
      </trkpt>
      <trkpt lat="45.34471" lon="1.17334">
        <ele>152</ele>
        <time>2012-02-26T10:59:41Z</time>
      </trkpt>
      <trkpt lat="45.34473" lon="1.17342">
        <ele>152</ele>
        <time>2012-02-26T10:59:43Z</time>
      </trkpt>
      <trkpt lat="45.34475" lon="1.1735">
        <ele>153</ele>
        <time>2012-02-26T10:59:45Z</time>
      </trkpt>
      <trkpt lat="45.34477" lon="1.17356">
        <ele>154</ele>
        <time>2012-02-26T10:59:47Z</time>
      </trkpt>
      <trkpt lat="45.34481" lon="1.17365">
        <ele>155</ele>
        <time>2012-02-26T10:59:49Z</time>
      </trkpt>
      <trkpt lat="45.34482" lon="1.17376">
        <ele>157</ele>
        <time>2012-02-26T10:59:51Z</time>
      </trkpt>
      <trkpt lat="45.34481" lon="1.17385">
        <ele>158</ele>
        <time>2012-02-26T10:59:53Z</time>
      </trkpt>
      <trkpt lat="45.3448" lon="1.17401">
        <ele>160</ele>
        <time>2012-02-26T10:59:55Z</time>
      </trkpt>
      <trkpt lat="45.3448" lon="1.17415">
        <ele>162</ele>
        <time>2012-02-26T10:59:57Z</time>
      </trkpt>
      <trkpt lat="45.34482" lon="1.17424">
        <ele>164</ele>
        <time>2012-02-26T10:59:59Z</time>
      </trkpt>
      <trkpt lat="45.34484" lon="1.17434">
        <ele>166</ele>
        <time>2012-02-26T11:00:01Z</time>
      </trkpt>
      <trkpt lat="45.34485" lon="1.17444">
        <ele>168</ele>
        <time>2012-02-26T11:00:03Z</time>
      </trkpt>
      <trkpt lat="45.34487" lon="1.17453">
        <ele>170</ele>
        <time>2012-02-26T11:00:05Z</time>
      </trkpt>
      <trkpt lat="45.34489" lon="1.17463">
        <ele>170</ele>
        <time>2012-02-26T11:00:07Z</time>
      </trkpt>
      <trkpt lat="45.34489" lon="1.17472">
        <ele>171</ele>
        <time>2012-02-26T11:00:09Z</time>
      </trkpt>
      <trkpt lat="45.3449" lon="1.17482">
        <ele>171</ele>
        <time>2012-02-26T11:00:11Z</time>
      </trkpt>
      <trkpt lat="45.34491" lon="1.17491">
        <ele>172</ele>
        <time>2012-02-26T11:00:13Z</time>
      </trkpt>
      <trkpt lat="45.34493" lon="1.175">
        <ele>172</ele>
        <time>2012-02-26T11:00:15Z</time>
      </trkpt>
      <trkpt lat="45.34496" lon="1.17506">
        <ele>172</ele>
        <time>2012-02-26T11:00:17Z</time>
      </trkpt>
      <trkpt lat="45.34499" lon="1.17513">
        <ele>172</ele>
        <time>2012-02-26T11:00:19Z</time>
      </trkpt>
      <trkpt lat="45.34502" lon="1.17521">
        <ele>173</ele>
        <time>2012-02-26T11:00:21Z</time>
      </trkpt>
      <trkpt lat="45.34504" lon="1.17528">
        <ele>173</ele>
        <time>2012-02-26T11:00:23Z</time>
      </trkpt>
      <trkpt lat="45.34506" lon="1.17536">
        <ele>173</ele>
        <time>2012-02-26T11:00:25Z</time>
      </trkpt>
      <trkpt lat="45.34509" lon="1.17546">
        <ele>173</ele>
        <time>2012-02-26T11:00:28Z</time>
      </trkpt>
      <trkpt lat="45.3451" lon="1.17555">
        <ele>173</ele>
        <time>2012-02-26T11:00:30Z</time>
      </trkpt>
      <trkpt lat="45.34512" lon="1.17562">
        <ele>173</ele>
        <time>2012-02-26T11:00:32Z</time>
      </trkpt>
      <trkpt lat="45.34514" lon="1.17571">
        <ele>173</ele>
        <time>2012-02-26T11:00:34Z</time>
      </trkpt>
      <trkpt lat="45.34517" lon="1.1758">
        <ele>173</ele>
        <time>2012-02-26T11:00:36Z</time>
      </trkpt>
      <trkpt lat="45.34519" lon="1.17588">
        <ele>173</ele>
        <time>2012-02-26T11:00:38Z</time>
      </trkpt>
      <trkpt lat="45.34521" lon="1.17596">
        <ele>173</ele>
        <time>2012-02-26T11:00:40Z</time>
      </trkpt>
      <trkpt lat="45.34526" lon="1.17608">
        <ele>173</ele>
        <time>2012-02-26T11:00:43Z</time>
      </trkpt>
      <trkpt lat="45.34528" lon="1.17615">
        <ele>173</ele>
        <time>2012-02-26T11:00:45Z</time>
      </trkpt>
      <trkpt lat="45.34531" lon="1.17622">
        <ele>173</ele>
        <time>2012-02-26T11:00:47Z</time>
      </trkpt>
      <trkpt lat="45.34535" lon="1.17628">
        <ele>173</ele>
        <time>2012-02-26T11:00:49Z</time>
      </trkpt>
      <trkpt lat="45.34536" lon="1.17635">
        <ele>173</ele>
        <time>2012-02-26T11:00:51Z</time>
      </trkpt>
      <trkpt lat="45.34539" lon="1.17643">
        <ele>173</ele>
        <time>2012-02-26T11:00:53Z</time>
      </trkpt>
      <trkpt lat="45.34542" lon="1.1765">
        <ele>173</ele>
        <time>2012-02-26T11:00:55Z</time>
      </trkpt>
      <trkpt lat="45.34544" lon="1.17658">
        <ele>173</ele>
        <time>2012-02-26T11:00:57Z</time>
      </trkpt>
      <trkpt lat="45.34547" lon="1.17666">
        <ele>173</ele>
        <time>2012-02-26T11:00:59Z</time>
      </trkpt>
      <trkpt lat="45.3455" lon="1.17673">
        <ele>173</ele>
        <time>2012-02-26T11:01:01Z</time>
      </trkpt>
      <trkpt lat="45.34552" lon="1.17681">
        <ele>173</ele>
        <time>2012-02-26T11:01:03Z</time>
      </trkpt>
      <trkpt lat="45.34553" lon="1.1769">
        <ele>173</ele>
        <time>2012-02-26T11:01:05Z</time>
      </trkpt>
      <trkpt lat="45.34553" lon="1.17698">
        <ele>173</ele>
        <time>2012-02-26T11:01:07Z</time>
      </trkpt>
      <trkpt lat="45.34552" lon="1.17708">
        <ele>173</ele>
        <time>2012-02-26T11:01:09Z</time>
      </trkpt>
      <trkpt lat="45.34552" lon="1.17716">
        <ele>173</ele>
        <time>2012-02-26T11:01:11Z</time>
      </trkpt>
      <trkpt lat="45.34553" lon="1.17727">
        <ele>173</ele>
        <time>2012-02-26T11:01:13Z</time>
      </trkpt>
      <trkpt lat="45.34552" lon="1.17736">
        <ele>174</ele>
        <time>2012-02-26T11:01:15Z</time>
      </trkpt>
      <trkpt lat="45.34554" lon="1.17745">
        <ele>174</ele>
        <time>2012-02-26T11:01:18Z</time>
      </trkpt>
      <trkpt lat="45.34553" lon="1.17753">
        <ele>174</ele>
        <time>2012-02-26T11:01:20Z</time>
      </trkpt>
      <trkpt lat="45.34552" lon="1.17765">
        <ele>174</ele>
        <time>2012-02-26T11:01:22Z</time>
      </trkpt>
      <trkpt lat="45.34552" lon="1.17776">
        <ele>174</ele>
        <time>2012-02-26T11:01:24Z</time>
      </trkpt>
      <trkpt lat="45.34552" lon="1.17784">
        <ele>174</ele>
        <time>2012-02-26T11:01:26Z</time>
      </trkpt>
      <trkpt lat="45.34552" lon="1.17793">
        <ele>174</ele>
        <time>2012-02-26T11:01:28Z</time>
      </trkpt>
      <trkpt lat="45.3455" lon="1.1781">
        <ele>176</ele>
        <time>2012-02-26T11:01:31Z</time>
      </trkpt>
      <trkpt lat="45.34549" lon="1.17819">
        <ele>178</ele>
        <time>2012-02-26T11:01:33Z</time>
      </trkpt>
      <trkpt lat="45.34549" lon="1.17828">
        <ele>180</ele>
        <time>2012-02-26T11:01:35Z</time>
      </trkpt>
      <trkpt lat="45.34551" lon="1.17835">
        <ele>181</ele>
        <time>2012-02-26T11:01:37Z</time>
      </trkpt>
      <trkpt lat="45.34552" lon="1.17843">
        <ele>181</ele>
        <time>2012-02-26T11:01:39Z</time>
      </trkpt>
      <trkpt lat="45.34553" lon="1.17851">
        <ele>181</ele>
        <time>2012-02-26T11:01:41Z</time>
      </trkpt>
      <trkpt lat="45.34554" lon="1.1786">
        <ele>181</ele>
        <time>2012-02-26T11:01:43Z</time>
      </trkpt>
      <trkpt lat="45.34554" lon="1.17872">
        <ele>181</ele>
        <time>2012-02-26T11:01:46Z</time>
      </trkpt>
      <trkpt lat="45.34555" lon="1.17879">
        <ele>181</ele>
        <time>2012-02-26T11:01:48Z</time>
      </trkpt>
      <trkpt lat="45.34555" lon="1.17886">
        <ele>181</ele>
        <time>2012-02-26T11:01:50Z</time>
      </trkpt>
      <trkpt lat="45.34553" lon="1.17893">
        <ele>181</ele>
        <time>2012-02-26T11:01:52Z</time>
      </trkpt>
      <trkpt lat="45.34552" lon="1.17903">
        <ele>181</ele>
        <time>2012-02-26T11:01:54Z</time>
      </trkpt>
      <trkpt lat="45.34553" lon="1.17912">
        <ele>181</ele>
        <time>2012-02-26T11:01:56Z</time>
      </trkpt>
      <trkpt lat="45.34554" lon="1.17922">
        <ele>181</ele>
        <time>2012-02-26T11:01:59Z</time>
      </trkpt>
      <trkpt lat="45.34555" lon="1.17929">
        <ele>181</ele>
        <time>2012-02-26T11:02:01Z</time>
      </trkpt>
      <trkpt lat="45.34556" lon="1.17937">
        <ele>181</ele>
        <time>2012-02-26T11:02:03Z</time>
      </trkpt>
      <trkpt lat="45.34555" lon="1.17948">
        <ele>181</ele>
        <time>2012-02-26T11:02:06Z</time>
      </trkpt>
      <trkpt lat="45.34554" lon="1.17955">
        <ele>181</ele>
        <time>2012-02-26T11:02:08Z</time>
      </trkpt>
      <trkpt lat="45.34552" lon="1.17964">
        <ele>181</ele>
        <time>2012-02-26T11:02:10Z</time>
      </trkpt>
      <trkpt lat="45.34549" lon="1.17975">
        <ele>181</ele>
        <time>2012-02-26T11:02:12Z</time>
      </trkpt>
      <trkpt lat="45.34546" lon="1.17986">
        <ele>181</ele>
        <time>2012-02-26T11:02:14Z</time>
      </trkpt>
      <trkpt lat="45.34546" lon="1.17994">
        <ele>181</ele>
        <time>2012-02-26T11:02:16Z</time>
      </trkpt>
      <trkpt lat="45.34543" lon="1.18007">
        <ele>181</ele>
        <time>2012-02-26T11:02:19Z</time>
      </trkpt>
      <trkpt lat="45.34543" lon="1.18014">
        <ele>181</ele>
        <time>2012-02-26T11:02:21Z</time>
      </trkpt>
      <trkpt lat="45.34541" lon="1.18023">
        <ele>181</ele>
        <time>2012-02-26T11:02:23Z</time>
      </trkpt>
      <trkpt lat="45.3454" lon="1.18033">
        <ele>181</ele>
        <time>2012-02-26T11:02:25Z</time>
      </trkpt>
      <trkpt lat="45.34536" lon="1.18048">
        <ele>181</ele>
        <time>2012-02-26T11:02:28Z</time>
      </trkpt>
      <trkpt lat="45.34533" lon="1.18057">
        <ele>181</ele>
        <time>2012-02-26T11:02:30Z</time>
      </trkpt>
      <trkpt lat="45.34528" lon="1.18065">
        <ele>181</ele>
        <time>2012-02-26T11:02:32Z</time>
      </trkpt>
      <trkpt lat="45.34522" lon="1.18075">
        <ele>181</ele>
        <time>2012-02-26T11:02:35Z</time>
      </trkpt>
      <trkpt lat="45.34519" lon="1.18081">
        <ele>181</ele>
        <time>2012-02-26T11:02:37Z</time>
      </trkpt>
      <trkpt lat="45.34514" lon="1.18088">
        <ele>181</ele>
        <time>2012-02-26T11:02:40Z</time>
      </trkpt>
      <trkpt lat="45.34509" lon="1.18092">
        <ele>181</ele>
        <time>2012-02-26T11:02:42Z</time>
      </trkpt>
      <trkpt lat="45.34506" lon="1.18098">
        <ele>180</ele>
        <time>2012-02-26T11:02:44Z</time>
      </trkpt>
      <trkpt lat="45.34502" lon="1.18103">
        <ele>180</ele>
        <time>2012-02-26T11:02:46Z</time>
      </trkpt>
      <trkpt lat="45.34497" lon="1.18107">
        <ele>180</ele>
        <time>2012-02-26T11:02:48Z</time>
      </trkpt>
      <trkpt lat="45.3449" lon="1.18113">
        <ele>180</ele>
        <time>2012-02-26T11:02:51Z</time>
      </trkpt>
      <trkpt lat="45.34485" lon="1.18117">
        <ele>180</ele>
        <time>2012-02-26T11:02:53Z</time>
      </trkpt>
      <trkpt lat="45.34479" lon="1.18122">
        <ele>180</ele>
        <time>2012-02-26T11:02:55Z</time>
      </trkpt>
      <trkpt lat="45.34474" lon="1.18124">
        <ele>180</ele>
        <time>2012-02-26T11:02:57Z</time>
      </trkpt>
      <trkpt lat="45.34467" lon="1.18126">
        <ele>180</ele>
        <time>2012-02-26T11:03:00Z</time>
      </trkpt>
      <trkpt lat="45.34461" lon="1.18129">
        <ele>180</ele>
        <time>2012-02-26T11:03:02Z</time>
      </trkpt>
      <trkpt lat="45.34454" lon="1.18134">
        <ele>180</ele>
        <time>2012-02-26T11:03:04Z</time>
      </trkpt>
      <trkpt lat="45.34446" lon="1.1814">
        <ele>183</ele>
        <time>2012-02-26T11:03:07Z</time>
      </trkpt>
      <trkpt lat="45.34441" lon="1.18143">
        <ele>184</ele>
        <time>2012-02-26T11:03:09Z</time>
      </trkpt>
      <trkpt lat="45.34431" lon="1.18149">
        <ele>186</ele>
        <time>2012-02-26T11:03:12Z</time>
      </trkpt>
      <trkpt lat="45.34424" lon="1.18151">
        <ele>187</ele>
        <time>2012-02-26T11:03:14Z</time>
      </trkpt>
      <trkpt lat="45.34418" lon="1.18148">
        <ele>187</ele>
        <time>2012-02-26T11:03:16Z</time>
      </trkpt>
      <trkpt lat="45.34413" lon="1.18147">
        <ele>187</ele>
        <time>2012-02-26T11:03:18Z</time>
      </trkpt>
      <trkpt lat="45.34407" lon="1.18145">
        <ele>187</ele>
        <time>2012-02-26T11:03:20Z</time>
      </trkpt>
      <trkpt lat="45.344" lon="1.18142">
        <ele>187</ele>
        <time>2012-02-26T11:03:22Z</time>
      </trkpt>
      <trkpt lat="45.34394" lon="1.1814">
        <ele>187</ele>
        <time>2012-02-26T11:03:24Z</time>
      </trkpt>
      <trkpt lat="45.34388" lon="1.18139">
        <ele>188</ele>
        <time>2012-02-26T11:03:26Z</time>
      </trkpt>
      <trkpt lat="45.3438" lon="1.18133">
        <ele>191</ele>
        <time>2012-02-26T11:03:29Z</time>
      </trkpt>
      <trkpt lat="45.34369" lon="1.1813">
        <ele>193</ele>
        <time>2012-02-26T11:03:32Z</time>
      </trkpt>
      <trkpt lat="45.34362" lon="1.18128">
        <ele>193</ele>
        <time>2012-02-26T11:03:34Z</time>
      </trkpt>
      <trkpt lat="45.34353" lon="1.18119">
        <ele>193</ele>
        <time>2012-02-26T11:03:37Z</time>
      </trkpt>
      <trkpt lat="45.34348" lon="1.18115">
        <ele>193</ele>
        <time>2012-02-26T11:03:39Z</time>
      </trkpt>
      <trkpt lat="45.34342" lon="1.18109">
        <ele>193</ele>
        <time>2012-02-26T11:03:41Z</time>
      </trkpt>
      <trkpt lat="45.34337" lon="1.18105">
        <ele>193</ele>
        <time>2012-02-26T11:03:43Z</time>
      </trkpt>
      <trkpt lat="45.34331" lon="1.181">
        <ele>193</ele>
        <time>2012-02-26T11:03:45Z</time>
      </trkpt>
      <trkpt lat="45.34325" lon="1.18095">
        <ele>193</ele>
        <time>2012-02-26T11:03:48Z</time>
      </trkpt>
      <trkpt lat="45.34316" lon="1.1809">
        <ele>193</ele>
        <time>2012-02-26T11:03:51Z</time>
      </trkpt>
      <trkpt lat="45.34311" lon="1.18088">
        <ele>191</ele>
        <time>2012-02-26T11:03:53Z</time>
      </trkpt>
      <trkpt lat="45.34305" lon="1.18086">
        <ele>190</ele>
        <time>2012-02-26T11:03:55Z</time>
      </trkpt>
      <trkpt lat="45.343" lon="1.18084">
        <ele>188</ele>
        <time>2012-02-26T11:03:57Z</time>
      </trkpt>
      <trkpt lat="45.34293" lon="1.18082">
        <ele>187</ele>
        <time>2012-02-26T11:04:00Z</time>
      </trkpt>
      <trkpt lat="45.34288" lon="1.18082">
        <ele>187</ele>
        <time>2012-02-26T11:04:02Z</time>
      </trkpt>
      <trkpt lat="45.34282" lon="1.18083">
        <ele>187</ele>
        <time>2012-02-26T11:04:04Z</time>
      </trkpt>
      <trkpt lat="45.34276" lon="1.18085">
        <ele>187</ele>
        <time>2012-02-26T11:04:06Z</time>
      </trkpt>
      <trkpt lat="45.34272" lon="1.18086">
        <ele>186</ele>
        <time>2012-02-26T11:04:08Z</time>
      </trkpt>
      <trkpt lat="45.34265" lon="1.18089">
        <ele>186</ele>
        <time>2012-02-26T11:04:11Z</time>
      </trkpt>
      <trkpt lat="45.34261" lon="1.1809">
        <ele>186</ele>
        <time>2012-02-26T11:04:13Z</time>
      </trkpt>
      <trkpt lat="45.34255" lon="1.18091">
        <ele>186</ele>
        <time>2012-02-26T11:04:16Z</time>
      </trkpt>
      <trkpt lat="45.34252" lon="1.18094">
        <ele>186</ele>
        <time>2012-02-26T11:04:18Z</time>
      </trkpt>
      <trkpt lat="45.34249" lon="1.18094">
        <ele>186</ele>
        <time>2012-02-26T11:04:20Z</time>
      </trkpt>
      <trkpt lat="45.34246" lon="1.18095">
        <ele>186</ele>
        <time>2012-02-26T11:04:22Z</time>
      </trkpt>
      <trkpt lat="45.3424" lon="1.18096">
        <ele>186</ele>
        <time>2012-02-26T11:04:25Z</time>
      </trkpt>
      <trkpt lat="45.34236" lon="1.18099">
        <ele>186</ele>
        <time>2012-02-26T11:04:27Z</time>
      </trkpt>
      <trkpt lat="45.34231" lon="1.18102">
        <ele>186</ele>
        <time>2012-02-26T11:04:30Z</time>
      </trkpt>
      <trkpt lat="45.34228" lon="1.18104">
        <ele>186</ele>
        <time>2012-02-26T11:04:32Z</time>
      </trkpt>
      <trkpt lat="45.34223" lon="1.18107">
        <ele>186</ele>
        <time>2012-02-26T11:04:35Z</time>
      </trkpt>
      <trkpt lat="45.3422" lon="1.18109">
        <ele>186</ele>
        <time>2012-02-26T11:04:37Z</time>
      </trkpt>
      <trkpt lat="45.34216" lon="1.18109">
        <ele>186</ele>
        <time>2012-02-26T11:04:39Z</time>
      </trkpt>
      <trkpt lat="45.34211" lon="1.1811">
        <ele>186</ele>
        <time>2012-02-26T11:04:41Z</time>
      </trkpt>
      <trkpt lat="45.34207" lon="1.1811">
        <ele>186</ele>
        <time>2012-02-26T11:04:43Z</time>
      </trkpt>
      <trkpt lat="45.34203" lon="1.18109">
        <ele>186</ele>
        <time>2012-02-26T11:04:45Z</time>
      </trkpt>
      <trkpt lat="45.34198" lon="1.18108">
        <ele>186</ele>
        <time>2012-02-26T11:04:47Z</time>
      </trkpt>
      <trkpt lat="45.34195" lon="1.18107">
        <ele>186</ele>
        <time>2012-02-26T11:04:49Z</time>
      </trkpt>
      <trkpt lat="45.34192" lon="1.18108">
        <ele>186</ele>
        <time>2012-02-26T11:04:51Z</time>
      </trkpt>
      <trkpt lat="45.34189" lon="1.1811">
        <ele>186</ele>
        <time>2012-02-26T11:04:53Z</time>
      </trkpt>
      <trkpt lat="45.34186" lon="1.18111">
        <ele>186</ele>
        <time>2012-02-26T11:04:55Z</time>
      </trkpt>
      <trkpt lat="45.34184" lon="1.18112">
        <ele>186</ele>
        <time>2012-02-26T11:04:57Z</time>
      </trkpt>
      <trkpt lat="45.3418" lon="1.18115">
        <ele>186</ele>
        <time>2012-02-26T11:05:01Z</time>
      </trkpt>
      <trkpt lat="45.34178" lon="1.18119">
        <ele>186</ele>
        <time>2012-02-26T11:05:03Z</time>
      </trkpt>
      <trkpt lat="45.34177" lon="1.18122">
        <ele>187</ele>
        <time>2012-02-26T11:05:05Z</time>
      </trkpt>
      <trkpt lat="45.34181" lon="1.18124">
        <ele>188</ele>
        <time>2012-02-26T11:05:09Z</time>
      </trkpt>
      <trkpt lat="45.34182" lon="1.18125">
        <ele>189</ele>
        <time>2012-02-26T11:05:11Z</time>
      </trkpt>
      <trkpt lat="45.34184" lon="1.18125">
        <ele>189</ele>
        <time>2012-02-26T11:05:13Z</time>
      </trkpt>
      <trkpt lat="45.34187" lon="1.18126">
        <ele>190</ele>
        <time>2012-02-26T11:05:15Z</time>
      </trkpt>
      <trkpt lat="45.3419" lon="1.18128">
        <ele>190</ele>
        <time>2012-02-26T11:05:18Z</time>
      </trkpt>
      <trkpt lat="45.34193" lon="1.18129">
        <ele>190</ele>
        <time>2012-02-26T11:05:20Z</time>
      </trkpt>
      <trkpt lat="45.34195" lon="1.18132">
        <ele>190</ele>
        <time>2012-02-26T11:05:22Z</time>
      </trkpt>
      <trkpt lat="45.34198" lon="1.18138">
        <ele>191</ele>
        <time>2012-02-26T11:05:25Z</time>
      </trkpt>
      <trkpt lat="45.342" lon="1.18142">
        <ele>192</ele>
        <time>2012-02-26T11:05:27Z</time>
      </trkpt>
      <trkpt lat="45.34203" lon="1.18144">
        <ele>193</ele>
        <time>2012-02-26T11:05:29Z</time>
      </trkpt>
      <trkpt lat="45.34205" lon="1.18143">
        <ele>194</ele>
        <time>2012-02-26T11:05:31Z</time>
      </trkpt>
      <trkpt lat="45.34207" lon="1.18143">
        <ele>194</ele>
        <time>2012-02-26T11:05:33Z</time>
      </trkpt>
      <trkpt lat="45.34212" lon="1.18146">
        <ele>195</ele>
        <time>2012-02-26T11:05:36Z</time>
      </trkpt>
      <trkpt lat="45.34214" lon="1.18149">
        <ele>195</ele>
        <time>2012-02-26T11:05:38Z</time>
      </trkpt>
      <trkpt lat="45.34216" lon="1.18151">
        <ele>196</ele>
        <time>2012-02-26T11:05:40Z</time>
      </trkpt>
      <trkpt lat="45.34218" lon="1.18153">
        <ele>196</ele>
        <time>2012-02-26T11:05:42Z</time>
      </trkpt>
      <trkpt lat="45.3422" lon="1.18156">
        <ele>196</ele>
        <time>2012-02-26T11:05:45Z</time>
      </trkpt>
      <trkpt lat="45.34223" lon="1.1816">
        <ele>197</ele>
        <time>2012-02-26T11:05:47Z</time>
      </trkpt>
      <trkpt lat="45.34226" lon="1.18161">
        <ele>198</ele>
        <time>2012-02-26T11:05:49Z</time>
      </trkpt>
      <trkpt lat="45.34229" lon="1.18164">
        <ele>199</ele>
        <time>2012-02-26T11:05:52Z</time>
      </trkpt>
      <trkpt lat="45.34232" lon="1.18167">
        <ele>199</ele>
        <time>2012-02-26T11:05:54Z</time>
      </trkpt>
      <trkpt lat="45.34235" lon="1.18171">
        <ele>199</ele>
        <time>2012-02-26T11:05:58Z</time>
      </trkpt>
      <trkpt lat="45.34239" lon="1.18174">
        <ele>200</ele>
        <time>2012-02-26T11:06:02Z</time>
      </trkpt>
      <trkpt lat="45.34243" lon="1.18174">
        <ele>201</ele>
        <time>2012-02-26T11:06:04Z</time>
      </trkpt>
      <trkpt lat="45.34246" lon="1.18177">
        <ele>204</ele>
        <time>2012-02-26T11:06:07Z</time>
      </trkpt>
      <trkpt lat="45.34249" lon="1.1818">
        <ele>207</ele>
        <time>2012-02-26T11:06:10Z</time>
      </trkpt>
      <trkpt lat="45.34252" lon="1.18182">
        <ele>209</ele>
        <time>2012-02-26T11:06:12Z</time>
      </trkpt>
      <trkpt lat="45.34254" lon="1.18184">
        <ele>211</ele>
        <time>2012-02-26T11:06:14Z</time>
      </trkpt>
      <trkpt lat="45.34257" lon="1.18188">
        <ele>212</ele>
        <time>2012-02-26T11:06:17Z</time>
      </trkpt>
      <trkpt lat="45.3426" lon="1.18189">
        <ele>212</ele>
        <time>2012-02-26T11:06:19Z</time>
      </trkpt>
      <trkpt lat="45.34264" lon="1.18193">
        <ele>212</ele>
        <time>2012-02-26T11:06:22Z</time>
      </trkpt>
      <trkpt lat="45.34267" lon="1.18196">
        <ele>212</ele>
        <time>2012-02-26T11:06:24Z</time>
      </trkpt>
      <trkpt lat="45.34268" lon="1.182">
        <ele>212</ele>
        <time>2012-02-26T11:06:26Z</time>
      </trkpt>
      <trkpt lat="45.34272" lon="1.18204">
        <ele>212</ele>
        <time>2012-02-26T11:06:29Z</time>
      </trkpt>
      <trkpt lat="45.34275" lon="1.18208">
        <ele>212</ele>
        <time>2012-02-26T11:06:33Z</time>
      </trkpt>
      <trkpt lat="45.34278" lon="1.18212">
        <ele>212</ele>
        <time>2012-02-26T11:06:35Z</time>
      </trkpt>
      <trkpt lat="45.3428" lon="1.18216">
        <ele>213</ele>
        <time>2012-02-26T11:06:37Z</time>
      </trkpt>
      <trkpt lat="45.34283" lon="1.1822">
        <ele>214</ele>
        <time>2012-02-26T11:06:39Z</time>
      </trkpt>
      <trkpt lat="45.34285" lon="1.18224">
        <ele>214</ele>
        <time>2012-02-26T11:06:42Z</time>
      </trkpt>
      <trkpt lat="45.34286" lon="1.18229">
        <ele>214</ele>
        <time>2012-02-26T11:06:44Z</time>
      </trkpt>
      <trkpt lat="45.34289" lon="1.18232">
        <ele>215</ele>
        <time>2012-02-26T11:06:46Z</time>
      </trkpt>
      <trkpt lat="45.34291" lon="1.18236">
        <ele>217</ele>
        <time>2012-02-26T11:06:49Z</time>
      </trkpt>
      <trkpt lat="45.34294" lon="1.18241">
        <ele>218</ele>
        <time>2012-02-26T11:06:52Z</time>
      </trkpt>
      <trkpt lat="45.34297" lon="1.18242">
        <ele>219</ele>
        <time>2012-02-26T11:06:55Z</time>
      </trkpt>
      <trkpt lat="45.34298" lon="1.18245">
        <ele>221</ele>
        <time>2012-02-26T11:06:58Z</time>
      </trkpt>
      <trkpt lat="45.34301" lon="1.18249">
        <ele>224</ele>
        <time>2012-02-26T11:07:01Z</time>
      </trkpt>
      <trkpt lat="45.34302" lon="1.18253">
        <ele>225</ele>
        <time>2012-02-26T11:07:04Z</time>
      </trkpt>
      <trkpt lat="45.34306" lon="1.18255">
        <ele>225</ele>
        <time>2012-02-26T11:07:06Z</time>
      </trkpt>
      <trkpt lat="45.34309" lon="1.18256">
        <ele>225</ele>
        <time>2012-02-26T11:07:08Z</time>
      </trkpt>
      <trkpt lat="45.34312" lon="1.18258">
        <ele>227</ele>
        <time>2012-02-26T11:07:12Z</time>
      </trkpt>
      <trkpt lat="45.34317" lon="1.18264">
        <ele>227</ele>
        <time>2012-02-26T11:07:16Z</time>
      </trkpt>
      <trkpt lat="45.34319" lon="1.18266">
        <ele>227</ele>
        <time>2012-02-26T11:07:18Z</time>
      </trkpt>
      <trkpt lat="45.34322" lon="1.18268">
        <ele>227</ele>
        <time>2012-02-26T11:07:21Z</time>
      </trkpt>
      <trkpt lat="45.34324" lon="1.1827">
        <ele>227</ele>
        <time>2012-02-26T11:07:23Z</time>
      </trkpt>
      <trkpt lat="45.34327" lon="1.18273">
        <ele>227</ele>
        <time>2012-02-26T11:07:25Z</time>
      </trkpt>
      <trkpt lat="45.34332" lon="1.18275">
        <ele>227</ele>
        <time>2012-02-26T11:07:28Z</time>
      </trkpt>
      <trkpt lat="45.34335" lon="1.18277">
        <ele>227</ele>
        <time>2012-02-26T11:07:30Z</time>
      </trkpt>
      <trkpt lat="45.34338" lon="1.18281">
        <ele>227</ele>
        <time>2012-02-26T11:07:34Z</time>
      </trkpt>
      <trkpt lat="45.3434" lon="1.18284">
        <ele>227</ele>
        <time>2012-02-26T11:07:36Z</time>
      </trkpt>
      <trkpt lat="45.34343" lon="1.18287">
        <ele>227</ele>
        <time>2012-02-26T11:07:38Z</time>
      </trkpt>
      <trkpt lat="45.34346" lon="1.1829">
        <ele>227</ele>
        <time>2012-02-26T11:07:40Z</time>
      </trkpt>
      <trkpt lat="45.34349" lon="1.18292">
        <ele>227</ele>
        <time>2012-02-26T11:07:42Z</time>
      </trkpt>
      <trkpt lat="45.34353" lon="1.18294">
        <ele>227</ele>
        <time>2012-02-26T11:07:45Z</time>
      </trkpt>
      <trkpt lat="45.34356" lon="1.18296">
        <ele>227</ele>
        <time>2012-02-26T11:07:47Z</time>
      </trkpt>
      <trkpt lat="45.34359" lon="1.18298">
        <ele>227</ele>
        <time>2012-02-26T11:07:49Z</time>
      </trkpt>
      <trkpt lat="45.34361" lon="1.18298">
        <ele>228</ele>
        <time>2012-02-26T11:07:51Z</time>
      </trkpt>
      <trkpt lat="45.34364" lon="1.18299">
        <ele>230</ele>
        <time>2012-02-26T11:07:53Z</time>
      </trkpt>
      <trkpt lat="45.34367" lon="1.18302">
        <ele>231</ele>
        <time>2012-02-26T11:07:56Z</time>
      </trkpt>
      <trkpt lat="45.34371" lon="1.18304">
        <ele>233</ele>
        <time>2012-02-26T11:07:59Z</time>
      </trkpt>
      <trkpt lat="45.34374" lon="1.18306">
        <ele>233</ele>
        <time>2012-02-26T11:08:01Z</time>
      </trkpt>
      <trkpt lat="45.34377" lon="1.18306">
        <ele>234</ele>
        <time>2012-02-26T11:08:04Z</time>
      </trkpt>
      <trkpt lat="45.34379" lon="1.18308">
        <ele>234</ele>
        <time>2012-02-26T11:08:06Z</time>
      </trkpt>
      <trkpt lat="45.34382" lon="1.18311">
        <ele>235</ele>
        <time>2012-02-26T11:08:08Z</time>
      </trkpt>
      <trkpt lat="45.34385" lon="1.18314">
        <ele>235</ele>
        <time>2012-02-26T11:08:11Z</time>
      </trkpt>
      <trkpt lat="45.34389" lon="1.18316">
        <ele>235</ele>
        <time>2012-02-26T11:08:14Z</time>
      </trkpt>
      <trkpt lat="45.34392" lon="1.1832">
        <ele>235</ele>
        <time>2012-02-26T11:08:17Z</time>
      </trkpt>
      <trkpt lat="45.34394" lon="1.18321">
        <ele>235</ele>
        <time>2012-02-26T11:08:19Z</time>
      </trkpt>
      <trkpt lat="45.34397" lon="1.18323">
        <ele>235</ele>
        <time>2012-02-26T11:08:22Z</time>
      </trkpt>
      <trkpt lat="45.34401" lon="1.18325">
        <ele>234</ele>
        <time>2012-02-26T11:08:25Z</time>
      </trkpt>
      <trkpt lat="45.34404" lon="1.18325">
        <ele>233</ele>
        <time>2012-02-26T11:08:27Z</time>
      </trkpt>
      <trkpt lat="45.34407" lon="1.18326">
        <ele>233</ele>
        <time>2012-02-26T11:08:30Z</time>
      </trkpt>
      <trkpt lat="45.34409" lon="1.18327">
        <ele>233</ele>
        <time>2012-02-26T11:08:32Z</time>
      </trkpt>
      <trkpt lat="45.34412" lon="1.18329">
        <ele>233</ele>
        <time>2012-02-26T11:08:34Z</time>
      </trkpt>
      <trkpt lat="45.34415" lon="1.1833">
        <ele>233</ele>
        <time>2012-02-26T11:08:36Z</time>
      </trkpt>
      <trkpt lat="45.34418" lon="1.18333">
        <ele>233</ele>
        <time>2012-02-26T11:08:38Z</time>
      </trkpt>
      <trkpt lat="45.34421" lon="1.18336">
        <ele>233</ele>
        <time>2012-02-26T11:08:41Z</time>
      </trkpt>
      <trkpt lat="45.34424" lon="1.1834">
        <ele>233</ele>
        <time>2012-02-26T11:08:44Z</time>
      </trkpt>
      <trkpt lat="45.34428" lon="1.18342">
        <ele>235</ele>
        <time>2012-02-26T11:08:47Z</time>
      </trkpt>
      <trkpt lat="45.34432" lon="1.18344">
        <ele>237</ele>
        <time>2012-02-26T11:08:49Z</time>
      </trkpt>
      <trkpt lat="45.34433" lon="1.18347">
        <ele>239</ele>
        <time>2012-02-26T11:08:51Z</time>
      </trkpt>
      <trkpt lat="45.34435" lon="1.18349">
        <ele>241</ele>
        <time>2012-02-26T11:08:53Z</time>
      </trkpt>
      <trkpt lat="45.34438" lon="1.18352">
        <ele>241</ele>
        <time>2012-02-26T11:08:55Z</time>
      </trkpt>
      <trkpt lat="45.34441" lon="1.18352">
        <ele>241</ele>
        <time>2012-02-26T11:08:58Z</time>
      </trkpt>
      <trkpt lat="45.34444" lon="1.18354">
        <ele>241</ele>
        <time>2012-02-26T11:09:00Z</time>
      </trkpt>
      <trkpt lat="45.34446" lon="1.18354">
        <ele>241</ele>
        <time>2012-02-26T11:09:02Z</time>
      </trkpt>
      <trkpt lat="45.3445" lon="1.18354">
        <ele>241</ele>
        <time>2012-02-26T11:09:05Z</time>
      </trkpt>
      <trkpt lat="45.34452" lon="1.18355">
        <ele>241</ele>
        <time>2012-02-26T11:09:07Z</time>
      </trkpt>
      <trkpt lat="45.34455" lon="1.18359">
        <ele>243</ele>
        <time>2012-02-26T11:09:10Z</time>
      </trkpt>
      <trkpt lat="45.34457" lon="1.18361">
        <ele>243</ele>
        <time>2012-02-26T11:09:12Z</time>
      </trkpt>
      <trkpt lat="45.3446" lon="1.18363">
        <ele>244</ele>
        <time>2012-02-26T11:09:14Z</time>
      </trkpt>
      <trkpt lat="45.34463" lon="1.18366">
        <ele>245</ele>
        <time>2012-02-26T11:09:17Z</time>
      </trkpt>
      <trkpt lat="45.34464" lon="1.18369">
        <ele>245</ele>
        <time>2012-02-26T11:09:19Z</time>
      </trkpt>
      <trkpt lat="45.34466" lon="1.18372">
        <ele>245</ele>
        <time>2012-02-26T11:09:21Z</time>
      </trkpt>
      <trkpt lat="45.34468" lon="1.18376">
        <ele>245</ele>
        <time>2012-02-26T11:09:23Z</time>
      </trkpt>
      <trkpt lat="45.3447" lon="1.18379">
        <ele>245</ele>
        <time>2012-02-26T11:09:26Z</time>
      </trkpt>
      <trkpt lat="45.34472" lon="1.18382">
        <ele>245</ele>
        <time>2012-02-26T11:09:28Z</time>
      </trkpt>
      <trkpt lat="45.34474" lon="1.18385">
        <ele>246</ele>
        <time>2012-02-26T11:09:30Z</time>
      </trkpt>
      <trkpt lat="45.34475" lon="1.1839">
        <ele>247</ele>
        <time>2012-02-26T11:09:32Z</time>
      </trkpt>
      <trkpt lat="45.34477" lon="1.18394">
        <ele>247</ele>
        <time>2012-02-26T11:09:34Z</time>
      </trkpt>
      <trkpt lat="45.3448" lon="1.18398">
        <ele>248</ele>
        <time>2012-02-26T11:09:36Z</time>
      </trkpt>
      <trkpt lat="45.34483" lon="1.184">
        <ele>248</ele>
        <time>2012-02-26T11:09:39Z</time>
      </trkpt>
      <trkpt lat="45.34485" lon="1.18403">
        <ele>249</ele>
        <time>2012-02-26T11:09:41Z</time>
      </trkpt>
      <trkpt lat="45.34488" lon="1.18404">
        <ele>249</ele>
        <time>2012-02-26T11:09:44Z</time>
      </trkpt>
      <trkpt lat="45.3449" lon="1.18403">
        <ele>250</ele>
        <time>2012-02-26T11:09:46Z</time>
      </trkpt>
      <trkpt lat="45.34492" lon="1.184">
        <ele>251</ele>
        <time>2012-02-26T11:09:48Z</time>
      </trkpt>
      <trkpt lat="45.34494" lon="1.18398">
        <ele>252</ele>
        <time>2012-02-26T11:09:50Z</time>
      </trkpt>
      <trkpt lat="45.34497" lon="1.18396">
        <ele>252</ele>
        <time>2012-02-26T11:09:52Z</time>
      </trkpt>
      <trkpt lat="45.34501" lon="1.18392">
        <ele>253</ele>
        <time>2012-02-26T11:09:55Z</time>
      </trkpt>
      <trkpt lat="45.34503" lon="1.18389">
        <ele>253</ele>
        <time>2012-02-26T11:09:57Z</time>
      </trkpt>
      <trkpt lat="45.34505" lon="1.18387">
        <ele>253</ele>
        <time>2012-02-26T11:09:59Z</time>
      </trkpt>
      <trkpt lat="45.34507" lon="1.18384">
        <ele>253</ele>
        <time>2012-02-26T11:10:01Z</time>
      </trkpt>
      <trkpt lat="45.34509" lon="1.18381">
        <ele>253</ele>
        <time>2012-02-26T11:10:03Z</time>
      </trkpt>
      <trkpt lat="45.34512" lon="1.18379">
        <ele>253</ele>
        <time>2012-02-26T11:10:06Z</time>
      </trkpt>
      <trkpt lat="45.34513" lon="1.18377">
        <ele>253</ele>
        <time>2012-02-26T11:10:08Z</time>
      </trkpt>
      <trkpt lat="45.34519" lon="1.18375">
        <ele>253</ele>
        <time>2012-02-26T11:10:11Z</time>
      </trkpt>
      <trkpt lat="45.34522" lon="1.18373">
        <ele>253</ele>
        <time>2012-02-26T11:10:13Z</time>
      </trkpt>
      <trkpt lat="45.34525" lon="1.18372">
        <ele>254</ele>
        <time>2012-02-26T11:10:15Z</time>
      </trkpt>
      <trkpt lat="45.34528" lon="1.1837">
        <ele>255</ele>
        <time>2012-02-26T11:10:17Z</time>
      </trkpt>
      <trkpt lat="45.34531" lon="1.18367">
        <ele>255</ele>
        <time>2012-02-26T11:10:19Z</time>
      </trkpt>
      <trkpt lat="45.34535" lon="1.18364">
        <ele>256</ele>
        <time>2012-02-26T11:10:21Z</time>
      </trkpt>
      <trkpt lat="45.34537" lon="1.18362">
        <ele>257</ele>
        <time>2012-02-26T11:10:23Z</time>
      </trkpt>
      <trkpt lat="45.34539" lon="1.18361">
        <ele>258</ele>
        <time>2012-02-26T11:10:25Z</time>
      </trkpt>
      <trkpt lat="45.34543" lon="1.18359">
        <ele>259</ele>
        <time>2012-02-26T11:10:27Z</time>
      </trkpt>
      <trkpt lat="45.34546" lon="1.18356">
        <ele>260</ele>
        <time>2012-02-26T11:10:29Z</time>
      </trkpt>
      <trkpt lat="45.34549" lon="1.18353">
        <ele>261</ele>
        <time>2012-02-26T11:10:32Z</time>
      </trkpt>
      <trkpt lat="45.34551" lon="1.18351">
        <ele>262</ele>
        <time>2012-02-26T11:10:34Z</time>
      </trkpt>
      <trkpt lat="45.34553" lon="1.18347">
        <ele>262</ele>
        <time>2012-02-26T11:10:36Z</time>
      </trkpt>
      <trkpt lat="45.34557" lon="1.18343">
        <ele>262</ele>
        <time>2012-02-26T11:10:38Z</time>
      </trkpt>
      <trkpt lat="45.34559" lon="1.1834">
        <ele>262</ele>
        <time>2012-02-26T11:10:40Z</time>
      </trkpt>
      <trkpt lat="45.34562" lon="1.18337">
        <ele>262</ele>
        <time>2012-02-26T11:10:42Z</time>
      </trkpt>
      <trkpt lat="45.34566" lon="1.18333">
        <ele>262</ele>
        <time>2012-02-26T11:10:44Z</time>
      </trkpt>
      <trkpt lat="45.34569" lon="1.18329">
        <ele>262</ele>
        <time>2012-02-26T11:10:46Z</time>
      </trkpt>
      <trkpt lat="45.34575" lon="1.18325">
        <ele>262</ele>
        <time>2012-02-26T11:10:48Z</time>
      </trkpt>
      <trkpt lat="45.34579" lon="1.1832">
        <ele>262</ele>
        <time>2012-02-26T11:10:50Z</time>
      </trkpt>
      <trkpt lat="45.34583" lon="1.18316">
        <ele>262</ele>
        <time>2012-02-26T11:10:52Z</time>
      </trkpt>
      <trkpt lat="45.34587" lon="1.18311">
        <ele>263</ele>
        <time>2012-02-26T11:10:54Z</time>
      </trkpt>
      <trkpt lat="45.34591" lon="1.18307">
        <ele>265</ele>
        <time>2012-02-26T11:10:56Z</time>
      </trkpt>
      <trkpt lat="45.34595" lon="1.18303">
        <ele>266</ele>
        <time>2012-02-26T11:10:58Z</time>
      </trkpt>
      <trkpt lat="45.34598" lon="1.18298">
        <ele>267</ele>
        <time>2012-02-26T11:11:00Z</time>
      </trkpt>
      <trkpt lat="45.34601" lon="1.18294">
        <ele>268</ele>
        <time>2012-02-26T11:11:02Z</time>
      </trkpt>
      <trkpt lat="45.34604" lon="1.18291">
        <ele>268</ele>
        <time>2012-02-26T11:11:04Z</time>
      </trkpt>
      <trkpt lat="45.34606" lon="1.18286">
        <ele>268</ele>
        <time>2012-02-26T11:11:06Z</time>
      </trkpt>
      <trkpt lat="45.34611" lon="1.1828">
        <ele>269</ele>
        <time>2012-02-26T11:11:08Z</time>
      </trkpt>
      <trkpt lat="45.34615" lon="1.18276">
        <ele>269</ele>
        <time>2012-02-26T11:11:10Z</time>
      </trkpt>
      <trkpt lat="45.34618" lon="1.18271">
        <ele>270</ele>
        <time>2012-02-26T11:11:12Z</time>
      </trkpt>
      <trkpt lat="45.34621" lon="1.18266">
        <ele>270</ele>
        <time>2012-02-26T11:11:14Z</time>
      </trkpt>
      <trkpt lat="45.34624" lon="1.18261">
        <ele>271</ele>
        <time>2012-02-26T11:11:16Z</time>
      </trkpt>
      <trkpt lat="45.34626" lon="1.18257">
        <ele>273</ele>
        <time>2012-02-26T11:11:18Z</time>
      </trkpt>
      <trkpt lat="45.34628" lon="1.18252">
        <ele>275</ele>
        <time>2012-02-26T11:11:20Z</time>
      </trkpt>
      <trkpt lat="45.34629" lon="1.18249">
        <ele>276</ele>
        <time>2012-02-26T11:11:22Z</time>
      </trkpt>
      <trkpt lat="45.3463" lon="1.18245">
        <ele>277</ele>
        <time>2012-02-26T11:11:24Z</time>
      </trkpt>
      <trkpt lat="45.34632" lon="1.18242">
        <ele>277</ele>
        <time>2012-02-26T11:11:26Z</time>
      </trkpt>
      <trkpt lat="45.34634" lon="1.1824">
        <ele>277</ele>
        <time>2012-02-26T11:11:28Z</time>
      </trkpt>
      <trkpt lat="45.34636" lon="1.18236">
        <ele>277</ele>
        <time>2012-02-26T11:11:31Z</time>
      </trkpt>
      <trkpt lat="45.34639" lon="1.18231">
        <ele>277</ele>
        <time>2012-02-26T11:11:35Z</time>
      </trkpt>
      <trkpt lat="45.34641" lon="1.18228">
        <ele>277</ele>
        <time>2012-02-26T11:11:37Z</time>
      </trkpt>
      <trkpt lat="45.34643" lon="1.18225">
        <ele>277</ele>
        <time>2012-02-26T11:11:40Z</time>
      </trkpt>
      <trkpt lat="45.34644" lon="1.18223">
        <ele>277</ele>
        <time>2012-02-26T11:11:42Z</time>
      </trkpt>
      <trkpt lat="45.34647" lon="1.18219">
        <ele>277</ele>
        <time>2012-02-26T11:11:44Z</time>
      </trkpt>
      <trkpt lat="45.34649" lon="1.18217">
        <ele>277</ele>
        <time>2012-02-26T11:11:46Z</time>
      </trkpt>
      <trkpt lat="45.3465" lon="1.18214">
        <ele>277</ele>
        <time>2012-02-26T11:11:48Z</time>
      </trkpt>
      <trkpt lat="45.34651" lon="1.18211">
        <ele>277</ele>
        <time>2012-02-26T11:11:50Z</time>
      </trkpt>
      <trkpt lat="45.34652" lon="1.18209">
        <ele>277</ele>
        <time>2012-02-26T11:11:52Z</time>
      </trkpt>
      <trkpt lat="45.34652" lon="1.18205">
        <ele>277</ele>
        <time>2012-02-26T11:11:54Z</time>
      </trkpt>
      <trkpt lat="45.34654" lon="1.18203">
        <ele>277</ele>
        <time>2012-02-26T11:11:56Z</time>
      </trkpt>
      <trkpt lat="45.34655" lon="1.182">
        <ele>277</ele>
        <time>2012-02-26T11:11:58Z</time>
      </trkpt>
      <trkpt lat="45.34656" lon="1.18196">
        <ele>277</ele>
        <time>2012-02-26T11:12:00Z</time>
      </trkpt>
      <trkpt lat="45.34657" lon="1.18193">
        <ele>277</ele>
        <time>2012-02-26T11:12:02Z</time>
      </trkpt>
      <trkpt lat="45.34658" lon="1.18189">
        <ele>277</ele>
        <time>2012-02-26T11:12:04Z</time>
      </trkpt>
      <trkpt lat="45.34661" lon="1.18185">
        <ele>277</ele>
        <time>2012-02-26T11:12:07Z</time>
      </trkpt>
      <trkpt lat="45.34663" lon="1.18182">
        <ele>277</ele>
        <time>2012-02-26T11:12:09Z</time>
      </trkpt>
      <trkpt lat="45.34665" lon="1.18178">
        <ele>277</ele>
        <time>2012-02-26T11:12:12Z</time>
      </trkpt>
      <trkpt lat="45.34667" lon="1.18173">
        <ele>277</ele>
        <time>2012-02-26T11:12:16Z</time>
      </trkpt>
      <trkpt lat="45.34671" lon="1.18168">
        <ele>277</ele>
        <time>2012-02-26T11:12:19Z</time>
      </trkpt>
      <trkpt lat="45.34672" lon="1.18165">
        <ele>277</ele>
        <time>2012-02-26T11:12:21Z</time>
      </trkpt>
      <trkpt lat="45.34673" lon="1.18162">
        <ele>277</ele>
        <time>2012-02-26T11:12:23Z</time>
      </trkpt>
      <trkpt lat="45.34674" lon="1.18157">
        <ele>277</ele>
        <time>2012-02-26T11:12:25Z</time>
      </trkpt>
      <trkpt lat="45.34676" lon="1.18152">
        <ele>277</ele>
        <time>2012-02-26T11:12:27Z</time>
      </trkpt>
      <trkpt lat="45.34677" lon="1.18149">
        <ele>277</ele>
        <time>2012-02-26T11:12:29Z</time>
      </trkpt>
      <trkpt lat="45.34679" lon="1.18146">
        <ele>277</ele>
        <time>2012-02-26T11:12:31Z</time>
      </trkpt>
      <trkpt lat="45.34681" lon="1.1814">
        <ele>277</ele>
        <time>2012-02-26T11:12:34Z</time>
      </trkpt>
      <trkpt lat="45.34683" lon="1.18137">
        <ele>278</ele>
        <time>2012-02-26T11:12:36Z</time>
      </trkpt>
      <trkpt lat="45.34687" lon="1.18131">
        <ele>280</ele>
        <time>2012-02-26T11:12:39Z</time>
      </trkpt>
      <trkpt lat="45.3469" lon="1.18128">
        <ele>282</ele>
        <time>2012-02-26T11:12:41Z</time>
      </trkpt>
      <trkpt lat="45.34693" lon="1.18127">
        <ele>283</ele>
        <time>2012-02-26T11:12:43Z</time>
      </trkpt>
      <trkpt lat="45.34695" lon="1.18124">
        <ele>283</ele>
        <time>2012-02-26T11:12:45Z</time>
      </trkpt>
      <trkpt lat="45.34697" lon="1.18121">
        <ele>283</ele>
        <time>2012-02-26T11:12:47Z</time>
      </trkpt>
      <trkpt lat="45.34699" lon="1.18119">
        <ele>283</ele>
        <time>2012-02-26T11:12:49Z</time>
      </trkpt>
      <trkpt lat="45.34701" lon="1.18116">
        <ele>283</ele>
        <time>2012-02-26T11:12:51Z</time>
      </trkpt>
      <trkpt lat="45.34703" lon="1.18112">
        <ele>283</ele>
        <time>2012-02-26T11:12:53Z</time>
      </trkpt>
      <trkpt lat="45.34704" lon="1.1811">
        <ele>283</ele>
        <time>2012-02-26T11:12:55Z</time>
      </trkpt>
      <trkpt lat="45.34705" lon="1.18107">
        <ele>283</ele>
        <time>2012-02-26T11:12:57Z</time>
      </trkpt>
      <trkpt lat="45.34708" lon="1.18105">
        <ele>283</ele>
        <time>2012-02-26T11:12:59Z</time>
      </trkpt>
      <trkpt lat="45.34709" lon="1.18102">
        <ele>283</ele>
        <time>2012-02-26T11:13:01Z</time>
      </trkpt>
      <trkpt lat="45.34712" lon="1.18098">
        <ele>283</ele>
        <time>2012-02-26T11:13:04Z</time>
      </trkpt>
      <trkpt lat="45.34713" lon="1.18095">
        <ele>283</ele>
        <time>2012-02-26T11:13:06Z</time>
      </trkpt>
      <trkpt lat="45.34715" lon="1.18093">
        <ele>283</ele>
        <time>2012-02-26T11:13:08Z</time>
      </trkpt>
      <trkpt lat="45.34716" lon="1.18089">
        <ele>283</ele>
        <time>2012-02-26T11:13:10Z</time>
      </trkpt>
      <trkpt lat="45.34718" lon="1.18086">
        <ele>283</ele>
        <time>2012-02-26T11:13:12Z</time>
      </trkpt>
      <trkpt lat="45.34718" lon="1.18084">
        <ele>283</ele>
        <time>2012-02-26T11:13:14Z</time>
      </trkpt>
      <trkpt lat="45.34719" lon="1.18081">
        <ele>283</ele>
        <time>2012-02-26T11:13:16Z</time>
      </trkpt>
      <trkpt lat="45.34719" lon="1.18078">
        <ele>283</ele>
        <time>2012-02-26T11:13:18Z</time>
      </trkpt>
      <trkpt lat="45.3472" lon="1.18075">
        <ele>283</ele>
        <time>2012-02-26T11:13:20Z</time>
      </trkpt>
      <trkpt lat="45.34721" lon="1.18071">
        <ele>283</ele>
        <time>2012-02-26T11:13:22Z</time>
      </trkpt>
      <trkpt lat="45.34723" lon="1.18068">
        <ele>283</ele>
        <time>2012-02-26T11:13:24Z</time>
      </trkpt>
      <trkpt lat="45.34726" lon="1.18065">
        <ele>283</ele>
        <time>2012-02-26T11:13:26Z</time>
      </trkpt>
      <trkpt lat="45.34728" lon="1.18063">
        <ele>283</ele>
        <time>2012-02-26T11:13:28Z</time>
      </trkpt>
      <trkpt lat="45.3473" lon="1.1806">
        <ele>283</ele>
        <time>2012-02-26T11:13:30Z</time>
      </trkpt>
      <trkpt lat="45.34733" lon="1.18057">
        <ele>284</ele>
        <time>2012-02-26T11:13:32Z</time>
      </trkpt>
      <trkpt lat="45.34735" lon="1.18055">
        <ele>285</ele>
        <time>2012-02-26T11:13:34Z</time>
      </trkpt>
      <trkpt lat="45.34737" lon="1.18053">
        <ele>285</ele>
        <time>2012-02-26T11:13:36Z</time>
      </trkpt>
      <trkpt lat="45.3474" lon="1.1805">
        <ele>285</ele>
        <time>2012-02-26T11:13:38Z</time>
      </trkpt>
      <trkpt lat="45.34743" lon="1.18047">
        <ele>286</ele>
        <time>2012-02-26T11:13:40Z</time>
      </trkpt>
      <trkpt lat="45.34747" lon="1.18042">
        <ele>287</ele>
        <time>2012-02-26T11:13:44Z</time>
      </trkpt>
      <trkpt lat="45.34749" lon="1.18039">
        <ele>287</ele>
        <time>2012-02-26T11:13:46Z</time>
      </trkpt>
      <trkpt lat="45.34752" lon="1.18036">
        <ele>287</ele>
        <time>2012-02-26T11:13:48Z</time>
      </trkpt>
      <trkpt lat="45.34754" lon="1.18033">
        <ele>287</ele>
        <time>2012-02-26T11:13:50Z</time>
      </trkpt>
      <trkpt lat="45.34757" lon="1.1803">
        <ele>287</ele>
        <time>2012-02-26T11:13:52Z</time>
      </trkpt>
      <trkpt lat="45.34759" lon="1.18027">
        <ele>287</ele>
        <time>2012-02-26T11:13:54Z</time>
      </trkpt>
      <trkpt lat="45.34762" lon="1.18024">
        <ele>288</ele>
        <time>2012-02-26T11:13:56Z</time>
      </trkpt>
      <trkpt lat="45.34765" lon="1.18022">
        <ele>290</ele>
        <time>2012-02-26T11:13:58Z</time>
      </trkpt>
      <trkpt lat="45.34768" lon="1.1802">
        <ele>291</ele>
        <time>2012-02-26T11:14:00Z</time>
      </trkpt>
      <trkpt lat="45.34771" lon="1.18018">
        <ele>291</ele>
        <time>2012-02-26T11:14:02Z</time>
      </trkpt>
      <trkpt lat="45.34774" lon="1.18017">
        <ele>292</ele>
        <time>2012-02-26T11:14:04Z</time>
      </trkpt>
      <trkpt lat="45.34777" lon="1.18016">
        <ele>293</ele>
        <time>2012-02-26T11:14:06Z</time>
      </trkpt>
      <trkpt lat="45.34779" lon="1.18015">
        <ele>293</ele>
        <time>2012-02-26T11:14:08Z</time>
      </trkpt>
      <trkpt lat="45.34783" lon="1.18014">
        <ele>294</ele>
        <time>2012-02-26T11:14:11Z</time>
      </trkpt>
      <trkpt lat="45.34786" lon="1.18013">
        <ele>295</ele>
        <time>2012-02-26T11:14:13Z</time>
      </trkpt>
      <trkpt lat="45.3479" lon="1.18012">
        <ele>295</ele>
        <time>2012-02-26T11:14:15Z</time>
      </trkpt>
      <trkpt lat="45.34792" lon="1.18012">
        <ele>296</ele>
        <time>2012-02-26T11:14:17Z</time>
      </trkpt>
      <trkpt lat="45.34794" lon="1.18011">
        <ele>296</ele>
        <time>2012-02-26T11:14:19Z</time>
      </trkpt>
      <trkpt lat="45.34796" lon="1.18011">
        <ele>298</ele>
        <time>2012-02-26T11:14:21Z</time>
      </trkpt>
      <trkpt lat="45.348" lon="1.1801">
        <ele>299</ele>
        <time>2012-02-26T11:14:24Z</time>
      </trkpt>
      <trkpt lat="45.34803" lon="1.1801">
        <ele>300</ele>
        <time>2012-02-26T11:14:26Z</time>
      </trkpt>
      <trkpt lat="45.34806" lon="1.18009">
        <ele>301</ele>
        <time>2012-02-26T11:14:28Z</time>
      </trkpt>
      <trkpt lat="45.34809" lon="1.18009">
        <ele>302</ele>
        <time>2012-02-26T11:14:30Z</time>
      </trkpt>
      <trkpt lat="45.34812" lon="1.18008">
        <ele>302</ele>
        <time>2012-02-26T11:14:32Z</time>
      </trkpt>
      <trkpt lat="45.34816" lon="1.18007">
        <ele>303</ele>
        <time>2012-02-26T11:14:34Z</time>
      </trkpt>
      <trkpt lat="45.34821" lon="1.18006">
        <ele>305</ele>
        <time>2012-02-26T11:14:37Z</time>
      </trkpt>
      <trkpt lat="45.34827" lon="1.18008">
        <ele>305</ele>
        <time>2012-02-26T11:14:40Z</time>
      </trkpt>
      <trkpt lat="45.3483" lon="1.1801">
        <ele>306</ele>
        <time>2012-02-26T11:14:42Z</time>
      </trkpt>
      <trkpt lat="45.34834" lon="1.18012">
        <ele>306</ele>
        <time>2012-02-26T11:14:44Z</time>
      </trkpt>
      <trkpt lat="45.34842" lon="1.18017">
        <ele>307</ele>
        <time>2012-02-26T11:14:47Z</time>
      </trkpt>
      <trkpt lat="45.34848" lon="1.18021">
        <ele>309</ele>
        <time>2012-02-26T11:14:49Z</time>
      </trkpt>
      <trkpt lat="45.34854" lon="1.18025">
        <ele>310</ele>
        <time>2012-02-26T11:14:51Z</time>
      </trkpt>
      <trkpt lat="45.3486" lon="1.18029">
        <ele>311</ele>
        <time>2012-02-26T11:14:53Z</time>
      </trkpt>
      <trkpt lat="45.34866" lon="1.18032">
        <ele>311</ele>
        <time>2012-02-26T11:14:55Z</time>
      </trkpt>
      <trkpt lat="45.34871" lon="1.18035">
        <ele>312</ele>
        <time>2012-02-26T11:14:57Z</time>
      </trkpt>
      <trkpt lat="45.34876" lon="1.18039">
        <ele>312</ele>
        <time>2012-02-26T11:14:59Z</time>
      </trkpt>
      <trkpt lat="45.34882" lon="1.18042">
        <ele>313</ele>
        <time>2012-02-26T11:15:01Z</time>
      </trkpt>
      <trkpt lat="45.34887" lon="1.18045">
        <ele>314</ele>
        <time>2012-02-26T11:15:03Z</time>
      </trkpt>
      <trkpt lat="45.34892" lon="1.18048">
        <ele>314</ele>
        <time>2012-02-26T11:15:05Z</time>
      </trkpt>
      <trkpt lat="45.34898" lon="1.1805">
        <ele>314</ele>
        <time>2012-02-26T11:15:07Z</time>
      </trkpt>
      <trkpt lat="45.34903" lon="1.18053">
        <ele>314</ele>
        <time>2012-02-26T11:15:09Z</time>
      </trkpt>
      <trkpt lat="45.34911" lon="1.18056">
        <ele>314</ele>
        <time>2012-02-26T11:15:12Z</time>
      </trkpt>
      <trkpt lat="45.34918" lon="1.18056">
        <ele>314</ele>
        <time>2012-02-26T11:15:14Z</time>
      </trkpt>
      <trkpt lat="45.34924" lon="1.18057">
        <ele>314</ele>
        <time>2012-02-26T11:15:16Z</time>
      </trkpt>
      <trkpt lat="45.34934" lon="1.18057">
        <ele>314</ele>
        <time>2012-02-26T11:15:19Z</time>
      </trkpt>
      <trkpt lat="45.34943" lon="1.18056">
        <ele>314</ele>
        <time>2012-02-26T11:15:22Z</time>
      </trkpt>
      <trkpt lat="45.34949" lon="1.18055">
        <ele>314</ele>
        <time>2012-02-26T11:15:24Z</time>
      </trkpt>
      <trkpt lat="45.34959" lon="1.18053">
        <ele>314</ele>
        <time>2012-02-26T11:15:27Z</time>
      </trkpt>
      <trkpt lat="45.34965" lon="1.18051">
        <ele>314</ele>
        <time>2012-02-26T11:15:29Z</time>
      </trkpt>
      <trkpt lat="45.34971" lon="1.1805">
        <ele>314</ele>
        <time>2012-02-26T11:15:31Z</time>
      </trkpt>
      <trkpt lat="45.34978" lon="1.18051">
        <ele>314</ele>
        <time>2012-02-26T11:15:33Z</time>
      </trkpt>
      <trkpt lat="45.34985" lon="1.1805">
        <ele>314</ele>
        <time>2012-02-26T11:15:35Z</time>
      </trkpt>
      <trkpt lat="45.34991" lon="1.1805">
        <ele>314</ele>
        <time>2012-02-26T11:15:37Z</time>
      </trkpt>
      <trkpt lat="45.34997" lon="1.1805">
        <ele>314</ele>
        <time>2012-02-26T11:15:39Z</time>
      </trkpt>
      <trkpt lat="45.35003" lon="1.1805">
        <ele>314</ele>
        <time>2012-02-26T11:15:41Z</time>
      </trkpt>
      <trkpt lat="45.35013" lon="1.18051">
        <ele>314</ele>
        <time>2012-02-26T11:15:44Z</time>
      </trkpt>
      <trkpt lat="45.35019" lon="1.18051">
        <ele>314</ele>
        <time>2012-02-26T11:15:46Z</time>
      </trkpt>
      <trkpt lat="45.35025" lon="1.1805">
        <ele>314</ele>
        <time>2012-02-26T11:15:48Z</time>
      </trkpt>
      <trkpt lat="45.35031" lon="1.18047">
        <ele>314</ele>
        <time>2012-02-26T11:15:50Z</time>
      </trkpt>
      <trkpt lat="45.35037" lon="1.18044">
        <ele>314</ele>
        <time>2012-02-26T11:15:52Z</time>
      </trkpt>
      <trkpt lat="45.35045" lon="1.18036">
        <ele>313</ele>
        <time>2012-02-26T11:15:55Z</time>
      </trkpt>
      <trkpt lat="45.35051" lon="1.18031">
        <ele>313</ele>
        <time>2012-02-26T11:15:57Z</time>
      </trkpt>
      <trkpt lat="45.35056" lon="1.18026">
        <ele>312</ele>
        <time>2012-02-26T11:15:59Z</time>
      </trkpt>
      <trkpt lat="45.35062" lon="1.18021">
        <ele>312</ele>
        <time>2012-02-26T11:16:01Z</time>
      </trkpt>
      <trkpt lat="45.35067" lon="1.18017">
        <ele>311</ele>
        <time>2012-02-26T11:16:03Z</time>
      </trkpt>
      <trkpt lat="45.35074" lon="1.18013">
        <ele>311</ele>
        <time>2012-02-26T11:16:05Z</time>
      </trkpt>
      <trkpt lat="45.3508" lon="1.18011">
        <ele>310</ele>
        <time>2012-02-26T11:16:07Z</time>
      </trkpt>
      <trkpt lat="45.35086" lon="1.18009">
        <ele>310</ele>
        <time>2012-02-26T11:16:09Z</time>
      </trkpt>
      <trkpt lat="45.35093" lon="1.18009">
        <ele>310</ele>
        <time>2012-02-26T11:16:11Z</time>
      </trkpt>
      <trkpt lat="45.35101" lon="1.18009">
        <ele>309</ele>
        <time>2012-02-26T11:16:13Z</time>
      </trkpt>
      <trkpt lat="45.35107" lon="1.1801">
        <ele>309</ele>
        <time>2012-02-26T11:16:15Z</time>
      </trkpt>
      <trkpt lat="45.35117" lon="1.1801">
        <ele>308</ele>
        <time>2012-02-26T11:16:18Z</time>
      </trkpt>
      <trkpt lat="45.35125" lon="1.1801">
        <ele>307</ele>
        <time>2012-02-26T11:16:21Z</time>
      </trkpt>
      <trkpt lat="45.3513" lon="1.18005">
        <ele>307</ele>
        <time>2012-02-26T11:16:23Z</time>
      </trkpt>
      <trkpt lat="45.35135" lon="1.18001">
        <ele>307</ele>
        <time>2012-02-26T11:16:25Z</time>
      </trkpt>
      <trkpt lat="45.3514" lon="1.17998">
        <ele>306</ele>
        <time>2012-02-26T11:16:27Z</time>
      </trkpt>
      <trkpt lat="45.3515" lon="1.17992">
        <ele>306</ele>
        <time>2012-02-26T11:16:30Z</time>
      </trkpt>
      <trkpt lat="45.35156" lon="1.1799">
        <ele>306</ele>
        <time>2012-02-26T11:16:32Z</time>
      </trkpt>
      <trkpt lat="45.35166" lon="1.17988">
        <ele>306</ele>
        <time>2012-02-26T11:16:35Z</time>
      </trkpt>
      <trkpt lat="45.35173" lon="1.17991">
        <ele>306</ele>
        <time>2012-02-26T11:16:37Z</time>
      </trkpt>
      <trkpt lat="45.35178" lon="1.17996">
        <ele>306</ele>
        <time>2012-02-26T11:16:39Z</time>
      </trkpt>
      <trkpt lat="45.35182" lon="1.18003">
        <ele>306</ele>
        <time>2012-02-26T11:16:41Z</time>
      </trkpt>
      <trkpt lat="45.35188" lon="1.18015">
        <ele>305</ele>
        <time>2012-02-26T11:16:44Z</time>
      </trkpt>
      <trkpt lat="45.35192" lon="1.18026">
        <ele>304</ele>
        <time>2012-02-26T11:16:47Z</time>
      </trkpt>
      <trkpt lat="45.35198" lon="1.18037">
        <ele>303</ele>
        <time>2012-02-26T11:16:50Z</time>
      </trkpt>
      <trkpt lat="45.35201" lon="1.18046">
        <ele>303</ele>
        <time>2012-02-26T11:16:52Z</time>
      </trkpt>
      <trkpt lat="45.35203" lon="1.18054">
        <ele>303</ele>
        <time>2012-02-26T11:16:54Z</time>
      </trkpt>
      <trkpt lat="45.35208" lon="1.18067">
        <ele>303</ele>
        <time>2012-02-26T11:16:57Z</time>
      </trkpt>
      <trkpt lat="45.35212" lon="1.18075">
        <ele>303</ele>
        <time>2012-02-26T11:16:59Z</time>
      </trkpt>
      <trkpt lat="45.35217" lon="1.18082">
        <ele>303</ele>
        <time>2012-02-26T11:17:01Z</time>
      </trkpt>
      <trkpt lat="45.35224" lon="1.18093">
        <ele>303</ele>
        <time>2012-02-26T11:17:04Z</time>
      </trkpt>
      <trkpt lat="45.35228" lon="1.181">
        <ele>303</ele>
        <time>2012-02-26T11:17:06Z</time>
      </trkpt>
      <trkpt lat="45.35233" lon="1.18107">
        <ele>303</ele>
        <time>2012-02-26T11:17:08Z</time>
      </trkpt>
      <trkpt lat="45.35239" lon="1.18118">
        <ele>303</ele>
        <time>2012-02-26T11:17:11Z</time>
      </trkpt>
      <trkpt lat="45.35243" lon="1.18125">
        <ele>303</ele>
        <time>2012-02-26T11:17:13Z</time>
      </trkpt>
      <trkpt lat="45.35247" lon="1.18132">
        <ele>303</ele>
        <time>2012-02-26T11:17:15Z</time>
      </trkpt>
      <trkpt lat="45.35254" lon="1.18142">
        <ele>303</ele>
        <time>2012-02-26T11:17:18Z</time>
      </trkpt>
      <trkpt lat="45.35258" lon="1.1815">
        <ele>303</ele>
        <time>2012-02-26T11:17:20Z</time>
      </trkpt>
      <trkpt lat="45.35263" lon="1.18157">
        <ele>303</ele>
        <time>2012-02-26T11:17:22Z</time>
      </trkpt>
      <trkpt lat="45.35267" lon="1.18164">
        <ele>303</ele>
        <time>2012-02-26T11:17:24Z</time>
      </trkpt>
      <trkpt lat="45.35272" lon="1.18171">
        <ele>303</ele>
        <time>2012-02-26T11:17:26Z</time>
      </trkpt>
      <trkpt lat="45.35276" lon="1.18178">
        <ele>303</ele>
        <time>2012-02-26T11:17:28Z</time>
      </trkpt>
      <trkpt lat="45.35281" lon="1.18185">
        <ele>302</ele>
        <time>2012-02-26T11:17:30Z</time>
      </trkpt>
      <trkpt lat="45.35285" lon="1.18192">
        <ele>302</ele>
        <time>2012-02-26T11:17:32Z</time>
      </trkpt>
      <trkpt lat="45.3529" lon="1.18198">
        <ele>301</ele>
        <time>2012-02-26T11:17:34Z</time>
      </trkpt>
      <trkpt lat="45.35294" lon="1.18205">
        <ele>301</ele>
        <time>2012-02-26T11:17:36Z</time>
      </trkpt>
      <trkpt lat="45.35299" lon="1.18212">
        <ele>301</ele>
        <time>2012-02-26T11:17:38Z</time>
      </trkpt>
      <trkpt lat="45.35303" lon="1.18218">
        <ele>301</ele>
        <time>2012-02-26T11:17:40Z</time>
      </trkpt>
      <trkpt lat="45.35307" lon="1.18225">
        <ele>301</ele>
        <time>2012-02-26T11:17:42Z</time>
      </trkpt>
      <trkpt lat="45.35313" lon="1.18233">
        <ele>301</ele>
        <time>2012-02-26T11:17:45Z</time>
      </trkpt>
      <trkpt lat="45.35318" lon="1.18238">
        <ele>301</ele>
        <time>2012-02-26T11:17:47Z</time>
      </trkpt>
      <trkpt lat="45.35323" lon="1.18243">
        <ele>301</ele>
        <time>2012-02-26T11:17:49Z</time>
      </trkpt>
      <trkpt lat="45.3533" lon="1.18251">
        <ele>301</ele>
        <time>2012-02-26T11:17:52Z</time>
      </trkpt>
      <trkpt lat="45.35334" lon="1.18262">
        <ele>301</ele>
        <time>2012-02-26T11:17:55Z</time>
      </trkpt>
      <trkpt lat="45.35335" lon="1.18271">
        <ele>300</ele>
        <time>2012-02-26T11:17:57Z</time>
      </trkpt>
      <trkpt lat="45.35336" lon="1.1828">
        <ele>300</ele>
        <time>2012-02-26T11:17:59Z</time>
      </trkpt>
      <trkpt lat="45.35336" lon="1.18289">
        <ele>300</ele>
        <time>2012-02-26T11:18:01Z</time>
      </trkpt>
      <trkpt lat="45.35337" lon="1.18302">
        <ele>299</ele>
        <time>2012-02-26T11:18:04Z</time>
      </trkpt>
      <trkpt lat="45.35338" lon="1.18311">
        <ele>299</ele>
        <time>2012-02-26T11:18:06Z</time>
      </trkpt>
      <trkpt lat="45.35339" lon="1.1832">
        <ele>299</ele>
        <time>2012-02-26T11:18:08Z</time>
      </trkpt>
      <trkpt lat="45.35339" lon="1.1833">
        <ele>299</ele>
        <time>2012-02-26T11:18:10Z</time>
      </trkpt>
      <trkpt lat="45.3534" lon="1.1834">
        <ele>299</ele>
        <time>2012-02-26T11:18:12Z</time>
      </trkpt>
      <trkpt lat="45.35341" lon="1.1835">
        <ele>299</ele>
        <time>2012-02-26T11:18:14Z</time>
      </trkpt>
      <trkpt lat="45.35341" lon="1.18359">
        <ele>298</ele>
        <time>2012-02-26T11:18:16Z</time>
      </trkpt>
      <trkpt lat="45.35342" lon="1.18369">
        <ele>298</ele>
        <time>2012-02-26T11:18:18Z</time>
      </trkpt>
      <trkpt lat="45.35343" lon="1.18378">
        <ele>298</ele>
        <time>2012-02-26T11:18:20Z</time>
      </trkpt>
      <trkpt lat="45.35343" lon="1.18388">
        <ele>297</ele>
        <time>2012-02-26T11:18:22Z</time>
      </trkpt>
      <trkpt lat="45.35343" lon="1.18397">
        <ele>297</ele>
        <time>2012-02-26T11:18:24Z</time>
      </trkpt>
      <trkpt lat="45.35343" lon="1.18412">
        <ele>295</ele>
        <time>2012-02-26T11:18:27Z</time>
      </trkpt>
      <trkpt lat="45.35344" lon="1.18423">
        <ele>295</ele>
        <time>2012-02-26T11:18:29Z</time>
      </trkpt>
      <trkpt lat="45.35344" lon="1.18432">
        <ele>295</ele>
        <time>2012-02-26T11:18:31Z</time>
      </trkpt>
      <trkpt lat="45.35344" lon="1.18442">
        <ele>295</ele>
        <time>2012-02-26T11:18:33Z</time>
      </trkpt>
      <trkpt lat="45.35345" lon="1.18451">
        <ele>295</ele>
        <time>2012-02-26T11:18:35Z</time>
      </trkpt>
      <trkpt lat="45.35346" lon="1.18461">
        <ele>295</ele>
        <time>2012-02-26T11:18:37Z</time>
      </trkpt>
      <trkpt lat="45.35345" lon="1.18475">
        <ele>295</ele>
        <time>2012-02-26T11:18:40Z</time>
      </trkpt>
      <trkpt lat="45.35343" lon="1.18483">
        <ele>295</ele>
        <time>2012-02-26T11:18:42Z</time>
      </trkpt>
      <trkpt lat="45.35339" lon="1.18491">
        <ele>294</ele>
        <time>2012-02-26T11:18:44Z</time>
      </trkpt>
      <trkpt lat="45.35335" lon="1.18498">
        <ele>294</ele>
        <time>2012-02-26T11:18:46Z</time>
      </trkpt>
      <trkpt lat="45.35326" lon="1.18507">
        <ele>293</ele>
        <time>2012-02-26T11:18:49Z</time>
      </trkpt>
      <trkpt lat="45.35319" lon="1.18511">
        <ele>293</ele>
        <time>2012-02-26T11:18:51Z</time>
      </trkpt>
      <trkpt lat="45.35309" lon="1.18519">
        <ele>292</ele>
        <time>2012-02-26T11:18:54Z</time>
      </trkpt>
      <trkpt lat="45.35303" lon="1.18526">
        <ele>291</ele>
        <time>2012-02-26T11:18:56Z</time>
      </trkpt>
      <trkpt lat="45.35295" lon="1.18539">
        <ele>290</ele>
        <time>2012-02-26T11:18:59Z</time>
      </trkpt>
      <trkpt lat="45.3529" lon="1.18547">
        <ele>289</ele>
        <time>2012-02-26T11:19:01Z</time>
      </trkpt>
      <trkpt lat="45.35281" lon="1.18558">
        <ele>287</ele>
        <time>2012-02-26T11:19:04Z</time>
      </trkpt>
      <trkpt lat="45.35278" lon="1.18568">
        <ele>286</ele>
        <time>2012-02-26T11:19:06Z</time>
      </trkpt>
      <trkpt lat="45.35278" lon="1.18576">
        <ele>285</ele>
        <time>2012-02-26T11:19:08Z</time>
      </trkpt>
      <trkpt lat="45.35278" lon="1.18586">
        <ele>285</ele>
        <time>2012-02-26T11:19:10Z</time>
      </trkpt>
      <trkpt lat="45.35278" lon="1.18596">
        <ele>284</ele>
        <time>2012-02-26T11:19:12Z</time>
      </trkpt>
      <trkpt lat="45.35278" lon="1.18611">
        <ele>283</ele>
        <time>2012-02-26T11:19:15Z</time>
      </trkpt>
      <trkpt lat="45.35279" lon="1.18621">
        <ele>283</ele>
        <time>2012-02-26T11:19:17Z</time>
      </trkpt>
      <trkpt lat="45.35279" lon="1.18631">
        <ele>282</ele>
        <time>2012-02-26T11:19:19Z</time>
      </trkpt>
      <trkpt lat="45.35278" lon="1.18641">
        <ele>282</ele>
        <time>2012-02-26T11:19:21Z</time>
      </trkpt>
      <trkpt lat="45.35279" lon="1.18655">
        <ele>281</ele>
        <time>2012-02-26T11:19:24Z</time>
      </trkpt>
      <trkpt lat="45.35281" lon="1.18664">
        <ele>279</ele>
        <time>2012-02-26T11:19:27Z</time>
      </trkpt>
      <trkpt lat="45.35287" lon="1.18674">
        <ele>277</ele>
        <time>2012-02-26T11:19:30Z</time>
      </trkpt>
      <trkpt lat="45.35291" lon="1.18679">
        <ele>276</ele>
        <time>2012-02-26T11:19:32Z</time>
      </trkpt>
      <trkpt lat="45.35299" lon="1.18686">
        <ele>274</ele>
        <time>2012-02-26T11:19:35Z</time>
      </trkpt>
      <trkpt lat="45.35304" lon="1.18694">
        <ele>273</ele>
        <time>2012-02-26T11:19:37Z</time>
      </trkpt>
      <trkpt lat="45.3531" lon="1.18706">
        <ele>270</ele>
        <time>2012-02-26T11:19:40Z</time>
      </trkpt>
      <trkpt lat="45.35315" lon="1.18712">
        <ele>269</ele>
        <time>2012-02-26T11:19:42Z</time>
      </trkpt>
      <trkpt lat="45.35326" lon="1.18719">
        <ele>266</ele>
        <time>2012-02-26T11:19:45Z</time>
      </trkpt>
      <trkpt lat="45.35332" lon="1.18723">
        <ele>265</ele>
        <time>2012-02-26T11:19:47Z</time>
      </trkpt>
      <trkpt lat="45.35341" lon="1.18727">
        <ele>263</ele>
        <time>2012-02-26T11:19:50Z</time>
      </trkpt>
      <trkpt lat="45.35349" lon="1.1873">
        <ele>261</ele>
        <time>2012-02-26T11:19:52Z</time>
      </trkpt>
      <trkpt lat="45.3536" lon="1.18732">
        <ele>260</ele>
        <time>2012-02-26T11:19:55Z</time>
      </trkpt>
      <trkpt lat="45.35367" lon="1.18733">
        <ele>260</ele>
        <time>2012-02-26T11:19:57Z</time>
      </trkpt>
      <trkpt lat="45.35373" lon="1.18737">
        <ele>258</ele>
        <time>2012-02-26T11:20:00Z</time>
      </trkpt>
      <trkpt lat="45.35371" lon="1.18737">
        <ele>258</ele>
        <time>2012-02-26T11:20:02Z</time>
      </trkpt>
      <trkpt lat="45.35363" lon="1.1874">
        <ele>257</ele>
        <time>2012-02-26T11:20:05Z</time>
      </trkpt>
      <trkpt lat="45.35356" lon="1.18746">
        <ele>256</ele>
        <time>2012-02-26T11:20:07Z</time>
      </trkpt>
      <trkpt lat="45.35347" lon="1.18755">
        <ele>256</ele>
        <time>2012-02-26T11:20:10Z</time>
      </trkpt>
      <trkpt lat="45.3534" lon="1.18762">
        <ele>256</ele>
        <time>2012-02-26T11:20:12Z</time>
      </trkpt>
      <trkpt lat="45.3533" lon="1.18773">
        <ele>256</ele>
        <time>2012-02-26T11:20:15Z</time>
      </trkpt>
      <trkpt lat="45.35325" lon="1.1878">
        <ele>256</ele>
        <time>2012-02-26T11:20:17Z</time>
      </trkpt>
      <trkpt lat="45.35317" lon="1.18789">
        <ele>256</ele>
        <time>2012-02-26T11:20:20Z</time>
      </trkpt>
      <trkpt lat="45.35313" lon="1.18794">
        <ele>256</ele>
        <time>2012-02-26T11:20:22Z</time>
      </trkpt>
      <trkpt lat="45.3531" lon="1.188">
        <ele>257</ele>
        <time>2012-02-26T11:20:25Z</time>
      </trkpt>
      <trkpt lat="45.35307" lon="1.18803">
        <ele>257</ele>
        <time>2012-02-26T11:20:27Z</time>
      </trkpt>
      <trkpt lat="45.35303" lon="1.18807">
        <ele>258</ele>
        <time>2012-02-26T11:20:30Z</time>
      </trkpt>
      <trkpt lat="45.353" lon="1.18806">
        <ele>260</ele>
        <time>2012-02-26T11:20:32Z</time>
      </trkpt>
      <trkpt lat="45.35295" lon="1.18807">
        <ele>262</ele>
        <time>2012-02-26T11:20:35Z</time>
      </trkpt>
      <trkpt lat="45.35292" lon="1.18806">
        <ele>262</ele>
        <time>2012-02-26T11:20:37Z</time>
      </trkpt>
      <trkpt lat="45.35288" lon="1.18806">
        <ele>262</ele>
        <time>2012-02-26T11:20:41Z</time>
      </trkpt>
      <trkpt lat="45.35286" lon="1.18806">
        <ele>262</ele>
        <time>2012-02-26T11:20:43Z</time>
      </trkpt>
      <trkpt lat="45.35282" lon="1.18807">
        <ele>262</ele>
        <time>2012-02-26T11:20:46Z</time>
      </trkpt>
      <trkpt lat="45.35278" lon="1.1881">
        <ele>262</ele>
        <time>2012-02-26T11:20:49Z</time>
      </trkpt>
      <trkpt lat="45.35276" lon="1.18815">
        <ele>262</ele>
        <time>2012-02-26T11:20:53Z</time>
      </trkpt>
      <trkpt lat="45.35275" lon="1.1882">
        <ele>262</ele>
        <time>2012-02-26T11:20:56Z</time>
      </trkpt>
      <trkpt lat="45.35276" lon="1.18825">
        <ele>262</ele>
        <time>2012-02-26T11:21:00Z</time>
      </trkpt>
      <trkpt lat="45.35276" lon="1.18831">
        <ele>262</ele>
        <time>2012-02-26T11:21:03Z</time>
      </trkpt>
      <trkpt lat="45.35276" lon="1.18834">
        <ele>262</ele>
        <time>2012-02-26T11:21:05Z</time>
      </trkpt>
      <trkpt lat="45.35276" lon="1.18838">
        <ele>262</ele>
        <time>2012-02-26T11:21:07Z</time>
      </trkpt>
      <trkpt lat="45.35275" lon="1.18844">
        <ele>263</ele>
        <time>2012-02-26T11:21:10Z</time>
      </trkpt>
      <trkpt lat="45.35275" lon="1.18848">
        <ele>264</ele>
        <time>2012-02-26T11:21:12Z</time>
      </trkpt>
      <trkpt lat="45.35275" lon="1.18852">
        <ele>264</ele>
        <time>2012-02-26T11:21:14Z</time>
      </trkpt>
      <trkpt lat="45.35274" lon="1.18856">
        <ele>265</ele>
        <time>2012-02-26T11:21:16Z</time>
      </trkpt>
      <trkpt lat="45.35275" lon="1.18862">
        <ele>266</ele>
        <time>2012-02-26T11:21:19Z</time>
      </trkpt>
      <trkpt lat="45.35275" lon="1.18868">
        <ele>267</ele>
        <time>2012-02-26T11:21:22Z</time>
      </trkpt>
      <trkpt lat="45.35275" lon="1.18875">
        <ele>267</ele>
        <time>2012-02-26T11:21:25Z</time>
      </trkpt>
      <trkpt lat="45.35275" lon="1.18879">
        <ele>268</ele>
        <time>2012-02-26T11:21:27Z</time>
      </trkpt>
      <trkpt lat="45.35276" lon="1.18885">
        <ele>269</ele>
        <time>2012-02-26T11:21:30Z</time>
      </trkpt>
      <trkpt lat="45.35276" lon="1.18889">
        <ele>269</ele>
        <time>2012-02-26T11:21:32Z</time>
      </trkpt>
      <trkpt lat="45.35275" lon="1.18895">
        <ele>270</ele>
        <time>2012-02-26T11:21:35Z</time>
      </trkpt>
      <trkpt lat="45.35275" lon="1.18899">
        <ele>271</ele>
        <time>2012-02-26T11:21:37Z</time>
      </trkpt>
      <trkpt lat="45.35275" lon="1.18903">
        <ele>271</ele>
        <time>2012-02-26T11:21:39Z</time>
      </trkpt>
      <trkpt lat="45.35274" lon="1.18908">
        <ele>272</ele>
        <time>2012-02-26T11:21:42Z</time>
      </trkpt>
      <trkpt lat="45.35274" lon="1.18912">
        <ele>272</ele>
        <time>2012-02-26T11:21:44Z</time>
      </trkpt>
      <trkpt lat="45.35274" lon="1.18916">
        <ele>272</ele>
        <time>2012-02-26T11:21:46Z</time>
      </trkpt>
      <trkpt lat="45.35274" lon="1.18921">
        <ele>272</ele>
        <time>2012-02-26T11:21:48Z</time>
      </trkpt>
      <trkpt lat="45.35274" lon="1.18928">
        <ele>272</ele>
        <time>2012-02-26T11:21:51Z</time>
      </trkpt>
      <trkpt lat="45.35275" lon="1.18934">
        <ele>272</ele>
        <time>2012-02-26T11:21:53Z</time>
      </trkpt>
      <trkpt lat="45.35275" lon="1.18938">
        <ele>272</ele>
        <time>2012-02-26T11:21:55Z</time>
      </trkpt>
      <trkpt lat="45.35275" lon="1.18944">
        <ele>273</ele>
        <time>2012-02-26T11:21:58Z</time>
      </trkpt>
      <trkpt lat="45.35275" lon="1.1895">
        <ele>273</ele>
        <time>2012-02-26T11:22:01Z</time>
      </trkpt>
      <trkpt lat="45.35274" lon="1.18954">
        <ele>274</ele>
        <time>2012-02-26T11:22:03Z</time>
      </trkpt>
      <trkpt lat="45.35274" lon="1.18959">
        <ele>275</ele>
        <time>2012-02-26T11:22:05Z</time>
      </trkpt>
      <trkpt lat="45.35272" lon="1.18963">
        <ele>276</ele>
        <time>2012-02-26T11:22:08Z</time>
      </trkpt>
      <trkpt lat="45.35272" lon="1.18969">
        <ele>276</ele>
        <time>2012-02-26T11:22:11Z</time>
      </trkpt>
      <trkpt lat="45.35273" lon="1.18975">
        <ele>277</ele>
        <time>2012-02-26T11:22:13Z</time>
      </trkpt>
      <trkpt lat="45.35272" lon="1.1898">
        <ele>277</ele>
        <time>2012-02-26T11:22:15Z</time>
      </trkpt>
      <trkpt lat="45.3527" lon="1.18986">
        <ele>277</ele>
        <time>2012-02-26T11:22:17Z</time>
      </trkpt>
      <trkpt lat="45.35268" lon="1.18998">
        <ele>279</ele>
        <time>2012-02-26T11:22:20Z</time>
      </trkpt>
      <trkpt lat="45.35267" lon="1.19007">
        <ele>280</ele>
        <time>2012-02-26T11:22:22Z</time>
      </trkpt>
      <trkpt lat="45.35266" lon="1.19016">
        <ele>281</ele>
        <time>2012-02-26T11:22:24Z</time>
      </trkpt>
      <trkpt lat="45.35266" lon="1.19024">
        <ele>282</ele>
        <time>2012-02-26T11:22:26Z</time>
      </trkpt>
      <trkpt lat="45.35264" lon="1.19036">
        <ele>283</ele>
        <time>2012-02-26T11:22:29Z</time>
      </trkpt>
      <trkpt lat="45.35263" lon="1.19042">
        <ele>283</ele>
        <time>2012-02-26T11:22:31Z</time>
      </trkpt>
      <trkpt lat="45.35259" lon="1.19054">
        <ele>284</ele>
        <time>2012-02-26T11:22:34Z</time>
      </trkpt>
      <trkpt lat="45.35256" lon="1.19062">
        <ele>284</ele>
        <time>2012-02-26T11:22:36Z</time>
      </trkpt>
      <trkpt lat="45.35253" lon="1.19074">
        <ele>284</ele>
        <time>2012-02-26T11:22:39Z</time>
      </trkpt>
      <trkpt lat="45.35251" lon="1.19083">
        <ele>285</ele>
        <time>2012-02-26T11:22:41Z</time>
      </trkpt>
      <trkpt lat="45.35249" lon="1.19093">
        <ele>286</ele>
        <time>2012-02-26T11:22:43Z</time>
      </trkpt>
      <trkpt lat="45.35248" lon="1.19101">
        <ele>287</ele>
        <time>2012-02-26T11:22:45Z</time>
      </trkpt>
      <trkpt lat="45.35248" lon="1.19108">
        <ele>288</ele>
        <time>2012-02-26T11:22:47Z</time>
      </trkpt>
      <trkpt lat="45.35247" lon="1.19116">
        <ele>288</ele>
        <time>2012-02-26T11:22:49Z</time>
      </trkpt>
      <trkpt lat="45.35248" lon="1.19126">
        <ele>289</ele>
        <time>2012-02-26T11:22:52Z</time>
      </trkpt>
      <trkpt lat="45.35249" lon="1.19137">
        <ele>289</ele>
        <time>2012-02-26T11:22:55Z</time>
      </trkpt>
      <trkpt lat="45.3525" lon="1.19145">
        <ele>290</ele>
        <time>2012-02-26T11:22:57Z</time>
      </trkpt>
      <trkpt lat="45.35251" lon="1.19152">
        <ele>290</ele>
        <time>2012-02-26T11:22:59Z</time>
      </trkpt>
      <trkpt lat="45.35251" lon="1.1916">
        <ele>290</ele>
        <time>2012-02-26T11:23:01Z</time>
      </trkpt>
      <trkpt lat="45.35252" lon="1.19171">
        <ele>290</ele>
        <time>2012-02-26T11:23:04Z</time>
      </trkpt>
      <trkpt lat="45.35252" lon="1.19182">
        <ele>290</ele>
        <time>2012-02-26T11:23:07Z</time>
      </trkpt>
      <trkpt lat="45.35252" lon="1.19189">
        <ele>290</ele>
        <time>2012-02-26T11:23:09Z</time>
      </trkpt>
      <trkpt lat="45.35253" lon="1.19197">
        <ele>290</ele>
        <time>2012-02-26T11:23:11Z</time>
      </trkpt>
      <trkpt lat="45.35255" lon="1.19203">
        <ele>290</ele>
        <time>2012-02-26T11:23:13Z</time>
      </trkpt>
      <trkpt lat="45.35256" lon="1.1921">
        <ele>290</ele>
        <time>2012-02-26T11:23:15Z</time>
      </trkpt>
      <trkpt lat="45.35259" lon="1.19216">
        <ele>291</ele>
        <time>2012-02-26T11:23:17Z</time>
      </trkpt>
      <trkpt lat="45.35262" lon="1.19224">
        <ele>291</ele>
        <time>2012-02-26T11:23:20Z</time>
      </trkpt>
      <trkpt lat="45.35265" lon="1.19229">
        <ele>291</ele>
        <time>2012-02-26T11:23:22Z</time>
      </trkpt>
      <trkpt lat="45.35269" lon="1.19233">
        <ele>291</ele>
        <time>2012-02-26T11:23:24Z</time>
      </trkpt>
      <trkpt lat="45.35274" lon="1.1924">
        <ele>291</ele>
        <time>2012-02-26T11:23:27Z</time>
      </trkpt>
      <trkpt lat="45.35277" lon="1.19244">
        <ele>292</ele>
        <time>2012-02-26T11:23:29Z</time>
      </trkpt>
      <trkpt lat="45.35281" lon="1.19251">
        <ele>292</ele>
        <time>2012-02-26T11:23:32Z</time>
      </trkpt>
      <trkpt lat="45.35283" lon="1.19257">
        <ele>292</ele>
        <time>2012-02-26T11:23:34Z</time>
      </trkpt>
      <trkpt lat="45.35287" lon="1.19265">
        <ele>292</ele>
        <time>2012-02-26T11:23:37Z</time>
      </trkpt>
      <trkpt lat="45.3529" lon="1.19271">
        <ele>293</ele>
        <time>2012-02-26T11:23:39Z</time>
      </trkpt>
      <trkpt lat="45.35292" lon="1.19277">
        <ele>293</ele>
        <time>2012-02-26T11:23:41Z</time>
      </trkpt>
      <trkpt lat="45.35296" lon="1.19287">
        <ele>294</ele>
        <time>2012-02-26T11:23:44Z</time>
      </trkpt>
      <trkpt lat="45.35299" lon="1.19296">
        <ele>294</ele>
        <time>2012-02-26T11:23:47Z</time>
      </trkpt>
      <trkpt lat="45.35302" lon="1.19301">
        <ele>294</ele>
        <time>2012-02-26T11:23:49Z</time>
      </trkpt>
      <trkpt lat="45.35307" lon="1.19308">
        <ele>294</ele>
        <time>2012-02-26T11:23:52Z</time>
      </trkpt>
      <trkpt lat="45.35311" lon="1.19311">
        <ele>294</ele>
        <time>2012-02-26T11:23:54Z</time>
      </trkpt>
      <trkpt lat="45.35315" lon="1.19314">
        <ele>294</ele>
        <time>2012-02-26T11:23:56Z</time>
      </trkpt>
      <trkpt lat="45.35321" lon="1.19316">
        <ele>294</ele>
        <time>2012-02-26T11:23:58Z</time>
      </trkpt>
      <trkpt lat="45.35326" lon="1.19319">
        <ele>294</ele>
        <time>2012-02-26T11:24:00Z</time>
      </trkpt>
      <trkpt lat="45.35331" lon="1.19322">
        <ele>294</ele>
        <time>2012-02-26T11:24:02Z</time>
      </trkpt>
      <trkpt lat="45.35338" lon="1.19328">
        <ele>294</ele>
        <time>2012-02-26T11:24:05Z</time>
      </trkpt>
      <trkpt lat="45.35344" lon="1.19337">
        <ele>294</ele>
        <time>2012-02-26T11:24:08Z</time>
      </trkpt>
      <trkpt lat="45.35346" lon="1.19344">
        <ele>294</ele>
        <time>2012-02-26T11:24:10Z</time>
      </trkpt>
      <trkpt lat="45.35342" lon="1.19354">
        <ele>294</ele>
        <time>2012-02-26T11:24:13Z</time>
      </trkpt>
      <trkpt lat="45.35337" lon="1.19357">
        <ele>294</ele>
        <time>2012-02-26T11:24:15Z</time>
      </trkpt>
      <trkpt lat="45.35331" lon="1.1936">
        <ele>294</ele>
        <time>2012-02-26T11:24:17Z</time>
      </trkpt>
      <trkpt lat="45.35326" lon="1.19364">
        <ele>294</ele>
        <time>2012-02-26T11:24:19Z</time>
      </trkpt>
      <trkpt lat="45.35321" lon="1.19369">
        <ele>294</ele>
        <time>2012-02-26T11:24:21Z</time>
      </trkpt>
      <trkpt lat="45.35313" lon="1.19376">
        <ele>294</ele>
        <time>2012-02-26T11:24:24Z</time>
      </trkpt>
      <trkpt lat="45.35308" lon="1.1938">
        <ele>294</ele>
        <time>2012-02-26T11:24:26Z</time>
      </trkpt>
      <trkpt lat="45.35301" lon="1.19387">
        <ele>294</ele>
        <time>2012-02-26T11:24:29Z</time>
      </trkpt>
      <trkpt lat="45.35296" lon="1.1939">
        <ele>294</ele>
        <time>2012-02-26T11:24:31Z</time>
      </trkpt>
      <trkpt lat="45.35291" lon="1.19394">
        <ele>295</ele>
        <time>2012-02-26T11:24:33Z</time>
      </trkpt>
      <trkpt lat="45.35283" lon="1.19399">
        <ele>295</ele>
        <time>2012-02-26T11:24:36Z</time>
      </trkpt>
      <trkpt lat="45.35276" lon="1.19406">
        <ele>295</ele>
        <time>2012-02-26T11:24:39Z</time>
      </trkpt>
      <trkpt lat="45.35271" lon="1.1941">
        <ele>296</ele>
        <time>2012-02-26T11:24:41Z</time>
      </trkpt>
      <trkpt lat="45.35263" lon="1.19417">
        <ele>297</ele>
        <time>2012-02-26T11:24:44Z</time>
      </trkpt>
      <trkpt lat="45.35257" lon="1.19421">
        <ele>297</ele>
        <time>2012-02-26T11:24:46Z</time>
      </trkpt>
      <trkpt lat="45.35249" lon="1.19426">
        <ele>297</ele>
        <time>2012-02-26T11:24:49Z</time>
      </trkpt>
      <trkpt lat="45.35244" lon="1.19428">
        <ele>297</ele>
        <time>2012-02-26T11:24:51Z</time>
      </trkpt>
      <trkpt lat="45.35235" lon="1.19432">
        <ele>297</ele>
        <time>2012-02-26T11:24:54Z</time>
      </trkpt>
      <trkpt lat="45.35229" lon="1.19436">
        <ele>297</ele>
        <time>2012-02-26T11:24:56Z</time>
      </trkpt>
      <trkpt lat="45.3522" lon="1.19443">
        <ele>297</ele>
        <time>2012-02-26T11:24:59Z</time>
      </trkpt>
      <trkpt lat="45.35215" lon="1.19448">
        <ele>297</ele>
        <time>2012-02-26T11:25:01Z</time>
      </trkpt>
      <trkpt lat="45.35207" lon="1.19456">
        <ele>297</ele>
        <time>2012-02-26T11:25:04Z</time>
      </trkpt>
      <trkpt lat="45.352" lon="1.19465">
        <ele>297</ele>
        <time>2012-02-26T11:25:07Z</time>
      </trkpt>
      <trkpt lat="45.35193" lon="1.19473">
        <ele>297</ele>
        <time>2012-02-26T11:25:10Z</time>
      </trkpt>
      <trkpt lat="45.35189" lon="1.19479">
        <ele>297</ele>
        <time>2012-02-26T11:25:12Z</time>
      </trkpt>
      <trkpt lat="45.35181" lon="1.19488">
        <ele>297</ele>
        <time>2012-02-26T11:25:15Z</time>
      </trkpt>
      <trkpt lat="45.35177" lon="1.19495">
        <ele>296</ele>
        <time>2012-02-26T11:25:17Z</time>
      </trkpt>
      <trkpt lat="45.35173" lon="1.19502">
        <ele>296</ele>
        <time>2012-02-26T11:25:19Z</time>
      </trkpt>
      <trkpt lat="45.35168" lon="1.19509">
        <ele>295</ele>
        <time>2012-02-26T11:25:21Z</time>
      </trkpt>
      <trkpt lat="45.35162" lon="1.19519">
        <ele>293</ele>
        <time>2012-02-26T11:25:24Z</time>
      </trkpt>
      <trkpt lat="45.35158" lon="1.19526">
        <ele>293</ele>
        <time>2012-02-26T11:25:26Z</time>
      </trkpt>
      <trkpt lat="45.35154" lon="1.19532">
        <ele>292</ele>
        <time>2012-02-26T11:25:28Z</time>
      </trkpt>
      <trkpt lat="45.35149" lon="1.19539">
        <ele>290</ele>
        <time>2012-02-26T11:25:30Z</time>
      </trkpt>
      <trkpt lat="45.35145" lon="1.19547">
        <ele>290</ele>
        <time>2012-02-26T11:25:32Z</time>
      </trkpt>
      <trkpt lat="45.35141" lon="1.19561">
        <ele>289</ele>
        <time>2012-02-26T11:25:35Z</time>
      </trkpt>
      <trkpt lat="45.35143" lon="1.1957">
        <ele>288</ele>
        <time>2012-02-26T11:25:37Z</time>
      </trkpt>
      <trkpt lat="45.35148" lon="1.19581">
        <ele>287</ele>
        <time>2012-02-26T11:25:40Z</time>
      </trkpt>
      <trkpt lat="45.35152" lon="1.19588">
        <ele>286</ele>
        <time>2012-02-26T11:25:42Z</time>
      </trkpt>
      <trkpt lat="45.35157" lon="1.19593">
        <ele>286</ele>
        <time>2012-02-26T11:25:44Z</time>
      </trkpt>
      <trkpt lat="45.35163" lon="1.19597">
        <ele>284</ele>
        <time>2012-02-26T11:25:46Z</time>
      </trkpt>
      <trkpt lat="45.35169" lon="1.196">
        <ele>284</ele>
        <time>2012-02-26T11:25:48Z</time>
      </trkpt>
      <trkpt lat="45.35181" lon="1.19601">
        <ele>284</ele>
        <time>2012-02-26T11:25:51Z</time>
      </trkpt>
      <trkpt lat="45.35188" lon="1.19599">
        <ele>283</ele>
        <time>2012-02-26T11:25:53Z</time>
      </trkpt>
      <trkpt lat="45.35199" lon="1.19599">
        <ele>282</ele>
        <time>2012-02-26T11:25:56Z</time>
      </trkpt>
      <trkpt lat="45.35206" lon="1.196">
        <ele>280</ele>
        <time>2012-02-26T11:25:58Z</time>
      </trkpt>
      <trkpt lat="45.35214" lon="1.19597">
        <ele>279</ele>
        <time>2012-02-26T11:26:00Z</time>
      </trkpt>
      <trkpt lat="45.35222" lon="1.19595">
        <ele>278</ele>
        <time>2012-02-26T11:26:02Z</time>
      </trkpt>
      <trkpt lat="45.35231" lon="1.19597">
        <ele>276</ele>
        <time>2012-02-26T11:26:04Z</time>
      </trkpt>
      <trkpt lat="45.35242" lon="1.196">
        <ele>275</ele>
        <time>2012-02-26T11:26:07Z</time>
      </trkpt>
      <trkpt lat="45.35247" lon="1.19604">
        <ele>275</ele>
        <time>2012-02-26T11:26:09Z</time>
      </trkpt>
      <trkpt lat="45.35247" lon="1.19609">
        <ele>275</ele>
        <time>2012-02-26T11:26:13Z</time>
      </trkpt>
      <trkpt lat="45.35247" lon="1.19613">
        <ele>275</ele>
        <time>2012-02-26T11:26:15Z</time>
      </trkpt>
      <trkpt lat="45.35249" lon="1.19618">
        <ele>275</ele>
        <time>2012-02-26T11:26:17Z</time>
      </trkpt>
      <trkpt lat="45.35251" lon="1.19625">
        <ele>274</ele>
        <time>2012-02-26T11:26:19Z</time>
      </trkpt>
      <trkpt lat="45.35254" lon="1.19633">
        <ele>273</ele>
        <time>2012-02-26T11:26:22Z</time>
      </trkpt>
      <trkpt lat="45.35255" lon="1.19638">
        <ele>273</ele>
        <time>2012-02-26T11:26:24Z</time>
      </trkpt>
      <trkpt lat="45.35259" lon="1.19648">
        <ele>273</ele>
        <time>2012-02-26T11:26:27Z</time>
      </trkpt>
      <trkpt lat="45.35262" lon="1.19654">
        <ele>273</ele>
        <time>2012-02-26T11:26:29Z</time>
      </trkpt>
      <trkpt lat="45.35266" lon="1.19659">
        <ele>273</ele>
        <time>2012-02-26T11:26:31Z</time>
      </trkpt>
      <trkpt lat="45.3527" lon="1.19662">
        <ele>273</ele>
        <time>2012-02-26T11:26:33Z</time>
      </trkpt>
      <trkpt lat="45.35274" lon="1.19662">
        <ele>273</ele>
        <time>2012-02-26T11:26:35Z</time>
      </trkpt>
      <trkpt lat="45.3528" lon="1.19664">
        <ele>273</ele>
        <time>2012-02-26T11:26:38Z</time>
      </trkpt>
      <trkpt lat="45.35283" lon="1.19666">
        <ele>273</ele>
        <time>2012-02-26T11:26:40Z</time>
      </trkpt>
      <trkpt lat="45.35288" lon="1.19668">
        <ele>271</ele>
        <time>2012-02-26T11:26:43Z</time>
      </trkpt>
      <trkpt lat="45.35292" lon="1.19668">
        <ele>270</ele>
        <time>2012-02-26T11:26:45Z</time>
      </trkpt>
      <trkpt lat="45.35294" lon="1.19676">
        <ele>268</ele>
        <time>2012-02-26T11:26:48Z</time>
      </trkpt>
      <trkpt lat="45.3529" lon="1.19683">
        <ele>266</ele>
        <time>2012-02-26T11:26:50Z</time>
      </trkpt>
      <trkpt lat="45.35286" lon="1.19688">
        <ele>263</ele>
        <time>2012-02-26T11:26:53Z</time>
      </trkpt>
      <trkpt lat="45.35283" lon="1.19691">
        <ele>261</ele>
        <time>2012-02-26T11:26:55Z</time>
      </trkpt>
      <trkpt lat="45.35281" lon="1.19697">
        <ele>258</ele>
        <time>2012-02-26T11:26:58Z</time>
      </trkpt>
      <trkpt lat="45.35283" lon="1.19701">
        <ele>256</ele>
        <time>2012-02-26T11:27:00Z</time>
      </trkpt>
      <trkpt lat="45.35288" lon="1.19704">
        <ele>254</ele>
        <time>2012-02-26T11:27:03Z</time>
      </trkpt>
      <trkpt lat="45.3529" lon="1.19705">
        <ele>253</ele>
        <time>2012-02-26T11:27:05Z</time>
      </trkpt>
      <trkpt lat="45.35293" lon="1.19707">
        <ele>252</ele>
        <time>2012-02-26T11:27:08Z</time>
      </trkpt>
      <trkpt lat="45.35295" lon="1.19708">
        <ele>250</ele>
        <time>2012-02-26T11:27:10Z</time>
      </trkpt>
      <trkpt lat="45.35301" lon="1.1971">
        <ele>248</ele>
        <time>2012-02-26T11:27:13Z</time>
      </trkpt>
      <trkpt lat="45.35305" lon="1.1971">
        <ele>248</ele>
        <time>2012-02-26T11:27:15Z</time>
      </trkpt>
      <trkpt lat="45.35314" lon="1.1971">
        <ele>246</ele>
        <time>2012-02-26T11:27:18Z</time>
      </trkpt>
      <trkpt lat="45.35318" lon="1.19711">
        <ele>246</ele>
        <time>2012-02-26T11:27:20Z</time>
      </trkpt>
      <trkpt lat="45.35324" lon="1.19712">
        <ele>245</ele>
        <time>2012-02-26T11:27:23Z</time>
      </trkpt>
      <trkpt lat="45.35327" lon="1.19711">
        <ele>245</ele>
        <time>2012-02-26T11:27:25Z</time>
      </trkpt>
      <trkpt lat="45.35332" lon="1.1971">
        <ele>244</ele>
        <time>2012-02-26T11:27:28Z</time>
      </trkpt>
      <trkpt lat="45.35331" lon="1.19715">
        <ele>243</ele>
        <time>2012-02-26T11:27:30Z</time>
      </trkpt>
      <trkpt lat="45.35329" lon="1.19723">
        <ele>241</ele>
        <time>2012-02-26T11:27:33Z</time>
      </trkpt>
      <trkpt lat="45.35331" lon="1.19725">
        <ele>239</ele>
        <time>2012-02-26T11:27:35Z</time>
      </trkpt>
      <trkpt lat="45.35339" lon="1.19724">
        <ele>237</ele>
        <time>2012-02-26T11:27:38Z</time>
      </trkpt>
      <trkpt lat="45.35343" lon="1.1972">
        <ele>236</ele>
        <time>2012-02-26T11:27:40Z</time>
      </trkpt>
      <trkpt lat="45.35351" lon="1.19717">
        <ele>234</ele>
        <time>2012-02-26T11:27:43Z</time>
      </trkpt>
      <trkpt lat="45.35358" lon="1.19716">
        <ele>233</ele>
        <time>2012-02-26T11:27:45Z</time>
      </trkpt>
      <trkpt lat="45.35368" lon="1.19714">
        <ele>233</ele>
        <time>2012-02-26T11:27:48Z</time>
      </trkpt>
      <trkpt lat="45.35375" lon="1.19713">
        <ele>233</ele>
        <time>2012-02-26T11:27:50Z</time>
      </trkpt>
      <trkpt lat="45.35383" lon="1.19716">
        <ele>233</ele>
        <time>2012-02-26T11:27:53Z</time>
      </trkpt>
      <trkpt lat="45.35389" lon="1.19721">
        <ele>233</ele>
        <time>2012-02-26T11:27:55Z</time>
      </trkpt>
      <trkpt lat="45.354" lon="1.19728">
        <ele>233</ele>
        <time>2012-02-26T11:27:58Z</time>
      </trkpt>
      <trkpt lat="45.35406" lon="1.19735">
        <ele>233</ele>
        <time>2012-02-26T11:28:00Z</time>
      </trkpt>
      <trkpt lat="45.35412" lon="1.19745">
        <ele>232</ele>
        <time>2012-02-26T11:28:03Z</time>
      </trkpt>
      <trkpt lat="45.35415" lon="1.1975">
        <ele>230</ele>
        <time>2012-02-26T11:28:05Z</time>
      </trkpt>
      <trkpt lat="45.35421" lon="1.19754">
        <ele>230</ele>
        <time>2012-02-26T11:28:08Z</time>
      </trkpt>
      <trkpt lat="45.35427" lon="1.19754">
        <ele>229</ele>
        <time>2012-02-26T11:28:10Z</time>
      </trkpt>
      <trkpt lat="45.35436" lon="1.19753">
        <ele>228</ele>
        <time>2012-02-26T11:28:13Z</time>
      </trkpt>
      <trkpt lat="45.35442" lon="1.19752">
        <ele>228</ele>
        <time>2012-02-26T11:28:15Z</time>
      </trkpt>
      <trkpt lat="45.3545" lon="1.19752">
        <ele>227</ele>
        <time>2012-02-26T11:28:18Z</time>
      </trkpt>
      <trkpt lat="45.35457" lon="1.19751">
        <ele>227</ele>
        <time>2012-02-26T11:28:20Z</time>
      </trkpt>
      <trkpt lat="45.35463" lon="1.1975">
        <ele>227</ele>
        <time>2012-02-26T11:28:23Z</time>
      </trkpt>
      <trkpt lat="45.35469" lon="1.19749">
        <ele>227</ele>
        <time>2012-02-26T11:28:25Z</time>
      </trkpt>
      <trkpt lat="45.35477" lon="1.19751">
        <ele>228</ele>
        <time>2012-02-26T11:28:28Z</time>
      </trkpt>
      <trkpt lat="45.3548" lon="1.19754">
        <ele>229</ele>
        <time>2012-02-26T11:28:30Z</time>
      </trkpt>
      <trkpt lat="45.35487" lon="1.19759">
        <ele>230</ele>
        <time>2012-02-26T11:28:33Z</time>
      </trkpt>
      <trkpt lat="45.35495" lon="1.19762">
        <ele>231</ele>
        <time>2012-02-26T11:28:35Z</time>
      </trkpt>
      <trkpt lat="45.35502" lon="1.19763">
        <ele>231</ele>
        <time>2012-02-26T11:28:37Z</time>
      </trkpt>
      <trkpt lat="45.3551" lon="1.19764">
        <ele>231</ele>
        <time>2012-02-26T11:28:39Z</time>
      </trkpt>
      <trkpt lat="45.35516" lon="1.19766">
        <ele>231</ele>
        <time>2012-02-26T11:28:41Z</time>
      </trkpt>
      <trkpt lat="45.35522" lon="1.19769">
        <ele>231</ele>
        <time>2012-02-26T11:28:43Z</time>
      </trkpt>
      <trkpt lat="45.35528" lon="1.19773">
        <ele>231</ele>
        <time>2012-02-26T11:28:45Z</time>
      </trkpt>
      <trkpt lat="45.35535" lon="1.19783">
        <ele>230</ele>
        <time>2012-02-26T11:28:48Z</time>
      </trkpt>
      <trkpt lat="45.35542" lon="1.19789">
        <ele>230</ele>
        <time>2012-02-26T11:28:50Z</time>
      </trkpt>
      <trkpt lat="45.35549" lon="1.198">
        <ele>230</ele>
        <time>2012-02-26T11:28:53Z</time>
      </trkpt>
      <trkpt lat="45.35553" lon="1.19805">
        <ele>230</ele>
        <time>2012-02-26T11:28:55Z</time>
      </trkpt>
      <trkpt lat="45.35557" lon="1.1981">
        <ele>230</ele>
        <time>2012-02-26T11:28:57Z</time>
      </trkpt>
      <trkpt lat="45.35562" lon="1.19815">
        <ele>230</ele>
        <time>2012-02-26T11:28:59Z</time>
      </trkpt>
      <trkpt lat="45.35569" lon="1.19817">
        <ele>229</ele>
        <time>2012-02-26T11:29:01Z</time>
      </trkpt>
      <trkpt lat="45.35576" lon="1.19821">
        <ele>228</ele>
        <time>2012-02-26T11:29:03Z</time>
      </trkpt>
      <trkpt lat="45.35582" lon="1.19825">
        <ele>227</ele>
        <time>2012-02-26T11:29:05Z</time>
      </trkpt>
      <trkpt lat="45.35588" lon="1.19829">
        <ele>226</ele>
        <time>2012-02-26T11:29:07Z</time>
      </trkpt>
      <trkpt lat="45.35593" lon="1.19831">
        <ele>225</ele>
        <time>2012-02-26T11:29:09Z</time>
      </trkpt>
      <trkpt lat="45.35599" lon="1.19835">
        <ele>223</ele>
        <time>2012-02-26T11:29:11Z</time>
      </trkpt>
      <trkpt lat="45.35605" lon="1.19841">
        <ele>221</ele>
        <time>2012-02-26T11:29:13Z</time>
      </trkpt>
      <trkpt lat="45.3561" lon="1.19846">
        <ele>219</ele>
        <time>2012-02-26T11:29:15Z</time>
      </trkpt>
      <trkpt lat="45.35613" lon="1.19853">
        <ele>217</ele>
        <time>2012-02-26T11:29:17Z</time>
      </trkpt>
      <trkpt lat="45.35615" lon="1.1986">
        <ele>215</ele>
        <time>2012-02-26T11:29:19Z</time>
      </trkpt>
      <trkpt lat="45.35616" lon="1.19868">
        <ele>212</ele>
        <time>2012-02-26T11:29:21Z</time>
      </trkpt>
      <trkpt lat="45.35617" lon="1.19873">
        <ele>207</ele>
        <time>2012-02-26T11:29:25Z</time>
      </trkpt>
      <trkpt lat="45.35618" lon="1.19874">
        <ele>205</ele>
        <time>2012-02-26T11:29:27Z</time>
      </trkpt>
      <trkpt lat="45.35619" lon="1.19876">
        <ele>202</ele>
        <time>2012-02-26T11:29:30Z</time>
      </trkpt>
      <trkpt lat="45.3562" lon="1.19874">
        <ele>200</ele>
        <time>2012-02-26T11:29:34Z</time>
      </trkpt>
      <trkpt lat="45.35621" lon="1.19874">
        <ele>200</ele>
        <time>2012-02-26T11:29:39Z</time>
      </trkpt>
      <trkpt lat="45.35622" lon="1.19876">
        <ele>200</ele>
        <time>2012-02-26T11:29:43Z</time>
      </trkpt>
      <trkpt lat="45.35623" lon="1.19878">
        <ele>200</ele>
        <time>2012-02-26T11:29:45Z</time>
      </trkpt>
      <trkpt lat="45.35624" lon="1.19878">
        <ele>201</ele>
        <time>2012-02-26T11:29:47Z</time>
      </trkpt>
      <trkpt lat="45.35626" lon="1.1988">
        <ele>202</ele>
        <time>2012-02-26T11:29:49Z</time>
      </trkpt>
      <trkpt lat="45.35626" lon="1.19881">
        <ele>202</ele>
        <time>2012-02-26T11:29:51Z</time>
      </trkpt>
      <trkpt lat="45.35628" lon="1.19883">
        <ele>203</ele>
        <time>2012-02-26T11:29:53Z</time>
      </trkpt>
      <trkpt lat="45.35629" lon="1.19885">
        <ele>203</ele>
        <time>2012-02-26T11:29:55Z</time>
      </trkpt>
      <trkpt lat="45.35631" lon="1.19887">
        <ele>204</ele>
        <time>2012-02-26T11:29:57Z</time>
      </trkpt>
      <trkpt lat="45.35632" lon="1.19889">
        <ele>206</ele>
        <time>2012-02-26T11:29:59Z</time>
      </trkpt>
      <trkpt lat="45.35633" lon="1.19889">
        <ele>208</ele>
        <time>2012-02-26T11:30:01Z</time>
      </trkpt>
      <trkpt lat="45.35635" lon="1.19891">
        <ele>209</ele>
        <time>2012-02-26T11:30:03Z</time>
      </trkpt>
      <trkpt lat="45.35637" lon="1.19894">
        <ele>211</ele>
        <time>2012-02-26T11:30:06Z</time>
      </trkpt>
      <trkpt lat="45.3564" lon="1.19896">
        <ele>212</ele>
        <time>2012-02-26T11:30:08Z</time>
      </trkpt>
      <trkpt lat="45.35642" lon="1.199">
        <ele>214</ele>
        <time>2012-02-26T11:30:11Z</time>
      </trkpt>
      <trkpt lat="45.35643" lon="1.19904">
        <ele>214</ele>
        <time>2012-02-26T11:30:13Z</time>
      </trkpt>
      <trkpt lat="45.35646" lon="1.19907">
        <ele>215</ele>
        <time>2012-02-26T11:30:18Z</time>
      </trkpt>
      <trkpt lat="45.35648" lon="1.19908">
        <ele>215</ele>
        <time>2012-02-26T11:30:20Z</time>
      </trkpt>
      <trkpt lat="45.35649" lon="1.19911">
        <ele>215</ele>
        <time>2012-02-26T11:30:23Z</time>
      </trkpt>
      <trkpt lat="45.35648" lon="1.19915">
        <ele>216</ele>
        <time>2012-02-26T11:30:26Z</time>
      </trkpt>
      <trkpt lat="45.35649" lon="1.19917">
        <ele>216</ele>
        <time>2012-02-26T11:30:28Z</time>
      </trkpt>
      <trkpt lat="45.35652" lon="1.19918">
        <ele>217</ele>
        <time>2012-02-26T11:30:31Z</time>
      </trkpt>
      <trkpt lat="45.35654" lon="1.19919">
        <ele>217</ele>
        <time>2012-02-26T11:30:33Z</time>
      </trkpt>
      <trkpt lat="45.35655" lon="1.1992">
        <ele>217</ele>
        <time>2012-02-26T11:30:35Z</time>
      </trkpt>
      <trkpt lat="45.35656" lon="1.19922">
        <ele>217</ele>
        <time>2012-02-26T11:30:37Z</time>
      </trkpt>
      <trkpt lat="45.35658" lon="1.19924">
        <ele>217</ele>
        <time>2012-02-26T11:30:39Z</time>
      </trkpt>
      <trkpt lat="45.3566" lon="1.19929">
        <ele>217</ele>
        <time>2012-02-26T11:30:42Z</time>
      </trkpt>
      <trkpt lat="45.35661" lon="1.19934">
        <ele>217</ele>
        <time>2012-02-26T11:30:45Z</time>
      </trkpt>
      <trkpt lat="45.35664" lon="1.19936">
        <ele>217</ele>
        <time>2012-02-26T11:30:48Z</time>
      </trkpt>
      <trkpt lat="45.35665" lon="1.19937">
        <ele>217</ele>
        <time>2012-02-26T11:30:50Z</time>
      </trkpt>
      <trkpt lat="45.35665" lon="1.19939">
        <ele>217</ele>
        <time>2012-02-26T11:30:52Z</time>
      </trkpt>
      <trkpt lat="45.35666" lon="1.19943">
        <ele>217</ele>
        <time>2012-02-26T11:30:54Z</time>
      </trkpt>
      <trkpt lat="45.35668" lon="1.19947">
        <ele>217</ele>
        <time>2012-02-26T11:30:56Z</time>
      </trkpt>
      <trkpt lat="45.35669" lon="1.19952">
        <ele>218</ele>
        <time>2012-02-26T11:30:59Z</time>
      </trkpt>
      <trkpt lat="45.35669" lon="1.19955">
        <ele>219</ele>
        <time>2012-02-26T11:31:01Z</time>
      </trkpt>
      <trkpt lat="45.35671" lon="1.19956">
        <ele>220</ele>
        <time>2012-02-26T11:31:03Z</time>
      </trkpt>
      <trkpt lat="45.35672" lon="1.19959">
        <ele>220</ele>
        <time>2012-02-26T11:31:05Z</time>
      </trkpt>
      <trkpt lat="45.35674" lon="1.19962">
        <ele>221</ele>
        <time>2012-02-26T11:31:07Z</time>
      </trkpt>
      <trkpt lat="45.35676" lon="1.19965">
        <ele>221</ele>
        <time>2012-02-26T11:31:09Z</time>
      </trkpt>
      <trkpt lat="45.35677" lon="1.19968">
        <ele>222</ele>
        <time>2012-02-26T11:31:11Z</time>
      </trkpt>
      <trkpt lat="45.35677" lon="1.19971">
        <ele>224</ele>
        <time>2012-02-26T11:31:13Z</time>
      </trkpt>
      <trkpt lat="45.35678" lon="1.19975">
        <ele>226</ele>
        <time>2012-02-26T11:31:16Z</time>
      </trkpt>
      <trkpt lat="45.35679" lon="1.1998">
        <ele>228</ele>
        <time>2012-02-26T11:31:19Z</time>
      </trkpt>
      <trkpt lat="45.3568" lon="1.19984">
        <ele>230</ele>
        <time>2012-02-26T11:31:22Z</time>
      </trkpt>
      <trkpt lat="45.35679" lon="1.19988">
        <ele>232</ele>
        <time>2012-02-26T11:31:25Z</time>
      </trkpt>
      <trkpt lat="45.35677" lon="1.19992">
        <ele>234</ele>
        <time>2012-02-26T11:31:27Z</time>
      </trkpt>
      <trkpt lat="45.35677" lon="1.19994">
        <ele>235</ele>
        <time>2012-02-26T11:31:29Z</time>
      </trkpt>
      <trkpt lat="45.35677" lon="1.19997">
        <ele>236</ele>
        <time>2012-02-26T11:31:32Z</time>
      </trkpt>
      <trkpt lat="45.35676" lon="1.20001">
        <ele>237</ele>
        <time>2012-02-26T11:31:36Z</time>
      </trkpt>
      <trkpt lat="45.35676" lon="1.20002">
        <ele>237</ele>
        <time>2012-02-26T11:31:38Z</time>
      </trkpt>
      <trkpt lat="45.35676" lon="1.20005">
        <ele>237</ele>
        <time>2012-02-26T11:31:41Z</time>
      </trkpt>
      <trkpt lat="45.35676" lon="1.20007">
        <ele>237</ele>
        <time>2012-02-26T11:31:43Z</time>
      </trkpt>
      <trkpt lat="45.35676" lon="1.20011">
        <ele>237</ele>
        <time>2012-02-26T11:31:47Z</time>
      </trkpt>
      <trkpt lat="45.35677" lon="1.20011">
        <ele>238</ele>
        <time>2012-02-26T11:31:51Z</time>
      </trkpt>
      <trkpt lat="45.35679" lon="1.20011">
        <ele>238</ele>
        <time>2012-02-26T11:31:53Z</time>
      </trkpt>
      <trkpt lat="45.35682" lon="1.2001">
        <ele>238</ele>
        <time>2012-02-26T11:31:56Z</time>
      </trkpt>
      <trkpt lat="45.35684" lon="1.20009">
        <ele>238</ele>
        <time>2012-02-26T11:31:58Z</time>
      </trkpt>
      <trkpt lat="45.35685" lon="1.20011">
        <ele>238</ele>
        <time>2012-02-26T11:32:01Z</time>
      </trkpt>
      <trkpt lat="45.35684" lon="1.20013">
        <ele>239</ele>
        <time>2012-02-26T11:32:03Z</time>
      </trkpt>
      <trkpt lat="45.35684" lon="1.20015">
        <ele>239</ele>
        <time>2012-02-26T11:32:05Z</time>
      </trkpt>
      <trkpt lat="45.35683" lon="1.20018">
        <ele>240</ele>
        <time>2012-02-26T11:32:07Z</time>
      </trkpt>
      <trkpt lat="45.35683" lon="1.20023">
        <ele>240</ele>
        <time>2012-02-26T11:32:11Z</time>
      </trkpt>
      <trkpt lat="45.35682" lon="1.20025">
        <ele>241</ele>
        <time>2012-02-26T11:32:14Z</time>
      </trkpt>
      <trkpt lat="45.35682" lon="1.2003">
        <ele>242</ele>
        <time>2012-02-26T11:32:18Z</time>
      </trkpt>
      <trkpt lat="45.35681" lon="1.20032">
        <ele>243</ele>
        <time>2012-02-26T11:32:20Z</time>
      </trkpt>
      <trkpt lat="45.35681" lon="1.20035">
        <ele>243</ele>
        <time>2012-02-26T11:32:22Z</time>
      </trkpt>
      <trkpt lat="45.35681" lon="1.20038">
        <ele>244</ele>
        <time>2012-02-26T11:32:24Z</time>
      </trkpt>
      <trkpt lat="45.3568" lon="1.20042">
        <ele>245</ele>
        <time>2012-02-26T11:32:26Z</time>
      </trkpt>
      <trkpt lat="45.35679" lon="1.20046">
        <ele>245</ele>
        <time>2012-02-26T11:32:28Z</time>
      </trkpt>
      <trkpt lat="45.35679" lon="1.20048">
        <ele>246</ele>
        <time>2012-02-26T11:32:30Z</time>
      </trkpt>
      <trkpt lat="45.35678" lon="1.20051">
        <ele>246</ele>
        <time>2012-02-26T11:32:32Z</time>
      </trkpt>
      <trkpt lat="45.35677" lon="1.20054">
        <ele>246</ele>
        <time>2012-02-26T11:32:34Z</time>
      </trkpt>
      <trkpt lat="45.35678" lon="1.20056">
        <ele>246</ele>
        <time>2012-02-26T11:32:36Z</time>
      </trkpt>
      <trkpt lat="45.35679" lon="1.20061">
        <ele>246</ele>
        <time>2012-02-26T11:32:39Z</time>
      </trkpt>
      <trkpt lat="45.35679" lon="1.20063">
        <ele>247</ele>
        <time>2012-02-26T11:32:41Z</time>
      </trkpt>
      <trkpt lat="45.35679" lon="1.20066">
        <ele>247</ele>
        <time>2012-02-26T11:32:43Z</time>
      </trkpt>
      <trkpt lat="45.35679" lon="1.20069">
        <ele>248</ele>
        <time>2012-02-26T11:32:45Z</time>
      </trkpt>
      <trkpt lat="45.35679" lon="1.20071">
        <ele>248</ele>
        <time>2012-02-26T11:32:47Z</time>
      </trkpt>
      <trkpt lat="45.35679" lon="1.20076">
        <ele>248</ele>
        <time>2012-02-26T11:32:50Z</time>
      </trkpt>
      <trkpt lat="45.35678" lon="1.20079">
        <ele>249</ele>
        <time>2012-02-26T11:32:52Z</time>
      </trkpt>
      <trkpt lat="45.35677" lon="1.20083">
        <ele>249</ele>
        <time>2012-02-26T11:32:55Z</time>
      </trkpt>
      <trkpt lat="45.35676" lon="1.20086">
        <ele>250</ele>
        <time>2012-02-26T11:32:57Z</time>
      </trkpt>
      <trkpt lat="45.35675" lon="1.20091">
        <ele>251</ele>
        <time>2012-02-26T11:33:01Z</time>
      </trkpt>
      <trkpt lat="45.35675" lon="1.20095">
        <ele>251</ele>
        <time>2012-02-26T11:33:03Z</time>
      </trkpt>
      <trkpt lat="45.35675" lon="1.20097">
        <ele>251</ele>
        <time>2012-02-26T11:33:05Z</time>
      </trkpt>
      <trkpt lat="45.35676" lon="1.201">
        <ele>252</ele>
        <time>2012-02-26T11:33:07Z</time>
      </trkpt>
      <trkpt lat="45.35677" lon="1.20102">
        <ele>252</ele>
        <time>2012-02-26T11:33:09Z</time>
      </trkpt>
      <trkpt lat="45.35677" lon="1.20105">
        <ele>252</ele>
        <time>2012-02-26T11:33:11Z</time>
      </trkpt>
      <trkpt lat="45.35677" lon="1.20108">
        <ele>252</ele>
        <time>2012-02-26T11:33:13Z</time>
      </trkpt>
      <trkpt lat="45.35676" lon="1.2011">
        <ele>252</ele>
        <time>2012-02-26T11:33:15Z</time>
      </trkpt>
      <trkpt lat="45.35676" lon="1.20113">
        <ele>253</ele>
        <time>2012-02-26T11:33:17Z</time>
      </trkpt>
      <trkpt lat="45.35677" lon="1.20115">
        <ele>254</ele>
        <time>2012-02-26T11:33:19Z</time>
      </trkpt>
      <trkpt lat="45.35677" lon="1.20117">
        <ele>255</ele>
        <time>2012-02-26T11:33:21Z</time>
      </trkpt>
      <trkpt lat="45.35679" lon="1.20119">
        <ele>255</ele>
        <time>2012-02-26T11:33:23Z</time>
      </trkpt>
      <trkpt lat="45.35679" lon="1.20121">
        <ele>255</ele>
        <time>2012-02-26T11:33:25Z</time>
      </trkpt>
      <trkpt lat="45.35681" lon="1.20126">
        <ele>257</ele>
        <time>2012-02-26T11:33:29Z</time>
      </trkpt>
      <trkpt lat="45.35683" lon="1.20126">
        <ele>258</ele>
        <time>2012-02-26T11:33:31Z</time>
      </trkpt>
      <trkpt lat="45.35685" lon="1.2013">
        <ele>259</ele>
        <time>2012-02-26T11:33:35Z</time>
      </trkpt>
      <trkpt lat="45.35687" lon="1.20131">
        <ele>259</ele>
        <time>2012-02-26T11:33:37Z</time>
      </trkpt>
      <trkpt lat="45.3569" lon="1.20134">
        <ele>260</ele>
        <time>2012-02-26T11:33:41Z</time>
      </trkpt>
      <trkpt lat="45.35693" lon="1.20137">
        <ele>261</ele>
        <time>2012-02-26T11:33:44Z</time>
      </trkpt>
      <trkpt lat="45.35694" lon="1.20139">
        <ele>261</ele>
        <time>2012-02-26T11:33:46Z</time>
      </trkpt>
      <trkpt lat="45.35696" lon="1.20141">
        <ele>262</ele>
        <time>2012-02-26T11:33:48Z</time>
      </trkpt>
      <trkpt lat="45.35697" lon="1.20141">
        <ele>262</ele>
        <time>2012-02-26T11:33:50Z</time>
      </trkpt>
      <trkpt lat="45.35699" lon="1.20141">
        <ele>262</ele>
        <time>2012-02-26T11:33:52Z</time>
      </trkpt>
      <trkpt lat="45.35701" lon="1.20141">
        <ele>263</ele>
        <time>2012-02-26T11:33:54Z</time>
      </trkpt>
      <trkpt lat="45.35704" lon="1.20142">
        <ele>263</ele>
        <time>2012-02-26T11:33:57Z</time>
      </trkpt>
      <trkpt lat="45.35706" lon="1.20143">
        <ele>264</ele>
        <time>2012-02-26T11:33:59Z</time>
      </trkpt>
      <trkpt lat="45.3571" lon="1.20145">
        <ele>265</ele>
        <time>2012-02-26T11:34:03Z</time>
      </trkpt>
      <trkpt lat="45.35712" lon="1.20147">
        <ele>266</ele>
        <time>2012-02-26T11:34:05Z</time>
      </trkpt>
      <trkpt lat="45.35713" lon="1.20149">
        <ele>266</ele>
        <time>2012-02-26T11:34:07Z</time>
      </trkpt>
      <trkpt lat="45.35716" lon="1.20151">
        <ele>266</ele>
        <time>2012-02-26T11:34:09Z</time>
      </trkpt>
      <trkpt lat="45.35719" lon="1.20153">
        <ele>266</ele>
        <time>2012-02-26T11:34:11Z</time>
      </trkpt>
      <trkpt lat="45.35721" lon="1.20156">
        <ele>266</ele>
        <time>2012-02-26T11:34:13Z</time>
      </trkpt>
      <trkpt lat="45.35724" lon="1.2016">
        <ele>267</ele>
        <time>2012-02-26T11:34:15Z</time>
      </trkpt>
      <trkpt lat="45.35727" lon="1.20169">
        <ele>268</ele>
        <time>2012-02-26T11:34:18Z</time>
      </trkpt>
      <trkpt lat="45.3573" lon="1.20174">
        <ele>268</ele>
        <time>2012-02-26T11:34:20Z</time>
      </trkpt>
      <trkpt lat="45.35732" lon="1.2018">
        <ele>268</ele>
        <time>2012-02-26T11:34:22Z</time>
      </trkpt>
      <trkpt lat="45.35735" lon="1.20186">
        <ele>268</ele>
        <time>2012-02-26T11:34:24Z</time>
      </trkpt>
      <trkpt lat="45.35738" lon="1.20191">
        <ele>268</ele>
        <time>2012-02-26T11:34:26Z</time>
      </trkpt>
      <trkpt lat="45.35741" lon="1.20197">
        <ele>269</ele>
        <time>2012-02-26T11:34:28Z</time>
      </trkpt>
      <trkpt lat="45.35745" lon="1.20201">
        <ele>270</ele>
        <time>2012-02-26T11:34:30Z</time>
      </trkpt>
      <trkpt lat="45.35747" lon="1.20206">
        <ele>271</ele>
        <time>2012-02-26T11:34:32Z</time>
      </trkpt>
      <trkpt lat="45.35749" lon="1.20211">
        <ele>272</ele>
        <time>2012-02-26T11:34:34Z</time>
      </trkpt>
      <trkpt lat="45.35752" lon="1.20216">
        <ele>273</ele>
        <time>2012-02-26T11:34:36Z</time>
      </trkpt>
      <trkpt lat="45.35754" lon="1.20221">
        <ele>274</ele>
        <time>2012-02-26T11:34:38Z</time>
      </trkpt>
      <trkpt lat="45.35757" lon="1.20226">
        <ele>275</ele>
        <time>2012-02-26T11:34:40Z</time>
      </trkpt>
      <trkpt lat="45.35759" lon="1.20232">
        <ele>275</ele>
        <time>2012-02-26T11:34:42Z</time>
      </trkpt>
      <trkpt lat="45.35761" lon="1.20238">
        <ele>276</ele>
        <time>2012-02-26T11:34:44Z</time>
      </trkpt>
      <trkpt lat="45.35762" lon="1.20245">
        <ele>276</ele>
        <time>2012-02-26T11:34:46Z</time>
      </trkpt>
      <trkpt lat="45.35764" lon="1.20253">
        <ele>276</ele>
        <time>2012-02-26T11:34:48Z</time>
      </trkpt>
      <trkpt lat="45.35764" lon="1.2026">
        <ele>276</ele>
        <time>2012-02-26T11:34:50Z</time>
      </trkpt>
      <trkpt lat="45.35766" lon="1.2027">
        <ele>277</ele>
        <time>2012-02-26T11:34:53Z</time>
      </trkpt>
      <trkpt lat="45.35769" lon="1.20277">
        <ele>277</ele>
        <time>2012-02-26T11:34:55Z</time>
      </trkpt>
      <trkpt lat="45.35774" lon="1.20286">
        <ele>277</ele>
        <time>2012-02-26T11:34:58Z</time>
      </trkpt>
      <trkpt lat="45.35776" lon="1.20292">
        <ele>277</ele>
        <time>2012-02-26T11:35:00Z</time>
      </trkpt>
      <trkpt lat="45.3578" lon="1.20297">
        <ele>277</ele>
        <time>2012-02-26T11:35:02Z</time>
      </trkpt>
      <trkpt lat="45.35783" lon="1.20303">
        <ele>277</ele>
        <time>2012-02-26T11:35:04Z</time>
      </trkpt>
      <trkpt lat="45.35786" lon="1.2031">
        <ele>277</ele>
        <time>2012-02-26T11:35:06Z</time>
      </trkpt>
      <trkpt lat="45.35789" lon="1.20316">
        <ele>277</ele>
        <time>2012-02-26T11:35:08Z</time>
      </trkpt>
      <trkpt lat="45.35792" lon="1.20323">
        <ele>277</ele>
        <time>2012-02-26T11:35:10Z</time>
      </trkpt>
      <trkpt lat="45.35798" lon="1.20333">
        <ele>277</ele>
        <time>2012-02-26T11:35:13Z</time>
      </trkpt>
      <trkpt lat="45.35799" lon="1.20339">
        <ele>277</ele>
        <time>2012-02-26T11:35:15Z</time>
      </trkpt>
      <trkpt lat="45.35799" lon="1.20346">
        <ele>277</ele>
        <time>2012-02-26T11:35:18Z</time>
      </trkpt>
      <trkpt lat="45.35798" lon="1.20349">
        <ele>277</ele>
        <time>2012-02-26T11:35:20Z</time>
      </trkpt>
      <trkpt lat="45.35798" lon="1.20355">
        <ele>277</ele>
        <time>2012-02-26T11:35:23Z</time>
      </trkpt>
      <trkpt lat="45.35798" lon="1.20359">
        <ele>277</ele>
        <time>2012-02-26T11:35:26Z</time>
      </trkpt>
      <trkpt lat="45.35798" lon="1.20366">
        <ele>277</ele>
        <time>2012-02-26T11:35:29Z</time>
      </trkpt>
      <trkpt lat="45.35798" lon="1.2037">
        <ele>277</ele>
        <time>2012-02-26T11:35:31Z</time>
      </trkpt>
      <trkpt lat="45.35799" lon="1.20376">
        <ele>277</ele>
        <time>2012-02-26T11:35:35Z</time>
      </trkpt>
      <trkpt lat="45.35799" lon="1.2038">
        <ele>277</ele>
        <time>2012-02-26T11:35:37Z</time>
      </trkpt>
      <trkpt lat="45.35801" lon="1.20384">
        <ele>277</ele>
        <time>2012-02-26T11:35:39Z</time>
      </trkpt>
      <trkpt lat="45.35801" lon="1.20388">
        <ele>277</ele>
        <time>2012-02-26T11:35:41Z</time>
      </trkpt>
      <trkpt lat="45.35803" lon="1.20393">
        <ele>277</ele>
        <time>2012-02-26T11:35:44Z</time>
      </trkpt>
      <trkpt lat="45.35803" lon="1.20396">
        <ele>277</ele>
        <time>2012-02-26T11:35:46Z</time>
      </trkpt>
      <trkpt lat="45.35803" lon="1.20401">
        <ele>277</ele>
        <time>2012-02-26T11:35:49Z</time>
      </trkpt>
      <trkpt lat="45.35804" lon="1.20405">
        <ele>277</ele>
        <time>2012-02-26T11:35:51Z</time>
      </trkpt>
      <trkpt lat="45.35806" lon="1.20411">
        <ele>277</ele>
        <time>2012-02-26T11:35:54Z</time>
      </trkpt>
      <trkpt lat="45.35806" lon="1.20414">
        <ele>277</ele>
        <time>2012-02-26T11:35:56Z</time>
      </trkpt>
      <trkpt lat="45.35807" lon="1.20418">
        <ele>277</ele>
        <time>2012-02-26T11:35:58Z</time>
      </trkpt>
      <trkpt lat="45.35807" lon="1.20423">
        <ele>277</ele>
        <time>2012-02-26T11:36:00Z</time>
      </trkpt>
      <trkpt lat="45.35807" lon="1.20428">
        <ele>277</ele>
        <time>2012-02-26T11:36:02Z</time>
      </trkpt>
      <trkpt lat="45.35807" lon="1.20432">
        <ele>277</ele>
        <time>2012-02-26T11:36:05Z</time>
      </trkpt>
      <trkpt lat="45.35807" lon="1.20436">
        <ele>277</ele>
        <time>2012-02-26T11:36:07Z</time>
      </trkpt>
      <trkpt lat="45.35806" lon="1.2044">
        <ele>277</ele>
        <time>2012-02-26T11:36:09Z</time>
      </trkpt>
      <trkpt lat="45.35806" lon="1.20445">
        <ele>277</ele>
        <time>2012-02-26T11:36:11Z</time>
      </trkpt>
      <trkpt lat="45.35805" lon="1.20449">
        <ele>277</ele>
        <time>2012-02-26T11:36:13Z</time>
      </trkpt>
      <trkpt lat="45.35804" lon="1.20456">
        <ele>278</ele>
        <time>2012-02-26T11:36:16Z</time>
      </trkpt>
      <trkpt lat="45.35803" lon="1.20459">
        <ele>279</ele>
        <time>2012-02-26T11:36:18Z</time>
      </trkpt>
      <trkpt lat="45.35802" lon="1.20463">
        <ele>280</ele>
        <time>2012-02-26T11:36:20Z</time>
      </trkpt>
      <trkpt lat="45.35803" lon="1.20468">
        <ele>280</ele>
        <time>2012-02-26T11:36:22Z</time>
      </trkpt>
      <trkpt lat="45.35803" lon="1.20472">
        <ele>281</ele>
        <time>2012-02-26T11:36:24Z</time>
      </trkpt>
      <trkpt lat="45.35804" lon="1.20476">
        <ele>281</ele>
        <time>2012-02-26T11:36:26Z</time>
      </trkpt>
      <trkpt lat="45.35803" lon="1.20481">
        <ele>282</ele>
        <time>2012-02-26T11:36:29Z</time>
      </trkpt>
      <trkpt lat="45.35802" lon="1.20485">
        <ele>282</ele>
        <time>2012-02-26T11:36:31Z</time>
      </trkpt>
      <trkpt lat="45.35801" lon="1.20496">
        <ele>283</ele>
        <time>2012-02-26T11:36:34Z</time>
      </trkpt>
      <trkpt lat="45.35799" lon="1.20504">
        <ele>283</ele>
        <time>2012-02-26T11:36:36Z</time>
      </trkpt>
      <trkpt lat="45.35796" lon="1.20511">
        <ele>284</ele>
        <time>2012-02-26T11:36:38Z</time>
      </trkpt>
      <trkpt lat="45.35794" lon="1.20519">
        <ele>284</ele>
        <time>2012-02-26T11:36:40Z</time>
      </trkpt>
      <trkpt lat="45.35792" lon="1.20525">
        <ele>284</ele>
        <time>2012-02-26T11:36:42Z</time>
      </trkpt>
      <trkpt lat="45.3579" lon="1.20532">
        <ele>285</ele>
        <time>2012-02-26T11:36:44Z</time>
      </trkpt>
      <trkpt lat="45.35792" lon="1.20536">
        <ele>285</ele>
        <time>2012-02-26T11:36:46Z</time>
      </trkpt>
      <trkpt lat="45.35794" lon="1.20539">
        <ele>285</ele>
        <time>2012-02-26T11:36:48Z</time>
      </trkpt>
      <trkpt lat="45.35796" lon="1.20539">
        <ele>285</ele>
        <time>2012-02-26T11:36:50Z</time>
      </trkpt>
      <trkpt lat="45.35798" lon="1.20539">
        <ele>285</ele>
        <time>2012-02-26T11:36:52Z</time>
      </trkpt>
      <trkpt lat="45.35801" lon="1.2054">
        <ele>285</ele>
        <time>2012-02-26T11:36:54Z</time>
      </trkpt>
      <trkpt lat="45.35803" lon="1.20541">
        <ele>285</ele>
        <time>2012-02-26T11:36:56Z</time>
      </trkpt>
      <trkpt lat="45.35806" lon="1.20541">
        <ele>285</ele>
        <time>2012-02-26T11:36:58Z</time>
      </trkpt>
      <trkpt lat="45.35808" lon="1.20542">
        <ele>285</ele>
        <time>2012-02-26T11:37:01Z</time>
      </trkpt>
      <trkpt lat="45.35811" lon="1.20544">
        <ele>285</ele>
        <time>2012-02-26T11:37:03Z</time>
      </trkpt>
      <trkpt lat="45.35813" lon="1.20544">
        <ele>285</ele>
        <time>2012-02-26T11:37:05Z</time>
      </trkpt>
      <trkpt lat="45.35815" lon="1.20544">
        <ele>285</ele>
        <time>2012-02-26T11:37:07Z</time>
      </trkpt>
      <trkpt lat="45.35817" lon="1.20545">
        <ele>285</ele>
        <time>2012-02-26T11:37:09Z</time>
      </trkpt>
      <trkpt lat="45.3582" lon="1.20545">
        <ele>285</ele>
        <time>2012-02-26T11:37:12Z</time>
      </trkpt>
      <trkpt lat="45.35822" lon="1.20546">
        <ele>285</ele>
        <time>2012-02-26T11:37:14Z</time>
      </trkpt>
      <trkpt lat="45.35825" lon="1.20546">
        <ele>285</ele>
        <time>2012-02-26T11:37:16Z</time>
      </trkpt>
      <trkpt lat="45.35827" lon="1.20547">
        <ele>285</ele>
        <time>2012-02-26T11:37:18Z</time>
      </trkpt>
      <trkpt lat="45.35829" lon="1.20548">
        <ele>285</ele>
        <time>2012-02-26T11:37:20Z</time>
      </trkpt>
      <trkpt lat="45.35832" lon="1.20552">
        <ele>285</ele>
        <time>2012-02-26T11:37:22Z</time>
      </trkpt>
      <trkpt lat="45.35833" lon="1.20555">
        <ele>285</ele>
        <time>2012-02-26T11:37:24Z</time>
      </trkpt>
      <trkpt lat="45.35835" lon="1.20558">
        <ele>285</ele>
        <time>2012-02-26T11:37:26Z</time>
      </trkpt>
      <trkpt lat="45.35837" lon="1.20563">
        <ele>285</ele>
        <time>2012-02-26T11:37:28Z</time>
      </trkpt>
      <trkpt lat="45.3584" lon="1.20568">
        <ele>286</ele>
        <time>2012-02-26T11:37:30Z</time>
      </trkpt>
      <trkpt lat="45.35841" lon="1.20571">
        <ele>288</ele>
        <time>2012-02-26T11:37:32Z</time>
      </trkpt>
      <trkpt lat="45.35842" lon="1.20575">
        <ele>289</ele>
        <time>2012-02-26T11:37:34Z</time>
      </trkpt>
      <trkpt lat="45.35844" lon="1.20576">
        <ele>289</ele>
        <time>2012-02-26T11:37:36Z</time>
      </trkpt>
      <trkpt lat="45.35848" lon="1.20579">
        <ele>289</ele>
        <time>2012-02-26T11:37:38Z</time>
      </trkpt>
      <trkpt lat="45.35851" lon="1.2058">
        <ele>289</ele>
        <time>2012-02-26T11:37:40Z</time>
      </trkpt>
      <trkpt lat="45.35856" lon="1.20579">
        <ele>289</ele>
        <time>2012-02-26T11:37:42Z</time>
      </trkpt>
      <trkpt lat="45.35859" lon="1.20579">
        <ele>289</ele>
        <time>2012-02-26T11:37:44Z</time>
      </trkpt>
      <trkpt lat="45.35864" lon="1.20578">
        <ele>289</ele>
        <time>2012-02-26T11:37:46Z</time>
      </trkpt>
      <trkpt lat="45.35869" lon="1.20578">
        <ele>290</ele>
        <time>2012-02-26T11:37:48Z</time>
      </trkpt>
      <trkpt lat="45.35874" lon="1.20578">
        <ele>291</ele>
        <time>2012-02-26T11:37:50Z</time>
      </trkpt>
      <trkpt lat="45.3588" lon="1.20578">
        <ele>292</ele>
        <time>2012-02-26T11:37:52Z</time>
      </trkpt>
      <trkpt lat="45.35885" lon="1.20579">
        <ele>293</ele>
        <time>2012-02-26T11:37:54Z</time>
      </trkpt>
      <trkpt lat="45.35889" lon="1.2058">
        <ele>293</ele>
        <time>2012-02-26T11:37:56Z</time>
      </trkpt>
      <trkpt lat="45.35894" lon="1.2058">
        <ele>294</ele>
        <time>2012-02-26T11:37:58Z</time>
      </trkpt>
      <trkpt lat="45.35898" lon="1.2058">
        <ele>294</ele>
        <time>2012-02-26T11:38:00Z</time>
      </trkpt>
      <trkpt lat="45.35903" lon="1.2058">
        <ele>295</ele>
        <time>2012-02-26T11:38:02Z</time>
      </trkpt>
      <trkpt lat="45.35909" lon="1.20579">
        <ele>296</ele>
        <time>2012-02-26T11:38:05Z</time>
      </trkpt>
      <trkpt lat="45.35914" lon="1.20579">
        <ele>296</ele>
        <time>2012-02-26T11:38:07Z</time>
      </trkpt>
      <trkpt lat="45.35918" lon="1.20579">
        <ele>296</ele>
        <time>2012-02-26T11:38:09Z</time>
      </trkpt>
      <trkpt lat="45.35923" lon="1.20579">
        <ele>296</ele>
        <time>2012-02-26T11:38:11Z</time>
      </trkpt>
      <trkpt lat="45.35927" lon="1.20579">
        <ele>296</ele>
        <time>2012-02-26T11:38:13Z</time>
      </trkpt>
      <trkpt lat="45.35931" lon="1.20578">
        <ele>297</ele>
        <time>2012-02-26T11:38:15Z</time>
      </trkpt>
      <trkpt lat="45.35936" lon="1.2058">
        <ele>297</ele>
        <time>2012-02-26T11:38:17Z</time>
      </trkpt>
      <trkpt lat="45.3594" lon="1.20587">
        <ele>297</ele>
        <time>2012-02-26T11:38:20Z</time>
      </trkpt>
      <trkpt lat="45.35941" lon="1.20588">
        <ele>297</ele>
        <time>2012-02-26T11:38:22Z</time>
      </trkpt>
      <trkpt lat="45.35941" lon="1.20587">
        <ele>297</ele>
        <time>2012-02-26T11:38:29Z</time>
      </trkpt>
      <trkpt lat="45.35941" lon="1.20589">
        <ele>297</ele>
        <time>2012-02-26T11:38:42Z</time>
      </trkpt>
      <trkpt lat="45.35944" lon="1.20596">
        <ele>297</ele>
        <time>2012-02-26T11:38:44Z</time>
      </trkpt>
      <trkpt lat="45.35947" lon="1.20603">
        <ele>297</ele>
        <time>2012-02-26T11:38:46Z</time>
      </trkpt>
      <trkpt lat="45.35951" lon="1.2061">
        <ele>297</ele>
        <time>2012-02-26T11:38:48Z</time>
      </trkpt>
      <trkpt lat="45.35955" lon="1.20616">
        <ele>297</ele>
        <time>2012-02-26T11:38:50Z</time>
      </trkpt>
      <trkpt lat="45.3596" lon="1.20622">
        <ele>297</ele>
        <time>2012-02-26T11:38:52Z</time>
      </trkpt>
      <trkpt lat="45.35965" lon="1.20627">
        <ele>297</ele>
        <time>2012-02-26T11:38:54Z</time>
      </trkpt>
      <trkpt lat="45.35972" lon="1.20632">
        <ele>297</ele>
        <time>2012-02-26T11:38:56Z</time>
      </trkpt>
      <trkpt lat="45.35977" lon="1.20637">
        <ele>297</ele>
        <time>2012-02-26T11:38:58Z</time>
      </trkpt>
      <trkpt lat="45.35983" lon="1.20641">
        <ele>297</ele>
        <time>2012-02-26T11:39:00Z</time>
      </trkpt>
      <trkpt lat="45.35988" lon="1.20646">
        <ele>297</ele>
        <time>2012-02-26T11:39:02Z</time>
      </trkpt>
      <trkpt lat="45.35994" lon="1.20649">
        <ele>297</ele>
        <time>2012-02-26T11:39:04Z</time>
      </trkpt>
      <trkpt lat="45.36" lon="1.20653">
        <ele>297</ele>
        <time>2012-02-26T11:39:06Z</time>
      </trkpt>
      <trkpt lat="45.36005" lon="1.20659">
        <ele>297</ele>
        <time>2012-02-26T11:39:08Z</time>
      </trkpt>
      <trkpt lat="45.36012" lon="1.20668">
        <ele>297</ele>
        <time>2012-02-26T11:39:11Z</time>
      </trkpt>
      <trkpt lat="45.36017" lon="1.20675">
        <ele>297</ele>
        <time>2012-02-26T11:39:13Z</time>
      </trkpt>
      <trkpt lat="45.36021" lon="1.20683">
        <ele>297</ele>
        <time>2012-02-26T11:39:15Z</time>
      </trkpt>
      <trkpt lat="45.36022" lon="1.20691">
        <ele>298</ele>
        <time>2012-02-26T11:39:17Z</time>
      </trkpt>
      <trkpt lat="45.36023" lon="1.207">
        <ele>298</ele>
        <time>2012-02-26T11:39:19Z</time>
      </trkpt>
      <trkpt lat="45.36023" lon="1.20708">
        <ele>298</ele>
        <time>2012-02-26T11:39:21Z</time>
      </trkpt>
      <trkpt lat="45.36022" lon="1.20717">
        <ele>298</ele>
        <time>2012-02-26T11:39:23Z</time>
      </trkpt>
      <trkpt lat="45.36022" lon="1.20726">
        <ele>298</ele>
        <time>2012-02-26T11:39:25Z</time>
      </trkpt>
      <trkpt lat="45.36021" lon="1.20734">
        <ele>299</ele>
        <time>2012-02-26T11:39:27Z</time>
      </trkpt>
      <trkpt lat="45.36022" lon="1.20742">
        <ele>299</ele>
        <time>2012-02-26T11:39:29Z</time>
      </trkpt>
      <trkpt lat="45.36021" lon="1.2075">
        <ele>299</ele>
        <time>2012-02-26T11:39:31Z</time>
      </trkpt>
      <trkpt lat="45.3602" lon="1.20759">
        <ele>300</ele>
        <time>2012-02-26T11:39:33Z</time>
      </trkpt>
      <trkpt lat="45.36019" lon="1.20767">
        <ele>300</ele>
        <time>2012-02-26T11:39:35Z</time>
      </trkpt>
      <trkpt lat="45.36019" lon="1.20775">
        <ele>300</ele>
        <time>2012-02-26T11:39:37Z</time>
      </trkpt>
      <trkpt lat="45.3602" lon="1.20783">
        <ele>300</ele>
        <time>2012-02-26T11:39:39Z</time>
      </trkpt>
      <trkpt lat="45.3602" lon="1.20791">
        <ele>300</ele>
        <time>2012-02-26T11:39:41Z</time>
      </trkpt>
      <trkpt lat="45.36021" lon="1.20799">
        <ele>300</ele>
        <time>2012-02-26T11:39:43Z</time>
      </trkpt>
      <trkpt lat="45.36021" lon="1.20807">
        <ele>300</ele>
        <time>2012-02-26T11:39:45Z</time>
      </trkpt>
      <trkpt lat="45.36022" lon="1.20816">
        <ele>300</ele>
        <time>2012-02-26T11:39:47Z</time>
      </trkpt>
      <trkpt lat="45.36023" lon="1.20823">
        <ele>300</ele>
        <time>2012-02-26T11:39:49Z</time>
      </trkpt>
      <trkpt lat="45.36024" lon="1.20831">
        <ele>300</ele>
        <time>2012-02-26T11:39:51Z</time>
      </trkpt>
      <trkpt lat="45.36026" lon="1.20838">
        <ele>300</ele>
        <time>2012-02-26T11:39:53Z</time>
      </trkpt>
      <trkpt lat="45.36028" lon="1.20845">
        <ele>300</ele>
        <time>2012-02-26T11:39:55Z</time>
      </trkpt>
      <trkpt lat="45.3603" lon="1.20851">
        <ele>300</ele>
        <time>2012-02-26T11:39:57Z</time>
      </trkpt>
      <trkpt lat="45.36034" lon="1.20858">
        <ele>300</ele>
        <time>2012-02-26T11:40:00Z</time>
      </trkpt>
      <trkpt lat="45.36036" lon="1.20863">
        <ele>299</ele>
        <time>2012-02-26T11:40:02Z</time>
      </trkpt>
      <trkpt lat="45.36039" lon="1.20868">
        <ele>298</ele>
        <time>2012-02-26T11:40:04Z</time>
      </trkpt>
      <trkpt lat="45.36043" lon="1.20873">
        <ele>297</ele>
        <time>2012-02-26T11:40:06Z</time>
      </trkpt>
      <trkpt lat="45.36047" lon="1.20878">
        <ele>297</ele>
        <time>2012-02-26T11:40:08Z</time>
      </trkpt>
      <trkpt lat="45.36054" lon="1.20885">
        <ele>297</ele>
        <time>2012-02-26T11:40:11Z</time>
      </trkpt>
      <trkpt lat="45.36058" lon="1.20891">
        <ele>297</ele>
        <time>2012-02-26T11:40:13Z</time>
      </trkpt>
      <trkpt lat="45.36062" lon="1.20897">
        <ele>297</ele>
        <time>2012-02-26T11:40:15Z</time>
      </trkpt>
      <trkpt lat="45.36064" lon="1.20903">
        <ele>297</ele>
        <time>2012-02-26T11:40:17Z</time>
      </trkpt>
      <trkpt lat="45.36066" lon="1.2091">
        <ele>297</ele>
        <time>2012-02-26T11:40:19Z</time>
      </trkpt>
      <trkpt lat="45.36066" lon="1.20917">
        <ele>297</ele>
        <time>2012-02-26T11:40:21Z</time>
      </trkpt>
      <trkpt lat="45.36065" lon="1.20925">
        <ele>297</ele>
        <time>2012-02-26T11:40:23Z</time>
      </trkpt>
      <trkpt lat="45.36063" lon="1.20931">
        <ele>297</ele>
        <time>2012-02-26T11:40:25Z</time>
      </trkpt>
      <trkpt lat="45.36059" lon="1.20936">
        <ele>296</ele>
        <time>2012-02-26T11:40:27Z</time>
      </trkpt>
      <trkpt lat="45.36055" lon="1.20941">
        <ele>296</ele>
        <time>2012-02-26T11:40:29Z</time>
      </trkpt>
      <trkpt lat="45.36052" lon="1.20946">
        <ele>296</ele>
        <time>2012-02-26T11:40:31Z</time>
      </trkpt>
      <trkpt lat="45.36049" lon="1.20951">
        <ele>296</ele>
        <time>2012-02-26T11:40:33Z</time>
      </trkpt>
      <trkpt lat="45.36046" lon="1.20956">
        <ele>296</ele>
        <time>2012-02-26T11:40:35Z</time>
      </trkpt>
      <trkpt lat="45.36042" lon="1.20961">
        <ele>296</ele>
        <time>2012-02-26T11:40:37Z</time>
      </trkpt>
      <trkpt lat="45.36038" lon="1.20967">
        <ele>296</ele>
        <time>2012-02-26T11:40:39Z</time>
      </trkpt>
      <trkpt lat="45.36036" lon="1.20973">
        <ele>296</ele>
        <time>2012-02-26T11:40:41Z</time>
      </trkpt>
      <trkpt lat="45.36034" lon="1.2098">
        <ele>296</ele>
        <time>2012-02-26T11:40:43Z</time>
      </trkpt>
      <trkpt lat="45.36033" lon="1.20987">
        <ele>295</ele>
        <time>2012-02-26T11:40:45Z</time>
      </trkpt>
      <trkpt lat="45.36033" lon="1.20995">
        <ele>295</ele>
        <time>2012-02-26T11:40:47Z</time>
      </trkpt>
      <trkpt lat="45.36032" lon="1.21002">
        <ele>295</ele>
        <time>2012-02-26T11:40:49Z</time>
      </trkpt>
      <trkpt lat="45.36032" lon="1.2101">
        <ele>295</ele>
        <time>2012-02-26T11:40:51Z</time>
      </trkpt>
      <trkpt lat="45.3603" lon="1.21018">
        <ele>295</ele>
        <time>2012-02-26T11:40:53Z</time>
      </trkpt>
      <trkpt lat="45.36027" lon="1.21023">
        <ele>295</ele>
        <time>2012-02-26T11:40:55Z</time>
      </trkpt>
      <trkpt lat="45.36023" lon="1.21028">
        <ele>295</ele>
        <time>2012-02-26T11:40:57Z</time>
      </trkpt>
      <trkpt lat="45.36018" lon="1.21034">
        <ele>295</ele>
        <time>2012-02-26T11:40:59Z</time>
      </trkpt>
      <trkpt lat="45.36014" lon="1.21039">
        <ele>295</ele>
        <time>2012-02-26T11:41:01Z</time>
      </trkpt>
      <trkpt lat="45.36011" lon="1.21045">
        <ele>294</ele>
        <time>2012-02-26T11:41:03Z</time>
      </trkpt>
      <trkpt lat="45.36008" lon="1.2105">
        <ele>294</ele>
        <time>2012-02-26T11:41:05Z</time>
      </trkpt>
      <trkpt lat="45.36004" lon="1.21056">
        <ele>294</ele>
        <time>2012-02-26T11:41:07Z</time>
      </trkpt>
      <trkpt lat="45.36" lon="1.21063">
        <ele>293</ele>
        <time>2012-02-26T11:41:09Z</time>
      </trkpt>
      <trkpt lat="45.35994" lon="1.21068">
        <ele>293</ele>
        <time>2012-02-26T11:41:11Z</time>
      </trkpt>
      <trkpt lat="45.3599" lon="1.21072">
        <ele>293</ele>
        <time>2012-02-26T11:41:13Z</time>
      </trkpt>
      <trkpt lat="45.35985" lon="1.21075">
        <ele>293</ele>
        <time>2012-02-26T11:41:15Z</time>
      </trkpt>
      <trkpt lat="45.35981" lon="1.21078">
        <ele>293</ele>
        <time>2012-02-26T11:41:17Z</time>
      </trkpt>
      <trkpt lat="45.35977" lon="1.2108">
        <ele>293</ele>
        <time>2012-02-26T11:41:19Z</time>
      </trkpt>
      <trkpt lat="45.35973" lon="1.21084">
        <ele>293</ele>
        <time>2012-02-26T11:41:21Z</time>
      </trkpt>
      <trkpt lat="45.35968" lon="1.21088">
        <ele>292</ele>
        <time>2012-02-26T11:41:23Z</time>
      </trkpt>
      <trkpt lat="45.35962" lon="1.21091">
        <ele>292</ele>
        <time>2012-02-26T11:41:25Z</time>
      </trkpt>
      <trkpt lat="45.35957" lon="1.21093">
        <ele>292</ele>
        <time>2012-02-26T11:41:27Z</time>
      </trkpt>
      <trkpt lat="45.35952" lon="1.21097">
        <ele>291</ele>
        <time>2012-02-26T11:41:29Z</time>
      </trkpt>
      <trkpt lat="45.35947" lon="1.21099">
        <ele>290</ele>
        <time>2012-02-26T11:41:31Z</time>
      </trkpt>
      <trkpt lat="45.35941" lon="1.21102">
        <ele>289</ele>
        <time>2012-02-26T11:41:33Z</time>
      </trkpt>
      <trkpt lat="45.35936" lon="1.21105">
        <ele>289</ele>
        <time>2012-02-26T11:41:35Z</time>
      </trkpt>
      <trkpt lat="45.35931" lon="1.21109">
        <ele>288</ele>
        <time>2012-02-26T11:41:37Z</time>
      </trkpt>
      <trkpt lat="45.35926" lon="1.21111">
        <ele>288</ele>
        <time>2012-02-26T11:41:39Z</time>
      </trkpt>
      <trkpt lat="45.35922" lon="1.21114">
        <ele>287</ele>
        <time>2012-02-26T11:41:41Z</time>
      </trkpt>
      <trkpt lat="45.35917" lon="1.21117">
        <ele>287</ele>
        <time>2012-02-26T11:41:43Z</time>
      </trkpt>
      <trkpt lat="45.35912" lon="1.2112">
        <ele>286</ele>
        <time>2012-02-26T11:41:45Z</time>
      </trkpt>
      <trkpt lat="45.35907" lon="1.21124">
        <ele>286</ele>
        <time>2012-02-26T11:41:47Z</time>
      </trkpt>
      <trkpt lat="45.35903" lon="1.21127">
        <ele>286</ele>
        <time>2012-02-26T11:41:49Z</time>
      </trkpt>
      <trkpt lat="45.35899" lon="1.2113">
        <ele>286</ele>
        <time>2012-02-26T11:41:51Z</time>
      </trkpt>
      <trkpt lat="45.35894" lon="1.21133">
        <ele>286</ele>
        <time>2012-02-26T11:41:53Z</time>
      </trkpt>
      <trkpt lat="45.35891" lon="1.21136">
        <ele>285</ele>
        <time>2012-02-26T11:41:55Z</time>
      </trkpt>
      <trkpt lat="45.35884" lon="1.21142">
        <ele>285</ele>
        <time>2012-02-26T11:41:57Z</time>
      </trkpt>
      <trkpt lat="45.35875" lon="1.21147">
        <ele>285</ele>
        <time>2012-02-26T11:42:00Z</time>
      </trkpt>
      <trkpt lat="45.3587" lon="1.2115">
        <ele>285</ele>
        <time>2012-02-26T11:42:02Z</time>
      </trkpt>
      <trkpt lat="45.35867" lon="1.21153">
        <ele>285</ele>
        <time>2012-02-26T11:42:04Z</time>
      </trkpt>
      <trkpt lat="45.35862" lon="1.21155">
        <ele>285</ele>
        <time>2012-02-26T11:42:06Z</time>
      </trkpt>
      <trkpt lat="45.3586" lon="1.21157">
        <ele>284</ele>
        <time>2012-02-26T11:42:08Z</time>
      </trkpt>
      <trkpt lat="45.35854" lon="1.21161">
        <ele>284</ele>
        <time>2012-02-26T11:42:11Z</time>
      </trkpt>
      <trkpt lat="45.35849" lon="1.21163">
        <ele>283</ele>
        <time>2012-02-26T11:42:13Z</time>
      </trkpt>
      <trkpt lat="45.35845" lon="1.21166">
        <ele>282</ele>
        <time>2012-02-26T11:42:15Z</time>
      </trkpt>
      <trkpt lat="45.3584" lon="1.21169">
        <ele>282</ele>
        <time>2012-02-26T11:42:17Z</time>
      </trkpt>
      <trkpt lat="45.35835" lon="1.21171">
        <ele>282</ele>
        <time>2012-02-26T11:42:19Z</time>
      </trkpt>
      <trkpt lat="45.35831" lon="1.21174">
        <ele>282</ele>
        <time>2012-02-26T11:42:21Z</time>
      </trkpt>
      <trkpt lat="45.35825" lon="1.21178">
        <ele>282</ele>
        <time>2012-02-26T11:42:23Z</time>
      </trkpt>
      <trkpt lat="45.35821" lon="1.21181">
        <ele>282</ele>
        <time>2012-02-26T11:42:25Z</time>
      </trkpt>
      <trkpt lat="45.35815" lon="1.21186">
        <ele>282</ele>
        <time>2012-02-26T11:42:27Z</time>
      </trkpt>
      <trkpt lat="45.35808" lon="1.2119">
        <ele>282</ele>
        <time>2012-02-26T11:42:29Z</time>
      </trkpt>
      <trkpt lat="45.35801" lon="1.21195">
        <ele>282</ele>
        <time>2012-02-26T11:42:31Z</time>
      </trkpt>
      <trkpt lat="45.35796" lon="1.21196">
        <ele>282</ele>
        <time>2012-02-26T11:42:33Z</time>
      </trkpt>
      <trkpt lat="45.35791" lon="1.21198">
        <ele>282</ele>
        <time>2012-02-26T11:42:35Z</time>
      </trkpt>
      <trkpt lat="45.35786" lon="1.21199">
        <ele>282</ele>
        <time>2012-02-26T11:42:37Z</time>
      </trkpt>
      <trkpt lat="45.35782" lon="1.21201">
        <ele>282</ele>
        <time>2012-02-26T11:42:39Z</time>
      </trkpt>
      <trkpt lat="45.35776" lon="1.21204">
        <ele>282</ele>
        <time>2012-02-26T11:42:41Z</time>
      </trkpt>
      <trkpt lat="45.35771" lon="1.21205">
        <ele>282</ele>
        <time>2012-02-26T11:42:43Z</time>
      </trkpt>
      <trkpt lat="45.35766" lon="1.21208">
        <ele>282</ele>
        <time>2012-02-26T11:42:45Z</time>
      </trkpt>
      <trkpt lat="45.35761" lon="1.2121">
        <ele>282</ele>
        <time>2012-02-26T11:42:47Z</time>
      </trkpt>
      <trkpt lat="45.35756" lon="1.21213">
        <ele>282</ele>
        <time>2012-02-26T11:42:49Z</time>
      </trkpt>
      <trkpt lat="45.35751" lon="1.21217">
        <ele>281</ele>
        <time>2012-02-26T11:42:51Z</time>
      </trkpt>
      <trkpt lat="45.35747" lon="1.2122">
        <ele>280</ele>
        <time>2012-02-26T11:42:53Z</time>
      </trkpt>
      <trkpt lat="45.35741" lon="1.21223">
        <ele>280</ele>
        <time>2012-02-26T11:42:55Z</time>
      </trkpt>
      <trkpt lat="45.35734" lon="1.21223">
        <ele>280</ele>
        <time>2012-02-26T11:42:57Z</time>
      </trkpt>
      <trkpt lat="45.35729" lon="1.21222">
        <ele>279</ele>
        <time>2012-02-26T11:42:59Z</time>
      </trkpt>
      <trkpt lat="45.35723" lon="1.21222">
        <ele>279</ele>
        <time>2012-02-26T11:43:01Z</time>
      </trkpt>
      <trkpt lat="45.35718" lon="1.21221">
        <ele>278</ele>
        <time>2012-02-26T11:43:03Z</time>
      </trkpt>
      <trkpt lat="45.35712" lon="1.2122">
        <ele>278</ele>
        <time>2012-02-26T11:43:05Z</time>
      </trkpt>
      <trkpt lat="45.35706" lon="1.21219">
        <ele>277</ele>
        <time>2012-02-26T11:43:07Z</time>
      </trkpt>
      <trkpt lat="45.35702" lon="1.21217">
        <ele>277</ele>
        <time>2012-02-26T11:43:09Z</time>
      </trkpt>
      <trkpt lat="45.35697" lon="1.21216">
        <ele>276</ele>
        <time>2012-02-26T11:43:11Z</time>
      </trkpt>
      <trkpt lat="45.35693" lon="1.21213">
        <ele>275</ele>
        <time>2012-02-26T11:43:13Z</time>
      </trkpt>
      <trkpt lat="45.35687" lon="1.2121">
        <ele>275</ele>
        <time>2012-02-26T11:43:15Z</time>
      </trkpt>
      <trkpt lat="45.35682" lon="1.21209">
        <ele>275</ele>
        <time>2012-02-26T11:43:17Z</time>
      </trkpt>
      <trkpt lat="45.35676" lon="1.21208">
        <ele>275</ele>
        <time>2012-02-26T11:43:19Z</time>
      </trkpt>
      <trkpt lat="45.3567" lon="1.21207">
        <ele>275</ele>
        <time>2012-02-26T11:43:21Z</time>
      </trkpt>
      <trkpt lat="45.35664" lon="1.21205">
        <ele>275</ele>
        <time>2012-02-26T11:43:23Z</time>
      </trkpt>
      <trkpt lat="45.35658" lon="1.21206">
        <ele>275</ele>
        <time>2012-02-26T11:43:25Z</time>
      </trkpt>
      <trkpt lat="45.35652" lon="1.21206">
        <ele>275</ele>
        <time>2012-02-26T11:43:27Z</time>
      </trkpt>
      <trkpt lat="45.35647" lon="1.21204">
        <ele>275</ele>
        <time>2012-02-26T11:43:29Z</time>
      </trkpt>
      <trkpt lat="45.35642" lon="1.21203">
        <ele>275</ele>
        <time>2012-02-26T11:43:31Z</time>
      </trkpt>
      <trkpt lat="45.35638" lon="1.21201">
        <ele>275</ele>
        <time>2012-02-26T11:43:33Z</time>
      </trkpt>
      <trkpt lat="45.35634" lon="1.21198">
        <ele>275</ele>
        <time>2012-02-26T11:43:35Z</time>
      </trkpt>
      <trkpt lat="45.35629" lon="1.21196">
        <ele>274</ele>
        <time>2012-02-26T11:43:37Z</time>
      </trkpt>
      <trkpt lat="45.3562" lon="1.21195">
        <ele>273</ele>
        <time>2012-02-26T11:43:40Z</time>
      </trkpt>
      <trkpt lat="45.35617" lon="1.21193">
        <ele>272</ele>
        <time>2012-02-26T11:43:42Z</time>
      </trkpt>
      <trkpt lat="45.35613" lon="1.2119">
        <ele>272</ele>
        <time>2012-02-26T11:43:44Z</time>
      </trkpt>
      <trkpt lat="45.35609" lon="1.21188">
        <ele>271</ele>
        <time>2012-02-26T11:43:46Z</time>
      </trkpt>
      <trkpt lat="45.35606" lon="1.21186">
        <ele>270</ele>
        <time>2012-02-26T11:43:48Z</time>
      </trkpt>
      <trkpt lat="45.35601" lon="1.21186">
        <ele>269</ele>
        <time>2012-02-26T11:43:50Z</time>
      </trkpt>
      <trkpt lat="45.35596" lon="1.21184">
        <ele>267</ele>
        <time>2012-02-26T11:43:52Z</time>
      </trkpt>
      <trkpt lat="45.35591" lon="1.2118">
        <ele>266</ele>
        <time>2012-02-26T11:43:54Z</time>
      </trkpt>
      <trkpt lat="45.35586" lon="1.21177">
        <ele>264</ele>
        <time>2012-02-26T11:43:56Z</time>
      </trkpt>
      <trkpt lat="45.35581" lon="1.21174">
        <ele>262</ele>
        <time>2012-02-26T11:43:58Z</time>
      </trkpt>
      <trkpt lat="45.35576" lon="1.21174">
        <ele>261</ele>
        <time>2012-02-26T11:44:00Z</time>
      </trkpt>
      <trkpt lat="45.35572" lon="1.21179">
        <ele>260</ele>
        <time>2012-02-26T11:44:02Z</time>
      </trkpt>
      <trkpt lat="45.35568" lon="1.21184">
        <ele>260</ele>
        <time>2012-02-26T11:44:04Z</time>
      </trkpt>
      <trkpt lat="45.35562" lon="1.21187">
        <ele>259</ele>
        <time>2012-02-26T11:44:06Z</time>
      </trkpt>
      <trkpt lat="45.35555" lon="1.2119">
        <ele>258</ele>
        <time>2012-02-26T11:44:08Z</time>
      </trkpt>
      <trkpt lat="45.35548" lon="1.21186">
        <ele>256</ele>
        <time>2012-02-26T11:44:11Z</time>
      </trkpt>
      <trkpt lat="45.35543" lon="1.21183">
        <ele>255</ele>
        <time>2012-02-26T11:44:13Z</time>
      </trkpt>
      <trkpt lat="45.35539" lon="1.21177">
        <ele>254</ele>
        <time>2012-02-26T11:44:15Z</time>
      </trkpt>
      <trkpt lat="45.35535" lon="1.21171">
        <ele>254</ele>
        <time>2012-02-26T11:44:17Z</time>
      </trkpt>
      <trkpt lat="45.35533" lon="1.21163">
        <ele>253</ele>
        <time>2012-02-26T11:44:19Z</time>
      </trkpt>
      <trkpt lat="45.35532" lon="1.21155">
        <ele>253</ele>
        <time>2012-02-26T11:44:21Z</time>
      </trkpt>
      <trkpt lat="45.35532" lon="1.21148">
        <ele>252</ele>
        <time>2012-02-26T11:44:23Z</time>
      </trkpt>
      <trkpt lat="45.35532" lon="1.2114">
        <ele>251</ele>
        <time>2012-02-26T11:44:25Z</time>
      </trkpt>
      <trkpt lat="45.35532" lon="1.21133">
        <ele>251</ele>
        <time>2012-02-26T11:44:27Z</time>
      </trkpt>
      <trkpt lat="45.35531" lon="1.21126">
        <ele>251</ele>
        <time>2012-02-26T11:44:29Z</time>
      </trkpt>
      <trkpt lat="45.35529" lon="1.21118">
        <ele>251</ele>
        <time>2012-02-26T11:44:31Z</time>
      </trkpt>
      <trkpt lat="45.35527" lon="1.21112">
        <ele>251</ele>
        <time>2012-02-26T11:44:33Z</time>
      </trkpt>
      <trkpt lat="45.35525" lon="1.21106">
        <ele>250</ele>
        <time>2012-02-26T11:44:35Z</time>
      </trkpt>
      <trkpt lat="45.35525" lon="1.211">
        <ele>250</ele>
        <time>2012-02-26T11:44:37Z</time>
      </trkpt>
      <trkpt lat="45.35524" lon="1.21094">
        <ele>250</ele>
        <time>2012-02-26T11:44:39Z</time>
      </trkpt>
      <trkpt lat="45.35523" lon="1.21086">
        <ele>250</ele>
        <time>2012-02-26T11:44:41Z</time>
      </trkpt>
      <trkpt lat="45.35523" lon="1.21081">
        <ele>250</ele>
        <time>2012-02-26T11:44:43Z</time>
      </trkpt>
      <trkpt lat="45.35522" lon="1.21076">
        <ele>250</ele>
        <time>2012-02-26T11:44:45Z</time>
      </trkpt>
      <trkpt lat="45.35519" lon="1.2107">
        <ele>250</ele>
        <time>2012-02-26T11:44:47Z</time>
      </trkpt>
      <trkpt lat="45.35516" lon="1.21064">
        <ele>250</ele>
        <time>2012-02-26T11:44:49Z</time>
      </trkpt>
      <trkpt lat="45.35511" lon="1.21057">
        <ele>250</ele>
        <time>2012-02-26T11:44:51Z</time>
      </trkpt>
      <trkpt lat="45.35507" lon="1.21053">
        <ele>250</ele>
        <time>2012-02-26T11:44:53Z</time>
      </trkpt>
      <trkpt lat="45.35504" lon="1.21046">
        <ele>250</ele>
        <time>2012-02-26T11:44:55Z</time>
      </trkpt>
      <trkpt lat="45.35502" lon="1.21043">
        <ele>250</ele>
        <time>2012-02-26T11:44:57Z</time>
      </trkpt>
      <trkpt lat="45.35499" lon="1.21039">
        <ele>250</ele>
        <time>2012-02-26T11:44:59Z</time>
      </trkpt>
      <trkpt lat="45.35497" lon="1.21036">
        <ele>251</ele>
        <time>2012-02-26T11:45:01Z</time>
      </trkpt>
      <trkpt lat="45.35495" lon="1.21032">
        <ele>251</ele>
        <time>2012-02-26T11:45:04Z</time>
      </trkpt>
      <trkpt lat="45.35493" lon="1.21029">
        <ele>251</ele>
        <time>2012-02-26T11:45:06Z</time>
      </trkpt>
      <trkpt lat="45.35491" lon="1.21026">
        <ele>251</ele>
        <time>2012-02-26T11:45:08Z</time>
      </trkpt>
      <trkpt lat="45.35487" lon="1.21022">
        <ele>251</ele>
        <time>2012-02-26T11:45:11Z</time>
      </trkpt>
      <trkpt lat="45.35484" lon="1.21018">
        <ele>251</ele>
        <time>2012-02-26T11:45:14Z</time>
      </trkpt>
      <trkpt lat="45.35482" lon="1.21013">
        <ele>251</ele>
        <time>2012-02-26T11:45:16Z</time>
      </trkpt>
      <trkpt lat="45.3548" lon="1.21009">
        <ele>251</ele>
        <time>2012-02-26T11:45:18Z</time>
      </trkpt>
      <trkpt lat="45.3548" lon="1.21005">
        <ele>252</ele>
        <time>2012-02-26T11:45:20Z</time>
      </trkpt>
      <trkpt lat="45.3548" lon="1.21">
        <ele>253</ele>
        <time>2012-02-26T11:45:22Z</time>
      </trkpt>
      <trkpt lat="45.35478" lon="1.20998">
        <ele>254</ele>
        <time>2012-02-26T11:45:24Z</time>
      </trkpt>
      <trkpt lat="45.35475" lon="1.20994">
        <ele>254</ele>
        <time>2012-02-26T11:45:26Z</time>
      </trkpt>
      <trkpt lat="45.35471" lon="1.20992">
        <ele>255</ele>
        <time>2012-02-26T11:45:28Z</time>
      </trkpt>
      <trkpt lat="45.35468" lon="1.2099">
        <ele>255</ele>
        <time>2012-02-26T11:45:30Z</time>
      </trkpt>
      <trkpt lat="45.35464" lon="1.20987">
        <ele>256</ele>
        <time>2012-02-26T11:45:32Z</time>
      </trkpt>
      <trkpt lat="45.35461" lon="1.20988">
        <ele>256</ele>
        <time>2012-02-26T11:45:34Z</time>
      </trkpt>
      <trkpt lat="45.35458" lon="1.2099">
        <ele>256</ele>
        <time>2012-02-26T11:45:36Z</time>
      </trkpt>
      <trkpt lat="45.35455" lon="1.20992">
        <ele>256</ele>
        <time>2012-02-26T11:45:38Z</time>
      </trkpt>
      <trkpt lat="45.35452" lon="1.20994">
        <ele>256</ele>
        <time>2012-02-26T11:45:40Z</time>
      </trkpt>
      <trkpt lat="45.35449" lon="1.20997">
        <ele>256</ele>
        <time>2012-02-26T11:45:42Z</time>
      </trkpt>
      <trkpt lat="45.35447" lon="1.20995">
        <ele>256</ele>
        <time>2012-02-26T11:45:44Z</time>
      </trkpt>
      <trkpt lat="45.35446" lon="1.20993">
        <ele>255</ele>
        <time>2012-02-26T11:45:46Z</time>
      </trkpt>
      <trkpt lat="45.35444" lon="1.20991">
        <ele>254</ele>
        <time>2012-02-26T11:45:48Z</time>
      </trkpt>
      <trkpt lat="45.35441" lon="1.20989">
        <ele>253</ele>
        <time>2012-02-26T11:45:50Z</time>
      </trkpt>
      <trkpt lat="45.35439" lon="1.20989">
        <ele>252</ele>
        <time>2012-02-26T11:45:52Z</time>
      </trkpt>
      <trkpt lat="45.35437" lon="1.20989">
        <ele>251</ele>
        <time>2012-02-26T11:45:54Z</time>
      </trkpt>
      <trkpt lat="45.35434" lon="1.20989">
        <ele>250</ele>
        <time>2012-02-26T11:45:56Z</time>
      </trkpt>
      <trkpt lat="45.35432" lon="1.20986">
        <ele>249</ele>
        <time>2012-02-26T11:45:58Z</time>
      </trkpt>
      <trkpt lat="45.35431" lon="1.20982">
        <ele>248</ele>
        <time>2012-02-26T11:46:00Z</time>
      </trkpt>
      <trkpt lat="45.35431" lon="1.20977">
        <ele>247</ele>
        <time>2012-02-26T11:46:02Z</time>
      </trkpt>
      <trkpt lat="45.35431" lon="1.20974">
        <ele>246</ele>
        <time>2012-02-26T11:46:04Z</time>
      </trkpt>
      <trkpt lat="45.3543" lon="1.2097">
        <ele>245</ele>
        <time>2012-02-26T11:46:06Z</time>
      </trkpt>
      <trkpt lat="45.3543" lon="1.20965">
        <ele>244</ele>
        <time>2012-02-26T11:46:08Z</time>
      </trkpt>
      <trkpt lat="45.35429" lon="1.20958">
        <ele>242</ele>
        <time>2012-02-26T11:46:11Z</time>
      </trkpt>
      <trkpt lat="45.3543" lon="1.20951">
        <ele>242</ele>
        <time>2012-02-26T11:46:13Z</time>
      </trkpt>
      <trkpt lat="45.35431" lon="1.20945">
        <ele>241</ele>
        <time>2012-02-26T11:46:15Z</time>
      </trkpt>
      <trkpt lat="45.35432" lon="1.2094">
        <ele>239</ele>
        <time>2012-02-26T11:46:17Z</time>
      </trkpt>
      <trkpt lat="45.35434" lon="1.20935">
        <ele>238</ele>
        <time>2012-02-26T11:46:19Z</time>
      </trkpt>
      <trkpt lat="45.35434" lon="1.20929">
        <ele>236</ele>
        <time>2012-02-26T11:46:21Z</time>
      </trkpt>
      <trkpt lat="45.35435" lon="1.20924">
        <ele>235</ele>
        <time>2012-02-26T11:46:23Z</time>
      </trkpt>
      <trkpt lat="45.35437" lon="1.20921">
        <ele>235</ele>
        <time>2012-02-26T11:46:25Z</time>
      </trkpt>
      <trkpt lat="45.35439" lon="1.20919">
        <ele>234</ele>
        <time>2012-02-26T11:46:27Z</time>
      </trkpt>
      <trkpt lat="45.3544" lon="1.20919">
        <ele>233</ele>
        <time>2012-02-26T11:46:29Z</time>
      </trkpt>
      <trkpt lat="45.35442" lon="1.20917">
        <ele>231</ele>
        <time>2012-02-26T11:46:32Z</time>
      </trkpt>
      <trkpt lat="45.35445" lon="1.20917">
        <ele>231</ele>
        <time>2012-02-26T11:46:34Z</time>
      </trkpt>
      <trkpt lat="45.35449" lon="1.20913">
        <ele>230</ele>
        <time>2012-02-26T11:46:36Z</time>
      </trkpt>
      <trkpt lat="45.35452" lon="1.20909">
        <ele>230</ele>
        <time>2012-02-26T11:46:38Z</time>
      </trkpt>
      <trkpt lat="45.35453" lon="1.20906">
        <ele>230</ele>
        <time>2012-02-26T11:46:40Z</time>
      </trkpt>
      <trkpt lat="45.35453" lon="1.20903">
        <ele>230</ele>
        <time>2012-02-26T11:46:42Z</time>
      </trkpt>
      <trkpt lat="45.35454" lon="1.20898">
        <ele>230</ele>
        <time>2012-02-26T11:46:45Z</time>
      </trkpt>
      <trkpt lat="45.35457" lon="1.20897">
        <ele>230</ele>
        <time>2012-02-26T11:46:47Z</time>
      </trkpt>
      <trkpt lat="45.35458" lon="1.20894">
        <ele>230</ele>
        <time>2012-02-26T11:46:50Z</time>
      </trkpt>
      <trkpt lat="45.35459" lon="1.20889">
        <ele>229</ele>
        <time>2012-02-26T11:46:52Z</time>
      </trkpt>
      <trkpt lat="45.35459" lon="1.20887">
        <ele>228</ele>
        <time>2012-02-26T11:46:54Z</time>
      </trkpt>
      <trkpt lat="45.3546" lon="1.20884">
        <ele>227</ele>
        <time>2012-02-26T11:46:56Z</time>
      </trkpt>
      <trkpt lat="45.35461" lon="1.20883">
        <ele>227</ele>
        <time>2012-02-26T11:46:58Z</time>
      </trkpt>
      <trkpt lat="45.35462" lon="1.20881">
        <ele>227</ele>
        <time>2012-02-26T11:47:01Z</time>
      </trkpt>
      <trkpt lat="45.35463" lon="1.20878">
        <ele>226</ele>
        <time>2012-02-26T11:47:03Z</time>
      </trkpt>
      <trkpt lat="45.35463" lon="1.20876">
        <ele>226</ele>
        <time>2012-02-26T11:47:05Z</time>
      </trkpt>
      <trkpt lat="45.35462" lon="1.20874">
        <ele>226</ele>
        <time>2012-02-26T11:47:07Z</time>
      </trkpt>
      <trkpt lat="45.35461" lon="1.20871">
        <ele>226</ele>
        <time>2012-02-26T11:47:09Z</time>
      </trkpt>
      <trkpt lat="45.35459" lon="1.2087">
        <ele>226</ele>
        <time>2012-02-26T11:47:11Z</time>
      </trkpt>
      <trkpt lat="45.35457" lon="1.20868">
        <ele>226</ele>
        <time>2012-02-26T11:47:13Z</time>
      </trkpt>
      <trkpt lat="45.35457" lon="1.20866">
        <ele>226</ele>
        <time>2012-02-26T11:47:15Z</time>
      </trkpt>
      <trkpt lat="45.35454" lon="1.20863">
        <ele>226</ele>
        <time>2012-02-26T11:47:18Z</time>
      </trkpt>
      <trkpt lat="45.35451" lon="1.2086">
        <ele>226</ele>
        <time>2012-02-26T11:47:20Z</time>
      </trkpt>
      <trkpt lat="45.3545" lon="1.20861">
        <ele>225</ele>
        <time>2012-02-26T11:47:22Z</time>
      </trkpt>
      <trkpt lat="45.35447" lon="1.20859">
        <ele>223</ele>
        <time>2012-02-26T11:47:25Z</time>
      </trkpt>
      <trkpt lat="45.35444" lon="1.2086">
        <ele>221</ele>
        <time>2012-02-26T11:47:27Z</time>
      </trkpt>
      <trkpt lat="45.35442" lon="1.20858">
        <ele>219</ele>
        <time>2012-02-26T11:47:29Z</time>
      </trkpt>
      <trkpt lat="45.35442" lon="1.20854">
        <ele>216</ele>
        <time>2012-02-26T11:47:32Z</time>
      </trkpt>
      <trkpt lat="45.35442" lon="1.20853">
        <ele>214</ele>
        <time>2012-02-26T11:47:34Z</time>
      </trkpt>
      <trkpt lat="45.35444" lon="1.20849">
        <ele>213</ele>
        <time>2012-02-26T11:47:36Z</time>
      </trkpt>
      <trkpt lat="45.35447" lon="1.20846">
        <ele>212</ele>
        <time>2012-02-26T11:47:38Z</time>
      </trkpt>
      <trkpt lat="45.3545" lon="1.20844">
        <ele>212</ele>
        <time>2012-02-26T11:47:40Z</time>
      </trkpt>
      <trkpt lat="45.35451" lon="1.20843">
        <ele>211</ele>
        <time>2012-02-26T11:47:42Z</time>
      </trkpt>
      <trkpt lat="45.35453" lon="1.20842">
        <ele>210</ele>
        <time>2012-02-26T11:47:44Z</time>
      </trkpt>
      <trkpt lat="45.35453" lon="1.20844">
        <ele>209</ele>
        <time>2012-02-26T11:47:46Z</time>
      </trkpt>
      <trkpt lat="45.35455" lon="1.20842">
        <ele>208</ele>
        <time>2012-02-26T11:47:51Z</time>
      </trkpt>
      <trkpt lat="45.35455" lon="1.20838">
        <ele>208</ele>
        <time>2012-02-26T11:47:53Z</time>
      </trkpt>
      <trkpt lat="45.35456" lon="1.20837">
        <ele>208</ele>
        <time>2012-02-26T11:47:55Z</time>
      </trkpt>
      <trkpt lat="45.35458" lon="1.20835">
        <ele>208</ele>
        <time>2012-02-26T11:47:57Z</time>
      </trkpt>
      <trkpt lat="45.35461" lon="1.20835">
        <ele>208</ele>
        <time>2012-02-26T11:47:59Z</time>
      </trkpt>
      <trkpt lat="45.35461" lon="1.20834">
        <ele>209</ele>
        <time>2012-02-26T11:48:01Z</time>
      </trkpt>
      <trkpt lat="45.35463" lon="1.20834">
        <ele>211</ele>
        <time>2012-02-26T11:48:04Z</time>
      </trkpt>
      <trkpt lat="45.35461" lon="1.20834">
        <ele>212</ele>
        <time>2012-02-26T11:48:06Z</time>
      </trkpt>
      <trkpt lat="45.35461" lon="1.20832">
        <ele>213</ele>
        <time>2012-02-26T11:48:09Z</time>
      </trkpt>
      <trkpt lat="45.3546" lon="1.2083">
        <ele>213</ele>
        <time>2012-02-26T11:48:12Z</time>
      </trkpt>
      <trkpt lat="45.35459" lon="1.20828">
        <ele>213</ele>
        <time>2012-02-26T11:48:14Z</time>
      </trkpt>
      <trkpt lat="45.35459" lon="1.20827">
        <ele>213</ele>
        <time>2012-02-26T11:48:16Z</time>
      </trkpt>
      <trkpt lat="45.35458" lon="1.20825">
        <ele>213</ele>
        <time>2012-02-26T11:48:18Z</time>
      </trkpt>
      <trkpt lat="45.35458" lon="1.20823">
        <ele>213</ele>
        <time>2012-02-26T11:48:20Z</time>
      </trkpt>
      <trkpt lat="45.35457" lon="1.20819">
        <ele>213</ele>
        <time>2012-02-26T11:48:24Z</time>
      </trkpt>
      <trkpt lat="45.35456" lon="1.20817">
        <ele>213</ele>
        <time>2012-02-26T11:48:27Z</time>
      </trkpt>
      <trkpt lat="45.35455" lon="1.20816">
        <ele>213</ele>
        <time>2012-02-26T11:48:31Z</time>
      </trkpt>
      <trkpt lat="45.35454" lon="1.20818">
        <ele>214</ele>
        <time>2012-02-26T11:48:36Z</time>
      </trkpt>
      <trkpt lat="45.35455" lon="1.20819">
        <ele>214</ele>
        <time>2012-02-26T11:48:38Z</time>
      </trkpt>
      <trkpt lat="45.35456" lon="1.20821">
        <ele>214</ele>
        <time>2012-02-26T11:48:41Z</time>
      </trkpt>
      <trkpt lat="45.35455" lon="1.20819">
        <ele>214</ele>
        <time>2012-02-26T11:48:46Z</time>
      </trkpt>
      <trkpt lat="45.35454" lon="1.20817">
        <ele>213</ele>
        <time>2012-02-26T11:48:52Z</time>
      </trkpt>
      <trkpt lat="45.35454" lon="1.20816">
        <ele>213</ele>
        <time>2012-02-26T11:48:59Z</time>
      </trkpt>
      <trkpt lat="45.35452" lon="1.20814">
        <ele>213</ele>
        <time>2012-02-26T11:49:02Z</time>
      </trkpt>
      <trkpt lat="45.35451" lon="1.20811">
        <ele>213</ele>
        <time>2012-02-26T11:49:04Z</time>
      </trkpt>
      <trkpt lat="45.3545" lon="1.2081">
        <ele>213</ele>
        <time>2012-02-26T11:49:17Z</time>
      </trkpt>
      <trkpt lat="45.35449" lon="1.20809">
        <ele>214</ele>
        <time>2012-02-26T11:49:19Z</time>
      </trkpt>
      <trkpt lat="45.35449" lon="1.20812">
        <ele>217</ele>
        <time>2012-02-26T11:49:22Z</time>
      </trkpt>
      <trkpt lat="45.35446" lon="1.20813">
        <ele>219</ele>
        <time>2012-02-26T11:49:24Z</time>
      </trkpt>
      <trkpt lat="45.35444" lon="1.20813">
        <ele>221</ele>
        <time>2012-02-26T11:49:26Z</time>
      </trkpt>
      <trkpt lat="45.35442" lon="1.20814">
        <ele>222</ele>
        <time>2012-02-26T11:49:28Z</time>
      </trkpt>
      <trkpt lat="45.3544" lon="1.20812">
        <ele>223</ele>
        <time>2012-02-26T11:49:31Z</time>
      </trkpt>
      <trkpt lat="45.35437" lon="1.20812">
        <ele>223</ele>
        <time>2012-02-26T11:49:33Z</time>
      </trkpt>
      <trkpt lat="45.35436" lon="1.20812">
        <ele>223</ele>
        <time>2012-02-26T11:49:35Z</time>
      </trkpt>
      <trkpt lat="45.35434" lon="1.20811">
        <ele>224</ele>
        <time>2012-02-26T11:49:42Z</time>
      </trkpt>
      <trkpt lat="45.35433" lon="1.2081">
        <ele>224</ele>
        <time>2012-02-26T11:49:44Z</time>
      </trkpt>
      <trkpt lat="45.35432" lon="1.20811">
        <ele>224</ele>
        <time>2012-02-26T11:49:46Z</time>
      </trkpt>
      <trkpt lat="45.35429" lon="1.2081">
        <ele>226</ele>
        <time>2012-02-26T11:49:48Z</time>
      </trkpt>
      <trkpt lat="45.35428" lon="1.2081">
        <ele>228</ele>
        <time>2012-02-26T11:49:50Z</time>
      </trkpt>
      <trkpt lat="45.35425" lon="1.20812">
        <ele>229</ele>
        <time>2012-02-26T11:49:53Z</time>
      </trkpt>
      <trkpt lat="45.35421" lon="1.20812">
        <ele>229</ele>
        <time>2012-02-26T11:49:55Z</time>
      </trkpt>
      <trkpt lat="45.35417" lon="1.20812">
        <ele>229</ele>
        <time>2012-02-26T11:49:58Z</time>
      </trkpt>
      <trkpt lat="45.35414" lon="1.2081">
        <ele>230</ele>
        <time>2012-02-26T11:50:00Z</time>
      </trkpt>
      <trkpt lat="45.35412" lon="1.20811">
        <ele>230</ele>
        <time>2012-02-26T11:50:02Z</time>
      </trkpt>
      <trkpt lat="45.35408" lon="1.20811">
        <ele>230</ele>
        <time>2012-02-26T11:50:04Z</time>
      </trkpt>
      <trkpt lat="45.35406" lon="1.20814">
        <ele>230</ele>
        <time>2012-02-26T11:50:06Z</time>
      </trkpt>
      <trkpt lat="45.35405" lon="1.20815">
        <ele>230</ele>
        <time>2012-02-26T11:50:08Z</time>
      </trkpt>
      <trkpt lat="45.35403" lon="1.20814">
        <ele>229</ele>
        <time>2012-02-26T11:50:14Z</time>
      </trkpt>
      <trkpt lat="45.35402" lon="1.20812">
        <ele>229</ele>
        <time>2012-02-26T11:50:16Z</time>
      </trkpt>
      <trkpt lat="45.354" lon="1.20811">
        <ele>229</ele>
        <time>2012-02-26T11:50:18Z</time>
      </trkpt>
      <trkpt lat="45.35399" lon="1.20813">
        <ele>229</ele>
        <time>2012-02-26T11:50:20Z</time>
      </trkpt>
      <trkpt lat="45.35397" lon="1.20814">
        <ele>229</ele>
        <time>2012-02-26T11:50:22Z</time>
      </trkpt>
      <trkpt lat="45.35396" lon="1.20815">
        <ele>229</ele>
        <time>2012-02-26T11:50:24Z</time>
      </trkpt>
      <trkpt lat="45.35392" lon="1.20817">
        <ele>229</ele>
        <time>2012-02-26T11:50:26Z</time>
      </trkpt>
      <trkpt lat="45.35389" lon="1.20818">
        <ele>229</ele>
        <time>2012-02-26T11:50:29Z</time>
      </trkpt>
      <trkpt lat="45.35388" lon="1.2082">
        <ele>229</ele>
        <time>2012-02-26T11:50:31Z</time>
      </trkpt>
      <trkpt lat="45.35387" lon="1.20818">
        <ele>229</ele>
        <time>2012-02-26T11:50:33Z</time>
      </trkpt>
      <trkpt lat="45.35385" lon="1.20815">
        <ele>229</ele>
        <time>2012-02-26T11:50:35Z</time>
      </trkpt>
      <trkpt lat="45.35384" lon="1.20813">
        <ele>229</ele>
        <time>2012-02-26T11:50:37Z</time>
      </trkpt>
      <trkpt lat="45.35381" lon="1.20813">
        <ele>231</ele>
        <time>2012-02-26T11:50:39Z</time>
      </trkpt>
      <trkpt lat="45.3538" lon="1.20812">
        <ele>232</ele>
        <time>2012-02-26T11:50:41Z</time>
      </trkpt>
      <trkpt lat="45.35377" lon="1.20812">
        <ele>235</ele>
        <time>2012-02-26T11:50:44Z</time>
      </trkpt>
      <trkpt lat="45.35376" lon="1.20811">
        <ele>237</ele>
        <time>2012-02-26T11:50:47Z</time>
      </trkpt>
      <trkpt lat="45.35374" lon="1.20811">
        <ele>238</ele>
        <time>2012-02-26T11:50:49Z</time>
      </trkpt>
      <trkpt lat="45.35372" lon="1.20811">
        <ele>239</ele>
        <time>2012-02-26T11:50:51Z</time>
      </trkpt>
      <trkpt lat="45.35371" lon="1.20811">
        <ele>240</ele>
        <time>2012-02-26T11:50:53Z</time>
      </trkpt>
      <trkpt lat="45.3537" lon="1.2081">
        <ele>242</ele>
        <time>2012-02-26T11:50:56Z</time>
      </trkpt>
      <trkpt lat="45.35366" lon="1.20809">
        <ele>243</ele>
        <time>2012-02-26T11:50:59Z</time>
      </trkpt>
      <trkpt lat="45.35363" lon="1.20808">
        <ele>244</ele>
        <time>2012-02-26T11:51:01Z</time>
      </trkpt>
      <trkpt lat="45.3536" lon="1.20808">
        <ele>244</ele>
        <time>2012-02-26T11:51:03Z</time>
      </trkpt>
      <trkpt lat="45.35357" lon="1.20807">
        <ele>244</ele>
        <time>2012-02-26T11:51:09Z</time>
      </trkpt>
      <trkpt lat="45.35355" lon="1.20805">
        <ele>244</ele>
        <time>2012-02-26T11:51:11Z</time>
      </trkpt>
      <trkpt lat="45.35352" lon="1.20805">
        <ele>244</ele>
        <time>2012-02-26T11:51:13Z</time>
      </trkpt>
      <trkpt lat="45.3535" lon="1.20805">
        <ele>244</ele>
        <time>2012-02-26T11:51:15Z</time>
      </trkpt>
      <trkpt lat="45.35348" lon="1.20804">
        <ele>244</ele>
        <time>2012-02-26T11:51:17Z</time>
      </trkpt>
      <trkpt lat="45.35346" lon="1.20802">
        <ele>244</ele>
        <time>2012-02-26T11:51:19Z</time>
      </trkpt>
      <trkpt lat="45.35343" lon="1.20801">
        <ele>244</ele>
        <time>2012-02-26T11:51:21Z</time>
      </trkpt>
      <trkpt lat="45.35342" lon="1.208">
        <ele>244</ele>
        <time>2012-02-26T11:51:23Z</time>
      </trkpt>
      <trkpt lat="45.3534" lon="1.208">
        <ele>246</ele>
        <time>2012-02-26T11:51:26Z</time>
      </trkpt>
      <trkpt lat="45.35338" lon="1.20801">
        <ele>249</ele>
        <time>2012-02-26T11:51:29Z</time>
      </trkpt>
      <trkpt lat="45.35336" lon="1.20799">
        <ele>250</ele>
        <time>2012-02-26T11:51:32Z</time>
      </trkpt>
      <trkpt lat="45.35332" lon="1.20797">
        <ele>250</ele>
        <time>2012-02-26T11:51:34Z</time>
      </trkpt>
      <trkpt lat="45.3533" lon="1.20797">
        <ele>250</ele>
        <time>2012-02-26T11:51:36Z</time>
      </trkpt>
      <trkpt lat="45.35327" lon="1.20797">
        <ele>250</ele>
        <time>2012-02-26T11:51:38Z</time>
      </trkpt>
      <trkpt lat="45.35324" lon="1.20797">
        <ele>250</ele>
        <time>2012-02-26T11:51:41Z</time>
      </trkpt>
      <trkpt lat="45.35323" lon="1.20796">
        <ele>252</ele>
        <time>2012-02-26T11:51:44Z</time>
      </trkpt>
      <trkpt lat="45.35321" lon="1.20795">
        <ele>253</ele>
        <time>2012-02-26T11:51:46Z</time>
      </trkpt>
      <trkpt lat="45.35318" lon="1.20794">
        <ele>253</ele>
        <time>2012-02-26T11:51:48Z</time>
      </trkpt>
      <trkpt lat="45.35317" lon="1.20796">
        <ele>253</ele>
        <time>2012-02-26T11:51:50Z</time>
      </trkpt>
      <trkpt lat="45.35315" lon="1.20798">
        <ele>253</ele>
        <time>2012-02-26T11:51:52Z</time>
      </trkpt>
      <trkpt lat="45.35313" lon="1.20801">
        <ele>253</ele>
        <time>2012-02-26T11:51:55Z</time>
      </trkpt>
      <trkpt lat="45.35311" lon="1.20802">
        <ele>253</ele>
        <time>2012-02-26T11:51:57Z</time>
      </trkpt>
      <trkpt lat="45.35309" lon="1.20804">
        <ele>253</ele>
        <time>2012-02-26T11:51:59Z</time>
      </trkpt>
      <trkpt lat="45.3531" lon="1.20806">
        <ele>253</ele>
        <time>2012-02-26T11:52:02Z</time>
      </trkpt>
      <trkpt lat="45.35309" lon="1.20807">
        <ele>253</ele>
        <time>2012-02-26T11:52:05Z</time>
      </trkpt>
      <trkpt lat="45.35309" lon="1.20809">
        <ele>253</ele>
        <time>2012-02-26T11:52:07Z</time>
      </trkpt>
      <trkpt lat="45.35307" lon="1.2081">
        <ele>255</ele>
        <time>2012-02-26T11:52:09Z</time>
      </trkpt>
      <trkpt lat="45.35305" lon="1.20812">
        <ele>257</ele>
        <time>2012-02-26T11:52:11Z</time>
      </trkpt>
      <trkpt lat="45.35304" lon="1.20814">
        <ele>257</ele>
        <time>2012-02-26T11:52:13Z</time>
      </trkpt>
      <trkpt lat="45.35302" lon="1.20815">
        <ele>258</ele>
        <time>2012-02-26T11:52:15Z</time>
      </trkpt>
      <trkpt lat="45.353" lon="1.20814">
        <ele>259</ele>
        <time>2012-02-26T11:52:17Z</time>
      </trkpt>
      <trkpt lat="45.35297" lon="1.20816">
        <ele>260</ele>
        <time>2012-02-26T11:52:19Z</time>
      </trkpt>
      <trkpt lat="45.35296" lon="1.20815">
        <ele>261</ele>
        <time>2012-02-26T11:52:22Z</time>
      </trkpt>
      <trkpt lat="45.35295" lon="1.20817">
        <ele>261</ele>
        <time>2012-02-26T11:52:24Z</time>
      </trkpt>
      <trkpt lat="45.35294" lon="1.20817">
        <ele>261</ele>
        <time>2012-02-26T11:52:26Z</time>
      </trkpt>
      <trkpt lat="45.35292" lon="1.20819">
        <ele>261</ele>
        <time>2012-02-26T11:52:31Z</time>
      </trkpt>
      <trkpt lat="45.35291" lon="1.20819">
        <ele>261</ele>
        <time>2012-02-26T11:52:33Z</time>
      </trkpt>
      <trkpt lat="45.35289" lon="1.20819">
        <ele>261</ele>
        <time>2012-02-26T11:52:35Z</time>
      </trkpt>
      <trkpt lat="45.35288" lon="1.20819">
        <ele>261</ele>
        <time>2012-02-26T11:52:38Z</time>
      </trkpt>
      <trkpt lat="45.35288" lon="1.20821">
        <ele>261</ele>
        <time>2012-02-26T11:52:42Z</time>
      </trkpt>
      <trkpt lat="45.35286" lon="1.20822">
        <ele>261</ele>
        <time>2012-02-26T11:52:45Z</time>
      </trkpt>
      <trkpt lat="45.35285" lon="1.20824">
        <ele>261</ele>
        <time>2012-02-26T11:52:49Z</time>
      </trkpt>
      <trkpt lat="45.35282" lon="1.20827">
        <ele>261</ele>
        <time>2012-02-26T11:52:51Z</time>
      </trkpt>
      <trkpt lat="45.3528" lon="1.20828">
        <ele>263</ele>
        <time>2012-02-26T11:52:53Z</time>
      </trkpt>
      <trkpt lat="45.35276" lon="1.2083">
        <ele>265</ele>
        <time>2012-02-26T11:52:55Z</time>
      </trkpt>
      <trkpt lat="45.35275" lon="1.2083">
        <ele>268</ele>
        <time>2012-02-26T11:52:58Z</time>
      </trkpt>
      <trkpt lat="45.35273" lon="1.20832">
        <ele>268</ele>
        <time>2012-02-26T11:53:00Z</time>
      </trkpt>
      <trkpt lat="45.35273" lon="1.20834">
        <ele>268</ele>
        <time>2012-02-26T11:53:02Z</time>
      </trkpt>
      <trkpt lat="45.35272" lon="1.20836">
        <ele>268</ele>
        <time>2012-02-26T11:53:04Z</time>
      </trkpt>
      <trkpt lat="45.3527" lon="1.20838">
        <ele>268</ele>
        <time>2012-02-26T11:53:07Z</time>
      </trkpt>
      <trkpt lat="45.35268" lon="1.20839">
        <ele>268</ele>
        <time>2012-02-26T11:53:09Z</time>
      </trkpt>
      <trkpt lat="45.35267" lon="1.20842">
        <ele>268</ele>
        <time>2012-02-26T11:53:11Z</time>
      </trkpt>
      <trkpt lat="45.35265" lon="1.20846">
        <ele>268</ele>
        <time>2012-02-26T11:53:14Z</time>
      </trkpt>
      <trkpt lat="45.35263" lon="1.20846">
        <ele>268</ele>
        <time>2012-02-26T11:53:16Z</time>
      </trkpt>
      <trkpt lat="45.35261" lon="1.20847">
        <ele>268</ele>
        <time>2012-02-26T11:53:18Z</time>
      </trkpt>
      <trkpt lat="45.35257" lon="1.20847">
        <ele>268</ele>
        <time>2012-02-26T11:53:20Z</time>
      </trkpt>
      <trkpt lat="45.35257" lon="1.20848">
        <ele>265</ele>
        <time>2012-02-26T11:53:24Z</time>
      </trkpt>
      <trkpt lat="45.35255" lon="1.20849">
        <ele>265</ele>
        <time>2012-02-26T11:53:26Z</time>
      </trkpt>
      <trkpt lat="45.35254" lon="1.20852">
        <ele>264</ele>
        <time>2012-02-26T11:53:28Z</time>
      </trkpt>
      <trkpt lat="45.35251" lon="1.20856">
        <ele>263</ele>
        <time>2012-02-26T11:53:30Z</time>
      </trkpt>
      <trkpt lat="45.3525" lon="1.20858">
        <ele>261</ele>
        <time>2012-02-26T11:53:32Z</time>
      </trkpt>
      <trkpt lat="45.35248" lon="1.2086">
        <ele>258</ele>
        <time>2012-02-26T11:53:36Z</time>
      </trkpt>
      <trkpt lat="45.35245" lon="1.2086">
        <ele>257</ele>
        <time>2012-02-26T11:53:38Z</time>
      </trkpt>
      <trkpt lat="45.35242" lon="1.20863">
        <ele>255</ele>
        <time>2012-02-26T11:53:40Z</time>
      </trkpt>
      <trkpt lat="45.35241" lon="1.20866">
        <ele>254</ele>
        <time>2012-02-26T11:53:42Z</time>
      </trkpt>
      <trkpt lat="45.35239" lon="1.20868">
        <ele>254</ele>
        <time>2012-02-26T11:53:44Z</time>
      </trkpt>
      <trkpt lat="45.35237" lon="1.20871">
        <ele>254</ele>
        <time>2012-02-26T11:53:46Z</time>
      </trkpt>
      <trkpt lat="45.35235" lon="1.20871">
        <ele>254</ele>
        <time>2012-02-26T11:53:48Z</time>
      </trkpt>
      <trkpt lat="45.35233" lon="1.20871">
        <ele>254</ele>
        <time>2012-02-26T11:53:50Z</time>
      </trkpt>
      <trkpt lat="45.35231" lon="1.20872">
        <ele>254</ele>
        <time>2012-02-26T11:53:52Z</time>
      </trkpt>
      <trkpt lat="45.3523" lon="1.2087">
        <ele>254</ele>
        <time>2012-02-26T11:53:55Z</time>
      </trkpt>
      <trkpt lat="45.3523" lon="1.20869">
        <ele>254</ele>
        <time>2012-02-26T11:53:58Z</time>
      </trkpt>
      <trkpt lat="45.3523" lon="1.20867">
        <ele>255</ele>
        <time>2012-02-26T11:54:01Z</time>
      </trkpt>
      <trkpt lat="45.35229" lon="1.20865">
        <ele>257</ele>
        <time>2012-02-26T11:54:03Z</time>
      </trkpt>
      <trkpt lat="45.35229" lon="1.20863">
        <ele>258</ele>
        <time>2012-02-26T11:54:06Z</time>
      </trkpt>
      <trkpt lat="45.3523" lon="1.2086">
        <ele>259</ele>
        <time>2012-02-26T11:54:09Z</time>
      </trkpt>
      <trkpt lat="45.35228" lon="1.2086">
        <ele>261</ele>
        <time>2012-02-26T11:54:11Z</time>
      </trkpt>
      <trkpt lat="45.35229" lon="1.20858">
        <ele>262</ele>
        <time>2012-02-26T11:54:14Z</time>
      </trkpt>
      <trkpt lat="45.35229" lon="1.20856">
        <ele>262</ele>
        <time>2012-02-26T11:54:16Z</time>
      </trkpt>
      <trkpt lat="45.35228" lon="1.20857">
        <ele>263</ele>
        <time>2012-02-26T11:54:20Z</time>
      </trkpt>
      <trkpt lat="45.35227" lon="1.20859">
        <ele>264</ele>
        <time>2012-02-26T11:54:24Z</time>
      </trkpt>
      <trkpt lat="45.35226" lon="1.20859">
        <ele>264</ele>
        <time>2012-02-26T11:54:26Z</time>
      </trkpt>
      <trkpt lat="45.35226" lon="1.20858">
        <ele>264</ele>
        <time>2012-02-26T11:54:28Z</time>
      </trkpt>
      <trkpt lat="45.35224" lon="1.20856">
        <ele>264</ele>
        <time>2012-02-26T11:54:31Z</time>
      </trkpt>
      <trkpt lat="45.35223" lon="1.20854">
        <ele>264</ele>
        <time>2012-02-26T11:54:35Z</time>
      </trkpt>
      <trkpt lat="45.3522" lon="1.20854">
        <ele>264</ele>
        <time>2012-02-26T11:54:37Z</time>
      </trkpt>
      <trkpt lat="45.35218" lon="1.20855">
        <ele>264</ele>
        <time>2012-02-26T11:54:39Z</time>
      </trkpt>
      <trkpt lat="45.35216" lon="1.20857">
        <ele>264</ele>
        <time>2012-02-26T11:54:41Z</time>
      </trkpt>
      <trkpt lat="45.35213" lon="1.20859">
        <ele>263</ele>
        <time>2012-02-26T11:54:44Z</time>
      </trkpt>
      <trkpt lat="45.35211" lon="1.20857">
        <ele>261</ele>
        <time>2012-02-26T11:54:46Z</time>
      </trkpt>
      <trkpt lat="45.3521" lon="1.20855">
        <ele>260</ele>
        <time>2012-02-26T11:54:48Z</time>
      </trkpt>
      <trkpt lat="45.35208" lon="1.20853">
        <ele>259</ele>
        <time>2012-02-26T11:54:50Z</time>
      </trkpt>
      <trkpt lat="45.35206" lon="1.20852">
        <ele>258</ele>
        <time>2012-02-26T11:54:52Z</time>
      </trkpt>
      <trkpt lat="45.35205" lon="1.20854">
        <ele>257</ele>
        <time>2012-02-26T11:54:55Z</time>
      </trkpt>
      <trkpt lat="45.35202" lon="1.20853">
        <ele>257</ele>
        <time>2012-02-26T11:54:58Z</time>
      </trkpt>
      <trkpt lat="45.35199" lon="1.20853">
        <ele>257</ele>
        <time>2012-02-26T11:55:00Z</time>
      </trkpt>
      <trkpt lat="45.35195" lon="1.20853">
        <ele>257</ele>
        <time>2012-02-26T11:55:02Z</time>
      </trkpt>
      <trkpt lat="45.3519" lon="1.20852">
        <ele>257</ele>
        <time>2012-02-26T11:55:04Z</time>
      </trkpt>
      <trkpt lat="45.35186" lon="1.20848">
        <ele>257</ele>
        <time>2012-02-26T11:55:06Z</time>
      </trkpt>
      <trkpt lat="45.35181" lon="1.20846">
        <ele>257</ele>
        <time>2012-02-26T11:55:08Z</time>
      </trkpt>
      <trkpt lat="45.35177" lon="1.20844">
        <ele>257</ele>
        <time>2012-02-26T11:55:11Z</time>
      </trkpt>
      <trkpt lat="45.35175" lon="1.20839">
        <ele>257</ele>
        <time>2012-02-26T11:55:14Z</time>
      </trkpt>
      <trkpt lat="45.35173" lon="1.20838">
        <ele>257</ele>
        <time>2012-02-26T11:55:16Z</time>
      </trkpt>
      <trkpt lat="45.35171" lon="1.20836">
        <ele>257</ele>
        <time>2012-02-26T11:55:18Z</time>
      </trkpt>
      <trkpt lat="45.3517" lon="1.20835">
        <ele>257</ele>
        <time>2012-02-26T11:55:20Z</time>
      </trkpt>
      <trkpt lat="45.3517" lon="1.20833">
        <ele>257</ele>
        <time>2012-02-26T11:55:22Z</time>
      </trkpt>
      <trkpt lat="45.35172" lon="1.2083">
        <ele>257</ele>
        <time>2012-02-26T11:55:24Z</time>
      </trkpt>
      <trkpt lat="45.35174" lon="1.20826">
        <ele>257</ele>
        <time>2012-02-26T11:55:26Z</time>
      </trkpt>
      <trkpt lat="45.35173" lon="1.20823">
        <ele>257</ele>
        <time>2012-02-26T11:55:29Z</time>
      </trkpt>
      <trkpt lat="45.35174" lon="1.2082">
        <ele>257</ele>
        <time>2012-02-26T11:55:31Z</time>
      </trkpt>
      <trkpt lat="45.35173" lon="1.20816">
        <ele>257</ele>
        <time>2012-02-26T11:55:33Z</time>
      </trkpt>
      <trkpt lat="45.35173" lon="1.20814">
        <ele>257</ele>
        <time>2012-02-26T11:55:35Z</time>
      </trkpt>
      <trkpt lat="45.35173" lon="1.20811">
        <ele>257</ele>
        <time>2012-02-26T11:55:37Z</time>
      </trkpt>
      <trkpt lat="45.35174" lon="1.20809">
        <ele>256</ele>
        <time>2012-02-26T11:55:39Z</time>
      </trkpt>
      <trkpt lat="45.35173" lon="1.20807">
        <ele>256</ele>
        <time>2012-02-26T11:55:41Z</time>
      </trkpt>
      <trkpt lat="45.35172" lon="1.20805">
        <ele>256</ele>
        <time>2012-02-26T11:55:43Z</time>
      </trkpt>
      <trkpt lat="45.35173" lon="1.20802">
        <ele>256</ele>
        <time>2012-02-26T11:55:45Z</time>
      </trkpt>
      <trkpt lat="45.35174" lon="1.20801">
        <ele>256</ele>
        <time>2012-02-26T11:55:47Z</time>
      </trkpt>
      <trkpt lat="45.35176" lon="1.20797">
        <ele>256</ele>
        <time>2012-02-26T11:55:50Z</time>
      </trkpt>
      <trkpt lat="45.35175" lon="1.20794">
        <ele>256</ele>
        <time>2012-02-26T11:55:52Z</time>
      </trkpt>
      <trkpt lat="45.35174" lon="1.20791">
        <ele>256</ele>
        <time>2012-02-26T11:55:54Z</time>
      </trkpt>
      <trkpt lat="45.35172" lon="1.20788">
        <ele>257</ele>
        <time>2012-02-26T11:55:56Z</time>
      </trkpt>
      <trkpt lat="45.35172" lon="1.20784">
        <ele>258</ele>
        <time>2012-02-26T11:55:58Z</time>
      </trkpt>
      <trkpt lat="45.35174" lon="1.2078">
        <ele>258</ele>
        <time>2012-02-26T11:56:01Z</time>
      </trkpt>
      <trkpt lat="45.35176" lon="1.20776">
        <ele>259</ele>
        <time>2012-02-26T11:56:04Z</time>
      </trkpt>
      <trkpt lat="45.35177" lon="1.20774">
        <ele>260</ele>
        <time>2012-02-26T11:56:06Z</time>
      </trkpt>
      <trkpt lat="45.35179" lon="1.20771">
        <ele>260</ele>
        <time>2012-02-26T11:56:08Z</time>
      </trkpt>
      <trkpt lat="45.3518" lon="1.20767">
        <ele>260</ele>
        <time>2012-02-26T11:56:11Z</time>
      </trkpt>
      <trkpt lat="45.3518" lon="1.20764">
        <ele>260</ele>
        <time>2012-02-26T11:56:13Z</time>
      </trkpt>
      <trkpt lat="45.35182" lon="1.20763">
        <ele>260</ele>
        <time>2012-02-26T11:56:16Z</time>
      </trkpt>
      <trkpt lat="45.35183" lon="1.2076">
        <ele>261</ele>
        <time>2012-02-26T11:56:18Z</time>
      </trkpt>
      <trkpt lat="45.35183" lon="1.20756">
        <ele>261</ele>
        <time>2012-02-26T11:56:21Z</time>
      </trkpt>
      <trkpt lat="45.35183" lon="1.20754">
        <ele>262</ele>
        <time>2012-02-26T11:56:23Z</time>
      </trkpt>
      <trkpt lat="45.35183" lon="1.20752">
        <ele>263</ele>
        <time>2012-02-26T11:56:25Z</time>
      </trkpt>
      <trkpt lat="45.35184" lon="1.2075">
        <ele>263</ele>
        <time>2012-02-26T11:56:27Z</time>
      </trkpt>
      <trkpt lat="45.35185" lon="1.20747">
        <ele>263</ele>
        <time>2012-02-26T11:56:29Z</time>
      </trkpt>
      <trkpt lat="45.35185" lon="1.20745">
        <ele>263</ele>
        <time>2012-02-26T11:56:31Z</time>
      </trkpt>
      <trkpt lat="45.35185" lon="1.20742">
        <ele>263</ele>
        <time>2012-02-26T11:56:33Z</time>
      </trkpt>
      <trkpt lat="45.35184" lon="1.20739">
        <ele>263</ele>
        <time>2012-02-26T11:56:35Z</time>
      </trkpt>
      <trkpt lat="45.35185" lon="1.20735">
        <ele>263</ele>
        <time>2012-02-26T11:56:38Z</time>
      </trkpt>
      <trkpt lat="45.35186" lon="1.20732">
        <ele>263</ele>
        <time>2012-02-26T11:56:40Z</time>
      </trkpt>
      <trkpt lat="45.35187" lon="1.20729">
        <ele>263</ele>
        <time>2012-02-26T11:56:42Z</time>
      </trkpt>
      <trkpt lat="45.35189" lon="1.20726">
        <ele>263</ele>
        <time>2012-02-26T11:56:45Z</time>
      </trkpt>
      <trkpt lat="45.35191" lon="1.2072">
        <ele>263</ele>
        <time>2012-02-26T11:56:48Z</time>
      </trkpt>
      <trkpt lat="45.35191" lon="1.20716">
        <ele>263</ele>
        <time>2012-02-26T11:56:50Z</time>
      </trkpt>
      <trkpt lat="45.35193" lon="1.20713">
        <ele>263</ele>
        <time>2012-02-26T11:56:52Z</time>
      </trkpt>
      <trkpt lat="45.35193" lon="1.20706">
        <ele>264</ele>
        <time>2012-02-26T11:56:54Z</time>
      </trkpt>
      <trkpt lat="45.35193" lon="1.20702">
        <ele>266</ele>
        <time>2012-02-26T11:56:56Z</time>
      </trkpt>
      <trkpt lat="45.35193" lon="1.20698">
        <ele>267</ele>
        <time>2012-02-26T11:56:58Z</time>
      </trkpt>
      <trkpt lat="45.35194" lon="1.20694">
        <ele>268</ele>
        <time>2012-02-26T11:57:00Z</time>
      </trkpt>
      <trkpt lat="45.35195" lon="1.20689">
        <ele>269</ele>
        <time>2012-02-26T11:57:03Z</time>
      </trkpt>
      <trkpt lat="45.35196" lon="1.20687">
        <ele>270</ele>
        <time>2012-02-26T11:57:05Z</time>
      </trkpt>
      <trkpt lat="45.35198" lon="1.20684">
        <ele>270</ele>
        <time>2012-02-26T11:57:07Z</time>
      </trkpt>
      <trkpt lat="45.352" lon="1.20679">
        <ele>270</ele>
        <time>2012-02-26T11:57:10Z</time>
      </trkpt>
      <trkpt lat="45.35201" lon="1.20676">
        <ele>270</ele>
        <time>2012-02-26T11:57:13Z</time>
      </trkpt>
      <trkpt lat="45.35202" lon="1.20671">
        <ele>270</ele>
        <time>2012-02-26T11:57:16Z</time>
      </trkpt>
      <trkpt lat="45.35203" lon="1.20667">
        <ele>270</ele>
        <time>2012-02-26T11:57:18Z</time>
      </trkpt>
      <trkpt lat="45.35202" lon="1.20664">
        <ele>270</ele>
        <time>2012-02-26T11:57:20Z</time>
      </trkpt>
      <trkpt lat="45.35203" lon="1.20661">
        <ele>270</ele>
        <time>2012-02-26T11:57:22Z</time>
      </trkpt>
      <trkpt lat="45.35203" lon="1.20657">
        <ele>270</ele>
        <time>2012-02-26T11:57:24Z</time>
      </trkpt>
      <trkpt lat="45.35204" lon="1.2065">
        <ele>270</ele>
        <time>2012-02-26T11:57:26Z</time>
      </trkpt>
      <trkpt lat="45.35204" lon="1.20645">
        <ele>270</ele>
        <time>2012-02-26T11:57:28Z</time>
      </trkpt>
      <trkpt lat="45.35204" lon="1.20642">
        <ele>272</ele>
        <time>2012-02-26T11:57:30Z</time>
      </trkpt>
      <trkpt lat="45.35204" lon="1.20639">
        <ele>273</ele>
        <time>2012-02-26T11:57:32Z</time>
      </trkpt>
      <trkpt lat="45.35204" lon="1.20636">
        <ele>274</ele>
        <time>2012-02-26T11:57:34Z</time>
      </trkpt>
      <trkpt lat="45.35204" lon="1.20633">
        <ele>274</ele>
        <time>2012-02-26T11:57:36Z</time>
      </trkpt>
      <trkpt lat="45.35204" lon="1.2063">
        <ele>274</ele>
        <time>2012-02-26T11:57:38Z</time>
      </trkpt>
      <trkpt lat="45.35204" lon="1.20625">
        <ele>274</ele>
        <time>2012-02-26T11:57:40Z</time>
      </trkpt>
      <trkpt lat="45.35203" lon="1.20618">
        <ele>275</ele>
        <time>2012-02-26T11:57:42Z</time>
      </trkpt>
      <trkpt lat="45.35202" lon="1.20611">
        <ele>276</ele>
        <time>2012-02-26T11:57:44Z</time>
      </trkpt>
      <trkpt lat="45.35201" lon="1.20606">
        <ele>276</ele>
        <time>2012-02-26T11:57:46Z</time>
      </trkpt>
      <trkpt lat="45.352" lon="1.20599">
        <ele>277</ele>
        <time>2012-02-26T11:57:48Z</time>
      </trkpt>
      <trkpt lat="45.35199" lon="1.2059">
        <ele>277</ele>
        <time>2012-02-26T11:57:50Z</time>
      </trkpt>
      <trkpt lat="45.35197" lon="1.20581">
        <ele>277</ele>
        <time>2012-02-26T11:57:52Z</time>
      </trkpt>
      <trkpt lat="45.35195" lon="1.20573">
        <ele>277</ele>
        <time>2012-02-26T11:57:54Z</time>
      </trkpt>
      <trkpt lat="45.35193" lon="1.20564">
        <ele>278</ele>
        <time>2012-02-26T11:57:56Z</time>
      </trkpt>
      <trkpt lat="45.35193" lon="1.20557">
        <ele>279</ele>
        <time>2012-02-26T11:57:58Z</time>
      </trkpt>
      <trkpt lat="45.35197" lon="1.20552">
        <ele>280</ele>
        <time>2012-02-26T11:58:00Z</time>
      </trkpt>
      <trkpt lat="45.35201" lon="1.2055">
        <ele>280</ele>
        <time>2012-02-26T11:58:02Z</time>
      </trkpt>
      <trkpt lat="45.35206" lon="1.20549">
        <ele>280</ele>
        <time>2012-02-26T11:58:04Z</time>
      </trkpt>
      <trkpt lat="45.35211" lon="1.20549">
        <ele>280</ele>
        <time>2012-02-26T11:58:06Z</time>
      </trkpt>
      <trkpt lat="45.35216" lon="1.20548">
        <ele>280</ele>
        <time>2012-02-26T11:58:08Z</time>
      </trkpt>
      <trkpt lat="45.35224" lon="1.20545">
        <ele>281</ele>
        <time>2012-02-26T11:58:11Z</time>
      </trkpt>
      <trkpt lat="45.35229" lon="1.20544">
        <ele>282</ele>
        <time>2012-02-26T11:58:13Z</time>
      </trkpt>
      <trkpt lat="45.35233" lon="1.20542">
        <ele>284</ele>
        <time>2012-02-26T11:58:15Z</time>
      </trkpt>
      <trkpt lat="45.35238" lon="1.20541">
        <ele>285</ele>
        <time>2012-02-26T11:58:17Z</time>
      </trkpt>
      <trkpt lat="45.35243" lon="1.2054">
        <ele>286</ele>
        <time>2012-02-26T11:58:19Z</time>
      </trkpt>
      <trkpt lat="45.35248" lon="1.20539">
        <ele>287</ele>
        <time>2012-02-26T11:58:21Z</time>
      </trkpt>
      <trkpt lat="45.35251" lon="1.20538">
        <ele>288</ele>
        <time>2012-02-26T11:58:24Z</time>
      </trkpt>
      <trkpt lat="45.3525" lon="1.2054">
        <ele>288</ele>
        <time>2012-02-26T11:58:30Z</time>
      </trkpt>
      <trkpt lat="45.35249" lon="1.20542">
        <ele>288</ele>
        <time>2012-02-26T11:58:36Z</time>
      </trkpt>
      <trkpt lat="45.35247" lon="1.20542">
        <ele>288</ele>
        <time>2012-02-26T11:58:50Z</time>
      </trkpt>
      <trkpt lat="45.35246" lon="1.20542">
        <ele>290</ele>
        <time>2012-02-26T11:58:56Z</time>
      </trkpt>
      <trkpt lat="45.35246" lon="1.20542">
        <ele>292</ele>
        <time>2012-02-26T11:59:56Z</time>
      </trkpt>
    </trkseg>
  </trk>
</gpx>